MPMG - Transparência

Contra-cheque - Remuneração de todos os servidores ativos - Pré Resolução CNMP 200/2019

Período: 2016 - Junho

Ordem Matrícula Nome Cargo Efetivo Situação Unidade Administrativa Rendimentos Descontos Rendimento Líquido Total Indenizações Outras Remunerações Retroativas/Temporárias Data de Referência
Remuneração Básica Remuneração Eventual ou Temporária Total de Rendimentos Brutos Obrigatórios/Legais Total de Descontos
Remuneração do Cargo Efetivo Outras Verbas Remuneratórias Função de Confiança ou Cargo em Comissão Gratificação Natalina Férias Abono de Permanência Contribuição Previdenciária Imposto de Renda Retenção por Teto Constitucional
1 498900 ABDON MARCIO BARBOSA DA SILVA OFICIAL DO MP ATIVO ABRE CAMPO - COMARCA; ABRE CAMPO-PJ-01PJ 4.111,87 246,71 0,00 1.868,69 1.452,86 0,00 7.680,13 583,09 440,53 0,00 1.023,62 6.656,51 1.423,23 942,65 30/06/2016
2 177800 ADALBERTO MENEZES FARIA SAMORA OFICIAL DO MP ATIVO BELO HORIZONTE - COMARCA; CGMP-DIVIS DE APOIO FISC ORIENTACAO FUNCIONAL 11.105,40 3.331,62 0,00 7.218,51 0,00 0,00 21.655,53 2.056,72 2.782,63 0,00 4.839,35 16.816,18 1.437,97 4.260,35 30/06/2016
3 306400 ADALBERTO MOREIRA GONCALVES ANALISTA DO MP ATIVO BELO HORIZONTE - COMARCA; BH-24PJ JUIZO REGIONAL DO BARREIRO 12.225,81 2.445,16 0,00 7.335,49 0,00 0,00 22.006,46 2.260,81 3.379,49 0,00 5.640,30 16.366,16 1.433,60 6.093,54 30/06/2016
4 179300 ADENISE AUXILIADORA SOUZA SAD OFICIAL DO MP ATIVO BARBACENA - COMARCA; BARBACENA-PJ-06PJ 10.755,28 3.226,58 0,00 4.997,71 0,00 0,00 18.979,57 1.996,13 2.664,20 0,00 4.660,33 14.319,24 982,66 4.164,77 30/06/2016
5 77700 ADIL EXPEDITO DE OLIVEIRA JUNIOR ASSESSOR ATIVO BELO HORIZONTE - COMARCA; ASSESSORIA PSICOSSOCIAL 0,00 7.099,47 8.874,34 7.986,91 0,00 1.757,12 25.717,84 2.175,47 3.638,48 0,00 5.813,95 19.903,89 1.243,21 4.640,05 30/06/2016
6 272200 ADILSON BATISTA ORNELAS OFICIAL DO MP ATIVO LAVRAS - COMARCA; LAVRAS-PJ-SECRETARIA 4.383,93 876,79 0,00 2.630,36 0,00 0,00 7.891,08 716,43 289,36 0,00 1.005,79 6.885,29 799,00 1.252,55 30/06/2016
7 380100 ADILSON GONCALVES DE MELO JUNIOR ANALISTA DO MP ATIVO ARAXÁ - COMARCA; ARAXA-PJ-05PJ 8.594,48 859,45 0,00 4.726,97 0,00 0,00 14.180,90 1.272,13 1.340,22 0,00 2.612,35 11.568,55 1.064,36 2.111,25 30/06/2016
8 148800 ADILSON JANUARIO OFICIAL DO MP ATIVO BELO HORIZONTE - COMARCA; BH-22PJ PES COM DEF E IDOSOS-SECRETARIA 12.225,81 8.558,06 0,00 10.391,94 0,00 0,00 31.175,81 2.751,38 4.113,22 0,00 6.864,60 24.311,21 987,45 4.228,75 30/06/2016
9 322601 ADMILSON SILVEIRA ANALISTA DO MP ATIVO SAO JOAO DO PARAISO COMARCA; SAO JOAO DO PARAISO-PJ-UNPJ 5.572,67 0,00 0,00 2.786,34 0,00 0,00 8.359,01 754,34 494,55 0,00 1.248,89 7.110,12 799,00 1.285,00 30/06/2016
10 333700 ADRIANA ABRITTA TEIXEIRA OFICIAL DO MP ATIVO BELO HORIZONTE - COMARCA; DIRET DE PESSOAL DO MINISTERIO PUBLICO - DPMP 7.322,31 1.464,46 0,00 4.393,39 0,00 0,00 13.180,16 1.190,06 1.281,20 0,00 2.471,26 10.708,90 799,00 2.031,63 30/06/2016
11 468500 ADRIANA APARECIDA FIRMINO ANALISTA DO MP ATIVO CARATINGA - COMARCA; CARATINGA-PJ-04PJ 7.806,95 780,70 0,00 4.293,83 0,00 0,00 12.881,48 1.154,54 1.180,33 0,00 2.334,87 10.546,61 2.063,00 1.908,20 30/06/2016
12 326100 ADRIANA AUGUSTA AMARAL BELO OFICIAL DO MP ATIVO BARBACENA - COMARCA; BARBACENA-PJ-08PJ 7.322,31 1.464,46 0,00 4.393,39 0,00 0,00 13.180,16 1.178,84 1.176,93 0,00 2.355,77 10.824,39 1.362,03 1.929,60 30/06/2016
13 605700 ADRIANA COSTA LIRA OFICIAL DO MP ATIVO BELO HORIZONTE - COMARCA; DIRET DE FORMACAO, APERFEIC. E POS-GRADUACAO 3.982,20 0,00 0,00 1.991,10 0,00 0,00 5.973,30 532,79 176,82 0,00 709,61 5.263,69 799,00 861,25 30/06/2016
14 541100 ADRIANA CRISTINA DE OLIVEIRA OFICIAL DO MP ATIVO GUAPÉ - COMARCA; GUAPE-PJ-UNPJ 3.735,01 224,10 0,00 0,00 0,00 0,00 3.959,11 530,25 145,30 0,00 675,55 3.283,56 1.431,00 918,67 30/06/2016
15 254800 ADRIANA DAS GRACAS FERNANDES ANALISTA DO MP ATIVO UBERABA - COMARCA; UBERABA-PJ-07PJ 12.623,91 6.311,95 0,00 9.467,93 0,00 0,00 28.403,79 2.563,24 3.713,06 0,00 6.276,30 22.127,49 799,00 4.366,45 30/06/2016
16 217400 ADRIANA DE CARVALHO CATAO BRAGA ASSESSOR ATIVO BELO HORIZONTE - COMARCA; EXTINTA - DIRETORIA DE CONTRATOS E CONVÊNIOS 0,00 2.092,08 6.973,61 4.532,85 143,90 0,00 13.742,44 570,88 1.726,01 0,00 2.296,89 11.445,55 799,00 2.158,50 30/06/2016
17 434600 ADRIANA FERREIRA DA SILVA ANALISTA DO MP ATIVO BELO HORIZONTE - COMARCA; BH-14PJ DEFESA CONSUMIDOR-GAB 112PJ 9.163,30 916,33 0,00 5.039,82 0,00 0,00 15.119,45 1.440,49 1.753,22 0,00 3.193,71 11.925,74 799,00 3.015,89 30/06/2016
18 499800 ADRIANA FERREIRA TIAGO OFICIAL DO MP ATIVO SALINAS - COMARCA; SALINAS-PJ-02PJ 4.902,32 294,14 0,00 2.598,23 0,00 0,00 7.794,69 695,26 404,46 0,00 1.099,72 6.694,97 833,56 1.198,77 30/06/2016
19 543400 ADRIANA GUIMARAES NUNES DE PAULA ANALISTA DO MP ATIVO PATROCÍNIO - COMARCA; PATROCINIO-PJ-01PJ 6.334,59 380,08 0,00 3.357,34 0,00 0,00 10.072,01 899,26 774,06 0,00 1.673,32 8.398,69 799,00 1.469,57 30/06/2016
20 471500 ADRIANA HORTA DE CARVALHO RODRIGUES DE SOUSA ANALISTA DO MP ATIVO BELO HORIZONTE - COMARCA; GRUPO ESP PROM PROC JUST DEF PROB ADM PAT PUB 7.806,95 780,70 0,00 0,00 0,00 0,00 8.587,65 1.154,54 1.180,33 0,00 2.334,87 6.252,78 1.812,64 1.908,20 30/06/2016
21 86400 ADRIANA MOREIRA CALDEIRA BRANT OFICIAL DO MP ATIVO BELO HORIZONTE - COMARCA; EXTINTA-TUTELA DAS FUNDACOES-21 PJ- GABINETE 10.755,28 5.377,64 0,00 8.066,46 0,00 0,00 24.199,38 2.183,87 3.079,17 0,00 5.263,04 18.936,34 1.100,17 3.720,10 30/06/2016
22 480700 ADRIANA MOREIRA DE AVELLAR CEZILIO OFICIAL DO MP ATIVO BELO HORIZONTE - COMARCA; EXTINTA - DIVISAO DE MATERIAL DE CONSUMO 4.245,74 424,57 0,00 1.971,39 0,00 0,00 6.641,70 627,88 213,79 0,00 841,67 5.800,03 1.431,00 1.037,75 30/06/2016
23 326000 ADRIANA PEREIRA CARNEIRO RESENDE OFICIAL DO MP ATIVO BELO HORIZONTE - COMARCA; CAO-DIREITOS HUMANOS E APOIO COMUNITARIO 6.973,61 1.394,72 0,00 4.184,17 0,00 0,00 12.552,50 1.119,62 1.074,51 0,00 2.194,13 10.358,37 936,28 1.819,95 30/06/2016
24 502200 ADRIANA PETRUCCI DAVINA OFICIAL DO MP ATIVO PATROCÍNIO - COMARCA; PATROCINIO-PJ-01PJ 5.396,93 323,82 0,00 2.280,34 0,00 0,00 8.001,09 1.214,30 1.348,77 0,00 2.563,07 5.438,02 799,00 6.087,83 30/06/2016
25 201900 ADRIANA REIS PIMENTA OFICIAL DO MP ATIVO TEÓFILO OTONI - COMARCA; TEOFILO OTONI-PJ-03PJ 10.755,28 3.226,58 0,00 6.990,93 0,00 0,00 20.972,79 1.996,13 2.768,48 0,00 4.764,61 16.208,18 814,61 4.164,77 30/06/2016
26 278700 ADRIANA RODRIGUES PINTO COELHO AMARAL ANALISTA DO MP ATIVO BELO HORIZONTE - COMARCA; ASSESS TECNICA DA CORREGEDORIA-GERAL DO MP 12.225,81 2.445,16 0,00 7.335,49 0,00 0,00 22.006,46 1.962,81 2.617,08 0,00 4.579,89 17.426,57 1.433,60 3.384,53 30/06/2016
27 468000 ADRIANA SANTOS DE SANTANA MOREIRA ANALISTA DO MP ATIVO ARAÇUAÍ - COMARCA; ARACUAI-PJ-01PJ 7.806,95 2.342,09 0,00 0,00 0,00 0,00 10.149,04 1.373,79 1.510,34 0,00 2.884,13 7.264,91 1.431,00 2.340,25 30/06/2016
28 194700 ADRIANA TSUKIDE OFICIAL DO MP ATIVO UBERABA - COMARCA; COORD REG BACIAS PARANAIBA BAIXO RIO GRANDE 10.755,28 3.226,58 0,00 0,00 0,00 0,00 13.981,86 1.996,13 2.716,34 0,00 4.712,47 9.269,39 1.443,82 4.368,66 30/06/2016
29 206400 ADRIANE MENDES DE SOUZA ANALISTA DO MP ATIVO BELO HORIZONTE - COMARCA; BH-23PJ CIVEL-FISC AC POL PUB II 14.297,05 7.148,53 0,00 10.722,79 0,00 0,00 32.168,37 2.899,31 4.327,31 0,00 7.226,62 24.941,75 1.553,80 4.911,60 30/06/2016
30 465500 ADRIANO CASSIANO MATOS ANALISTA DO MP ATIVO ARAXÁ - COMARCA; ARAXA-PJ-02PJ 7.806,95 780,70 0,00 4.293,83 0,00 0,00 12.881,48 1.211,60 1.395,69 0,00 2.607,29 10.274,19 799,00 2.544,22 30/06/2016
31 500500 ADRIANO DE ALMEIDA SILVA OFICIAL DO MP ATIVO UBERABA - COMARCA; UBERABA-PJ-12PJ 5.396,93 323,82 0,00 2.860,38 0,00 0,00 8.581,13 1.214,30 1.348,77 0,00 2.563,07 6.018,06 799,00 6.017,15 30/06/2016
32 187200 ADRIANO DE FREITAS MARON OFICIAL DO MP ATIVO PONTE NOVA - COMARCA; PONTE NOVA-PJ-03PJ 8.874,34 7.099,47 0,00 7.986,91 0,00 0,00 23.960,72 3.804,28 6.037,81 0,00 9.842,09 14.118,63 970,14 21.172,66 30/06/2016
33 477900 ADRIANO FERREIRA DE ALMEIDA OFICIAL DO MP ATIVO MONTES CLAROS - COMARCA; MONTES CLAROS-PJ-04PJ 5.572,67 557,27 0,00 3.064,97 0,00 0,00 9.194,91 869,40 621,29 0,00 1.490,69 7.704,22 1.611,58 1.859,78 30/06/2016
34 269101 ADRIANO PEREIRA SILVA ANALISTA DO MP ATIVO UBERABA - COMARCA; UBERABA-PJ-02PJ 7.806,95 780,70 0,00 4.293,83 0,00 0,00 12.881,48 1.154,54 1.076,06 0,00 2.230,60 10.650,88 2.063,00 1.908,20 30/06/2016
35 414200 ADRIANO RODRIGUES FERNANDES ANALISTA DO MP ATIVO CARANDAÍ - COMARCA; CARANDAI-PJ-UNPJ 7.322,31 732,23 0,00 4.027,27 0,00 0,00 12.081,81 1.093,45 945,58 0,00 2.039,03 10.042,78 799,00 1.885,90 30/06/2016
36 536700 ADRIELLE COSTA MARIA OFICIAL DO MP ATIVO SERRO - COMARCA; SERRO-PJ-SECRETARIA 3.735,01 224,10 0,00 1.674,94 0,00 0,00 5.634,05 530,25 173,74 0,00 703,99 4.930,06 799,00 861,25 30/06/2016
37 514300 ADRIENE DAMASCENO BRAGA ANALISTA DO MP ATIVO ALFENAS - COMARCA; ALFENAS-PJ-03PJ 7.560,72 453,64 0,00 4.007,18 0,00 0,00 12.021,54 1.075,18 1.092,15 0,00 2.167,33 9.854,21 1.557,40 1.877,33 30/06/2016
38 254600 ADRIENE DOMINGUES COSTA ANALISTA DO MP ATIVO BELO HORIZONTE - COMARCA; PROC. JUSTICA DIR. DIFUSOS E COLETIVOS-SEC 10.755,28 2.151,06 0,00 6.453,17 0,00 0,00 19.359,51 1.747,05 2.289,47 0,00 4.036,52 15.322,99 0,00 3.163,22 30/06/2016
39 252001 ADRIENE GOMES BARRETO ANALISTA DO MP ATIVO BELO HORIZONTE - COMARCA; BH-19PJ SAUDE-SECRETARIA 150PJ 9.461,59 3.784,64 0,00 6.623,12 0,00 0,00 19.869,35 1.769,09 2.372,65 0,00 4.141,74 15.727,61 799,00 2.836,30 30/06/2016
40 645000 AFONSO CELSO GUIMARAES JUNIOR OFICIAL DO MP ATIVO PIRAPORA - COMARCA; PIRAPORA-PJ-01PJ 3.182,15 0,00 0,00 530,36 0,00 0,00 3.712,51 350,04 70,02 0,00 420,06 3.292,45 799,00 0,00 30/06/2016
41 118100 AGENOR ALCIR RODRIGUES DA SILVA OFICIAL DO MP ATIVO SÃO JOÃO NEPOMUCENO - COMARCA; SAO JOAO NEPOMUCENO-PJ-01PJ 13.228,78 10.583,02 0,00 11.905,90 0,00 0,00 35.717,70 3.163,60 4.958,58 0,00 8.122,18 27.595,52 1.130,54 4.948,65 30/06/2016
42 302500 AGENOR JOSE DA SILVA JUNIOR ANALISTA DO MP ATIVO JUIZ DE FORA - COMARCA; JUIZ DE FORA-PJ-07PJ 12.225,81 2.445,16 0,00 5.246,10 0,00 0,00 19.917,07 2.260,81 3.223,08 0,00 5.483,89 14.433,18 1.093,68 5.906,66 30/06/2016
43 357500 AILSON WAGNER DE ALENCAR SILVA OFICIAL DO MP ATIVO BELO HORIZONTE - COMARCA; DIRETORIA DO COLEGIO E DA CAMARA DE PJ 6.753,72 2.026,12 0,00 3.345,48 0,00 0,00 12.125,32 1.188,48 1.123,09 0,00 2.311,57 9.813,75 799,00 2.024,50 30/06/2016
44 366400 AILTON ALEXSSANDRO ALVES OFICIAL DO MP ATIVO PARÁ DE MINAS - COMARCA; PARA DE MINAS-PJ-05PJ 6.334,59 1.900,38 0,00 0,00 0,00 0,00 8.234,97 1.114,70 1.146,15 0,00 2.260,85 5.974,12 799,00 1.898,85 30/06/2016
45 318900 AILTON DE CASTRO RIBEIRO JUNIOR OFICIAL DO MP ATIVO ITAJUBA - COMARCA; ITAJUBA-PJ-01PJ 6.973,61 1.394,72 0,00 3.238,79 0,00 0,00 11.607,12 1.132,82 970,24 0,00 2.103,06 9.504,06 1.831,27 2.223,30 30/06/2016
46 464400 ALAN MONTEIRO GASPAR ANALISTA DO MP ATIVO SETE LAGOAS - COMARCA; SETE LAGOAS-PJ-03PJ 7.806,95 780,70 0,00 3.205,27 0,00 0,00 11.792,92 1.154,54 1.232,47 0,00 2.387,01 9.405,91 799,00 2.035,41 30/06/2016
47 492000 ALANA DE CASTRO FREITAS OFICIAL DO MP ATIVO BOM SUCESSO - COMARCA; BOM SUCESSO-PJ-UNPJ 4.453,07 267,18 0,00 0,00 0,00 0,00 4.720,25 631,26 309,10 0,00 940,36 3.779,89 799,00 1.087,91 30/06/2016
48 306700 ALANA MARCIA DE OLIVEIRA OFICIAL DO MP ATIVO BELO HORIZONTE - COMARCA; DIRETORIA DE ADMINISTRACAO FINANCEIRA 7.200,69 1.440,14 0,00 4.320,42 0,00 0,00 12.961,25 1.233,65 1.378,88 0,00 2.612,53 10.348,72 799,00 2.574,02 30/06/2016
49 324500 ALANMAR COUTINHO COSTA OFICIAL DO MP ATIVO LEOPOLDINA - COMARCA; LEOPOLDINA-PJ-02PJ 6.334,59 1.266,92 0,00 3.800,76 0,00 0,00 11.402,27 1.082,92 630,85 0,00 1.713,77 9.688,50 799,00 2.243,34 30/06/2016
50 508200 ALBERTO DA SILVA VIEIRA ASSESSOR ATIVO BELO HORIZONTE - COMARCA; ASSESS ESPECIAL DO PGJ ATUACAO JUNTO A PGJAA 0,00 0,00 9.769,61 4.884,81 0,00 0,00 14.654,42 570,88 1.827,88 0,00 2.398,76 12.255,66 831,61 2.329,09 30/06/2016
51 407300 ALBERTO LUIZ SOARES DE OLIVEIRA ANALISTA DO MP ATIVO BELO HORIZONTE - COMARCA; SUPERINTENDÊNCIA DE ENGENHARIA E ARQUITETURA 9.163,30 916,33 0,00 0,00 0,00 0,00 10.079,63 1.435,96 1.753,22 0,00 3.189,18 6.890,45 799,00 2.979,52 30/06/2016
52 118200 ALBERTO PEREIRA DA COSTA OFICIAL DO MP ATIVO DORES DO INDAIÁ - COMARCA; DORES DO INDAIA-PJ-UNPJ 12.225,81 9.780,64 0,00 11.003,23 0,00 0,00 33.009,68 3.391,23 5.399,64 0,00 8.790,87 24.218,81 799,00 8.822,97 30/06/2016
53 282400 ALCILENE MARISE DE ARAUJO ANALISTA DO MP ATIVO BELO HORIZONTE - COMARCA; BH-23PJ INF-FISC MED SOC FEC 12.225,81 2.445,16 0,00 7.335,49 0,00 0,00 22.006,46 1.962,81 2.617,08 0,00 4.579,89 17.426,57 4.906,87 3.761,08 30/06/2016
54 112600 ALCIONE DA MOTA JARDIM OFICIAL DO MP ATIVO BELO HORIZONTE - COMARCA; CAO-CRIANCAS E ADOLESCENTES 9.163,30 4.581,65 0,00 6.872,48 0,00 0,00 20.617,43 1.860,54 2.442,58 0,00 4.303,12 16.314,31 799,00 3.169,45 30/06/2016
55 396400 ALCIONE DE FREITAS E SILVA ANALISTA DO MP ATIVO BELO HORIZONTE - COMARCA; ASSESS JUR DO CONS SUPERIOR DO MINISTERIO PUB 9.461,59 2.838,48 0,00 4.402,99 0,00 0,00 16.703,06 1.665,01 2.141,08 0,00 3.806,09 12.896,97 799,00 2.836,30 30/06/2016
56 161600 ALCIONE NERY SOUZA ASSESSOR ATIVO BELO HORIZONTE - COMARCA; DIVISAO DE CONTROLE IMOBILIARIO 0,00 2.789,44 6.973,61 4.881,53 146,20 0,00 14.790,78 570,88 1.918,42 0,00 2.489,30 12.301,48 799,00 2.324,55 30/06/2016
57 376000 ALDA GOMES LANA OFICIAL DO MP ATIVO BELO HORIZONTE - COMARCA; BH-18PJ VIOLENCIA DOMESTICA-SECRETARIA 6.540,78 654,08 0,00 3.597,43 0,00 0,00 10.792,29 1.027,17 898,33 0,00 1.925,50 8.866,79 1.060,97 2.165,67 30/06/2016
58 148000 ALDA MARTINS SIMOES OFICIAL DO MP ATIVO BELO HORIZONTE - COMARCA; BH-23PJ CIVEL- FISC ENT AB POL 12.225,81 4.890,32 0,00 8.558,07 0,00 0,00 25.674,20 2.289,97 3.319,81 0,00 5.609,78 20.064,42 1.431,00 3.701,80 30/06/2016
59 318400 ALDO CREPALDI JUNIOR OFICIAL DO MP ATIVO BELO HORIZONTE - COMARCA; EXTINTA - DIVISAO DE MATERIAL DE CONSUMO 6.973,61 1.394,72 0,00 3.160,58 0,00 0,00 11.528,91 1.119,62 1.126,65 0,00 2.246,27 9.282,64 799,00 2.059,24 30/06/2016
60 604500 ALENIZE APARECIDA RODRIGUES HENRIQUE OFICIAL DO MP ATIVO RIO NOVO - COMARCA; RIO NOVO-PJ-UNPJ 3.617,27 0,00 0,00 1.545,63 0,00 0,00 5.162,90 483,95 128,11 0,00 612,06 4.550,84 946,61 782,30 30/06/2016
61 197900 ALESSA DE SOUSA E SILVA OFICIAL DO MP ATIVO OLIVEIRA - COMARCA; OLIVEIRA-PJ-02PJ 11.105,40 3.331,62 0,00 7.218,51 0,00 0,00 21.655,53 2.056,72 2.782,63 0,00 4.839,35 16.816,18 1.606,38 4.260,35 30/06/2016
62 428500 ALESSANDRA ALVES DINIZ OFICIAL DO MP ATIVO BELO HORIZONTE - COMARCA; CENTRAL DE APOIO TECNICO-SECRETARIA 4.747,79 1.899,12 0,00 0,00 0,00 0,00 6.646,91 899,71 757,47 0,00 1.657,18 4.989,73 1.105,53 1.532,65 30/06/2016
63 286801 ALESSANDRA BOTELHO JUNQUEIRA DE MENEZES ANALISTA DO MP ATIVO PASSOS - COMARCA; PASSOS-PJ-05PJ 9.461,59 2.838,48 0,00 6.150,04 0,00 0,00 18.450,11 1.752,29 2.174,48 0,00 3.926,77 14.523,34 2.063,00 3.818,81 30/06/2016
64 307000 ALESSANDRA CRISTINA SANTOS MENDES ANALISTA DO MP ATIVO BELO HORIZONTE - COMARCA; BH-18PJ VIOLENCIA DOMESTICA 8.874,34 1.774,87 0,00 3.896,45 0,00 0,00 14.545,66 1.520,35 1.849,28 0,00 3.369,63 11.176,03 995,45 3.187,22 30/06/2016
65 264400 ALESSANDRA DE SOUZA SANTOS ANALISTA DO MP ATIVO BELO HORIZONTE - COMARCA; ASSESS TECNICA DA CORREGEDORIA-GERAL DO MP 12.623,91 3.787,17 0,00 8.205,54 0,00 0,00 24.616,62 2.221,47 3.147,25 0,00 5.368,72 19.247,90 799,00 4.298,63 30/06/2016
66 441500 ALESSANDRA DRUMMOND DE FIGUEIREDO ROSSI ANALISTA DO MP ATIVO BELO HORIZONTE - COMARCA; DIRETORIA DE PROJETOS DE EDIFICACOES 7.806,95 780,70 0,00 4.293,83 0,00 0,00 12.881,48 1.152,09 1.232,47 0,00 2.384,56 10.496,92 799,00 1.885,90 30/06/2016
67 524000 ALESSANDRA LUCIOLI DE BARROS GUERRA ANALISTA DO MP ATIVO BELO HORIZONTE - COMARCA; BH-19PJ SAUDE--SECRETARIA 7.560,72 453,64 0,00 3.098,52 2.671,45 0,00 13.784,33 1.075,18 1.670,39 0,00 2.745,57 11.038,76 799,00 1.877,33 30/06/2016
68 479900 ALESSANDRA MARA ANDRADE DE FARIA OFICIAL DO MP ATIVO UBERABA - COMARCA; UBERABA-PJ-09PJ 5.572,67 557,27 0,00 0,00 0,00 0,00 6.129,94 869,40 725,56 0,00 1.594,96 4.534,98 799,00 1.773,65 30/06/2016
69 226700 ALESSANDRA MARA VASCONCELOS REZENDE OFICIAL DO MP ATIVO CONSELHEIRO LAFAIETE - COMARCA; CONSELHEIRO LAFAIETE-PJ-07PJ 7.560,72 2.268,22 0,00 4.914,47 0,00 0,00 14.743,41 1.384,39 1.687,99 0,00 3.072,38 11.671,03 993,12 2.756,63 30/06/2016
70 112100 ALESSANDRA MARCIA FERREIRA OFICIAL DO MP ATIVO BELO HORIZONTE - COMARCA; BELO HORIZONTE- SECRETARIA DAS PROMOTORIAS 8.594,48 4.297,24 0,00 6.445,86 0,00 0,00 19.337,58 1.755,74 2.233,75 0,00 3.989,49 15.348,09 799,00 3.069,50 30/06/2016
71 196500 ALESSANDRA MARIA RIBEIRO LUCIANO OFICIAL DO MP ATIVO RIO PARANAÍBA - COMARCA; RIO PARANAIBA-PJ-UNPJ 10.755,28 4.302,11 0,00 7.528,70 5.019,13 0,00 27.605,22 2.010,96 4.144,06 0,00 6.155,02 21.450,20 1.431,00 3.438,99 30/06/2016
72 91400 ALESSANDRA MENDES VASCONCELOS DE SOUZA OFICIAL DO MP ATIVO BELO HORIZONTE - COMARCA; BH-23PJ INF-FISC MED SOC AB 14.297,05 10.007,94 0,00 12.152,50 0,00 0,00 36.457,49 3.213,85 5.079,29 0,00 8.293,14 28.164,35 799,00 4.911,60 30/06/2016
73 384900 ALESSANDRA RODRIGUES ANALISTA DO MP ATIVO VISCONDE DO RIO BRANCO - COMARCA; VISCONDE DO RIO BRANCO-PJ-03PJ 9.461,59 946,16 0,00 5.203,88 0,00 0,00 15.611,63 1.408,85 1.521,53 0,00 2.930,38 12.681,25 1.477,54 2.399,95 30/06/2016
74 390000 ALESSANDRA SPADANO MASSARA VASCONCELOS OFICIAL DO MP ATIVO BETIM - COMARCA; BETIM-PJ-10PJ 6.334,59 633,46 0,00 3.484,03 0,00 0,00 10.452,08 932,24 836,07 0,00 1.768,31 8.683,77 799,00 1.601,78 30/06/2016
75 426500 ALESSANDRO CAMPOS DE PAIVA COORDENADOR/ANALISTA ATIVO BELO HORIZONTE - COMARCA; DIRETORIA DE PUBLICIDADE INSTITUCIONAL 0,00 1.146,70 11.466,98 6.306,84 0,00 0,00 18.920,52 1.364,41 2.294,49 0,00 3.658,90 15.261,62 799,00 3.359,06 30/06/2016
76 623400 ALESSANDRO DE OLIVEIRA REZENDE ANALISTA DO MP ATIVO BELO HORIZONTE - COMARCA; DIVISAO DE MEMORIA INSTITUCIONAL 5.572,67 0,00 0,00 0,00 0,00 0,00 5.572,67 751,75 494,55 0,00 1.246,30 4.326,37 799,00 1.347,09 30/06/2016
77 420600 ALESSANDRO SILVA OFICIAL DO MP ATIVO VISCONDE DO RIO BRANCO - COMARCA; VISCONDE DO RIO BRANCO-PJ-02PJ 6.134,81 1.840,44 0,00 3.987,63 0,00 0,00 11.962,88 1.104,33 674,30 0,00 1.778,63 10.184,25 803,89 2.064,15 30/06/2016
78 375301 ALETHEIA PATRICIA ASSIS MORAIS MOREIRA ANALISTA DO MP ATIVO ITABIRA - COMARCA; ITABIRA-PJ-02PJ 6.973,61 418,42 0,00 3.696,02 0,00 0,00 11.088,05 990,02 887,70 0,00 1.877,72 9.210,33 1.460,47 1.608,00 30/06/2016
79 382300 ALEX CARVALHO LIMA ANALISTA DO MP ATIVO UBERLÂNDIA - COMARCA; UBERLANDIA-PJ-14PJ 9.461,59 946,16 0,00 0,00 0,00 0,00 10.407,75 1.408,85 1.532,74 0,00 2.941,59 7.466,16 799,00 2.559,95 30/06/2016
80 195201 ALEX DE CASTRO PEREIRA ANALISTA DO MP ATIVO UBERABA - COMARCA; UBERABA-PJ-09PJ 12.225,81 3.667,74 0,00 0,00 0,00 0,00 15.893,55 2.126,39 2.968,45 0,00 5.094,84 10.798,71 838,15 3.437,40 30/06/2016
81 358900 ALEX DE PAULA LANZA ASSESSOR ATIVO BELO HORIZONTE - COMARCA; DIRETORIA DE IMPRENSA 0,00 0,00 6.973,61 3.486,81 0,00 0,00 10.460,42 570,88 1.111,12 0,00 1.682,00 8.778,42 799,00 1.660,40 30/06/2016
82 178400 ALEX RODRIGO SALDANHA GUIMARAES OFICIAL DO MP ATIVO BELO HORIZONTE - COMARCA; DIRETORIA DE SISTEMAS DE INFORMACAO 5.226,73 1.568,02 0,00 3.397,38 0,00 0,00 10.192,13 925,37 793,66 0,00 1.719,03 8.473,10 799,00 1.719,55 30/06/2016
83 289200 ALEX SANDRO PEREIRA DE MATOS OFICIAL DO MP ATIVO BELO HORIZONTE - COMARCA; BH-12PJ JUIZO CRIMINAL-SECRETARIA 5.226,73 2.278,91 0,00 0,00 0,00 0,00 7.505,64 854,23 1.004,96 0,00 1.859,19 5.646,45 799,00 1.787,05 30/06/2016
84 413500 ALEX VILELA OLIVEIRA ANALISTA DO MP ATIVO GOVERNADOR VALADARES - COMARCA; COORD REG PJ DEF EDU DIR CRIANCA ADOL RIODOCE 9.461,59 946,16 0,00 0,00 0,00 0,00 10.407,75 1.482,70 1.838,55 0,00 3.321,25 7.086,50 990,99 3.071,31 30/06/2016
85 264300 ALEXANDRA FATIMA SARAIVA SOARES ANALISTA DO MP ATIVO BELO HORIZONTE - COMARCA; CENTRAL DE APOIO TECN-SETOR DE MEIO AMBIENTE 12.623,91 2.524,78 0,00 7.574,35 0,00 0,00 22.723,04 2.050,61 2.838,28 0,00 4.888,89 17.834,15 799,00 3.493,15 30/06/2016
86 488000 ALEXANDRA LARA PAIS DE CARVALHO ANALISTA DO MP ATIVO GUANHÃES - COMARCA; GUANHAES-PJ-SECRETARIA 6.973,61 697,36 0,00 0,00 2.556,99 0,00 10.227,96 1.068,09 1.623,14 0,00 2.691,23 7.536,73 2.063,00 2.156,27 30/06/2016
87 256300 ALEXANDRA SANTOS GOMES OFICIAL DO MP ATIVO BELO HORIZONTE - COMARCA; EXTINTA - DIVISÃO DE COMPRAS 7.322,31 1.464,46 0,00 4.393,39 0,00 0,00 13.180,16 1.330,29 1.615,21 0,00 2.945,50 10.234,66 799,00 3.428,06 30/06/2016
88 403300 ALEXANDRE AUGUSTO RODRIGUES ANALISTA DO MP ATIVO ÁGUAS FORMOSAS - COMARCA; AGUAS FORMOSAS-PJ-UNPJ 8.061,11 806,11 0,00 4.433,61 0,00 0,00 13.300,83 1.200,29 1.300,89 0,00 2.501,18 10.799,65 799,00 2.044,70 30/06/2016
89 640900 ALEXANDRE BARBOSA MASCARENHAS ANALISTA DO MP ATIVO BETIM - COMARCA; BETIM-PJ-01PJ 4.902,32 0,00 0,00 2.451,16 0,00 0,00 7.353,48 616,30 217,59 0,00 833,89 6.519,59 1.431,00 700,32 30/06/2016
90 311700 ALEXANDRE BARCELOS RESENDE OFICIAL DO MP ATIVO BELO HORIZONTE - COMARCA; BH-07PJ 03 TRIBUNAL DO JURI-GAB 109PJ 5.572,67 557,27 0,00 3.064,97 0,00 0,00 9.194,91 829,79 630,94 0,00 1.460,73 7.734,18 799,00 1.413,50 30/06/2016
91 285600 ALEXANDRE CAMPOS DE OLIVEIRA OFICIAL DO MP ATIVO UBERABA - COMARCA; COORD REG BACIAS PARANAIBA BAIXO RIO GRANDE 7.560,72 1.512,14 0,00 4.536,43 3.024,29 0,00 16.633,58 1.228,11 2.026,49 0,00 3.254,60 13.378,98 2.107,13 2.092,10 30/06/2016
92 509200 ALEXANDRE CAPUANO DE REZENDE ANALISTA DO MP ATIVO BELO HORIZONTE - COMARCA; GABINETE DE PROCURADOR DE JUSTIÇA - SALA 715 7.560,72 453,64 0,00 4.007,18 0,00 0,00 12.021,54 1.075,18 1.040,02 0,00 2.115,20 9.906,34 799,00 1.760,00 30/06/2016
93 229400 ALEXANDRE CARLOS BOTREL DIRETOR/OFICIAL ATIVO BELO HORIZONTE - COMARCA; SUPERINTENDENCIA DOS ORGAOS COLEGIADOS 0,00 4.458,91 14.863,02 9.660,97 0,00 0,00 28.982,90 1.885,05 4.413,21 0,00 6.298,26 22.684,64 990,82 5.732,85 30/06/2016
94 411900 ALEXANDRE CARVALHO SANTOS RIBEIRO ANALISTA DO MP ATIVO OLIVEIRA - COMARCA; OLIVEIRA-PJ-02PJ 9.163,30 916,33 0,00 5.039,82 0,00 0,00 15.119,45 1.364,41 1.597,63 0,00 2.962,04 12.157,41 1.431,00 2.324,25 30/06/2016
95 641600 ALEXANDRE DA SILVA ASSUNCAO OFICIAL DO MP ATIVO BELO HORIZONTE - COMARCA; SERVICO MEDICO-DEPTO PERIC MEDICA SAUDE OCUP 3.182,15 0,00 0,00 1.591,08 1.060,72 0,00 5.833,95 397,27 239,76 0,00 637,03 5.196,92 799,00 429,33 30/06/2016
96 201200 ALEXANDRE DE ALENCAR CORDEIRO OFICIAL DO MP ATIVO ÁGUAS FORMOSAS - COMARCA; AGUAS FORMOSAS-PJ-UNPJ 5.226,73 2.090,69 0,00 3.658,71 0,00 0,00 10.976,13 996,57 921,58 0,00 1.918,15 9.057,98 799,00 1.742,25 30/06/2016
97 288200 ALEXANDRE DE VASCONCELOS COSTA KER ANALISTA DO MP ATIVO BELO HORIZONTE - COMARCA; BH-03PJ EMPRESARIAL-SECRETARIA 12.225,81 2.445,16 0,00 7.335,49 0,00 0,00 22.006,46 2.260,81 3.450,60 0,00 5.711,41 16.295,05 804,99 6.330,18 30/06/2016
98 445000 ALEXANDRE DIOGENES OLIVEIRA ANALISTA DO MP ATIVO SALINAS - COMARCA; SALINAS-PJ-02PJ 8.594,48 859,45 0,00 4.726,97 0,00 0,00 14.180,90 1.264,83 1.444,49 0,00 2.709,32 11.471,58 799,00 2.044,70 30/06/2016
99 463400 ALEXANDRE LEAL WINKELSTROTER ANALISTA DO MP ATIVO TEÓFILO OTONI - COMARCA; TEOFILO OTONI-PJ-04PJ 7.200,69 720,07 0,00 3.960,38 0,00 0,00 11.881,14 1.064,88 1.017,11 0,00 2.081,99 9.799,15 799,00 1.760,00 30/06/2016
100 615700 ALEXANDRE LUIZ DE CASTRO MACIEL ANALISTA DO MP ATIVO IBIRITÉ - COMARCA; IBIRITE-PJ-02PJ 6.134,81 0,00 0,00 3.067,41 0,00 0,00 9.202,22 945,37 958,83 0,00 1.904,20 7.298,02 799,00 2.730,46 30/06/2016
101 356900 ALEXANDRE MOISES MENDONCA E ARAUJO OFICIAL DO MP ATIVO UBERABA - COMARCA; UBERABA-PJ-13PJ 5.226,73 522,67 0,00 2.874,70 0,00 0,00 8.624,10 783,03 537,81 0,00 1.320,84 7.303,26 799,00 1.460,16 30/06/2016
102 633300 ALEXANDRE NONATO MARTINS OFICIAL DO MP ATIVO IGARAPÉ - COMARCA; IGARAPE-PJ-02PJ 3.285,74 0,00 0,00 1.642,87 0,00 0,00 4.928,61 444,78 62,30 0,00 507,08 4.421,53 799,00 757,65 30/06/2016
103 469900 ALEXANDRE PEREIRA GUEDES ANALISTA DO MP ATIVO CATAGUASES - COMARCA; CATAGUASES-PJ-03PJ 7.806,95 780,70 0,00 4.293,83 0,00 0,00 12.881,48 1.154,54 1.232,47 0,00 2.387,01 10.494,47 951,66 2.028,21 30/06/2016
104 208700 ALEXANDRE RESENDE FRAGA ANALISTA DO MP ATIVO BELO HORIZONTE - COMARCA; BH-19PJ SAUDE 16.063,25 4.818,98 0,00 10.441,12 0,00 0,00 31.323,35 2.783,85 4.085,15 0,00 6.869,00 24.454,35 2.303,86 4.425,25 30/06/2016
105 216401 ALEXANDRE RIBEIRO DE LIMA MAIORINO ANALISTA DO MP ATIVO UBERABA - COMARCA; UBERABA-PJ-03PJ 12.225,81 3.667,74 0,00 7.946,78 0,00 0,00 23.840,33 2.449,22 3.814,95 0,00 6.264,17 17.576,16 1.486,48 7.074,29 30/06/2016
106 475100 ALEXANDRE TEOTONIO COSTA ANALISTA DO MP ATIVO ARAGUARI - COMARCA; ARAGUARI-PJ-01PJ 7.806,95 780,70 0,00 4.293,83 0,00 0,00 12.881,48 1.154,54 1.128,19 0,00 2.282,73 10.598,75 1.431,00 1.908,20 30/06/2016
107 339000 ALEXANDRE VITOR CARDOSO OFICIAL DO MP ATIVO BELO HORIZONTE - COMARCA; EXTINTA - PROTOCOLO DA PGJ 5.226,73 1.045,35 0,00 3.136,04 0,00 0,00 9.408,12 843,63 509,32 0,00 1.352,95 8.055,17 799,00 1.397,06 30/06/2016
108 623100 ALEXSANDER BATISTA AGUIAR ANALISTA DO MP ATIVO BELO HORIZONTE - COMARCA; DIRETORIA DE SUPORTE E MANUTENCAO 5.572,67 0,00 0,00 2.786,34 1.857,56 0,00 10.216,57 754,34 901,11 0,00 1.655,45 8.561,12 799,00 1.285,00 30/06/2016
109 513300 ALFSON MIRANDA BRAGA ANALISTA DO MP ATIVO BELO HORIZONTE - COMARCA; BH-12PJ JUIZO CRIMINAL-GAB 092PJ 7.560,72 453,64 0,00 4.007,18 0,00 0,00 12.021,54 1.075,18 1.092,15 0,00 2.167,33 9.854,21 799,00 1.760,00 30/06/2016
110 618400 ALICE MAGALHAES MACEDO DE CARVALHO ANALISTA DO MP ATIVO AÇUCENA - COMARCA; ACUCENA-PJ-UNPJ 5.572,67 0,00 0,00 2.786,34 0,00 0,00 8.359,01 758,02 494,55 0,00 1.252,57 7.106,44 799,00 1.406,92 30/06/2016
111 471000 ALICE TITONELI MOREIRA ANALISTA DO MP ATIVO MIRADOURO - COMARCA; MIRADOURO-PJ-UNPJ 7.806,95 780,70 0,00 4.293,83 0,00 0,00 12.881,48 1.154,54 1.180,33 0,00 2.334,87 10.546,61 1.431,00 1.908,20 30/06/2016
112 622400 ALINE BALBINO PORTUGAL ANALISTA DO MP ATIVO TRÊS PONTAS - COMARCA; TRES PONTAS-PJ-03PJ 5.572,67 0,00 0,00 2.786,34 0,00 0,00 8.359,01 759,18 494,55 0,00 1.253,73 7.105,28 799,00 1.414,73 30/06/2016
113 373000 ALINE BOTELHO RESENDE OFICIAL DO MP ATIVO PASSA QUATRO - COMARCA; PASSA QUATRO-PJ-SECRETARIA 6.334,59 633,46 0,00 3.484,03 0,00 0,00 10.452,08 992,65 963,79 0,00 1.956,44 8.495,64 799,00 2.133,01 30/06/2016
114 407700 ALINE CRISTINA RODRIGUES PEREIRA ANALISTA DO MP ATIVO BELO HORIZONTE - COMARCA; DIRETORIA DE PROJETOS DE EDIFICACOES 7.322,31 732,23 0,00 4.027,27 0,00 0,00 12.081,81 1.093,45 1.101,99 0,00 2.195,44 9.886,37 2.707,36 2.070,70 30/06/2016
115 193100 ALINE CRISTINA SENA OLIVEIRA OFICIAL DO MP ATIVO UBERLÂNDIA - COMARCA; UBERLANDIA-PJ-03PJ 10.416,20 4.358,42 0,00 7.387,31 0,00 0,00 22.161,93 1.811,67 2.731,91 0,00 4.543,58 17.618,35 799,00 3.222,30 30/06/2016
116 554200 ALINE CRISTINA SILVA SOUZA OFICIAL DO MP ATIVO TIROS - COMARCA; TIROS-PJ-UNPJ 3.982,20 238,93 0,00 1.773,83 0,00 0,00 5.994,96 594,91 274,92 0,00 869,83 5.125,13 799,00 1.329,92 30/06/2016
117 505500 ALINE DA CUNHA MARREIROS OLIVEIRA ANALISTA DO MP ATIVO CARANGOLA - COMARCA; CARANGOLA-PJ-03PJ 7.560,72 453,64 0,00 4.007,18 0,00 0,00 12.021,54 1.075,18 1.040,02 0,00 2.115,20 9.906,34 799,00 1.760,00 30/06/2016
118 433500 ALINE DE MELO QUEIROZ OFICIAL DO MP ATIVO BELO HORIZONTE - COMARCA; EXTINTO-PROCON ESTADUAL-RELACOES INSTITUCIONA 5.754,07 1.808,97 0,00 3.781,52 0,00 0,00 11.344,56 863,07 1.019,01 0,00 1.882,08 9.462,48 799,00 1.810,30 30/06/2016
119 542700 ALINE DE SOUSA ALBINO ANALISTA DO MP ATIVO CARMO DO PARANAÍBA - COMARCA; CARMO DO PARANAIBA-PJ-01PJ 6.334,59 380,08 0,00 3.357,34 0,00 0,00 10.072,01 899,26 774,06 0,00 1.673,32 8.398,69 799,00 1.460,65 30/06/2016
120 330000 ALINE DIORIO MAYRINK OFICIAL DO MP ATIVO BELO HORIZONTE - COMARCA; ASSESS EXECUTIVA DO CONSELHO SUPERIOR DO MP 5.572,67 557,27 0,00 3.064,97 0,00 0,00 9.194,91 834,84 630,94 0,00 1.465,78 7.729,13 799,00 1.459,50 30/06/2016
121 499000 ALINE FERREIRA LOPES NEIVA ANALISTA DO MP ATIVO TEÓFILO OTONI - COMARCA; COORD. DE DEF. DO PAT. PUBLICO-JEQUIT./MUCURI 7.560,72 453,64 0,00 3.046,38 2.671,45 0,00 13.732,19 1.075,18 1.774,67 0,00 2.849,85 10.882,34 1.431,00 1.760,00 30/06/2016
122 405300 ALINE LAIA CARDOZO ANALISTA DO MP ATIVO BELO HORIZONTE - COMARCA; EXTINTA - DIRETORIA SERVIÇOS GERAIS E TRANS 9.461,59 946,16 0,00 5.203,88 0,00 0,00 15.611,63 1.408,85 1.677,94 0,00 3.086,79 12.524,84 799,00 2.399,95 30/06/2016
123 278200 ALINE MARCIA FARIA BARBOSA OFICIAL DO MP ATIVO BARBACENA - COMARCA; BARBACENA-PJ-SECRETARIA 5.226,73 1.045,35 0,00 3.136,04 0,00 0,00 9.408,12 854,23 509,32 0,00 1.363,55 8.044,57 877,62 1.493,35 30/06/2016
124 389000 ALINE NERI NOBRE ANALISTA DO MP ATIVO MONTES CLAROS - COMARCA; COORD REG PJ DEF EDUC DIR CRIANCA ADOL NORTE 10.416,20 3.124,86 0,00 6.770,53 0,00 0,00 20.311,59 2.061,77 3.052,28 0,00 5.114,05 15.197,54 1.112,15 5.202,34 30/06/2016
125 294600 ALINE PATRICIA SILVA VIEIRA OFICIAL DO MP ATIVO UBERLÂNDIA - COMARCA; UBERLANDIA-PJ-03PJ 7.560,72 2.745,70 0,00 5.153,21 0,00 0,00 15.459,63 1.228,11 1.586,18 0,00 2.814,29 12.645,34 2.063,00 2.385,80 30/06/2016
126 420000 ALINE RODRIGUES CAMOROPIN ANALISTA DO MP ATIVO SABARÁ - COMARCA; SABARA-PJ-02PJ 9.163,30 916,33 0,00 5.039,82 0,00 0,00 15.119,45 1.364,41 1.597,63 0,00 2.962,04 12.157,41 1.036,33 2.324,25 30/06/2016
127 408300 ALINE SILVA ARAUJO DE PAULA ANALISTA DO MP ATIVO SÃO SEBASTIÃO DO PARAÍSO - COMARCA; SAO SEBASTIAO DO PARAISO-PJ-02PJ 9.461,59 946,16 0,00 5.203,88 0,00 0,00 15.611,63 1.482,70 1.838,55 0,00 3.321,25 12.290,38 1.432,11 3.071,31 30/06/2016
128 425400 ALINE TRINDADE DE FREITAS CAMPOS OFICIAL DO MP ATIVO BELO HORIZONTE - COMARCA; BH-14PJ DEFESA CONSUMIDOR-SECRETARIA 6.334,59 633,46 0,00 0,00 0,00 0,00 6.968,05 1.073,77 1.207,19 0,00 2.280,96 4.687,09 799,00 3.009,69 30/06/2016
129 517200 ALISSOM PEREIRA DA SILVA ANALISTA DO MP ATIVO BORDA DA MATA - COMARCA; BORDA DA MATA-PJ-UNPJ 7.560,72 453,64 0,00 4.007,18 0,00 0,00 12.021,54 1.075,18 1.092,15 0,00 2.167,33 9.854,21 1.138,81 1.760,00 30/06/2016
130 442400 ALISSON LABRE ANALISTA DO MP ATIVO VARGINHA - COMARCA; VARGINHA-PJ-02PJ 8.594,48 859,45 0,00 4.726,97 0,00 0,00 14.180,90 1.264,83 1.444,49 0,00 2.709,32 11.471,58 1.207,94 2.181,01 30/06/2016
131 643800 ALLAN PAUL FONSECA DE CASTRO OFICIAL DO MP ATIVO BELO HORIZONTE - COMARCA; BH-10PJ EXECUÇÃO PENAL 3.182,15 0,00 0,00 795,54 0,00 0,00 3.977,69 350,04 70,02 0,00 420,06 3.557,63 1.431,00 0,00 30/06/2016
132 612900 ALLAN VINICIUS VIEIRA ARAUJO OFICIAL DO MP ATIVO BELO HORIZONTE - COMARCA; BH-09PJ AUDITORIA MILITAR-SECRETARIA 3.982,20 0,00 0,00 1.593,08 0,00 0,00 5.575,28 438,04 176,82 0,00 614,86 4.960,42 799,00 0,00 30/06/2016
133 349000 ALLEC RODRIGUES VIEIRA ASSESSOR/OFICIAL ATIVO BELO HORIZONTE - COMARCA; COORD DE INCLUSAO E MOBILIZACAO SOCIAIS 0,00 1.774,87 8.874,34 5.324,61 0,00 0,00 15.973,82 1.452,86 1.737,04 0,00 3.189,90 12.783,92 875,50 2.558,70 30/06/2016
134 297300 ALLYSON SALIBA MONTEIRO LAIZO ANALISTA DO MP ATIVO CONSELHEIRO LAFAIETE - COMARCA; CONSELHEIRO LAFAIETE-PJ-03PJ 12.225,81 2.445,16 0,00 7.335,49 0,00 0,00 22.006,46 1.985,91 2.721,36 0,00 4.707,27 17.299,19 1.032,75 3.383,00 30/06/2016
135 303700 ALMIR LOPES LOURES ANALISTA DO MP ATIVO BELO HORIZONTE - COMARCA; CENTRAL DE APOIO TECN-SETOR DE MEIO AMBIENTE 13.228,78 2.645,76 0,00 0,00 5.291,51 0,00 21.166,05 2.397,64 5.008,06 0,00 7.405,70 13.760,35 1.047,76 5.922,13 30/06/2016
136 515900 ALTAIR NEVES JUNIOR OFICIAL DO MP ATIVO BELO HORIZONTE - COMARCA; BH-03PJ EMPRESARIAL-SECRETARIA 4.902,32 294,14 0,00 0,00 0,00 0,00 5.196,46 695,26 404,46 0,00 1.099,72 4.096,74 799,00 1.123,85 30/06/2016
137 233300 ALVARINDO BATISTA COORDENADOR/ANALISTA ATIVO BELO HORIZONTE - COMARCA; DIVISAO DE MULTIMIDIA 14.297,05 4.876,97 0,00 9.587,01 0,00 0,00 28.761,03 2.319,46 3.884,51 0,00 6.203,97 22.557,06 799,00 4.798,13 30/06/2016
138 274100 ALYSSON CARVALHO VIDAL DE LACERDA OFICIAL DO MP ATIVO MANHUAÇU - COMARCA; MANHUACU-PJ-01PJ 7.806,95 1.561,39 0,00 0,00 0,00 0,00 9.368,34 1.268,12 1.423,54 0,00 2.691,66 6.676,68 799,00 2.160,25 30/06/2016
139 621000 AMANDA BASTOS ALVES ANALISTA DO MP ATIVO BELO HORIZONTE - COMARCA; ASSESS TECNICO-JUR JUNTO AS PROC. DE JUST 5.061,97 0,00 0,00 2.530,99 0,00 0,00 7.592,96 685,22 377,53 0,00 1.062,75 6.530,21 799,00 1.245,01 30/06/2016
140 521700 AMANDA CRISTINA AGUIAR MACHADO OFICIAL DO MP ATIVO CONGONHAS - COMARCA; CONGONHAS-PJ-01PJ 4.111,87 246,71 0,00 2.179,29 0,00 0,00 6.537,87 583,09 198,63 0,00 781,72 5.756,15 799,00 942,65 30/06/2016
141 613400 AMANDA DE ASSIS IUNES SANTOS ANALISTA DO MP ATIVO CONSELHEIRO LAFAIETE - COMARCA; CONSELHEIRO LAFAIETE-PJ-08PJ 5.572,67 0,00 0,00 2.786,34 0,00 0,00 8.359,01 914,12 916,34 0,00 1.830,46 6.528,55 1.431,00 2.987,89 30/06/2016
142 520800 AMANDA DE SOUZA MACHADO ANALISTA DO MP ATIVO BAEPENDI - COMARCA; BAEPENDI-PJ-UNPJ 7.560,72 453,64 0,00 4.007,18 0,00 0,00 12.021,54 1.075,18 987,88 0,00 2.063,06 9.958,48 799,00 1.760,00 30/06/2016
143 543100 AMANDA VIEIRA FREITAS BRESSANE ANALISTA DO MP ATIVO PARAGUAÇU - COMARCA; PARAGUACU-PJ-UNPJ 5.754,07 345,24 0,00 2.428,54 0,00 0,00 8.527,85 816,87 571,31 0,00 1.388,18 7.139,67 799,00 1.326,80 30/06/2016
144 434400 AMARILIS ASSIS SIMAO CURCIO ANALISTA DO MP ATIVO MANHUAÇU - COMARCA; MANHUACU-PJ-01PJ 8.594,48 859,45 0,00 4.726,97 0,00 0,00 14.180,90 1.282,99 1.444,49 0,00 2.727,48 11.453,42 1.431,00 2.209,70 30/06/2016
145 273700 AMBROLINA CARNEIRO DE VASCONCELOS OFICIAL DO MP ATIVO FRUTAL - COMARCA; FRUTAL-PJ-01PJ 8.061,11 4.030,55 0,00 6.045,83 0,00 0,00 18.137,49 1.862,50 2.580,40 0,00 4.442,90 13.694,59 1.322,02 4.840,20 30/06/2016
146 58000 AMELIA GUARIZE DE CASTRO OFICIAL DO MP ATIVO JUIZ DE FORA - COMARCA; JUIZ DE FORA-PJ-SECRETARIA 5.754,07 5.178,67 0,00 5.466,37 0,00 1.202,60 17.601,71 1.488,90 2.215,88 0,00 3.704,78 13.896,93 1.092,09 3.175,60 30/06/2016
147 324301 AMERICA SUELI FERREIRA DA SILVA ANALISTA DO MP ATIVO MONTE CARMELO - COMARCA; MONTE CARMELO-PJ-02PJ 7.806,95 780,70 0,00 4.293,83 0,00 0,00 12.881,48 1.154,54 1.180,33 0,00 2.334,87 10.546,61 1.431,00 2.028,21 30/06/2016
148 273300 AMUJACY DE BRITO ASSIZ OFICIAL DO MP ATIVO BELO HORIZONTE - COMARCA; BH-12PJ JUIZO CRIMINAL-SECRETARIA 7.806,95 1.561,39 0,00 4.684,17 0,00 0,00 14.052,51 1.336,82 1.359,62 0,00 2.696,44 11.356,07 1.431,00 2.784,74 30/06/2016
149 482200 ANA ALICE LOPES ACHTSCHIN ANALISTA DO MP ATIVO BELO HORIZONTE - COMARCA; PROC JUST RECURSOS ESP E EXTRAORD CRIMINAIS 7.806,95 780,70 0,00 4.293,83 0,00 0,00 12.881,48 1.154,54 1.232,47 0,00 2.387,01 10.494,47 799,00 2.028,21 30/06/2016
150 490400 ANA AMELIA PAULINO GARCIA OFICIAL DO MP ATIVO CONTAGEM - COMARCA; CONTAGEM-PJ-13PJ 5.396,93 323,82 0,00 0,00 1.906,92 0,00 7.627,67 1.224,27 1.825,11 0,00 3.049,38 4.578,29 799,00 6.015,58 30/06/2016
151 279100 ANA CAROLINA ARAUJO PEREIRA ANALISTA DO MP ATIVO BELO HORIZONTE - COMARCA; DIRETORIA DE PROJETOS DE EDIFICACOES 12.225,81 2.445,16 0,00 5.193,97 0,00 0,00 19.864,94 1.985,91 2.669,22 0,00 4.655,13 15.209,81 1.431,00 3.383,00 30/06/2016
152 359400 ANA CAROLINA DE ABREU FARIA ASSESSOR ATIVO BELO HORIZONTE - COMARCA; DIVISAO DE CONTROLE IMOBILIARIO 0,00 0,00 6.973,61 3.486,81 110,69 0,00 10.571,11 570,88 1.141,56 0,00 1.712,44 8.858,67 2.751,61 1.839,39 30/06/2016
153 408500 ANA CAROLINA DE CASTRO CARVALHO ANALISTA DO MP ATIVO BARBACENA - COMARCA; BARBACENA-PJ-SECRETARIA 9.461,59 946,16 0,00 5.203,88 0,00 0,00 15.611,63 1.482,70 1.838,55 0,00 3.321,25 12.290,38 839,39 3.071,31 30/06/2016
154 420200 ANA CAROLINA FERNANDES SILVA ANALISTA DO MP ATIVO BELO HORIZONTE - COMARCA; GABINETE DE PROCURADOR DE JUSTIÇA - SALA 708 8.874,34 887,43 0,00 0,00 0,00 0,00 9.761,77 1.592,29 2.000,13 0,00 3.592,42 6.169,35 799,00 5.265,75 30/06/2016
155 522100 ANA CAROLINA FERNANDINO VIDAL PEREIRA SANTOS OFICIAL DO MP ATIVO BELO HORIZONTE - COMARCA; EXTINTA - SECRETARIA ADMINISTRATIVA 4.902,32 294,14 0,00 0,00 0,00 0,00 5.196,46 695,26 404,46 0,00 1.099,72 4.096,74 799,00 1.123,85 30/06/2016
156 502400 ANA CAROLINA GONCALVES FERNANDES ANALISTA DO MP ATIVO GRAO MOGOL - COMARCA; GRAO MOGOL-PJ-UNPJ 7.560,72 453,64 0,00 3.020,31 0,00 0,00 11.034,67 1.075,18 1.092,15 0,00 2.167,33 8.867,34 799,00 1.760,00 30/06/2016
157 529900 ANA CAROLINA GONCALVES PECANHA CHEQUER ANALISTA DO MP ATIVO MANHUAÇU - COMARCA; MANHUACU-PJ-04PJ 6.334,59 380,08 0,00 2.601,00 0,00 0,00 9.315,67 899,26 774,06 0,00 1.673,32 7.642,35 799,00 1.552,52 30/06/2016
158 431900 ANA CAROLINA MOTTA GUATIMOSIM ANALISTA DO MP ATIVO BELO HORIZONTE - COMARCA; GABINETE DE PROCURADOR DE JUSTIÇA - SALA 1006 8.874,34 887,43 0,00 4.880,89 0,00 0,00 14.642,66 1.592,29 2.000,13 0,00 3.592,42 11.050,24 1.249,19 5.266,53 30/06/2016
159 490600 ANA CAROLINA XAVIER GODOY ANALISTA DO MP ATIVO BELO HORIZONTE - COMARCA; BH-18PJ VIOLENCIA DOMESTICA 7.560,72 453,64 0,00 3.020,31 0,00 0,00 11.034,67 1.088,22 1.092,15 0,00 2.180,37 8.854,30 799,00 1.878,56 30/06/2016
160 600300 ANA CAROLINE PEREIRA DINIZ ANALISTA DO MP ATIVO BELO HORIZONTE - COMARCA; COMB CRIMES PRAT POR AG POL MUN-SECRETARIA 6.134,81 0,00 0,00 3.067,41 0,00 0,00 9.202,22 820,78 632,13 0,00 1.452,91 7.749,31 1.431,00 1.326,80 30/06/2016
161 615800 ANA CAROLINE PEREIRA OLIVEIRA OFICIAL DO MP ATIVO ALFENAS - COMARCA; ALFENAS-PJ-06PJ 3.982,20 0,00 0,00 0,00 0,00 0,00 3.982,20 615,35 307,46 0,00 922,81 3.059,39 799,00 1.669,25 30/06/2016
162 324800 ANA CECILIA MENDES DA SILVA OFICIAL DO MP ATIVO OURO FINO - COMARCA; OURO FINO-PJ-01PJ 7.322,31 2.196,69 0,00 4.759,50 0,00 0,00 14.278,50 1.259,39 1.408,28 0,00 2.667,67 11.610,83 1.431,00 1.929,60 30/06/2016
163 441300 ANA CLAUDIA ALKIMIM MIRANDA BOMTEMPO ANALISTA DO MP ATIVO MONTES CLAROS - COMARCA; MONTES CLAROS-PJ-11PJ 8.874,34 887,43 0,00 4.880,89 0,00 0,00 14.642,66 1.569,59 1.895,86 0,00 3.465,45 11.177,21 1.431,00 5.046,53 30/06/2016
164 642500 ANA CLAUDIA DA COSTA NAVES OFICIAL DO MP ATIVO MONTE CARMELO - COMARCA; MONTE CARMELO-PJ-02PJ 3.182,15 0,00 0,00 1.060,72 0,00 0,00 4.242,87 350,04 70,02 0,00 420,06 3.822,81 799,00 0,00 30/06/2016
165 604900 ANA CLAUDIA OLIVEIRA DE MIRANDA OFICIAL DO MP ATIVO PONTE NOVA - COMARCA; PONTE NOVA-PJ-04PJ 3.285,74 0,00 0,00 1.642,87 0,00 0,00 4.928,61 444,78 62,30 0,00 507,08 4.421,53 799,00 757,65 30/06/2016
166 379300 ANA CRISTINA ALVES FLAVIO ANALISTA DO MP ATIVO SÃO GOTARDO - COMARCA; SAO GOTARDO-PJ-01PJ 9.461,59 946,16 0,00 5.203,88 0,00 0,00 15.611,63 1.408,85 1.573,66 0,00 2.982,51 12.629,12 1.431,00 2.550,89 30/06/2016
167 461200 ANA CRISTINA ALVES PASCHOAL ANALISTA DO MP ATIVO SANTA LUZIA - COMARCA; SANTA LUZIA-PJ-03PJ 7.806,95 780,70 0,00 4.293,83 2.862,55 0,00 15.744,03 1.154,54 2.019,67 0,00 3.174,21 12.569,82 799,00 2.035,41 30/06/2016
168 514100 ANA CRISTINA ARAUJO ASSUNCAO ANALISTA DO MP ATIVO BELO HORIZONTE - COMARCA; ASSESS JUR DO CONS SUPERIOR DO MINISTERIO PUB 7.560,72 453,64 0,00 0,00 2.671,45 0,00 10.685,81 1.075,18 1.774,67 0,00 2.849,85 7.835,96 1.431,00 1.877,33 30/06/2016
169 113400 ANA CRISTINA BRAGA ALBUQUERQUE ANALISTA DO MP ATIVO BELO HORIZONTE - COMARCA; ASSESS ESP ADM E FINANCEIRA DO PGJ ADJ ADM 25.682,27 12.841,14 0,00 15.235,56 0,00 0,00 53.758,97 3.351,82 6.588,44 8.052,30 17.992,56 35.766,41 799,00 0,00 30/06/2016
170 233800 ANA CRISTINA BRAGA SOARES RIOS OFICIAL DO MP ATIVO CONTAGEM - COMARCA; CONTAGEM-PJ-SECRETARIA 7.806,95 1.561,39 0,00 4.684,17 0,00 0,00 14.052,51 1.334,62 1.568,17 0,00 2.902,79 11.149,72 799,00 2.764,80 30/06/2016
171 186400 ANA CRISTINA DE AZEVEDO LOPES OFICIAL DO MP ATIVO UBÁ - COMARCA; UBA-PJ-01PJ 10.755,28 3.226,58 0,00 4.971,65 0,00 0,00 18.953,51 1.996,13 2.716,34 0,00 4.712,47 14.241,04 814,65 4.164,77 30/06/2016
172 465100 ANA CRISTINA DE OLIVEIRA GUIMARAES ANALISTA DO MP ATIVO BRASÓPOLIS - COMARCA; BRASOPOLIS-PJ-UNPJ 7.806,95 780,70 0,00 4.293,83 0,00 0,00 12.881,48 1.154,54 1.180,33 0,00 2.334,87 10.546,61 5.553,07 2.286,06 30/06/2016
173 500600 ANA CRISTINA LATADO SUDARIO ANALISTA DO MP ATIVO UBERLÂNDIA - COMARCA; UBERLANDIA-PJ-09PJ 7.560,72 453,64 0,00 4.007,18 0,00 0,00 12.021,54 1.075,18 1.092,15 0,00 2.167,33 9.854,21 799,00 1.877,33 30/06/2016
174 331400 ANA CRISTINA RIBEIRO ALVES OFICIAL DO MP ATIVO BAMBUÍ - COMARCA; BAMBUI-PJ-UNPJ 6.753,72 1.350,74 0,00 4.052,23 0,00 0,00 12.156,69 1.154,46 1.262,71 0,00 2.417,17 9.739,52 1.172,76 2.594,12 30/06/2016
175 249300 ANA ELOINA MARTINS DO PINHO OFICIAL DO MP ATIVO BETIM - COMARCA; BETIM-PJ-08PJ 8.874,34 3.549,74 0,00 4.469,06 0,00 0,00 16.893,14 2.307,09 3.263,46 0,00 5.570,55 11.322,59 799,00 9.504,34 30/06/2016
176 257400 ANA FLAVIA CAMBRAIA ANALISTA DO MP ATIVO BELO HORIZONTE - COMARCA; BH-19PJ SAUDE-SECRETARIA 150PJ 12.623,91 2.524,78 0,00 7.574,35 0,00 0,00 22.723,04 2.050,61 2.786,14 0,00 4.836,75 17.886,29 799,00 3.493,15 30/06/2016
177 248201 ANA FLAVIA DE MORAIS SOUZA ANALISTA DO MP ATIVO DIVINÓPOLIS - COMARCA; DIVINOPOLIS-PJ-01PJ 7.806,95 1.561,39 0,00 4.684,17 0,00 0,00 14.052,51 1.268,12 1.371,40 0,00 2.639,52 11.412,99 1.431,00 2.160,25 30/06/2016
178 621100 ANA FLAVIA DINIZ TEODORO OFICIAL DO MP ATIVO SANTA LUZIA - COMARCA; SANTA LUZIA-PJ-06PJ 3.285,74 0,00 0,00 0,00 1.095,25 0,00 4.380,99 444,78 268,27 0,00 713,05 3.667,94 799,00 808,16 30/06/2016
179 238600 ANA FLAVIA FRANCO OFICIAL DO MP ATIVO BELO HORIZONTE - COMARCA; DIRETORIA DE PESSOAL ADMINISTRATIVO - DPAD 9.163,30 2.748,99 0,00 5.956,15 0,00 0,00 17.868,44 1.589,25 2.046,17 0,00 3.635,42 14.233,02 799,00 2.535,55 30/06/2016
180 402900 ANA FLAVIA PORTES DE CARVALHO ANALISTA DO MP ATIVO BELO HORIZONTE - COMARCA; DIRET DE PLANOS PROJETOS E PROGRAMAS INST 9.461,59 946,16 0,00 5.203,88 0,00 0,00 15.611,63 1.408,85 1.625,80 0,00 3.034,65 12.576,98 799,00 2.399,95 30/06/2016
181 382700 ANA KARENINA SALDANHA GONTIJO ANALISTA DO MP ATIVO BELO HORIZONTE - COMARCA; ASSESS TECNICO-JUR JUNTO AS PROC. DE JUST 8.874,34 887,43 0,00 4.880,89 0,00 0,00 14.642,66 1.835,05 2.259,11 0,00 4.094,16 10.548,50 2.063,00 7.948,23 30/06/2016
182 620500 ANA KARINE DE ANDRADE OLIVEIRA ANALISTA DO MP ATIVO RIBEIRÃO DAS NEVES - COMARCA; RIBEIRAO DAS NEVES-PJ-10PJ 5.061,97 0,00 0,00 2.530,99 0,00 0,00 7.592,96 685,22 377,53 0,00 1.062,75 6.530,21 799,00 1.245,01 30/06/2016
183 220000 ANA LUCIA AMORIM OFICIAL DO MP ATIVO MARTINHO CAMPOS - COMARCA; MARTINHO CAMPOS-PJ-SECRETARIA 9.163,30 4.581,65 0,00 6.872,48 0,00 0,00 20.617,43 1.964,33 2.706,89 0,00 4.671,22 15.946,21 799,00 4.112,55 30/06/2016
184 462200 ANA LUCIA ANDRADE TOMICH OTTONI ANALISTA DO MP ATIVO TEÓFILO OTONI - COMARCA; TEOFILO OTONI-PJ-06PJ 7.806,95 780,70 0,00 4.293,83 0,00 0,00 12.881,48 1.154,54 1.128,19 0,00 2.282,73 10.598,75 799,00 1.908,20 30/06/2016
185 504100 ANA LUCIA CATAO DE CARVALHO OFICIAL DO MP ATIVO BELO HORIZONTE - COMARCA; BH-09PJ AUDITORIA MILITAR 5.396,93 323,82 0,00 0,00 1.906,92 0,00 7.627,67 1.214,30 1.772,97 0,00 2.987,27 4.640,40 1.431,00 5.917,31 30/06/2016
186 274700 ANA LUCIA DE ALENCAR BRAGATO OFICIAL DO MP ATIVO UBERABA - COMARCA; UBERABA-PJ-07PJ 8.061,11 1.612,22 0,00 3.581,60 0,00 0,00 13.254,93 1.489,98 1.880,02 0,00 3.370,00 9.884,93 799,00 3.872,18 30/06/2016
187 509400 ANA LUCIA DORNELAS MALLOSTO ANALISTA DO MP ATIVO JUIZ DE FORA - COMARCA; JUIZ DE FORA-PJ-18PJ 6.973,61 418,42 0,00 3.696,02 0,00 0,00 11.088,05 988,97 887,70 0,00 1.876,67 9.211,38 799,00 1.598,75 30/06/2016
188 524600 ANA LUCIA DOS SANTOS FERNANDES COELHO ASSESSOR ATIVO BELO HORIZONTE - COMARCA; COORD DE INCLUSAO E MOBILIZACAO SOCIAIS 0,00 0,00 4.183,93 2.191,97 0,00 0,00 6.375,90 570,88 356,58 0,00 927,46 5.448,44 901,41 1.051,48 30/06/2016
189 302600 ANA LUCIA LOPES SANTOS OFICIAL DO MP ATIVO BELO HORIZONTE - COMARCA; PROCON-MG-SECRETARIA DE FISCALIZACOES 7.322,31 2.698,02 0,00 5.010,17 0,00 0,00 15.030,50 1.178,84 1.568,30 0,00 2.747,14 12.283,36 1.600,63 2.445,00 30/06/2016
190 493400 ANA LUISA NOGUEIRA MOREIRA ANALISTA DO MP ATIVO BELO HORIZONTE - COMARCA; TRIBUNAL DO JURI-07 PJ-02 TRIBUNAL 7.560,72 453,64 0,00 4.007,18 0,00 0,00 12.021,54 1.088,22 1.092,15 0,00 2.180,37 9.841,17 799,00 1.878,56 30/06/2016
191 389300 ANA LUISA REUTER LIMA ANALISTA DO MP ATIVO BELO HORIZONTE - COMARCA; DIRETORIA DE SISTEMAS DE INFORMACAO 7.806,95 780,70 0,00 4.293,83 0,00 0,00 12.881,48 1.162,44 1.232,47 0,00 2.394,91 10.486,57 799,00 1.980,20 30/06/2016
192 480600 ANA LUIZA FERNANDES FRAGA E GRECO OFICIAL DO MP ATIVO SANTO ANTÔNIO DO MONTE - COMARCA; SANTO ANTONIO DO MONTE-PJ-UNPJ 5.061,97 506,20 0,00 2.784,09 1.856,06 0,00 10.208,32 736,15 1.003,87 0,00 1.740,02 8.468,30 799,00 1.198,77 30/06/2016
193 481400 ANA MARCIA CANDIDA FERREIRA OFICIAL DO MP ATIVO BRUMADINHO - COMARCA; BRUMADINHO-PJ-01PJ 4.245,74 424,57 0,00 2.335,16 0,00 0,00 7.005,47 627,88 299,10 0,00 926,98 6.078,49 799,00 1.037,75 30/06/2016
194 643100 ANA MARIA LOPES MIRANDA ANALISTA DO MP ATIVO BELO HORIZONTE - COMARCA; CAO-TS-TERCEIRO SETOR 5.396,93 0,00 0,00 1.798,98 0,00 0,00 7.195,91 593,66 451,54 0,00 1.045,20 6.150,71 1.431,00 0,00 30/06/2016
195 556400 ANA MARIA OLIVEIRA SOUZA OFICIAL DO MP ATIVO ITAPECERICA - COMARCA; ITAPECERICA-PJ-UNPJ 3.982,20 0,00 0,00 1.991,10 0,00 0,00 5.973,30 531,04 176,82 0,00 707,86 5.265,44 799,00 894,66 30/06/2016
196 409600 ANA OLIVIA FARIA ROSENBURG ANALISTA DO MP ATIVO BELO HORIZONTE - COMARCA; DIRETORIA DO COLEGIO E DA CAMARA DE PJ 9.461,59 1.892,32 0,00 5.676,96 0,00 0,00 17.030,87 1.617,49 2.084,72 0,00 3.702,21 13.328,66 799,00 3.350,50 30/06/2016
197 461500 ANA PAULA ALVES CARVALHO ANALISTA DO MP ATIVO UBERLÂNDIA - COMARCA; UBERLANDIA-PJ-08PJ 7.806,95 780,70 0,00 0,00 0,00 0,00 8.587,65 1.154,54 1.232,47 0,00 2.387,01 6.200,64 1.431,00 1.908,20 30/06/2016
198 523200 ANA PAULA ALVES DA SILVA OFICIAL DO MP ATIVO GOVERNADOR VALADARES - COMARCA; GOVERNADOR VALADARES-PJ-10PJ 4.902,32 294,14 0,00 2.598,23 0,00 0,00 7.794,69 695,26 361,80 0,00 1.057,06 6.737,63 1.431,00 1.123,85 30/06/2016
199 381200 ANA PAULA BARROS PEREIRA ANALISTA DO MP ATIVO BELO HORIZONTE - COMARCA; PROC JUST RECURSOS ESP E EXTRAORD CRIMINAIS 9.461,59 946,16 0,00 5.203,88 0,00 0,00 15.611,63 1.408,85 1.677,94 0,00 3.086,79 12.524,84 845,54 2.399,95 30/06/2016
200 227200 ANA PAULA DA SILVA CAMPOLINA ANALISTA DO MP ATIVO BELO HORIZONTE - COMARCA; SUPERINTENDENCIA DE FINANCAS 14.297,05 5.718,82 0,00 10.007,94 0,00 0,00 30.023,81 2.706,00 4.029,52 0,00 6.735,52 23.288,29 1.057,65 4.584,15 30/06/2016
201 84200 ANA PAULA DE SOUZA ROCHA OFICIAL DO MP ATIVO BELO HORIZONTE - COMARCA; ASSESS ESP ADM E FINANCEIRA DO PGJ ADJ ADM 24.137,95 12.068,98 0,00 15.235,56 0,00 0,00 51.442,49 3.351,82 6.588,44 5.735,82 15.676,08 35.766,41 799,00 0,00 30/06/2016
202 278500 ANA PAULA DIAS CAPANEMA COORDENADOR/OFICIAL ATIVO BELO HORIZONTE - COMARCA; EXTINTA - DIRETORIA DE MATERIAL E PATRIMONIO 0,00 2.293,40 11.466,98 6.880,19 0,00 0,00 20.640,57 1.490,02 3.688,76 0,00 5.178,78 15.461,79 807,75 7.351,55 30/06/2016
203 327300 ANA PAULA GARCIA MAXIMO OFICIAL DO MP ATIVO UNAÍ - COMARCA; UNAI-PJ-01PJ 7.322,31 2.196,69 0,00 4.759,50 0,00 0,00 14.278,50 1.277,04 1.304,00 0,00 2.581,04 11.697,46 799,00 2.090,40 30/06/2016
204 270000 ANA PAULA GOULART CRUZ DE MAGALHAES ANALISTA DO MP ATIVO BELO HORIZONTE - COMARCA; COMB CRIMES PRAT POR AG POL MUN-ASSESSORIA 9.769,61 1.953,92 0,00 5.861,77 0,00 0,00 17.585,30 1.586,94 1.999,97 0,00 3.586,91 13.998,39 799,00 2.883,52 30/06/2016
205 262100 ANA PAULA KOMATSUZAKI ABIJAUDI ANALISTA DO MP ATIVO BELO HORIZONTE - COMARCA; BH-17PJ PATRIMONIO PUBLICO-SECRETARIA 12.623,91 5.049,56 0,00 8.836,74 0,00 0,00 26.510,21 2.360,33 3.351,95 0,00 5.712,28 20.797,93 821,12 3.784,25 30/06/2016
206 278900 ANA PAULA MOREIRA GURGEL ANALISTA DO MP ATIVO BELO HORIZONTE - COMARCA; SUPERINTENDENCIA DE RECURSOS HUMANOS 13.228,78 3.968,63 0,00 8.598,71 0,00 0,00 25.796,12 2.597,42 3.977,90 0,00 6.575,32 19.220,80 890,91 6.415,65 30/06/2016
207 425701 ANA PAULA ROCHA ASSESSOR/ANALISTA ATIVO BELO HORIZONTE - COMARCA; SUPERINTENDENCIA DE COMUNICACAO INTEGRADA 0,00 0,00 6.973,61 0,00 2.324,54 0,00 9.298,15 754,34 1.519,06 0,00 2.273,40 7.024,75 799,00 1.660,40 30/06/2016
208 395601 ANA PAULA SALGE OLIVEIRA ANALISTA DO MP ATIVO UBERABA - COMARCA; COORD REG PP TRIANGULO MINEIRO UBERABA 7.560,72 1.512,14 0,00 4.536,43 0,00 0,00 13.609,29 1.217,21 1.351,22 0,00 2.568,43 11.040,86 799,00 1.992,50 30/06/2016
209 473200 ANA PAULA SCOTTON BRASIL ANALISTA DO MP ATIVO JUIZ DE FORA - COMARCA; JUIZ DE FORA-PJ-09PJ 7.806,95 780,70 0,00 4.293,83 0,00 0,00 12.881,48 1.154,54 1.232,47 0,00 2.387,01 10.494,47 1.431,00 1.908,20 30/06/2016
210 633600 ANA PAULA SILVA FERNANDES OFICIAL DO MP ATIVO CATAGUASES - COMARCA; CATAGUASES-PJ-04PJ 3.285,74 0,00 0,00 1.642,87 0,00 0,00 4.928,61 444,78 83,85 0,00 528,63 4.399,98 799,00 757,65 30/06/2016
211 470900 ANA PAULA VALADARES ANALISTA DO MP ATIVO PITANGUI - COMARCA; PITANGUI-PJ-01PJ 7.806,95 780,70 0,00 3.257,41 2.862,55 0,00 14.707,61 1.154,54 1.915,39 0,00 3.069,93 11.637,68 799,00 1.908,20 30/06/2016
212 447000 ANA PAULA VALENTIM DE ARAUJO ANALISTA DO MP ATIVO BELO HORIZONTE - COMARCA; COMB CRIMES PRAT POR AG POL MUN-SECRETARIA 8.594,48 859,45 0,00 4.726,97 0,00 0,00 14.180,90 1.264,83 1.444,49 0,00 2.709,32 11.471,58 799,00 2.044,70 30/06/2016
213 604200 ANA PAULA VIANA E SILVA OFICIAL DO MP ATIVO BELO HORIZONTE - COMARCA; BH-17PJ PATRIMONIO PUBLICO-SECRETARIA 3.982,20 0,00 0,00 1.683,67 0,00 0,00 5.665,87 532,79 176,82 0,00 709,61 4.956,26 1.431,00 918,67 30/06/2016
214 505400 ANA PAULA VIEIRA SOUTO OFICIAL DO MP ATIVO ALMENARA - COMARCA; COORD. PAT. PUBLICO-MUCURI/JEQUIT - ALMENARA 4.111,87 1.233,56 0,00 2.182,90 0,00 0,00 7.528,33 705,35 391,63 0,00 1.096,98 6.431,35 799,00 1.067,15 30/06/2016
215 280200 ANA RACHEL BRANDAO LADEIRA ROLAND COORDENADOR/ANALISTA ATIVO BELO HORIZONTE - COMARCA; ASSESSORIA JURIDICO-ADMINISTRATIVA 0,00 2.972,60 14.863,02 8.917,81 0,00 0,00 26.753,43 1.962,81 3.591,64 0,00 5.554,45 21.198,98 799,00 4.246,55 30/06/2016
216 601200 ANA REGINA RIBEIRO ANALISTA DO MP ATIVO BELO HORIZONTE - COMARCA; EXTINTA - DIVISAO DE SERVICOS GERAIS 5.572,67 0,00 0,00 2.232,56 1.857,56 0,00 9.662,79 745,59 1.005,38 0,00 1.750,97 7.911,82 799,00 1.205,25 30/06/2016
217 384700 ANA RODRIGUES PEREIRA MARRA ANALISTA DO MP ATIVO COROMANDEL - COMARCA; COROMANDEL-PJ-SECRETARIA 8.061,11 806,11 0,00 4.433,61 0,00 0,00 13.300,83 1.186,34 1.248,76 0,00 2.435,10 10.865,73 799,00 1.917,75 30/06/2016
218 232700 ANA SILVIA SEMBLANO NAKAMURA ASSESSOR/OFICIAL ATIVO BELO HORIZONTE - COMARCA; CENT DE APOIO TEC-SETOR DEF,IDOSO E INFANC 0,00 1.774,87 8.874,34 5.324,61 0,00 0,00 15.973,82 1.378,07 1.747,25 0,00 3.125,32 12.848,50 1.078,59 2.535,55 30/06/2016
219 326700 ANA TERCIA DE FATIMA COSTA OFICIAL DO MP ATIVO NOVA SERRANA - COMARCA; NOVA SERRANA-PJ-01PJ 7.322,31 1.464,46 0,00 4.393,39 0,00 1.116,66 14.296,82 1.330,29 1.928,91 0,00 3.259,20 11.037,62 1.184,93 3.855,91 30/06/2016
220 602100 ANACLETO FRANCISCO MARCIER PIMENTA OFICIAL DO MP ATIVO SÃO JOÃO DEL REI - COMARCA; SAO JOAO DEL REI-PJ-01PJ 3.617,27 0,00 0,00 1.808,64 0,00 0,00 5.425,91 483,95 56,00 0,00 539,95 4.885,96 5.048,27 924,88 30/06/2016
221 310400 ANADEJE DO CARMO DINIZ ARAUJO OFICIAL DO MP ATIVO BELO HORIZONTE - COMARCA; CENT DE ATENDIMENTO E ORIENTACAO DE PESSOAL 7.322,31 1.464,46 0,00 3.269,52 0,00 0,00 12.056,29 1.330,29 1.615,21 0,00 2.945,50 9.110,79 944,91 3.306,47 30/06/2016
222 337000 ANAILDES MARIA MENDES OFICIAL DO MP ATIVO JANAÚBA - COMARCA; JANAUBA-PJ-02PJ 6.973,61 2.628,28 0,00 0,00 3.200,63 0,00 12.802,52 1.151,82 2.527,36 0,00 3.679,18 9.123,34 1.431,00 2.522,02 30/06/2016
223 192900 ANATALIA CERQUEIRA LIMA PERES OFICIAL DO MP ATIVO UBERABA - COMARCA; COORD REG SAUDE MACROR SANIT TRIANGULO SUL 8.818,48 2.662,30 0,00 5.768,32 0,00 0,00 17.249,10 1.578,44 1.938,87 0,00 3.517,31 13.731,79 806,19 2.812,92 30/06/2016
224 377400 ANDEIRSON DA MATTA BARBOSA ANALISTA DO MP ATIVO POUSO ALEGRE - COMARCA; POUSO ALEGRE-PJ-01PJ 8.594,48 859,45 0,00 4.726,97 0,00 0,00 14.180,90 1.272,13 1.444,49 0,00 2.716,62 11.464,28 806,54 2.111,25 30/06/2016
225 317400 ANDERSON DA SILVA BICALHO OFICIAL DO MP ATIVO CONTAGEM - COMARCA; COORD REG DEF ORDEM ECONOMICA TRIB CONTAGEM 6.753,72 1.350,74 0,00 3.127,58 0,00 0,00 11.232,04 1.232,70 1.321,34 0,00 2.554,04 8.678,00 1.431,00 3.102,21 30/06/2016
226 506900 ANDERSON DE SOUZA DAMIANI ANALISTA DO MP ATIVO BELO HORIZONTE - COMARCA; DIRETORIA DE PAGAMENTO DE PESSOAL-DPAG 6.973,61 1.394,72 0,00 4.184,17 0,00 0,00 12.552,50 1.119,62 1.074,51 0,00 2.194,13 10.358,37 1.431,00 2.059,24 30/06/2016
227 410000 ANDERSON DE SOUZA NETO ASSESSOR ATIVO BELO HORIZONTE - COMARCA; DIRETORIA DE ADMINISTRACAO FINANCEIRA 0,00 0,00 4.383,93 2.191,97 0,00 0,00 6.575,90 570,88 401,58 0,00 972,46 5.603,44 799,00 1.043,80 30/06/2016
228 181900 ANDERSON FLAVIO DE OLIVEIRA OFICIAL DO MP ATIVO ITAGUARA - COMARCA; ITAGUARA-PJ-SECRETARIA 9.461,59 2.838,48 0,00 6.150,04 0,00 0,00 18.450,11 1.752,29 2.330,89 0,00 4.083,18 14.366,93 799,00 3.635,69 30/06/2016
229 119500 ANDERSON FUNGHI DE AZEVEDO ROCHA DIRETOR/OFICIAL ATIVO BELO HORIZONTE - COMARCA; SUPRIN DE PLANEJAMENTO E COORDENACAO 0,00 11.890,42 14.863,02 13.376,72 0,00 0,00 40.130,16 3.135,08 5.673,95 0,00 8.809,03 31.321,13 1.630,12 6.369,85 30/06/2016
230 333200 ANDERSON JOSE DE FREITAS OFICIAL DO MP ATIVO IPATINGA - COMARCA; IPATINGA-PJ-07PJ 6.973,61 2.628,28 0,00 4.800,95 3.200,63 0,00 17.603,47 1.192,09 2.423,08 0,00 3.615,17 13.988,30 1.574,33 2.923,57 30/06/2016
231 462100 ANDERSON LUIZ GUIMARAES CARDOSO ANALISTA DO MP ATIVO BARBACENA - COMARCA; BARBACENA-PJ-02PJ 7.806,95 780,70 0,00 3.205,27 0,00 0,00 11.792,92 1.154,54 1.232,47 0,00 2.387,01 9.405,91 799,00 1.908,20 30/06/2016
232 429700 ANDERSON MELO DE SOUZA OFICIAL DO MP ATIVO BELO HORIZONTE - COMARCA; DIRET DE ESTAGIOS E CONVENIOS ACADEMICOS 4.747,79 474,78 0,00 2.611,29 0,00 0,00 7.833,86 745,20 504,60 0,00 1.249,80 6.584,06 1.027,66 1.613,23 30/06/2016
233 545600 ANDERSON MENDES PROCOPIO FERREIRA ANALISTA DO MP ATIVO BELO HORIZONTE - COMARCA; BH-12PJ JUIZO CRIMINAL-GAB 089PJ 6.334,59 380,08 0,00 2.601,00 0,00 0,00 9.315,67 899,26 774,06 0,00 1.673,32 7.642,35 799,00 1.469,57 30/06/2016
234 519900 ANDERSON MOREIRA DOEHLER ANALISTA DO MP ATIVO NOVO CRUZEIRO - COMARCA; NOVO CRUZEIRO-PJ-UNPJ 6.973,61 1.394,72 0,00 4.184,17 0,00 0,00 12.552,50 1.119,62 1.178,79 0,00 2.298,41 10.254,09 799,00 1.809,90 30/06/2016
235 103000 ANDERSON TADEU DE DEUS ASSESSOR ATIVO BELO HORIZONTE - COMARCA; EXTINTA - DIVISAO DE TRANSPORTES 0,00 2.191,97 4.383,93 3.287,95 0,00 0,00 9.863,85 570,88 1.001,75 0,00 1.572,63 8.291,22 891,27 1.574,16 30/06/2016
236 309200 ANDITYAS SOARES DE MOURA COSTA MATOS ANALISTA DO MP ATIVO BELO HORIZONTE - COMARCA; GABINETE DE PROCURADOR DE JUSTIÇA - SALA 909 10.416,20 2.083,24 0,00 6.249,72 4.166,48 0,00 22.915,64 1.672,29 3.335,66 0,00 5.007,95 17.907,69 799,00 2.883,52 30/06/2016
237 613500 ANDRE AZEVEDO SOUSA ANALISTA DO MP ATIVO BELO HORIZONTE - COMARCA; CAO-CRIANCAS E ADOLESCENTES 6.134,81 0,00 0,00 0,00 0,00 0,00 6.134,81 820,78 580,00 0,00 1.400,78 4.734,03 799,00 1.326,80 30/06/2016
238 519200 ANDRE BORJA LANA ANALISTA DO MP ATIVO BELO HORIZONTE - COMARCA; DIRETORIA DE IMPRENSA 7.560,72 453,64 0,00 4.007,18 0,00 0,00 12.021,54 1.075,18 1.092,15 0,00 2.167,33 9.854,21 939,80 1.888,53 30/06/2016
239 637200 ANDRE FERNANDES DA CUNHA OFICIAL DO MP ATIVO MORADA NOVA DE MINAS - COMARCA; MORADA NOVA DE MINAS-PJ-UNPJ 3.617,27 0,00 0,00 1.545,63 0,00 0,00 5.162,90 481,25 128,11 0,00 609,36 4.553,54 799,00 757,65 30/06/2016
240 521900 ANDRE LUIS GOMES SILVA ANALISTA DO MP ATIVO FORMIGA - COMARCA; FORMIGA-PJ-02PJ 7.560,72 453,64 0,00 4.007,18 0,00 0,00 12.021,54 1.075,18 608,12 0,00 1.683,30 10.338,24 799,00 1.877,33 30/06/2016
241 637300 ANDRE LUIS TOLENTINO MOURA ANALISTA DO MP ATIVO VARZEA DA PALMA - COMARCA; VARZEA DA PALMA-PJ-02PJ 5.572,67 0,00 0,00 2.786,34 1.857,56 0,00 10.216,57 741,39 1.005,38 0,00 1.746,77 8.469,80 799,00 1.167,20 30/06/2016
242 304300 ANDRE LUIZ AVELAR ANALISTA DO MP ATIVO BELO HORIZONTE - COMARCA; DIRETORIA DE REDES E BANCOS DE DADOS 7.200,69 1.440,14 0,00 4.320,42 0,00 0,00 12.961,25 1.176,79 1.245,48 0,00 2.422,27 10.538,98 985,32 2.057,35 30/06/2016
243 397400 ANDRE PATARO MYRRHA DE PAULA E SILVA ANALISTA DO MP ATIVO BELO HORIZONTE - COMARCA; ASSESSORIA JURIDICO-ADMINISTRATIVA 9.461,59 946,16 0,00 3.792,48 0,00 0,00 14.200,23 1.408,85 1.677,94 0,00 3.086,79 11.113,44 1.431,00 2.399,95 30/06/2016
244 548500 ANDRE VINICIUS CARVALHO MEIRA ANALISTA DO MP ATIVO JUIZ DE FORA - COMARCA; JUIZ DE FORA-PJ-25PJ 5.754,07 345,24 0,00 3.049,66 0,00 0,00 9.148,97 861,86 717,57 0,00 1.579,43 7.569,54 799,00 1.735,70 30/06/2016
245 297200 ANDRE WILLE ROSARIO ANALISTA DO MP ATIVO BELO HORIZONTE - COMARCA; ASSESSORIA ESPECIAL DO PGJ 12.225,81 2.445,16 0,00 7.335,49 0,00 0,00 22.006,46 1.966,40 2.617,08 0,00 4.583,48 17.422,98 1.431,00 3.205,64 30/06/2016
246 423600 ANDREA COSTA GUALBERTO ANALISTA DO MP ATIVO GOVERNADOR VALADARES - COMARCA; COORD REG PJ DEF EDU DIR CRIANCA ADOL RIODOCE 9.163,30 4.581,65 0,00 6.872,48 0,00 0,00 20.617,43 1.964,33 2.654,75 0,00 4.619,08 15.998,35 4.959,67 4.705,24 30/06/2016
247 198600 ANDREA CRISTINA ANDRADE COSTA E SOUZA OFICIAL DO MP ATIVO MONTES CLAROS - COMARCA; MONTES CLAROS-PJ-SECRETARIA 10.755,28 3.226,58 0,00 6.990,93 0,00 0,00 20.972,79 1.892,65 2.448,43 0,00 4.341,08 16.631,71 799,00 3.224,05 30/06/2016
248 467300 ANDREA DE CASSIA PENNA ALVERNAZ ANALISTA DO MP ATIVO PONTE NOVA - COMARCA; PONTE NOVA-PJ-01PJ 7.806,95 780,70 0,00 4.293,83 0,00 0,00 12.881,48 1.154,54 1.180,33 0,00 2.334,87 10.546,61 799,00 1.908,20 30/06/2016
249 308000 ANDREA DE CASSIA SANTOS OLIVEIRA ANALISTA DO MP ATIVO BELO HORIZONTE - COMARCA; ASSESS TECNICO-JUR JUNTO AS PROC. DE JUST 12.225,81 2.445,16 0,00 7.335,49 0,00 0,00 22.006,46 2.260,81 3.327,36 0,00 5.588,17 16.418,29 2.068,99 5.882,01 30/06/2016
250 349500 ANDREA DE OLIVEIRA OFICIAL DO MP ATIVO IGUATAMA - COMARCA; IGUATAMA-PJ-UNPJ 6.973,61 1.394,72 0,00 4.184,17 0,00 0,00 12.552,50 1.179,73 1.297,33 0,00 2.477,06 10.075,44 799,00 2.356,41 30/06/2016
251 254700 ANDREA EMISE REIS DE AZEVEDO COORDENADOR/OFICIAL ATIVO BELO HORIZONTE - COMARCA; COMB CRIMES PRAT POR AG POL MUN-SECRETARIA 0,00 2.017,54 10.087,71 6.052,63 0,00 0,00 18.157,88 1.490,02 2.112,91 0,00 3.602,93 14.554,95 799,00 2.882,20 30/06/2016
252 287900 ANDREA FERNANDES PENA OFICIAL DO MP ATIVO MONTES CLAROS - COMARCA; MONTES CLAROS-PJ-09PJ 7.560,72 1.512,14 0,00 4.536,43 0,00 0,00 13.609,29 1.228,11 1.246,95 0,00 2.475,06 11.134,23 799,00 2.092,10 30/06/2016
253 300800 ANDREA FERREIRA ANALISTA DO MP ATIVO LAVRAS - COMARCA; LAVRAS-PJ-04PJ 11.105,40 2.221,08 0,00 0,00 0,00 0,00 13.326,48 1.898,51 2.597,96 0,00 4.496,47 8.830,01 5.197,91 4.540,69 30/06/2016
254 316700 ANDREA FRANCISCA DIAS DE SOUZA ASSESSOR ATIVO BELO HORIZONTE - COMARCA; BH-14PJ DEFESA CONSUMIDOR-GAB 110PJ 0,00 0,00 2.625,65 1.152,19 0,00 0,00 3.777,84 445,48 92,08 0,00 537,56 3.240,28 1.431,00 625,15 30/06/2016
255 395100 ANDREA LANNA MENDES NOVAIS ANALISTA DO MP ATIVO BELO HORIZONTE - COMARCA; PROMOT ESTADUAL DE DEF PATRI CULT E TUR DE MG 10.416,20 1.041,62 0,00 0,00 0,00 0,00 11.457,82 1.765,70 2.396,82 0,00 4.162,52 7.295,30 1.431,00 4.593,83 30/06/2016
256 67300 ANDREA LEAO MAGALHAES ROQUE ASSESSOR ATIVO BELO HORIZONTE - COMARCA; COORD DE CONT. DA CONSTITUCIONALIDADE-SEC 0,00 4.437,17 8.874,34 6.655,76 0,00 0,00 19.967,27 570,88 2.749,76 0,00 3.320,64 16.646,63 799,00 3.169,45 30/06/2016
257 335700 ANDREA LOPES PEREIRA ANALISTA DO MP ATIVO GOVERNADOR VALADARES - COMARCA; COORD REG DO MA DA BACIA DO RIO DOCE 11.105,40 2.221,08 0,00 6.663,24 0,00 0,00 19.989,72 1.803,95 2.392,30 0,00 4.196,25 15.793,47 1.413,59 3.072,96 30/06/2016
258 389200 ANDREA TUPINI DOS SANTOS TRISTAO DA ROCHA OFICIAL DO MP ATIVO BELO HORIZONTE - COMARCA; BH-13ª PJ JUÍZO DE TÓXICOS-SECRETARIA 4.747,79 474,78 0,00 2.611,29 0,00 0,00 7.833,86 706,93 367,03 0,00 1.073,96 6.759,90 799,00 1.204,25 30/06/2016
259 419000 ANDREIA BARBOSA DE ALMEIDA ANALISTA DO MP ATIVO BELO HORIZONTE - COMARCA; GABINETE DE PROCURADOR DE JUSTIÇA - SALA 705 9.163,30 916,33 0,00 5.039,82 0,00 0,00 15.119,45 1.435,96 1.753,22 0,00 3.189,18 11.930,27 1.431,00 2.979,52 30/06/2016
260 281501 ANDREIA CARLA COSTA FILGUEIRAS ANALISTA DO MP ATIVO VISCONDE DO RIO BRANCO - COMARCA; VISCONDE DO RIO BRANCO-PJ-02PJ 9.461,59 946,16 0,00 5.203,88 0,00 0,00 15.611,63 1.482,70 1.786,41 0,00 3.269,11 12.342,52 839,39 3.071,31 30/06/2016
261 643600 ANDREIA CRISTINA SILVA OFICIAL DO MP ATIVO PARACATU - COMARCA; PARACATU-PJ-01PJ 3.182,15 0,00 0,00 795,54 0,00 0,00 3.977,69 350,04 70,02 0,00 420,06 3.557,63 799,00 0,00 30/06/2016
262 477100 ANDREIA DE ALMEIDA RIBEIRO MELO OFICIAL DO MP ATIVO CONTAGEM - COMARCA; CONTAGEM-PJ-07PJ 5.396,93 539,69 0,00 2.968,31 1.978,87 0,00 10.883,80 1.118,06 1.668,90 0,00 2.786,96 8.096,84 1.431,00 4.670,70 30/06/2016
263 619000 ANDREIA FERREIRA NORONHA ASSESSOR/OFICIAL ATIVO BELO HORIZONTE - COMARCA; DIRET DE INFORMACAO E EXPEDICAO DE PROCESSOS 0,00 0,00 8.874,34 4.437,17 0,00 0,00 13.311,51 492,05 1.461,66 0,00 1.953,71 11.357,80 799,00 1.064,94 30/06/2016
264 424000 ANDREIA LUCIA COUTO ANALISTA DO MP ATIVO BELO HORIZONTE - COMARCA; BH-18PJ DIREITOS HUMANOS 9.461,59 946,16 0,00 5.203,88 3.469,25 0,00 19.080,88 1.482,70 2.792,59 0,00 4.275,29 14.805,59 799,00 3.231,31 30/06/2016
265 370100 ANDREIA MARIA SILVA PINTO OFICIAL DO MP ATIVO CORONEL FABRICIANO - COMARCA; CORONEL FABRICIANO-PJ-01PJ 6.540,78 654,08 0,00 3.597,43 0,00 0,00 10.792,29 973,93 891,58 0,00 1.865,51 8.926,78 799,00 1.659,05 30/06/2016
266 382100 ANDREIA NATALI PEREIRA OFICIAL DO MP ATIVO PRADOS - COMARCA; PRADOS-PJ-UNPJ 6.540,78 654,08 0,00 3.597,43 0,00 0,00 10.792,29 1.027,17 1.023,39 0,00 2.050,56 8.741,73 799,00 2.329,27 30/06/2016
267 275200 ANDREIA RIBEIRO FREITAS OFICIAL DO MP ATIVO VIÇOSA - COMARCA; VICOSA-PJ-03PJ 7.322,31 1.464,46 0,00 4.393,39 0,00 0,00 13.180,16 1.197,41 1.229,07 0,00 2.426,48 10.753,68 1.431,00 2.099,06 30/06/2016
268 352200 ANDREIA XAVIER PEREIRA OFICIAL DO MP ATIVO CLÁUDIO - COMARCA; CLAUDIO-PJ-UNPJ 6.973,61 1.394,72 0,00 4.184,17 0,00 0,00 12.552,50 1.179,73 1.413,39 0,00 2.593,12 9.959,38 799,00 2.588,86 30/06/2016
269 638500 ANDRESA ALVES FEITOSA CASAGRANDE ANALISTA DO MP ATIVO PERDÕES - COMARCA; PERDOES-PJ-UNPJ 5.396,93 0,00 0,00 2.698,47 1.798,98 0,00 9.894,38 722,76 946,26 0,00 1.669,02 8.225,36 1.431,00 1.173,62 30/06/2016
270 383700 ANDRESSA EDUARDO SOUZA ANALISTA DO MP ATIVO OURO BRANCO - COMARCA; OURO BRANCO-PJ-SECRETARIA 9.461,59 946,16 0,00 3.792,48 0,00 0,00 14.200,23 1.408,85 1.677,94 0,00 3.086,79 11.113,44 1.431,00 2.550,89 30/06/2016
271 426200 ANDRESSA MENDES CASAL OFICIAL DO MP ATIVO BELO HORIZONTE - COMARCA; DIR ANALISES TECNOLOGIA INTELIGENCIA 5.226,73 522,67 0,00 2.289,57 0,00 0,00 8.038,97 778,28 537,81 0,00 1.316,09 6.722,88 799,00 1.929,76 30/06/2016
272 390100 ANDRESSA RIBEIRO PUCCI OFICIAL DO MP ATIVO UBERABA - COMARCA; UBERABA-PJ-14PJ 5.396,93 539,69 0,00 2.349,97 0,00 0,00 8.286,59 809,51 583,63 0,00 1.393,14 6.893,45 807,14 1.422,40 30/06/2016
273 462500 ANDREZA APARECIDA COSTA E SILVA ANALISTA DO MP ATIVO CONSELHEIRO LAFAIETE - COMARCA; CONSELHEIRO LAFAIETE-PJ-02PJ 7.806,95 780,70 0,00 3.205,27 0,00 0,00 11.792,92 1.154,54 1.232,47 0,00 2.387,01 9.405,91 799,00 1.908,20 30/06/2016
274 537800 ANDREZZA LUZIA DE OLIVEIRA ALVES ANALISTA DO MP ATIVO PATOS DE MINAS - COMARCA; COORD REG PJ DEF EDU DIR CRI ADO AL PAR NOROE 6.334,59 380,08 0,00 3.357,34 0,00 0,00 10.072,01 899,26 669,78 0,00 1.569,04 8.502,97 799,00 1.460,65 30/06/2016
275 491600 ANE PATRICIA RIBEIRO ANALISTA DO MP ATIVO SETE LAGOAS - COMARCA; SETE LAGOAS-PJ-10PJ 7.560,72 453,64 0,00 3.046,38 2.671,45 0,00 13.732,19 1.088,22 1.774,67 0,00 2.862,89 10.869,30 799,00 2.005,77 30/06/2016
276 465800 ANELISE GAMA ASSESSOR ATIVO BELO HORIZONTE - COMARCA; BH-18PJ VIOLENCIA DOMESTICA-SECRETARIA 0,00 0,00 4.383,93 1.829,97 0,00 0,00 6.213,90 570,88 401,58 0,00 972,46 5.241,44 799,00 1.043,80 30/06/2016
277 535200 ANELIZE FERNANDA ALVES VILARINHO OFICIAL DO MP ATIVO CAPINÓPOLIS - COMARCA; CAPINOPOLIS-PJ-UNPJ 3.735,01 224,10 0,00 1.674,94 0,00 0,00 5.634,05 530,25 173,74 0,00 703,99 4.930,06 902,35 861,25 30/06/2016
278 197200 ANGELA COELHO SALDANHA OFICIAL DO MP ATIVO PARÁ DE MINAS - COMARCA; PARA DE MINAS-PJ-03PJ 11.105,40 3.331,62 0,00 7.218,51 0,00 0,00 21.655,53 2.056,72 2.886,90 0,00 4.943,62 16.711,91 849,12 4.264,31 30/06/2016
279 307400 ANGELA CRISTINA GONCALVES MUNIZ ANALISTA DO MP ATIVO UBERLÂNDIA - COMARCA; UBERLANDIA-PJ-SEC FAMILIA 12.225,81 3.667,74 0,00 7.946,78 0,00 0,00 23.840,33 2.126,39 2.968,45 0,00 5.094,84 18.745,49 2.249,00 3.437,40 30/06/2016
280 191800 ANGELA MARIA DE OLIVEIRA OFICIAL DO MP ATIVO GUARANÉSIA - COMARCA; GUARANESIA-PJ-SECRETARIA 11.105,40 4.442,16 0,00 7.773,78 0,00 0,00 23.321,34 2.214,91 3.123,71 0,00 5.338,62 17.982,72 6.163,45 5.014,09 30/06/2016
281 69900 ANGELA MARIA DE PAULA CUNHA OFICIAL DO MP ATIVO JUIZ DE FORA - COMARCA; JUIZ DE FORA-PJ-11PJ 12.225,81 8.558,06 0,00 10.391,94 0,00 0,00 31.175,81 3.202,83 5.149,85 0,00 8.352,68 22.823,13 1.025,82 8.332,82 30/06/2016
282 497400 ANGELA MARIA HENRIQUES ANALISTA DO MP ATIVO BELO HORIZONTE - COMARCA; COORD REG BACIAS RIO VELHAS E PARAOPEBA 7.560,72 453,64 0,00 4.007,18 2.671,45 0,00 14.692,99 1.125,89 1.979,12 0,00 3.105,01 11.587,98 2.063,00 2.327,67 30/06/2016
283 260700 ANGELICA CRISTINA AZEVEDO MOREIRA MOUCO OFICIAL DO MP ATIVO UBÁ - COMARCA; UBA-PJ-02PJ 8.874,34 1.774,87 0,00 5.324,61 0,00 0,00 15.973,82 2.536,18 3.683,28 0,00 6.219,46 9.754,36 800,31 14.115,11 30/06/2016
284 334600 ANGELICA PANISSA DE FREITAS OFICIAL DO MP ATIVO GUAXUPÉ - COMARCA; GUAXUPE-PJ-02PJ 6.973,61 1.394,72 0,00 4.184,17 0,00 0,00 12.552,50 1.132,82 1.178,79 0,00 2.311,61 10.240,89 859,16 1.929,60 30/06/2016
285 521100 ANGELICA SALES MOREIRA OFICIAL DO MP ATIVO BELO HORIZONTE - COMARCA; BH-02PJ FAMILIA-SECRETARIA 4.902,32 294,14 0,00 2.598,23 0,00 0,00 7.794,69 685,76 404,46 0,00 1.090,22 6.704,47 799,00 1.106,93 30/06/2016
286 466500 ANGELLO MARQUES AGRELLI ANALISTA DO MP ATIVO MAR DE ESPANHA - COMARCA; MAR DE ESPANHA-PJ-UNPJ 7.806,95 780,70 0,00 4.293,83 0,00 0,00 12.881,48 1.154,54 1.232,47 0,00 2.387,01 10.494,47 1.335,66 1.908,20 30/06/2016
287 363300 ANGELO VERDOLIN HENRIQUES ANALISTA DO MP ATIVO SETE LAGOAS - COMARCA; SETE LAGOAS-PJ-04PJ 10.755,28 3.226,58 0,00 4.945,58 0,00 0,00 18.927,44 1.892,65 2.552,70 0,00 4.445,35 14.482,09 1.431,00 3.224,05 30/06/2016
288 250900 ANISIO APARECIDO SANTOS OFICIAL DO MP ATIVO MARIANA - COMARCA; MARIANA-PJ-02PJ 5.226,73 1.568,02 0,00 3.397,38 0,00 0,00 10.192,13 925,37 189,52 0,00 1.114,89 9.077,24 799,00 1.617,80 30/06/2016
289 253400 ANNA FLAVIA LEHMAN BATTAGLIA ASSESSOR ESPECIAL ATIVO BELO HORIZONTE - COMARCA; GABINETE DO PROCURADOR-GERAL DE JUSTICA 21.079,94 4.215,99 0,00 12.647,97 0,00 0,00 37.943,90 2.050,61 5.472,36 0,00 7.522,97 30.420,93 1.345,39 6.022,80 30/06/2016
290 447600 ANNGELUCE ALCANTARA DE CAMPOS OFICIAL DO MP ATIVO DIVINÓPOLIS - COMARCA; DIVINOPOLIS-PJ-10PJ 4.598,03 919,61 0,00 2.758,82 0,00 0,00 8.276,46 729,24 481,08 0,00 1.210,32 7.066,14 799,00 1.112,00 30/06/2016
291 119600 ANSELMO BORGES PARREIRAS OFICIAL DO MP ATIVO BONFIM - COMARCA; BONFIM-PJ-UNPJ 5.941,34 4.753,07 0,00 5.347,21 0,00 0,00 16.041,62 1.440,94 1.695,96 0,00 3.136,90 12.904,72 799,00 2.404,85 30/06/2016
292 630300 ANTONIA GOMES RAMALHO OFICIAL DO MP ATIVO NOVO CRUZEIRO - COMARCA; NOVO CRUZEIRO-PJ-UNPJ 3.617,27 0,00 0,00 1.545,63 0,00 0,00 5.162,90 489,65 128,11 0,00 617,76 4.545,14 799,00 834,10 30/06/2016
293 332400 ANTONIA MARIA MAMEDE OFICIAL DO MP ATIVO UBERLÂNDIA - COMARCA; COORD REG PP TRIANGULO MINEIRO UBERLANDIA 7.200,69 1.440,14 0,00 3.222,43 0,00 0,00 11.863,26 1.233,31 1.378,88 0,00 2.612,19 9.251,07 1.185,30 2.570,97 30/06/2016
294 401600 ANTONIO CARLOS GUEDES AROUCA ANALISTA DO MP ATIVO BELO HORIZONTE - COMARCA; EXTINTA - CAO-IDOSOS PESSOAS DEFIC-SEC ADM 9.163,30 916,33 0,00 5.039,82 0,00 0,00 15.119,45 1.374,41 1.597,63 0,00 2.972,04 12.147,41 799,00 2.575,07 30/06/2016
295 7100 ANTONIO DO NASCIMENTO OLIVEIRA ASSESSOR ATIVO BELO HORIZONTE - COMARCA; GAECO - SECRETARIA 0,00 2.363,09 2.625,65 2.494,37 0,00 0,00 7.483,11 570,88 191,58 0,00 762,46 6.720,65 799,00 1.187,80 30/06/2016
296 333900 ANTONIO GONCALVES DE SOUZA FILHO OFICIAL DO MP ATIVO BELO HORIZONTE - COMARCA; DIVISAO DE MEMORIA INSTITUCIONAL 6.973,61 1.394,72 0,00 4.184,17 0,00 0,00 12.552,50 1.119,62 1.178,79 0,00 2.298,41 10.254,09 799,00 1.809,89 30/06/2016
297 176100 ANTONIO MARCELO CAMPOS CAMPANELLA OFICIAL DO MP ATIVO BELO HORIZONTE - COMARCA; SUPERINTENDENCIA DE RECURSOS HUMANOS 11.105,40 4.442,16 0,00 7.773,78 0,00 0,00 23.321,34 2.214,73 3.220,78 0,00 5.435,51 17.885,83 6.078,42 5.414,84 30/06/2016
298 321001 ANTONIO OLINTO VIEIRA MACHADO ANALISTA DO MP ATIVO BELO HORIZONTE - COMARCA; CENTRAL DE APOIO TECN-SETOR DE MEIO AMBIENTE 10.416,20 1.041,62 0,00 5.728,91 0,00 0,00 17.186,73 1.765,70 2.292,54 0,00 4.058,24 13.128,49 801,36 4.593,83 30/06/2016
299 356200 ANTONIO PAULA DA SILVA OFICIAL DO MP ATIVO JUIZ DE FORA - COMARCA; JUIZ DE FORA-PJ-20PJ 6.334,59 1.900,38 0,00 4.117,49 0,00 0,00 12.352,46 1.157,00 1.273,28 0,00 2.430,28 9.922,18 1.149,56 2.286,98 30/06/2016
300 119900 ANTONIO RODRIGUES DE PINHO OFICIAL DO MP ATIVO GUANHÃES - COMARCA; GUANHAES-PJ-01PJ 10.755,28 5.377,64 0,00 0,00 0,00 0,00 16.132,92 2.304,51 3.171,73 0,00 5.476,24 10.656,68 5.867,16 5.446,23 30/06/2016
301 373300 ANTONIO SERGIO ANANIAS OFICIAL DO MP ATIVO AIURUOCA - COMARCA; AIURUOCA-PJ-UNPJ 5.754,07 575,41 0,00 3.164,74 0,00 0,00 9.494,22 856,79 575,51 0,00 1.432,30 8.061,92 799,00 1.459,50 30/06/2016
302 608100 ANTONIO SIDINEY VIEIRA LEMOS ANALISTA DO MP ATIVO PIRAPORA - COMARCA; PIRAPORA-PJ-01PJ 6.134,81 1.840,44 0,00 3.987,63 0,00 0,00 11.962,88 1.067,03 1.082,58 0,00 2.149,61 9.813,27 921,31 1.724,85 30/06/2016
303 374700 ANTONIO SILVA NETO OFICIAL DO MP ATIVO BELO HORIZONTE - COMARCA; GAECO - SECRETARIA 6.334,59 633,46 0,00 3.484,03 0,00 0,00 10.452,08 932,24 836,07 0,00 1.768,31 8.683,77 799,00 1.507,00 30/06/2016
304 636700 ANTONIUS VITORIANO FERNANDES OFICIAL DO MP ATIVO BELO HORIZONTE - COMARCA; PROCON-MG 3.285,74 0,00 0,00 0,00 0,00 0,00 3.285,74 444,78 62,30 0,00 507,08 2.778,66 799,00 757,65 30/06/2016
305 413200 ANY PEREIRA SILVA ANALISTA DO MP ATIVO TRÊS PONTAS - COMARCA; TRES PONTAS-PJ-01PJ 8.874,34 887,43 0,00 4.880,89 0,00 0,00 14.642,66 1.600,76 1.895,86 0,00 3.496,62 11.146,04 799,00 5.201,23 30/06/2016
306 151401 APARECIDA DE FATIMA MENDES DE ALMEIDA ASSESSOR ATIVO JUIZ DE FORA - COMARCA; JUIZ DE FORA-PJ-SECRETARIA 0,00 0,00 4.383,93 2.191,97 0,00 0,00 6.575,90 570,88 401,58 0,00 972,46 5.603,44 799,00 1.043,80 30/06/2016
307 329300 APARECIDA MARIA MELO DE ASSIS OFICIAL DO MP ATIVO BELO HORIZONTE - COMARCA; BH-18PJ DIREITOS HUMANOS-SECRETARIA 7.322,31 1.464,46 0,00 4.393,39 2.928,92 0,00 16.109,08 1.178,84 2.086,66 0,00 3.265,50 12.843,58 799,00 2.058,24 30/06/2016
308 475300 APARECIDA MARLENE FREIRE ROSA ANALISTA DO MP ATIVO BELO HORIZONTE - COMARCA; BH-02PJ FAMILIA-SECRETARIA 7.806,95 7.026,26 0,00 7.416,61 0,00 1.631,65 23.881,47 1.988,05 3.209,77 0,00 5.197,82 18.683,65 799,00 3.596,75 30/06/2016
309 240300 APARECIDA PEREIRA DO NASCIMENTO OFICIAL DO MP ATIVO ITURAMA - COMARCA; ITURAMA-PJ-01PJ 9.163,30 4.581,65 0,00 6.872,48 0,00 0,00 20.617,43 1.860,59 2.494,72 0,00 4.355,31 16.262,12 799,00 3.169,45 30/06/2016
310 354500 APARECIDA VIEIRA DE CARVALHO OFICIAL DO MP ATIVO BELO HORIZONTE - COMARCA; PROCON-MG-SEC DE EDUCACAO PARA O CONSUMO 5.572,67 1.114,53 0,00 3.343,60 0,00 0,00 10.030,80 995,90 998,34 0,00 1.994,24 8.036,56 799,00 2.366,27 30/06/2016
311 551000 ARACELES BICALHO FELIX ANALISTA DO MP ATIVO MANHUAÇU - COMARCA; MANHUACU-PJ-02PJ 6.334,59 380,08 0,00 3.357,34 0,00 0,00 10.072,01 948,80 897,14 0,00 1.845,94 8.226,07 799,00 1.990,49 30/06/2016
312 286200 ARACELI MEDRADO DOS SANTOS LIMA OFICIAL DO MP ATIVO PARACATU - COMARCA; PARACATU-PJ-03PJ 5.226,73 1.045,35 0,00 3.136,04 0,00 0,00 9.408,12 854,23 665,73 0,00 1.519,96 7.888,16 853,00 1.493,35 30/06/2016
313 189000 ARAHY MARQUES SILVA OFICIAL DO MP ATIVO BELO HORIZONTE - COMARCA; BH-15PJ M AMB 16PJ HAB URB-SECRETARIA 5.226,73 1.568,02 0,00 3.397,38 0,00 0,00 10.192,13 925,37 793,66 0,00 1.719,03 8.473,10 799,00 1.617,80 30/06/2016
314 112200 ARAQUEM AUGUSTO DE MATOS AGENTE DO MP ATIVO BELO HORIZONTE - COMARCA; COORD ESTADUAL DE DEFESA DA EDUCACAO 5.226,73 4.181,38 0,00 4.704,06 0,00 0,00 14.112,17 1.267,59 1.276,86 0,00 2.544,45 11.567,72 1.627,03 2.115,60 30/06/2016
315 280600 ARDUINO FRATTEZI ANALISTA DO MP ATIVO BELO HORIZONTE - COMARCA; CENTRAL DE APOIO TECNICO-SETOR CONTABIL 12.225,81 2.445,16 0,00 7.335,49 0,00 0,00 22.006,46 1.962,81 2.721,36 0,00 4.684,17 17.322,29 799,00 3.173,00 30/06/2016
316 520201 ARIANE DE FATIMA CARVALHO ALMEIDA RODRIGUES ANALISTA DO MP ATIVO BELO HORIZONTE - COMARCA; BH-18PJ VIOLENCIA DOMESTICA-SECRETARIA 5.572,67 0,00 0,00 2.258,63 0,00 0,00 7.831,30 758,02 442,41 0,00 1.200,43 6.630,87 799,00 1.318,46 30/06/2016
317 537600 ARIELA FREIRE MONTIJO ANALISTA DO MP ATIVO ARCOS - COMARCA; ARCOS-PJ-01PJ 6.334,59 380,08 0,00 0,00 0,00 0,00 6.714,67 899,26 669,78 0,00 1.569,04 5.145,63 1.704,87 1.558,03 30/06/2016
318 182000 ARILSON ALEXANDRE MARTINS MAGALHAES OFICIAL DO MP ATIVO JOÃO MONLEVADE - COMARCA; JOAO MONLEVADE-PJ-01PJ 10.416,20 4.166,48 0,00 7.291,34 0,00 0,00 21.874,02 1.950,99 2.595,48 0,00 4.546,47 17.327,55 874,90 3.153,85 30/06/2016
319 511000 ARISLANE CAROLINA DA SILVA ANALISTA DO MP ATIVO CAMPINA VERDE - COMARCA; CAMPINA VERDE-PJ-UNPJ 7.560,72 453,64 0,00 4.007,18 2.671,45 0,00 14.692,99 1.057,43 1.826,80 0,00 2.884,23 11.808,76 799,00 1.699,30 30/06/2016
320 170000 ARLEY BRITES DA SILVA ASSESSOR ATIVO BELO HORIZONTE - COMARCA; EXTINTA - DIVISÃO DE MATERIAL PERMANENTE 0,00 1.315,18 4.383,93 2.849,56 0,00 0,00 8.548,67 570,88 356,29 0,00 927,17 7.621,50 1.431,00 1.356,95 30/06/2016
321 120400 ARLINDO CASSIO DA CRUZ OFICIAL DO MP ATIVO SÃO GONÇALO DO SAPUCAÍ - COMARCA; SAO GONCALO DO SAPUCAI-PJ-01PJ 16.063,25 11.244,29 0,00 13.653,77 0,00 0,00 40.961,31 3.640,43 5.657,75 0,00 9.298,18 31.663,13 799,00 5.786,85 30/06/2016
322 243700 ARLINDO MARCIO LACERDA OFICIAL DO MP ATIVO CONTAGEM - COMARCA; CONTAGEM-PJ-03PJ 9.163,30 3.982,55 0,00 6.572,93 0,00 0,00 19.718,78 1.702,40 2.569,28 0,00 4.271,68 15.447,10 1.407,11 4.050,40 30/06/2016
323 392100 ARNALDO DE ANDRADE OFICIAL DO MP ATIVO DIVINÓPOLIS - COMARCA; DIVINOPOLIS-PJ-02PJ 6.540,78 1.887,64 0,00 4.214,21 0,00 0,00 12.642,63 1.027,17 1.362,62 0,00 2.389,79 10.252,84 799,00 2.522,50 30/06/2016
324 642400 ARTANE INARDE DE SIQUEIRA DAMASCENO ANALISTA DO MP ATIVO BELO HORIZONTE - COMARCA; SUPERINTENDENCIA DE RECURSOS HUMANOS 5.396,93 0,00 0,00 2.698,47 1.798,98 0,00 9.894,38 648,44 946,26 0,00 1.594,70 8.299,68 1.431,00 498,01 30/06/2016
325 352801 ARTHUR JONAS MENDONCA E ARAUJO ANALISTA DO MP ATIVO UBERABA - COMARCA; UBERABA-PJ-12PJ 8.594,48 859,45 0,00 4.726,97 0,00 0,00 14.180,90 1.264,83 1.340,22 0,00 2.605,05 11.575,85 1.431,00 2.044,70 30/06/2016
326 302100 AUGUSTO ROUSSEAU DE CASTRO ANALISTA DO MP ATIVO CATAGUASES - COMARCA; CATAGUASES-PJ-02PJ 13.228,78 2.645,76 0,00 7.937,27 0,00 0,00 23.811,81 2.397,64 3.715,36 0,00 6.113,00 17.698,81 1.047,76 6.323,32 30/06/2016
327 540200 AUREA AVELAR OFICIAL DO MP ATIVO BELO HORIZONTE - COMARCA; GRUPO ESP PROM PROC JUST DEF PROB ADM PAT PUB 3.735,01 224,10 0,00 1.979,56 0,00 0,00 5.938,67 530,25 116,86 0,00 647,11 5.291,56 799,00 861,25 30/06/2016
328 633500 AUREA GONTIJO BIRCHAL ASSESSOR ATIVO BELO HORIZONTE - COMARCA; COORD DE GABINETE DO PGJ 0,00 0,00 6.973,61 3.486,81 0,00 0,00 10.460,42 570,88 1.111,12 0,00 1.682,00 8.778,42 799,00 1.660,40 30/06/2016
329 183200 AURELIANO MAGELA DE REZENDE COORDENADOR/OFICIAL ATIVO BELO HORIZONTE - COMARCA; COORD DE GABINETE DO PGJ 10.416,20 5.418,27 0,00 7.917,24 0,00 0,00 23.751,71 1.832,97 3.075,50 0,00 4.908,47 18.843,24 1.066,02 3.620,81 30/06/2016
330 629400 AYESKA DA COSTA VAL MOURA DABIEN OFICIAL DO MP ATIVO BELO HORIZONTE - COMARCA; BH-18PJ VIOLENCIA DOMESTICA-SECRETARIA 3.617,27 0,00 0,00 1.808,64 0,00 0,00 5.425,91 489,65 128,11 0,00 617,76 4.808,15 799,00 834,10 30/06/2016
331 546500 BARBARA ZACARONI GOULART OFICIAL DO MP ATIVO BETIM - COMARCA; BETIM-PJ-08PJ 3.735,01 224,10 0,00 1.674,94 1.319,70 0,00 6.953,75 559,44 523,64 0,00 1.083,08 5.870,67 799,00 1.181,10 30/06/2016
332 316500 BEATRIZ ABILVIA DA SILVA ANALISTA DO MP ATIVO GOVERNADOR VALADARES - COMARCA; GOVERNADOR VALADARES-PJ-07PJ 12.225,81 2.445,16 0,00 7.335,49 0,00 0,00 22.006,46 2.260,81 3.327,36 0,00 5.588,17 16.418,29 804,99 5.882,01 30/06/2016
333 311800 BEATRIZ APARECIDA SOARES GANEM OFICIAL DO MP ATIVO ITAMBACURI - COMARCA; ITAMBACURI-PJ-02PJ 7.322,31 2.196,69 0,00 4.759,50 0,00 0,00 14.278,50 1.288,49 1.304,00 0,00 2.592,49 11.686,01 799,00 2.194,51 30/06/2016
334 266800 BEATRIZ AUGUSTA VILACA GOMES DE HUBER OFICIAL DO MP ATIVO BELO HORIZONTE - COMARCA; BH-05PJ-JUÍZO SUCESSÕES-SEC 6.540,78 1.308,16 0,00 0,00 0,00 0,00 7.848,94 1.062,48 1.051,67 0,00 2.114,15 5.734,79 799,00 1.809,90 30/06/2016
335 235200 BEATRIZ BOTELHO BATISTA OFICIAL DO MP ATIVO BELO HORIZONTE - COMARCA; BH-21PJ TUTELA FUNDACOES-SECRETARIA 7.560,72 2.268,22 0,00 4.914,47 0,00 0,00 14.743,41 1.330,48 1.536,27 0,00 2.866,75 11.876,66 799,00 2.266,45 30/06/2016
336 113500 BEATRIZ DE LOURDES SOUZA ASSESSOR ATIVO BELO HORIZONTE - COMARCA; BH-02PJ FAMILIA-PROM DEC PAT 0,00 5.578,89 6.973,61 6.276,25 0,00 0,00 18.828,75 570,88 1.951,29 0,00 2.522,17 16.306,58 1.136,01 3.550,95 30/06/2016
337 182300 BEATRIZ PAULA SOUSA RAMOS OFICIAL DO MP ATIVO MARIANA - COMARCA; MARIANA-PJ-01PJ 10.416,20 4.166,48 0,00 0,00 0,00 0,00 14.582,68 1.950,99 2.595,48 0,00 4.546,47 10.036,21 799,00 3.153,85 30/06/2016
338 507000 BELCHIOR FRANKLIN AMARAL LEITE ANALISTA DO MP ATIVO BELO HORIZONTE - COMARCA; CENTRAL DE APOIO TECNICO 7.560,72 453,64 0,00 3.098,52 2.671,45 0,00 13.784,33 1.075,18 1.670,39 0,00 2.745,57 11.038,76 1.571,80 1.870,69 30/06/2016
339 345100 BENITO ELIAS RODRIGUES ANALISTA DO MP ATIVO BARBACENA - COMARCA; BARBACENA-PJ-SECRETARIA 11.105,40 2.221,08 0,00 6.663,24 0,00 0,00 19.989,72 1.870,15 2.597,96 0,00 4.468,11 15.521,61 1.134,86 3.674,93 30/06/2016
340 207300 BENITO VIEIRA DOS SANTOS ANALISTA DO MP ATIVO BELO HORIZONTE - COMARCA; COMB CRIMES PRAT POR AG POL MUN-ASSESSORIA 16.063,25 4.818,98 0,00 10.441,12 0,00 2.297,05 33.620,40 2.823,15 3.201,69 0,00 6.024,84 27.595,56 1.097,34 5.834,75 30/06/2016
341 480200 BERNADETE NUNES DOS SANTOS ANALISTA DO MP ATIVO GUANHÃES - COMARCA; GUANHAES-PJ-02PJ 7.806,95 1.561,39 0,00 3.457,14 0,00 0,00 12.825,48 1.268,12 1.423,54 0,00 2.691,66 10.133,82 799,00 2.160,25 30/06/2016
342 378400 BETANIA FARNESI DE SOUZA E SILVA OFICIAL DO MP ATIVO SETE LAGOAS - COMARCA; SETE LAGOAS-PJ-03PJ 6.334,59 1.900,38 0,00 0,00 0,00 0,00 8.234,97 1.101,75 1.094,01 0,00 2.195,76 6.039,21 1.563,90 1.781,00 30/06/2016
343 387400 BETANIA MENDONCA DE ASSIS ANALISTA DO MP ATIVO BELO HORIZONTE - COMARCA; BH-08PJ JUIZADO ESPECIAL-SECRETARIA 9.461,59 946,16 0,00 5.203,88 0,00 0,00 15.611,63 1.467,73 1.808,94 0,00 3.276,67 12.334,96 4.962,10 3.476,83 30/06/2016
344 450300 BIANCA OLIVEIRA DE ALBUQUERQUE ANALISTA DO MP ATIVO BELO HORIZONTE - COMARCA; BH-10PJ EXECUÇÃO PENAL-SECRETARIA 8.594,48 859,45 0,00 4.726,97 0,00 0,00 14.180,90 1.264,83 1.444,49 0,00 2.709,32 11.471,58 1.431,00 2.053,80 30/06/2016
345 535400 BIANCA SALOTO ROSSI ANALISTA DO MP ATIVO SANTOS DUMONT - COMARCA; SANTOS DUMONT-PJ-01PJ 6.334,59 380,08 0,00 3.357,34 0,00 0,00 10.072,01 899,26 774,06 0,00 1.673,32 8.398,69 809,10 1.460,65 30/06/2016
346 120800 BRAS MARQUES DE SOUZA ANALISTA DO MP ATIVO BELO HORIZONTE - COMARCA; EXTINTA - SUPERINTENDENCIA ADMINISTRATIVA-SAD 20.277,14 16.221,71 0,00 15.235,56 0,00 0,00 51.734,41 3.351,82 6.432,03 6.027,74 15.811,59 35.922,82 799,00 0,00 30/06/2016
347 460900 BRENO CRISTIANO DE SOUZA REZENDE ANALISTA DO MP ATIVO ITAÚNA - COMARCA; ITAUNA-PJ-02PJ 6.540,78 654,08 0,00 3.597,43 0,00 0,00 10.792,29 967,28 891,58 0,00 1.858,86 8.933,43 799,00 1.598,75 30/06/2016
348 239000 BRENO VENANCIO ROMANINI OFICIAL DO MP ATIVO BELO HORIZONTE - COMARCA; BH-20PJ ORD ECON TRIBUTARIA-SECRETARIA 7.322,31 1.464,46 0,00 0,00 0,00 0,00 8.786,77 1.330,29 1.615,21 0,00 2.945,50 5.841,27 799,00 3.306,47 30/06/2016
349 202201 BRIGITTE AMARALINA CALDAS MEDEIROS OFICIAL DO MP ATIVO NANUQUE - COMARCA; NANUQUE-PJ-03PJ 8.061,11 2.418,33 0,00 5.239,72 0,00 0,00 15.719,16 1.427,19 1.486,93 0,00 2.914,12 12.805,04 799,00 2.495,10 30/06/2016
350 642300 BRUNA IZABELITA DE FATIMA OLIVEIRA COSTA OFICIAL DO MP ATIVO PIUMHI - COMARCA; PIUMHI-PJ-02PJ 3.503,19 0,00 0,00 1.751,60 0,00 0,00 5.254,79 413,13 112,88 0,00 526,01 4.728,78 1.191,88 252,55 30/06/2016
351 513600 BRUNA KARLA MARTINS CARVALHO ANALISTA DO MP ATIVO GOVERNADOR VALADARES - COMARCA; GOVERNADOR VALADARES-PJ-01PJ 7.560,72 453,64 0,00 4.007,18 2.671,45 0,00 14.692,99 1.125,89 1.979,12 0,00 3.105,01 11.587,98 799,00 2.321,64 30/06/2016
352 415100 BRUNA MARIA SOARES OLIVEIRA COSTA RAMOS ANALISTA DO MP ATIVO UBÁ - COMARCA; COORD REG BACIA DO RIO PARAIBA DO SUL 9.461,59 946,16 0,00 3.792,48 0,00 0,00 14.200,23 1.495,85 1.838,55 0,00 3.334,40 10.865,83 799,00 3.190,89 30/06/2016
353 470000 BRUNA MORAES MARQUES ANALISTA DO MP ATIVO TOMBOS - COMARCA; TOMBOS-PJ-UNPJ 7.806,95 780,70 0,00 4.293,83 0,00 0,00 12.881,48 1.154,54 1.023,92 0,00 2.178,46 10.703,02 1.431,00 2.028,21 30/06/2016
354 614700 BRUNA NATTANY DE LIMA OFICIAL DO MP ATIVO MANTENA - COMARCA; MANTENA-PJ-02PJ 3.982,20 0,00 0,00 1.991,10 0,00 0,00 5.973,30 615,35 334,83 0,00 950,18 5.023,12 799,00 1.790,89 30/06/2016
355 631800 BRUNA RAPOSO JORGE OFICIAL DO MP ATIVO JUIZ DE FORA - COMARCA; JUIZ DE FORA-PJ-19PJ 3.617,27 0,00 0,00 1.808,64 0,00 0,00 5.425,91 489,65 128,11 0,00 617,76 4.808,15 799,00 834,10 30/06/2016
356 463800 BRUNO ALVES TEIXEIRA ANALISTA DO MP ATIVO UBERLÂNDIA - COMARCA; UBERLANDIA-PJ-04PJ 7.806,95 780,70 0,00 4.293,83 0,00 0,00 12.881,48 1.154,54 1.232,47 0,00 2.387,01 10.494,47 799,00 2.035,41 30/06/2016
357 538500 BRUNO AUGUSTO DA SILVA OFICIAL DO MP ATIVO SANTA LUZIA - COMARCA; SANTA LUZIA-PJ-03PJ 3.735,01 224,10 0,00 0,00 0,00 0,00 3.959,11 530,25 173,74 0,00 703,99 3.255,12 2.063,00 861,25 30/06/2016
358 318200 BRUNO BARROS DE SOUZA OFICIAL DO MP ATIVO UBÁ - COMARCA; UBA-PJ-04PJ 7.322,31 1.464,46 0,00 0,00 0,00 0,00 8.786,77 1.178,84 763,08 0,00 1.941,92 6.844,85 799,00 1.929,60 30/06/2016
359 459600 BRUNO CASTELAR LUGAO MENDES OFICIAL DO MP ATIVO GOVERNADOR VALADARES - COMARCA; GOVERNADOR VALADARES-PJ-05PJ 5.572,67 557,27 0,00 0,00 0,00 0,00 6.129,94 824,14 630,94 0,00 1.455,08 4.674,86 799,00 1.362,10 30/06/2016
360 427400 BRUNO CESAR RIBEIRO DE PAIVA ANALISTA DO MP ATIVO BELO HORIZONTE - COMARCA; ASSESS JUR DO CONS SUPERIOR DO MINISTERIO PUB 9.461,59 946,16 0,00 5.203,88 0,00 0,00 15.611,63 1.482,70 1.838,55 0,00 3.321,25 12.290,38 800,11 3.071,31 30/06/2016
361 380900 BRUNO CIRILO ANTUNES OFICIAL DO MP ATIVO VARGINHA - COMARCA; VARGINHA-PJ-05PJ 6.134,81 1.847,04 0,00 3.990,93 0,00 0,00 11.972,78 965,83 1.272,85 0,00 2.238,68 9.734,10 935,57 2.325,55 30/06/2016
362 329000 BRUNO DE MELO REIS ANALISTA DO MP ATIVO PATROCÍNIO - COMARCA; PATROCINIO-PJ-02PJ 11.105,40 3.331,62 0,00 7.218,51 0,00 0,00 21.655,53 1.926,12 2.611,96 0,00 4.538,08 17.117,45 972,52 3.072,95 30/06/2016
363 601700 BRUNO DIAS JUNQUEIRA PEREIRA ANALISTA DO MP ATIVO BELO HORIZONTE - COMARCA; ASSESS TECNICO-JUR JUNTO AS PROC. DE JUST 6.134,81 0,00 0,00 3.067,41 0,00 0,00 9.202,22 820,78 632,13 0,00 1.452,91 7.749,31 799,00 1.326,80 30/06/2016
364 378300 BRUNO HERDY LOPES DE OLIVEIRA ANALISTA DO MP ATIVO MANTENA - COMARCA; MANTENA-PJ-SECRETARIA 9.461,59 946,16 0,00 5.203,88 0,00 0,00 15.611,63 1.408,85 1.677,94 0,00 3.086,79 12.524,84 799,00 2.399,95 30/06/2016
365 529700 BRUNO JOSE BUENO DIAS OFICIAL DO MP ATIVO SÃO SEBASTIÃO DO PARAÍSO - COMARCA; SAO SEBASTIAO DO PARAISO-PJ-02PJ 4.111,87 246,71 0,00 2.179,29 0,00 0,00 6.537,87 583,74 198,63 0,00 782,37 5.755,50 1.431,00 1.007,78 30/06/2016
366 350100 BRUNO LAUD SERRANO DOS REIS OFICIAL DO MP ATIVO UBÁ - COMARCA; UBA-PJ-02PJ 6.334,59 1.266,92 0,00 3.800,76 0,00 0,00 11.402,27 1.017,02 938,97 0,00 1.955,99 9.446,28 799,00 1.644,00 30/06/2016
367 373800 BRUNO MARTINO DE ALBUQUERQUE ANALISTA DO MP ATIVO PONTE NOVA - COMARCA; PONTE NOVA-PJ-03PJ 9.461,59 946,16 0,00 5.203,88 0,00 0,00 15.611,63 1.408,85 1.573,66 0,00 2.982,51 12.629,12 1.431,00 2.399,95 30/06/2016
368 470400 BRUNO NOVAIS CABRAL ANALISTA DO MP ATIVO MUTUM - COMARCA; MUTUM-PJ-UNPJ 7.806,95 780,70 0,00 4.293,83 0,00 0,00 12.881,48 1.154,54 1.232,47 0,00 2.387,01 10.494,47 1.180,64 1.908,20 30/06/2016
369 369200 BRUNO ROBERTO DIAS DE OLIVEIRA OFICIAL DO MP ATIVO BELO HORIZONTE - COMARCA; BH-22PJ PES COM DEF E IDOSOS 6.753,72 675,37 0,00 3.714,55 0,00 0,00 11.143,64 1.058,37 1.063,57 0,00 2.121,94 9.021,70 799,00 2.192,31 30/06/2016
370 547700 BRUNO ROBERTO SOUZA GONCALVES ANALISTA DO MP ATIVO PARACATU - COMARCA; PARACATU-PJ-03PJ 6.334,59 380,08 0,00 0,00 0,00 0,00 6.714,67 948,80 877,72 0,00 1.826,52 4.888,15 1.920,32 2.018,44 30/06/2016
371 546100 BRUNO SA VIEIRA ANALISTA DO MP ATIVO ERVÁLIA - COMARCA; ERVALIA-PJ-UNPJ 6.334,59 380,08 0,00 3.357,34 0,00 0,00 10.072,01 899,26 774,06 0,00 1.673,32 8.398,69 799,00 1.460,65 30/06/2016
372 438200 BRUNO SALES PEREIRA ANALISTA DO MP ATIVO BELO HORIZONTE - COMARCA; CENTRAL DE APOIO TECNICO-SETOR CONTABIL 8.594,48 859,45 0,00 4.726,97 0,00 0,00 14.180,90 1.264,83 1.392,35 0,00 2.657,18 11.523,72 1.431,00 2.044,70 30/06/2016
373 537400 BRUNO SANT'ANA CESAR ANALISTA DO MP ATIVO CONTAGEM - COMARCA; CONTAGEM-PJ-09PJ 6.334,59 380,08 0,00 3.357,34 0,00 0,00 10.072,01 899,26 774,06 0,00 1.673,32 8.398,69 799,00 1.460,65 30/06/2016
374 405800 CAIO FERNANDO RODRIGUES DE OLIVEIRA ANALISTA DO MP ATIVO BELO HORIZONTE - COMARCA; ASSESS TECNICO-JUR JUNTO AS PROC. DE JUST 9.461,59 946,16 0,00 5.203,88 0,00 0,00 15.611,63 1.482,70 1.838,55 0,00 3.321,25 12.290,38 800,11 3.071,31 30/06/2016
375 530000 CAIO GUEDES DE OLIVEIRA ANALISTA DO MP ATIVO DIAMANTINA - COMARCA; DIAMANTINA-PJ-03PJ 6.334,59 380,08 0,00 2.627,07 0,00 0,00 9.341,74 899,26 721,92 0,00 1.621,18 7.720,56 2.063,00 1.460,65 30/06/2016
376 491400 CAIO MIRANDA JUNQUEIRA ANALISTA DO MP ATIVO BUENO BRANDAO - COMARCA; BUENO BRANDAO-PJ-UNPJ 6.973,61 418,42 0,00 3.696,02 0,00 0,00 11.088,05 1.003,17 887,70 0,00 1.890,87 9.197,18 1.431,00 1.727,76 30/06/2016
377 415800 CAMILA ALVES DA SILVA ANALISTA DO MP ATIVO CAETÉ - COMARCA; CAETE-PJ-01PJ 9.163,30 916,33 0,00 0,00 0,00 0,00 10.079,63 1.364,41 1.597,63 0,00 2.962,04 7.117,59 799,00 2.324,25 30/06/2016
378 555800 CAMILA CAROLINE ROCHA CHAVES OFICIAL DO MP ATIVO SALINAS - COMARCA; SALINAS-PJ-01PJ 3.982,20 238,93 0,00 1.773,83 1.407,04 0,00 7.402,00 594,91 609,17 0,00 1.204,08 6.197,92 799,00 1.250,28 30/06/2016
379 445200 CAMILA CONDE ROCHA ANALISTA DO MP ATIVO CONTAGEM - COMARCA; CONTAGEM-PJ-08PJ 8.594,48 859,45 0,00 4.726,97 0,00 0,00 14.180,90 1.264,83 1.444,49 0,00 2.709,32 11.471,58 799,00 2.181,01 30/06/2016
380 419900 CAMILA CUNNINGHAM PIMENTA DE PADUA ANALISTA DO MP ATIVO BELO HORIZONTE - COMARCA; ASSESSORIA PSICOSSOCIAL 9.461,59 946,16 0,00 5.203,88 0,00 0,00 15.611,63 1.482,70 1.838,55 0,00 3.321,25 12.290,38 799,00 3.076,36 30/06/2016
381 507700 CAMILA ELIZABETH RODRIGUES ANALISTA DO MP ATIVO BELO HORIZONTE - COMARCA; BH-02PJ FAMILIA-SECRETARIA 7.560,72 453,64 0,00 4.007,18 0,00 0,00 12.021,54 1.075,18 1.092,15 0,00 2.167,33 9.854,21 927,94 1.760,00 30/06/2016
382 372700 CAMILA FONSECA LIMONGE ANALISTA DO MP ATIVO BETIM - COMARCA; BETIM-PJ-12PJ 9.461,59 946,16 0,00 5.203,88 0,00 0,00 15.611,63 1.408,85 1.677,94 0,00 3.086,79 12.524,84 1.431,00 2.399,95 30/06/2016
383 621300 CAMILA GOLFETO DE SOUSA VALENTE OFICIAL DO MP ATIVO ESPERA FELIZ - COMARCA; ESPERA FELIZ-PJ-UNPJ 3.617,27 0,00 0,00 1.808,64 0,00 0,00 5.425,91 481,25 71,23 0,00 552,48 4.873,43 1.403,48 808,16 30/06/2016
384 409800 CAMILA GONCALVES COSTA RIBEIRO ANALISTA DO MP ATIVO INHAPIM - COMARCA; INHAPIM-PJ-02PJ 8.594,48 859,45 0,00 4.726,97 0,00 0,00 14.180,90 1.287,53 1.392,35 0,00 2.679,88 11.501,02 1.431,00 2.250,95 30/06/2016
385 335000 CAMILA GONTIJO DE PAIVA ANALISTA DO MP ATIVO BELO HORIZONTE - COMARCA; COORD DE CONTROLE DA CONSTITUCIONALIDADE 11.466,98 2.293,40 0,00 0,00 0,00 0,00 13.760,38 1.835,55 2.394,22 0,00 4.229,77 9.530,61 1.431,00 2.926,45 30/06/2016
386 547800 CAMILA MATTARELLI DE ABREU E SILVA ANALISTA DO MP ATIVO BELO HORIZONTE - COMARCA; COORD DE INCLUSAO E MOBILIZACAO SOCIAIS 6.334,59 380,08 0,00 3.357,34 0,00 0,00 10.072,01 1.064,92 1.169,40 0,00 2.234,32 7.837,69 799,00 3.054,87 30/06/2016
387 430000 CANDIDA MARINA COSTA ANALISTA DO MP ATIVO BELO HORIZONTE - COMARCA; DIVISAO DE DOCUMENTACAO JURIDICA 9.163,30 916,33 0,00 5.039,82 0,00 0,00 15.119,45 1.364,41 1.597,63 0,00 2.962,04 12.157,41 799,00 2.324,25 30/06/2016
388 614300 CARINA CORTIELHA OFICIAL DO MP ATIVO BELO HORIZONTE - COMARCA; BH-23PJ CIVEL-SEC EXP CIVEIS 3.285,74 0,00 0,00 1.420,22 0,00 0,00 4.705,96 447,49 83,85 0,00 531,34 4.174,62 799,00 834,46 30/06/2016
389 380400 CARINA DIAS FACANHA DE SOUZA ANALISTA DO MP ATIVO SANTA RITA DO SAPUCAÍ - COMARCA; SANTA RITA DO SAPUCAI-PJ-SECRETARIA 9.461,59 946,16 0,00 0,00 3.469,25 0,00 13.877,00 1.408,85 2.631,98 0,00 4.040,83 9.836,17 1.431,00 2.559,95 30/06/2016
390 255000 CARLA ADRIANA DE MENEZES OFICIAL DO MP ATIVO BELO HORIZONTE - COMARCA; CENT DE APOIO TEC-SETOR DEF,IDOSO E INFANC 8.061,11 1.612,22 0,00 4.836,67 0,00 0,00 14.510,00 1.489,98 1.932,16 0,00 3.422,14 11.087,86 990,99 3.872,18 30/06/2016
391 425100 CARLA ADRIANA DINIZ AMARAL OFICIAL DO MP ATIVO CONTAGEM - COMARCA; CONTAGEM-PJ-08PJ 6.334,59 633,46 0,00 3.484,03 0,00 0,00 10.452,08 1.073,77 1.096,52 0,00 2.170,29 8.281,79 799,00 2.793,66 30/06/2016
392 508100 CARLA ALESSANDRA FONSECA ANALISTA DO MP ATIVO BELO HORIZONTE - COMARCA; CAO-ORDEM ECONOMICA E TRIBUTARIA-SECRETARIA 7.560,72 453,64 0,00 4.007,18 0,00 0,00 12.021,54 1.081,15 1.092,15 0,00 2.173,30 9.848,24 799,00 1.931,66 30/06/2016
393 607100 CARLA ANGELICA DIAS MIRANDA OFICIAL DO MP ATIVO JABOTICATUBAS - COMARCA; JABOTICATUBAS-PJ-UNPJ 3.982,20 0,00 0,00 1.726,32 0,00 0,00 5.708,52 532,79 91,51 0,00 624,30 5.084,22 799,00 861,25 30/06/2016
394 351500 CARLA APARECIDA MENDES RAMIRIO OFICIAL DO MP ATIVO PASSOS - COMARCA; PASSOS-PJ-01PJ 6.540,78 1.308,16 0,00 3.924,47 2.616,31 0,00 14.389,72 1.117,83 1.879,10 0,00 2.996,93 11.392,79 777,93 2.313,13 30/06/2016
395 206200 CARLA BORGES DA COSTA COORDENADOR/ANALISTA ATIVO BELO HORIZONTE - COMARCA; DIRETORIA DE PROJETOS DE EDIFICACOES 16.063,25 8.718,71 0,00 8.521,41 0,00 0,00 33.303,37 3.040,29 5.265,40 0,00 8.305,69 24.997,68 1.495,46 5.696,50 30/06/2016
396 442800 CARLA GONCALVES COSTA SOALHEIRO ANALISTA DO MP ATIVO GOVERNADOR VALADARES - COMARCA; GOVERNADOR VALADARES-PJ-11PJ 8.500,69 859,45 0,00 4.726,97 3.151,31 0,00 17.238,42 1.264,83 2.233,17 0,00 3.498,00 13.740,42 2.063,00 2.035,48 30/06/2016
397 321500 CARLA GONCALVES MASSOTE OFICIAL DO MP ATIVO CAMPO BELO - COMARCA; CAMPO BELO-PJ-01PJ 7.322,31 1.464,46 0,00 4.393,39 0,00 0,00 13.180,16 1.178,84 1.281,20 0,00 2.460,04 10.720,12 799,00 1.929,60 30/06/2016
398 429200 CARLA HAUTEQUESTT BECHARA COORDENADOR/ANALISTA ATIVO BELO HORIZONTE - COMARCA; DIRET DE INFORMACAO E CONHECIMENTO-DINC/CEAF 0,00 1.146,70 11.466,98 6.306,84 0,00 0,00 18.920,52 1.364,41 2.294,49 0,00 3.658,90 15.261,62 799,00 2.437,42 30/06/2016
399 247500 CARLA MATILDE GUIMARAES DE OLIVEIRA OFICIAL DO MP ATIVO ITAJUBA - COMARCA; ITAJUBA-PJ-05PJ 8.061,11 2.418,33 0,00 5.239,72 0,00 0,00 15.719,16 1.492,90 1.805,08 0,00 3.297,98 12.421,18 799,00 3.092,51 30/06/2016
400 226100 CARLA MERLI DA CONCEICAO ANALISTA DO MP ATIVO BELO HORIZONTE - COMARCA; CENTRAL DE APOIO TECNICO-SETOR CONTABIL 14.297,05 4.289,12 0,00 9.293,09 0,00 0,00 27.879,26 2.476,73 3.627,47 0,00 6.104,20 21.775,06 930,95 3.929,30 30/06/2016
401 181401 CARLO MICHEL GAUDENSI COELHO ANALISTA DO MP ATIVO BELO HORIZONTE - COMARCA; BH-08PJ JUIZADO ESPECIAL-SECRETARIA 9.163,30 2.748,99 0,00 5.956,15 0,00 0,00 17.868,44 1.697,06 2.230,06 0,00 3.927,12 13.941,32 799,00 3.521,24 30/06/2016
402 634000 CARLOS ALBERTO AMORMINO TRIGUEIRO ANALISTA DO MP ATIVO BELO HORIZONTE - COMARCA; DIRET DE APOIO AS PROCURADORIAS DE JUSTICA 5.061,97 0,00 0,00 2.530,99 0,00 0,00 7.592,96 685,22 334,87 0,00 1.020,09 6.572,87 1.431,00 1.167,20 30/06/2016
403 637900 CARLOS ALBERTO DE MOURA OFICIAL DO MP ATIVO SETE LAGOAS - COMARCA; SETE LAGOAS-PJ-SECRETARIA 3.285,74 0,00 0,00 0,00 0,00 0,00 3.285,74 467,57 88,25 0,00 555,82 2.729,92 1.431,00 999,36 30/06/2016
404 638700 CARLOS ALBERTO FERREIRA BRAGA ANALISTA DO MP ATIVO RIBEIRÃO DAS NEVES - COMARCA; RIBEIRAO DAS NEVES-PJ-11PJ 4.902,32 0,00 0,00 2.451,16 0,00 0,00 7.353,48 662,52 260,24 0,00 922,76 6.430,72 1.431,00 1.120,51 30/06/2016
405 375801 CARLOS ALBERTO ROCHA ANALISTA DO MP ATIVO ELOI MENDES - COMARCA; ELOI MENDES-PJ-SECRETARIA 6.973,61 418,42 0,00 0,00 0,00 0,00 7.392,03 993,96 939,84 0,00 1.933,80 5.458,23 1.120,60 1.744,96 30/06/2016
406 462800 CARLOS ANDREI SOARES FAGUNDES ANALISTA DO MP ATIVO MONTES CLAROS - COMARCA; MONTES CLAROS-PJ-09PJ 7.806,95 780,70 0,00 0,00 0,00 0,00 8.587,65 1.154,54 1.180,33 0,00 2.334,87 6.252,78 1.431,00 1.908,20 30/06/2016
407 370300 CARLOS AUGUSTO BUENO DIAS ASSESSOR ATIVO BELO HORIZONTE - COMARCA; SUPERINTENDÊNCIA DE ENGENHARIA E ARQUITETURA 0,00 0,00 8.874,34 0,00 0,00 0,00 8.874,34 570,88 891,12 0,00 1.462,00 7.412,34 799,00 2.112,95 30/06/2016
408 505100 CARLOS CEZAR CARVALHO ANALISTA DO MP ATIVO RIBEIRÃO DAS NEVES - COMARCA; RIBEIRAO DAS NEVES-PJ-04PJ 6.973,61 2.092,08 0,00 4.532,85 0,00 0,00 13.598,54 1.212,88 1.245,19 0,00 2.458,07 11.140,47 799,00 2.091,41 30/06/2016
409 195900 CARLOS DE SOUZA FERREIRA OFICIAL DO MP ATIVO COROMANDEL - COMARCA; COROMANDEL-PJ-UNPJ 8.594,48 6.016,14 0,00 5.174,49 0,00 0,00 19.785,11 1.989,82 2.654,45 0,00 4.644,27 15.140,84 799,00 3.697,54 30/06/2016
410 196800 CARLOS EDUARDO DE OLIVEIRA MARINHO OFICIAL DO MP ATIVO ALPINÓPOLIS - COMARCA; ALPINOPOLIS-PJ-UNPJ 10.755,28 5.377,64 0,00 8.066,46 0,00 0,00 24.199,38 2.183,87 3.027,04 0,00 5.210,91 18.988,47 1.315,50 3.720,10 30/06/2016
411 491800 CARLOS EDUARDO ROMAN OFICIAL DO MP ATIVO BARBACENA - COMARCA; BARBACENA-PJ-09PJ 5.396,93 539,69 0,00 0,00 0,00 0,00 5.936,62 1.270,47 1.432,47 0,00 2.702,94 3.233,68 799,00 6.338,40 30/06/2016
412 299300 CARLOS HENRIQUE BICALHO ANALISTA DO MP ATIVO BELO HORIZONTE - COMARCA; BH-17PJ PATRIMONIO PUBLICO-SECRETARIA 12.225,81 3.667,74 0,00 7.946,78 0,00 0,00 23.840,33 2.126,39 3.020,59 0,00 5.146,98 18.693,35 799,00 3.653,59 30/06/2016
413 205100 CARLOS HENRIQUE ESTEVES OFICIAL DO MP ATIVO ITAMBACURI - COMARCA; ITAMBACURI-PJ-01PJ 11.105,40 3.331,62 0,00 7.218,51 0,00 0,00 21.655,53 2.056,72 2.834,76 0,00 4.891,48 16.764,05 799,00 4.260,35 30/06/2016
414 351600 CARLOS HENRIQUE FELICIO DA FONSECA OFICIAL DO MP ATIVO LIMA DUARTE - COMARCA; LIMA DUARTE-PJ-UNPJ 6.973,61 1.394,72 0,00 4.184,17 0,00 0,00 12.552,50 1.119,62 1.126,65 0,00 2.246,27 10.306,23 799,00 1.809,90 30/06/2016
415 85400 CARLOS JOSE VIEIRA OFICIAL DO MP ATIVO BELO HORIZONTE - COMARCA; DIRETORIA DO COLEGIO E DA CAMARA DE PJ 20.277,14 14.194,00 0,00 15.235,56 0,00 0,00 49.706,70 3.351,82 6.588,44 4.000,03 13.940,29 35.766,41 799,00 0,00 30/06/2016
416 229100 CARLOS MERCES DE OLIVEIRA ANALISTA DO MP ATIVO BELO HORIZONTE - COMARCA; CENTRAL DE APOIO TECN-SETOR DE MEIO AMBIENTE 14.297,05 4.289,12 0,00 9.293,09 0,00 0,00 27.879,26 2.488,28 2.575,61 0,00 5.063,89 22.815,37 799,00 4.303,57 30/06/2016
417 538300 CARLOS RANGEL SILVA DE MELO ANALISTA DO MP ATIVO BELO HORIZONTE - COMARCA; DIVISAO DE CONTROLE IMOBILIARIO 5.754,07 1.150,81 0,00 2.662,36 0,00 0,00 9.567,24 934,69 820,61 0,00 1.755,30 7.811,94 799,00 1.698,30 30/06/2016
418 265100 CARLOS REIFF MIRANDA ANALISTA DO MP ATIVO BELO HORIZONTE - COMARCA; BH-19PJ SAUDE-SECRETARIA 150PJ 12.225,81 2.445,16 0,00 7.335,49 0,00 0,00 22.006,46 2.260,81 3.379,49 0,00 5.640,30 16.366,16 799,00 6.081,95 30/06/2016
419 305400 CARLOS ROCHA DE SOUZA OFICIAL DO MP ATIVO MONTALVÂNIA - COMARCA; MONTALVANIA-PJ-SECRETARIA 5.226,73 1.045,35 0,00 3.136,04 0,00 0,00 9.408,12 854,23 457,18 0,00 1.311,41 8.096,71 2.646,81 1.493,35 30/06/2016
420 365100 CARLOS WAGNER SANDER MORAIS COORDENADOR/OFICIAL ATIVO BELO HORIZONTE - COMARCA; DIRETORIA DE ADMINISTRACAO FINANCEIRA 0,00 1.146,70 11.466,98 0,00 0,00 0,00 12.613,68 1.026,31 2.367,35 0,00 3.393,66 9.220,02 799,00 3.394,64 30/06/2016
421 399900 CARMELITA EVANGELISTA DE SOUZA OFICIAL DO MP ATIVO JOÃO PINHEIRO - COMARCA; JOAO PINHEIRO-PJ-01PJ 5.941,34 594,13 0,00 0,00 0,00 0,00 6.535,47 890,05 730,20 0,00 1.620,25 4.915,22 799,00 1.556,05 30/06/2016
422 390400 CARMEM APARECIDA ANTUNES RESENDE OFICIAL DO MP ATIVO IGARAPÉ - COMARCA; IGARAPE-PJ-SECRETARIA 6.334,59 5.701,14 0,00 6.017,87 0,00 1.566,59 19.620,19 1.854,75 3.074,22 0,00 4.928,97 14.691,22 806,18 5.401,74 30/06/2016
423 202000 CARMEN LUCIA MARIZ DE MACEDO OFICIAL DO MP ATIVO BELO HORIZONTE - COMARCA; COORD COMB REPRES TRAFICO ILICITO ENTORPECEN 10.755,28 5.377,64 0,00 8.066,46 0,00 0,00 24.199,38 2.303,26 3.223,87 0,00 5.527,13 18.672,25 1.002,14 4.805,55 30/06/2016
424 228500 CAROLINA CHIARELLA DOS SANTOS RIBEIRO OFICIAL DO MP ATIVO BELO HORIZONTE - COMARCA; GAECO - SECRETARIA 6.134,81 1.840,44 0,00 3.987,63 0,00 0,00 11.962,88 1.119,91 1.128,46 0,00 2.248,37 9.714,51 1.431,00 2.403,43 30/06/2016
425 446500 CAROLINA COSTA VAL RODRIGUES ANALISTA DO MP ATIVO CONTAGEM - COMARCA; CONTAGEM-PJ-05PJ 9.163,30 916,33 0,00 5.039,82 0,00 0,00 15.119,45 1.440,49 1.753,22 0,00 3.193,71 11.925,74 799,00 3.015,89 30/06/2016
426 603501 CAROLINA DOMINGOS BRANDAO ANALISTA DO MP ATIVO CARATINGA - COMARCA; CARATINGA-PJ-03PJ 5.572,67 0,00 0,00 2.232,56 0,00 0,00 7.805,23 745,59 494,55 0,00 1.240,14 6.565,09 799,00 1.285,60 30/06/2016
427 404300 CAROLINA DOS SANTOS VIEIRA ANALISTA DO MP ATIVO BELO HORIZONTE - COMARCA; BH-08PJ JUIZADO ESPECIAL-SECRETARIA 9.461,59 946,16 0,00 5.203,88 0,00 0,00 15.611,63 1.408,85 1.573,66 0,00 2.982,51 12.629,12 1.477,54 2.399,95 30/06/2016
428 551200 CAROLINA LOPES ARANTES MASCARENHAS ANALISTA DO MP ATIVO BELO HORIZONTE - COMARCA; EXTINTA - COORD DEFESA DO DIREITO DE FAMILIA 6.334,59 380,08 0,00 0,00 0,00 0,00 6.714,67 948,80 825,58 0,00 1.774,38 4.940,29 1.431,00 2.008,35 30/06/2016
429 622600 CAROLINA LOREDO LOPES OFICIAL DO MP ATIVO RIBEIRÃO DAS NEVES - COMARCA; RIBEIRAO DAS NEVES-PJ-12PJ 3.285,74 0,00 0,00 1.642,87 0,00 0,00 4.928,61 444,78 83,85 0,00 528,63 4.399,98 799,00 808,16 30/06/2016
430 382200 CAROLINA MENDES CHAVES LIN ANALISTA DO MP ATIVO BELO HORIZONTE - COMARCA; BH-12PJ JUIZO CRIMINAL-GAB 088PJ 8.061,11 806,11 0,00 4.433,61 0,00 0,00 13.300,83 1.186,34 1.248,76 0,00 2.435,10 10.865,73 1.431,00 2.045,60 30/06/2016
431 461900 CAROLINA MURTA TEIXEIRA DIAS ANALISTA DO MP ATIVO BELO HORIZONTE - COMARCA; DIRET DE FORMACAO, APERFEIC. E POS-GRADUACAO 7.806,95 780,70 0,00 4.293,83 0,00 0,00 12.881,48 1.154,54 1.232,47 0,00 2.387,01 10.494,47 799,00 1.908,20 30/06/2016
432 509600 CAROLINA PINTO DE OLIVEIRA SOUZA ANALISTA DO MP ATIVO MURIAÉ - COMARCA; MURIAE-PJ-01PJ 7.560,72 453,64 0,00 3.046,38 0,00 0,00 11.060,74 1.075,18 1.040,02 0,00 2.115,20 8.945,54 2.379,00 1.760,00 30/06/2016
433 629100 CAROLINA RODRIGUES AMARAL ANALISTA DO MP ATIVO BELO HORIZONTE - COMARCA; PROC. JUSTICA DIR. DIFUSOS E COLETIVOS-SEC 5.572,67 0,00 0,00 2.786,34 0,00 0,00 8.359,01 754,34 494,55 0,00 1.248,89 7.110,12 799,00 1.370,67 30/06/2016
434 502600 CAROLINA RODRIGUES RUBEN ANALISTA DO MP ATIVO BELO HORIZONTE - COMARCA; EXTINTA-DEF DIREIT HUM-COMB A VIOL DOMEST-18 7.560,72 453,64 0,00 3.020,31 0,00 0,00 11.034,67 1.075,18 1.092,15 0,00 2.167,33 8.867,34 939,80 1.877,33 30/06/2016
435 529600 CAROLINA VAZ DE MELO MAMBRINI ANALISTA DO MP ATIVO MINAS NOVAS - COMARCA; MINAS NOVAS-PJ-UNPJ 6.334,59 380,08 0,00 3.357,34 0,00 0,00 10.072,01 899,26 774,06 0,00 1.673,32 8.398,69 799,00 1.558,03 30/06/2016
436 619100 CAROLINA ZAKHIA NARDELLI RODRIGUES ANALISTA DO MP ATIVO NEPOMUCENO - COMARCA; NEPOMUCENO-PJ-UNPJ 5.572,67 0,00 0,00 2.232,56 1.857,56 0,00 9.662,79 755,43 1.005,38 0,00 1.760,81 7.901,98 905,45 1.383,34 30/06/2016
437 517600 CAROLINE ALVES DE OLIVEIRA MULLER ANALISTA DO MP ATIVO VISCONDE DO RIO BRANCO - COMARCA; VISCONDE DO RIO BRANCO-PJ-01PJ 7.560,72 453,64 0,00 4.007,18 0,00 0,00 12.021,54 1.075,18 1.040,02 0,00 2.115,20 9.906,34 2.191,94 1.760,00 30/06/2016
438 373200 CAROLINE ANTUNES RIBEIRO OFICIAL DO MP ATIVO JACUI - COMARCA; JACUI-PJ-UNPJ 6.540,78 654,08 0,00 3.597,43 0,00 0,00 10.792,29 1.027,17 846,19 0,00 1.873,36 8.918,93 931,72 2.143,06 30/06/2016
439 556800 CAROLINE DE SOUZA CARDOSO OFICIAL DO MP ATIVO BRASÍLIA DE MINAS - COMARCA; BRASILIA DE MINAS-PJ-02PJ 3.617,27 0,00 0,00 1.808,64 0,00 0,00 5.425,91 490,90 128,11 0,00 619,01 4.806,90 799,00 845,46 30/06/2016
440 499400 CAROLINE MARQUES DE LOURDES MARZULLO OFICIAL DO MP ATIVO TRÊS CORACOES - COMARCA; TRES CORACOES-PJ-01PJ 5.396,93 323,82 0,00 2.860,38 1.906,92 0,00 10.488,05 1.214,30 1.825,11 0,00 3.039,41 7.448,64 2.063,00 5.917,31 30/06/2016
441 616800 CAROLINE MONTEIRO DE BARROS ANALISTA DO MP ATIVO CONTAGEM - COMARCA; CONTAGEM-PJ-11PJ 5.572,67 0,00 0,00 0,00 0,00 0,00 5.572,67 756,27 494,55 0,00 1.250,82 4.321,85 799,00 1.302,49 30/06/2016
442 618100 CAROLINE VASCONCELOS COSTA LANZA ANALISTA DO MP ATIVO PARAOPEBA - COMARCA; PARAOPEBA-PJ-UNPJ 5.572,67 0,00 0,00 2.786,34 0,00 0,00 8.359,01 758,94 494,55 0,00 1.253,49 7.105,52 1.431,00 1.415,27 30/06/2016
443 604000 CASSIA APARECIDA DA SILVA OFICIAL DO MP ATIVO CANÁPOLIS - COMARCA; CANAPOLIS-PJ-UNPJ 3.617,27 0,00 0,00 1.808,64 0,00 0,00 5.425,91 483,95 128,11 0,00 612,06 4.813,85 799,00 782,30 30/06/2016
444 268800 CASSIA BEATRIZ TEIXEIRA OFICIAL DO MP ATIVO BELO HORIZONTE - COMARCA; COMB CRIMES PRAT POR AG POL MUN-SECRETARIA 8.874,34 1.774,87 0,00 5.324,61 0,00 0,00 15.973,82 2.260,30 3.092,00 0,00 5.352,30 10.621,52 1.774,88 11.005,76 30/06/2016
445 500000 CASSIA DE OLIVEIRA COSTA VIANA ANALISTA DO MP ATIVO SETE LAGOAS - COMARCA; SETE LAGOAS-PJ-09PJ 7.560,72 3.024,29 0,00 0,00 3.528,34 0,00 14.113,35 1.398,13 2.691,62 0,00 4.089,75 10.023,60 799,00 2.269,24 30/06/2016
446 368800 CASSIA LUISA BATISTA MENDONCA WEBER OFICIAL DO MP ATIVO BELO HORIZONTE - COMARCA; PROCON-MG-SEC DE EDUCACAO PARA O CONSUMO 5.572,67 557,27 0,00 3.064,97 2.043,31 0,00 11.238,22 873,30 1.287,47 0,00 2.160,77 9.077,45 1.431,00 1.903,24 30/06/2016
447 622200 CASSIA VAZ DE AZEVEDO LISBOA MARZANO ASSESSOR ATIVO BELO HORIZONTE - COMARCA; CGMP-SECRETARIA DA CORREGEDORIA-GERAL DO MP 0,00 0,00 2.625,65 1.312,83 41,68 0,00 3.980,16 445,48 55,33 0,00 500,81 3.479,35 1.431,00 625,15 30/06/2016
448 121000 CASSIO HENRIQUE AFONSO DA SILVA OFICIAL DO MP ATIVO BELO HORIZONTE - COMARCA; ASSESS TECNICA DA CORREGEDORIA-GERAL DO MP 13.228,78 9.260,15 0,00 11.244,47 0,00 0,00 33.733,40 3.332,20 5.365,09 0,00 8.697,29 25.036,11 2.207,81 8.459,09 30/06/2016
449 121100 CASSIO MOREIRA DE MIRANDA AGENTE DO MP ATIVO BELO HORIZONTE - COMARCA; PROCON-MG-SECRETARIA DE FISCALIZACOES 3.735,01 4.221,56 0,00 3.978,29 0,00 0,00 11.934,86 905,83 395,51 0,00 1.301,34 10.633,52 799,00 1.805,55 30/06/2016
450 512001 CATARINA NATALINO CALIXTO ASSESSOR/ANALISTA ATIVO BELO HORIZONTE - COMARCA; EXTINTA - DIVISÃO DE APOIO À LICITAÇÃO 0,00 0,00 8.874,34 4.437,17 0,00 0,00 13.311,51 754,34 1.402,51 0,00 2.156,85 11.154,66 799,00 1.660,40 30/06/2016
451 606200 CATARINE DE SIQUEIRA DE QUADROS ANALISTA DO MP ATIVO RIBEIRÃO DAS NEVES - COMARCA; RIBEIRAO DAS NEVES-PJ-09PJ 5.572,67 0,00 0,00 2.786,34 0,00 0,00 8.359,01 745,59 442,41 0,00 1.188,00 7.171,01 1.431,00 1.205,25 30/06/2016
452 71800 CATIA EFIGENIA CARNEIRO DE FREITAS OFICIAL DO MP ATIVO BELO HORIZONTE - COMARCA; ASSESSORIA JURIDICO-ADMINISTRATIVA 23.365,79 16.356,06 0,00 15.235,56 0,00 3.351,82 58.309,23 3.351,82 7.458,06 9.250,74 20.060,62 38.248,61 799,00 0,00 30/06/2016
453 622300 CECILIA APARECIDA PEREIRA ASSUNCAO OFICIAL DO MP ATIVO TRÊS PONTAS - COMARCA; TRES PONTAS-PJ-SECRETARIA 3.617,27 0,00 0,00 1.808,64 0,00 0,00 5.425,91 489,65 99,67 0,00 589,32 4.836,59 1.431,00 889,71 30/06/2016
454 538000 CECILIA FONTES DE MATOS PIMENTEL ANALISTA DO MP ATIVO PALMA - COMARCA; PALMA-PJ-SECRETARIA 6.334,59 380,08 0,00 3.357,34 0,00 0,00 10.072,01 899,26 774,06 0,00 1.673,32 8.398,69 1.431,00 1.558,03 30/06/2016
455 261300 CECILIO ANTONIO CAMPOS DOS REIS ANALISTA DO MP ATIVO BELO HORIZONTE - COMARCA; AUDITORIA INTERNA 12.623,91 2.524,78 0,00 7.574,35 0,00 0,00 22.723,04 2.050,61 2.838,28 0,00 4.888,89 17.834,15 5.446,91 4.114,84 30/06/2016
456 386400 CEFAS AMORELI DE FIGUEIREDO OFICIAL DO MP ATIVO CABO VERDE - COMARCA; CABO VERDE-PJ-SECRETARIA 5.226,73 522,67 0,00 2.874,70 0,00 0,00 8.624,10 769,23 537,81 0,00 1.307,04 7.317,06 799,00 1.243,45 30/06/2016
457 149000 CELIA MAGALHAES CLAROS SOSSI OFICIAL DO MP ATIVO GOVERNADOR VALADARES - COMARCA; GOVERNADOR VALADARES-PJ-01PJ 12.225,81 6.112,90 0,00 9.169,36 0,00 0,00 27.508,07 2.826,04 4.441,70 0,00 7.267,74 20.240,33 1.139,00 7.352,47 30/06/2016
458 113100 CELIA MARIA ALVES PINTO OFICIAL DO MP ATIVO BELO HORIZONTE - COMARCA; PROCON-MG-SEC DE EDUCACAO PARA O CONSUMO 8.061,11 5.642,77 0,00 6.851,94 0,00 1.507,43 22.063,25 1.859,78 2.996,10 0,00 4.855,88 17.207,37 799,00 3.907,77 30/06/2016
459 421000 CELINA BENEDITA DE SOUZA ALMEIDA OFICIAL DO MP ATIVO CAMBUÍ - COMARCA; CAMBUI-PJ-01PJ 6.334,59 3.167,30 0,00 4.750,95 0,00 0,00 14.252,84 1.461,14 1.830,34 0,00 3.291,48 10.961,36 958,43 3.781,27 30/06/2016
460 252900 CELIO DE MELO CASTOR ANALISTA DO MP ATIVO BELO HORIZONTE - COMARCA; BH-20PJ ORD ECON TRIBUTARIA-SECRETARIA 12.623,91 2.524,78 0,00 7.574,35 0,00 0,00 22.723,04 2.050,61 2.786,14 0,00 4.836,75 17.886,29 799,00 3.493,15 30/06/2016
461 395700 CELIO FERREIRA LIMA OFICIAL DO MP ATIVO CONTAGEM - COMARCA; CONTAGEM-PJ-07PJ 6.134,81 613,48 0,00 3.374,15 2.249,43 0,00 12.371,87 897,81 1.348,74 0,00 2.246,55 10.125,32 1.431,00 1.413,50 30/06/2016
462 281300 CELMA REGINA PEREIRA SANTOS ANALISTA DO MP ATIVO BELO HORIZONTE - COMARCA; DIVISAO DE DOCUMENTACAO JURIDICA 13.228,78 2.645,76 0,00 7.937,27 0,00 0,00 23.811,81 2.397,64 3.715,35 0,00 6.112,99 17.698,82 799,00 6.556,13 30/06/2016
463 535600 CELSO MEDEIROS DE PAIVA OFICIAL DO MP ATIVO RIO PRETO - COMARCA; RIO PRETO-PJ-SECRETARIA 3.735,01 224,10 0,00 1.979,56 0,00 0,00 5.938,67 530,25 145,30 0,00 675,55 5.263,12 799,00 915,42 30/06/2016
464 367000 CESAR NARVAES DE AVELAR COORDENADOR/OFICIAL ATIVO BELO HORIZONTE - COMARCA; DIVISAO DE MEMORIA INSTITUCIONAL 0,00 1.008,77 10.087,71 4.160,92 0,00 0,00 15.257,40 1.058,31 1.942,63 0,00 3.000,94 12.256,46 1.099,89 2.642,05 30/06/2016
465 226500 CESAR SILVEIRA BARROUIN OFICIAL DO MP ATIVO BELO HORIZONTE - COMARCA; DIRETORIA DE ADMINISTRACAO FINANCEIRA 9.163,30 2.748,99 0,00 0,00 0,00 0,00 11.912,29 1.702,40 2.230,06 0,00 3.932,46 7.979,83 3.481,98 3.993,29 30/06/2016
466 121400 CEZAR MORENO CONCEICAO TAVARES OFICIAL DO MP ATIVO BELO HORIZONTE - COMARCA; COORD DE INCLUSAO E MOBILIZACAO SOCIAIS 11.105,40 7.773,78 0,00 9.439,59 0,00 0,00 28.318,77 2.499,26 3.751,32 0,00 6.250,58 22.068,19 1.124,39 3.841,20 30/06/2016
467 243800 CHARLES MARTINS MUNIZ OFICIAL DO MP ATIVO BELO HORIZONTE - COMARCA; LAB TECNOLOGIA CONTRA LAVAGEM DINHEIRO 9.163,30 2.748,99 0,00 5.956,15 0,00 0,00 17.868,44 1.704,07 2.230,06 0,00 3.934,13 13.934,31 805,50 3.579,46 30/06/2016
468 193500 CHARLIN CESAR KOURLY OFICIAL DO MP ATIVO UBERLÂNDIA - COMARCA; UBERLANDIA-PJ-10PJ 10.755,28 3.226,58 0,00 6.990,93 4.660,62 0,00 25.633,41 1.892,65 3.834,37 0,00 5.727,02 19.906,39 799,00 3.224,05 30/06/2016
469 385500 CHILLEN PEIXOTO DE MOURA OFICIAL DO MP ATIVO BELO HORIZONTE - COMARCA; PROCON-MG-SECRETARIA DE FISCALIZACOES 6.134,81 1.847,04 0,00 3.059,01 0,00 0,00 11.040,86 915,22 1.121,51 0,00 2.036,73 9.004,13 806,98 1.572,06 30/06/2016
470 534500 CHRISTIAN DOUGLAS BRITO RUAS OFICIAL DO MP ATIVO SÃO JOÃO DA PONTE - COMARCA; SAO JOAO DA PONTE-PJ-SECRETARIA 3.735,01 224,10 0,00 1.674,94 0,00 0,00 5.634,05 530,25 173,74 0,00 703,99 4.930,06 1.520,92 861,25 30/06/2016
471 370600 CHRISTIAN KARINE FELIX PRATES ASSESSOR ATIVO BELO HORIZONTE - COMARCA; ASSESS ESPECIAL DO PGJ ATUACAO JUNTO A PGJAI 0,00 0,00 8.874,34 4.437,17 0,00 0,00 13.311,51 570,88 1.633,82 0,00 2.204,70 11.106,81 1.347,24 2.128,45 30/06/2016
472 435800 CHRISTIANA BAHIA ANDRADE PINA ANALISTA DO MP ATIVO BELO HORIZONTE - COMARCA; LAB TECNOLOGIA CONTRA LAVAGEM DINHEIRO 9.163,30 916,33 0,00 5.039,82 3.359,88 0,00 18.479,33 1.364,41 2.521,60 0,00 3.886,01 14.593,32 1.431,00 2.479,20 30/06/2016
473 516800 CHRISTIANE FERREIRA DO NASCIMENTO ANALISTA DO MP ATIVO ESTRELA DO SUL - COMARCA; ESTRELA DO SUL-PJ-UNPJ 7.560,72 453,64 0,00 3.020,31 0,00 0,00 11.034,67 1.057,43 1.092,15 0,00 2.149,58 8.885,09 799,00 1.598,75 30/06/2016
474 176000 CHRISTIANE JUNQUEIRA PULITI ANDRADE DE BARROS ASSESSOR ATIVO BELO HORIZONTE - COMARCA; GABINETE DO PROCURADOR-GERAL DE JUSTICA 0,00 10.404,11 14.863,02 12.633,57 0,00 0,00 37.900,70 3.441,13 5.262,63 0,00 8.703,76 29.196,94 1.814,70 6.015,95 30/06/2016
475 319200 CHRISTIANE MARIA DE ASSIS RUSSO OFICIAL DO MP ATIVO BELO HORIZONTE - COMARCA; CAO-ORDEM ECONOMICA E TRIBUTARIA-SECRETARIA 7.322,31 1.464,46 0,00 0,00 0,00 0,00 8.786,77 1.178,84 1.229,07 0,00 2.407,91 6.378,86 1.782,47 1.961,82 30/06/2016
476 510300 CHRISTIANE MARY DE CARVALHO FERREIRA ANALISTA DO MP ATIVO BELO HORIZONTE - COMARCA; DIRETORIA DE SISTEMAS DE INFORMACAO 7.560,72 453,64 0,00 4.007,18 2.671,45 0,00 14.692,99 1.057,43 1.774,67 0,00 2.832,10 11.860,89 1.431,00 1.705,33 30/06/2016
477 424900 CHRISTIANE PEREIRA TURNER DE ARAUJO OFICIAL DO MP ATIVO BELO HORIZONTE - COMARCA; CAO-PATRIMONIO PUBLICO 5.754,07 575,41 0,00 3.164,74 0,00 0,00 9.494,22 856,79 627,64 0,00 1.484,43 8.009,79 1.431,00 1.459,50 30/06/2016
478 513700 CHRISTIANE VIEIRA SOARES PEDERSOLI ANALISTA DO MP ATIVO BELO HORIZONTE - COMARCA; PROCON-MG-GAB DO COORDENADOR DO PROCON-MG 7.560,72 453,64 0,00 4.007,18 0,00 0,00 12.021,54 1.075,18 1.092,15 0,00 2.167,33 9.854,21 1.770,81 1.757,96 30/06/2016
479 412300 CHRYSTIAN MACHADO RIBEIRO ANALISTA DO MP ATIVO VARGINHA - COMARCA; VARGINHA-PJ-04PJ 9.461,59 946,16 0,00 3.792,48 0,00 0,00 14.200,23 1.482,70 1.838,55 0,00 3.321,25 10.878,98 1.278,99 3.076,36 30/06/2016
480 513800 CHRYSTIANE DO NASCIMENTO DE MAGALHAES OFICIAL DO MP ATIVO UBERLÂNDIA - COMARCA; UBERLANDIA-PJ-10PJ 4.902,32 294,14 0,00 2.598,23 0,00 0,00 7.794,69 695,26 319,15 0,00 1.014,41 6.780,28 1.241,40 1.123,85 30/06/2016
481 497900 CIBELE DE FREITAS SANCHES DIAS ANALISTA DO MP ATIVO SABARÁ - COMARCA; SABARA-PJ-03PJ 6.973,61 418,42 0,00 2.819,54 0,00 0,00 10.211,57 988,97 939,84 0,00 1.928,81 8.282,76 799,00 1.598,75 30/06/2016
482 500900 CIBELLE SILVA PRADO ALVARENGA ANALISTA DO MP ATIVO ITANHANDU - COMARCA; ITANHANDU-PJ-UNPJ 7.560,72 453,64 0,00 0,00 0,00 0,00 8.014,36 1.075,18 1.092,15 0,00 2.167,33 5.847,03 1.138,81 1.760,00 30/06/2016
483 629800 CINIRA DE ASSIS SILVA ANALISTA DO MP ATIVO TIMÓTEO - COMARCA; TIMOTEO-PJ-02PJ 5.061,97 0,00 0,00 2.063,81 0,00 0,00 7.125,78 685,22 377,53 0,00 1.062,75 6.063,03 799,00 1.167,20 30/06/2016
484 296400 CINTIA APARECIDA MOREIRA NAVES E RODRIGUES ANALISTA DO MP ATIVO CAMPO BELO - COMARCA; CAMPO BELO-PJ-02PJ 12.225,81 2.445,16 0,00 7.335,49 0,00 0,00 22.006,46 1.962,81 2.721,36 0,00 4.684,17 17.322,29 1.838,08 3.173,00 30/06/2016
485 407900 CINTIA NETO COMELLI ANALISTA DO MP ATIVO BELO HORIZONTE - COMARCA; CENTRAL DE APOIO TECNICO-SETOR CONTABIL 9.461,59 946,16 0,00 5.203,88 0,00 0,00 15.611,63 1.482,70 1.868,63 0,00 3.351,33 12.260,30 799,00 3.340,68 30/06/2016
486 304700 CINTIA QUEIROZ OFICIAL DO MP ATIVO BELO HORIZONTE - COMARCA; DIR GESTAO SISTEMAS ATIVIDADE-FIM 7.322,31 1.464,46 0,00 4.393,39 0,00 0,00 13.180,16 1.192,84 1.281,20 0,00 2.474,04 10.706,12 799,00 2.057,35 30/06/2016
487 286100 CIRO CANGUSSU CORDEIRO OFICIAL DO MP ATIVO IPATINGA - COMARCA; IPATINGA-PJ-09PJ 5.396,93 1.079,39 0,00 3.238,16 2.158,77 0,00 11.873,25 1.056,44 1.557,18 0,00 2.613,62 9.259,63 1.097,67 3.425,51 30/06/2016
488 412500 CLARICE GOMES MAROTTA ANALISTA DO MP ATIVO BELO HORIZONTE - COMARCA; ASSESS TECNICO-JUR JUNTO AS PROC. DE JUST 9.163,30 1.832,66 0,00 5.497,98 0,00 0,00 16.493,94 1.491,33 1.821,90 0,00 3.313,23 13.180,71 1.293,92 2.561,63 30/06/2016
489 605300 CLARISSA AZEVEDO ROCHA OFICIAL DO MP ATIVO BELO HORIZONTE - COMARCA; EXTINTA - DIVISÃO DE COMPRAS 3.982,20 0,00 0,00 0,00 0,00 0,00 3.982,20 532,79 176,82 0,00 709,61 3.272,59 799,00 861,25 30/06/2016
490 308100 CLARISSA DUARTE MARTINS DIRETOR/ANALISTA ATIVO BELO HORIZONTE - COMARCA; SUPERINTENDENCIA DE RECURSOS HUMANOS 0,00 2.972,60 14.863,02 8.917,81 0,00 0,00 26.753,43 1.962,81 3.539,50 0,00 5.502,31 21.251,12 3.844,52 4.508,14 30/06/2016
491 497100 CLARISSA ROCHA GUIDI ANALISTA DO MP ATIVO BELO HORIZONTE - COMARCA; EXTINTA - JUIZO DE FAMILIA-02 PJ-02 VARA 7.560,72 453,64 0,00 4.007,18 0,00 0,00 12.021,54 1.075,18 1.092,15 0,00 2.167,33 9.854,21 799,00 1.760,00 30/06/2016
492 641800 CLARISSE TAVARES GONCALVES OFICIAL DO MP ATIVO BELO HORIZONTE - COMARCA; BH-07PJ 01 TRIBUNAL DO JURI 3.182,15 0,00 0,00 1.591,08 1.060,72 0,00 5.833,95 396,72 239,76 0,00 636,48 5.197,47 799,00 424,28 30/06/2016
493 463700 CLAUDIA ADRIANA FERRAO DIAS ANALISTA DO MP ATIVO SETE LAGOAS - COMARCA; SETE LAGOAS-PJ-06PJ 7.806,95 780,70 0,00 0,00 0,00 0,00 8.587,65 1.154,54 1.128,19 0,00 2.282,73 6.304,92 799,00 1.908,20 30/06/2016
494 415400 CLAUDIA ALMEIDA DE VASCONCELLOS BARROS ASSESSOR/OFICIAL ATIVO BELO HORIZONTE - COMARCA; DIRET DE PESSOAL DO MINISTERIO PUBLICO - DPMP 0,00 887,43 8.874,34 3.584,07 0,00 0,00 13.345,84 1.331,41 1.519,29 0,00 2.850,70 10.495,14 799,00 2.374,05 30/06/2016
495 389600 CLAUDIA ALVES PERDOMO ASSESSOR ATIVO BELO HORIZONTE - COMARCA; PROCON-MG-GAB DO COORDENADOR DO PROCON-MG 0,00 0,00 8.874,34 4.437,17 0,00 0,00 13.311,51 570,88 1.633,82 0,00 2.204,70 11.106,81 799,00 2.112,95 30/06/2016
496 207000 CLAUDIA APARECIDA VILELA MACHADO ANALISTA DO MP ATIVO BELO HORIZONTE - COMARCA; CENTRAL DE APOIO TECNICO-SETOR CONTABIL 16.063,25 6.425,30 0,00 11.244,28 0,00 0,00 33.732,83 2.960,54 4.582,58 0,00 7.543,12 26.189,71 1.873,20 4.425,25 30/06/2016
497 365700 CLAUDIA BREGUEZ CUNHA ANALISTA DO MP ATIVO VARGINHA - COMARCA; VARGINHA-PJ-07PJ 10.691,43 1.075,53 0,00 5.915,41 0,00 0,00 17.682,37 1.689,05 2.225,44 0,00 3.914,49 13.767,88 799,00 3.639,69 30/06/2016
498 430500 CLAUDIA CECILIA SANTANA VENCESLAU COORDENADOR/OFICIAL ATIVO BELO HORIZONTE - COMARCA; DIRET DE DESENV DE RECURSOS HUMANOS-DDRH 0,00 1.146,70 11.466,98 6.306,84 0,00 0,00 18.920,52 856,79 2.355,80 0,00 3.212,59 15.707,93 1.804,14 3.003,30 30/06/2016
499 112400 CLAUDIA CRISTINA FIUZA DE AVELAR AGENTE DO MP ATIVO BELO HORIZONTE - COMARCA; SERVICO MEDICO-DEPTO PERIC MEDICA SAUDE OCUP 7.322,31 3.661,15 0,00 5.491,73 0,00 0,00 16.475,19 1.533,01 1.908,16 0,00 3.441,17 13.034,02 799,00 3.124,30 30/06/2016
500 149400 CLAUDIA DINIZ OFICIAL DO MP ATIVO BELO HORIZONTE - COMARCA; BH-09PJ AUDITORIA MILITAR-SECRETARIA 13.752,51 6.876,25 0,00 10.314,38 0,00 0,00 30.943,14 2.788,86 4.179,53 0,00 6.968,39 23.974,75 1.301,06 4.724,55 30/06/2016
501 480400 CLAUDIA GOULART DE SOUZA OFICIAL DO MP ATIVO PASSOS - COMARCA; PASSOS-PJ-06PJ 5.572,67 1.114,53 0,00 3.343,60 0,00 0,00 10.030,80 940,33 870,56 0,00 1.810,89 8.219,91 799,00 1.861,12 30/06/2016
502 519800 CLAUDIA HELENA CORREA DE ALMEIDA ANALISTA DO MP ATIVO BELO HORIZONTE - COMARCA; BH-12PJ JUIZO CRIMINAL-GAB 090PJ 7.560,72 453,64 0,00 4.007,18 0,00 0,00 12.021,54 1.075,18 1.092,15 0,00 2.167,33 9.854,21 958,40 1.760,00 30/06/2016
503 422100 CLAUDIA IACOMINI CABRAL ANALISTA DO MP ATIVO BELO HORIZONTE - COMARCA; CENT DE APOIO TEC-SETOR DEF,IDOSO E INFANC 9.163,30 4.581,65 0,00 6.872,48 0,00 0,00 20.617,43 1.860,54 2.494,72 0,00 4.355,26 16.262,17 990,72 3.169,45 30/06/2016
504 258200 CLAUDIA LAGE MICHALAROS ANALISTA DO MP ATIVO BELO HORIZONTE - COMARCA; CENTRAL DE APOIO TECN-SETOR DE MEIO AMBIENTE 12.623,91 6.311,95 0,00 6.569,93 0,00 0,00 25.505,79 2.563,24 3.713,06 0,00 6.276,30 19.229,49 1.025,59 4.366,45 30/06/2016
505 284600 CLAUDIA LENI DE ABREU OFICIAL DO MP ATIVO CONTAGEM - COMARCA; CONTAGEM-PJ-22PJ 5.226,73 1.568,02 0,00 3.397,38 0,00 0,00 10.192,13 925,37 793,66 0,00 1.719,03 8.473,10 799,00 1.617,80 30/06/2016
506 433600 CLAUDIA LUIZA SANTIAGO FELICIO ANALISTA DO MP ATIVO BELO HORIZONTE - COMARCA; CENT DE APOIO TEC-SETOR DEF,IDOSO E INFANC 9.163,30 916,33 0,00 3.738,76 0,00 0,00 13.818,39 1.364,41 1.493,35 0,00 2.857,76 10.960,63 1.431,00 2.324,25 30/06/2016
507 317000 CLAUDIA MACHADO ALVES OFICIAL DO MP ATIVO BELO HORIZONTE - COMARCA; SUPRIN DE PLANEJAMENTO E COORDENACAO 5.754,07 1.150,81 0,00 3.452,44 0,00 0,00 10.357,32 934,69 820,61 0,00 1.755,30 8.602,02 799,00 1.592,15 30/06/2016
508 155300 CLAUDIA MACIEL MIRANDA OFICIAL DO MP ATIVO CONGONHAS - COMARCA; CONGONHAS-PJ-02PJ 11.105,40 4.442,16 0,00 7.773,78 0,00 0,00 23.321,34 2.104,58 2.831,63 0,00 4.936,21 18.385,13 1.288,50 3.585,10 30/06/2016
509 242200 CLAUDIA MICHELLE DIAS MUNIZ BALEEIRO OFICIAL DO MP ATIVO MONTE AZUL - COMARCA; MONTE AZUL-PJ-SECRETARIA 8.874,34 2.662,30 0,00 5.768,32 0,00 0,00 17.304,96 2.747,54 4.014,87 0,00 6.762,41 10.542,55 1.039,53 15.291,36 30/06/2016
510 623000 CLAUDIA PATRICIA SILVA RODRIGUES RAPOSEIRAS OFICIAL DO MP ATIVO BELO HORIZONTE - COMARCA; DIVISÃO DE EDUCAÇÃO PARA O CONSUMO 3.285,74 0,00 0,00 1.642,87 0,00 0,00 4.928,61 444,78 62,30 0,00 507,08 4.421,53 799,00 808,16 30/06/2016
511 418400 CLAUDIA REGINA MARTINS BONIFACIO OFICIAL DO MP ATIVO ITUIUTABA - COMARCA; ITUIUTABA-PJ-06PJ 6.334,59 633,46 0,00 3.484,03 0,00 0,00 10.452,08 1.073,77 1.044,38 0,00 2.118,15 8.333,93 801,49 2.793,66 30/06/2016
512 498300 CLAUDIA SOUTO FARIAS BRAUN OFICIAL DO MP ATIVO TEÓFILO OTONI - COMARCA; TEOFILO OTONI-PJ-SECRETARIA 4.453,07 267,18 0,00 2.005,49 1.573,42 0,00 8.299,16 633,38 562,20 0,00 1.195,58 7.103,58 799,00 1.106,93 30/06/2016
513 206500 CLAUDIA VALERIA FONSECA ANDRADE ANALISTA DO MP ATIVO BELO HORIZONTE - COMARCA; BH-23PJ INF-FISC MED SOC FEC 16.063,25 6.425,31 0,00 11.244,28 0,00 0,00 33.732,84 2.997,99 4.634,72 0,00 7.632,71 26.100,13 4.397,17 5.413,19 30/06/2016
514 277500 CLAUDIO ANTONIO BORGES ALVARES OFICIAL DO MP ATIVO BELO HORIZONTE - COMARCA; EXTINTA - DIVISAO DE MATERIAL DE CONSUMO 7.560,72 1.512,14 0,00 4.536,43 0,00 0,00 13.609,29 1.228,11 1.351,22 0,00 2.579,33 11.029,96 799,00 2.231,57 30/06/2016
515 444800 CLAUDIO ARESIO DO CARMO ANALISTA DO MP ATIVO SETE LAGOAS - COMARCA; SETE LAGOAS-PJ-01PJ 8.594,48 2.578,34 0,00 5.586,41 0,00 0,00 16.759,23 1.494,81 1.813,05 0,00 3.307,86 13.451,37 799,00 2.416,45 30/06/2016
516 541600 CLAUDIO DE OLIVEIRA MELO OFICIAL DO MP ATIVO PARACATU - COMARCA; PARACATU-PJ-01PJ 3.617,27 0,00 0,00 1.808,64 0,00 0,00 5.425,91 492,65 71,23 0,00 563,88 4.862,03 1.440,47 861,25 30/06/2016
517 545100 CLAUDIO HENRIQUE MACEDO DE SOUZA FRANSOZO ANALISTA DO MP ATIVO OURO PRETO - COMARCA; OURO PRETO-PJ-01PJ 6.334,59 380,08 0,00 0,00 0,00 0,00 6.714,67 952,25 924,66 0,00 1.876,91 4.837,76 799,00 2.030,60 30/06/2016
518 353500 CLAUDIO HENRIQUE PEDRO DA ROCHA OFICIAL DO MP ATIVO BELO HORIZONTE - COMARCA; CAO-CRIMINAL-SECRETARIA 6.973,61 1.394,72 0,00 4.184,17 0,00 0,00 12.552,50 1.179,73 1.245,19 0,00 2.424,92 10.127,58 799,00 2.356,41 30/06/2016
519 265800 CLAUDIO KUPIDLOWSKY FERNANDES ASSESSOR/OFICIAL ATIVO BELO HORIZONTE - COMARCA; EXTINTA - SECRETARIA ADMINISTRATIVA 0,00 1.953,92 9.769,61 5.861,77 0,00 0,00 17.585,30 1.228,16 1.099,18 0,00 2.327,34 15.257,96 799,00 2.791,30 30/06/2016
520 193600 CLAUDIO LEITE FONTES OFICIAL DO MP ATIVO ITUIUTABA - COMARCA; ITUIUTABA-PJ-02PJ 6.540,78 1.962,23 0,00 4.251,51 0,00 0,00 12.754,52 1.150,98 969,75 0,00 2.120,73 10.633,79 799,00 1.960,70 30/06/2016
521 329400 CLAUDIO MARCIO BERNARDES OFICIAL DO MP ATIVO ITAÚNA - COMARCA; ITAUNA-PJ-04PJ 7.322,31 5.125,62 0,00 4.476,76 0,00 0,00 16.924,69 1.616,92 2.125,13 0,00 3.742,05 13.182,64 817,48 2.251,20 30/06/2016
522 270200 CLAUDIO RABELO ALVES OFICIAL DO MP ATIVO FORMIGA - COMARCA; FORMIGA-PJ-03PJ 8.061,11 1.612,22 0,00 4.836,67 0,00 0,00 14.510,00 1.294,17 1.289,64 0,00 2.583,81 11.926,19 799,00 2.092,10 30/06/2016
523 264700 CLAUDIO ROBERTO KFURI DE ARAUJO ANALISTA DO MP ATIVO BELO HORIZONTE - COMARCA; CENTRAL DE APOIO TECNICO-SETOR DE INFORMATICA 12.623,91 2.524,78 0,00 7.574,35 0,00 0,00 22.723,04 2.050,61 2.734,01 0,00 4.784,62 17.938,42 799,00 3.493,15 30/06/2016
524 188600 CLAUDIO SALES OFICIAL DO MP ATIVO NEPOMUCENO - COMARCA; NEPOMUCENO-PJ-SECRETARIA 10.416,20 7.291,34 0,00 8.853,77 0,00 0,00 26.561,31 2.369,13 3.464,56 0,00 5.833,69 20.727,62 1.458,27 3.829,75 30/06/2016
525 543300 CLAUDIO SILVA DE CARVALHO ANALISTA DO MP ATIVO CAMPO BELO - COMARCA; CAMPO BELO-PJ-04PJ 5.754,07 0,00 0,00 2.877,04 0,00 0,00 8.631,11 778,90 434,67 0,00 1.213,57 7.417,54 799,00 1.329,59 30/06/2016
526 160700 CLAUDIO VICENTE HESS ASSESSOR ATIVO BELO HORIZONTE - COMARCA; EXTINTA - SUPERINTENDENCIA ADMINISTRATIVA-SAD 0,00 4.586,79 11.466,98 8.026,89 0,00 0,00 24.080,66 570,88 3.451,75 0,00 4.022,63 20.058,03 1.563,47 3.892,43 30/06/2016
527 312900 CLAUDIO VIEIRA FIRPE OFICIAL DO MP ATIVO BELO HORIZONTE - COMARCA; SUPERINTENDENCIA DE COMUNICACAO INTEGRADA 7.322,31 1.464,46 0,00 4.393,39 0,00 0,00 13.180,16 1.226,38 1.271,59 0,00 2.497,97 10.682,19 1.710,59 2.535,55 30/06/2016
528 634100 CLEA CRISTINA GUERRA DE FREITAS COSTA OFICIAL DO MP ATIVO BELO HORIZONTE - COMARCA; BH-18PJ VIOLENCIA DOMESTICA 3.285,74 0,00 0,00 0,00 0,00 0,00 3.285,74 444,78 62,30 0,00 507,08 2.778,66 799,00 757,65 30/06/2016
529 459200 CLEIA ZILLE PEREIRA ANALISTA DO MP ATIVO BELO HORIZONTE - COMARCA; ASSESS TECNICO-JUR JUNTO AS PROC. DE JUST 7.806,95 780,70 0,00 4.293,83 0,00 0,00 12.881,48 1.154,54 1.232,47 0,00 2.387,01 10.494,47 1.431,00 1.908,20 30/06/2016
530 481800 CLEIDE CARDOSO DA SILVA ANALISTA DO MP ATIVO MANHUAÇU - COMARCA; MANHUACU-PJ-04PJ 7.806,95 780,70 0,00 4.293,83 2.862,55 0,00 15.744,03 1.154,54 1.915,39 0,00 3.069,93 12.674,10 1.536,33 2.035,41 30/06/2016
531 347600 CLEIDIMAR DE OLIVEIRA SILVA OFICIAL DO MP ATIVO PATOS DE MINAS - COMARCA; COORD REG BACIAS PARACATU,URUCUIA E ABAETE 6.334,59 1.266,92 0,00 3.800,76 0,00 0,00 11.402,27 1.028,97 782,56 0,00 1.811,53 9.590,74 799,00 1.752,80 30/06/2016
532 396500 CLEIDISON BATISTA DE ANDRADE OFICIAL DO MP ATIVO RESPLENDOR - COMARCA; RESPLENDOR-PJ-UNPJ 5.226,73 522,67 0,00 2.874,70 0,00 0,00 8.624,10 769,23 387,22 0,00 1.156,45 7.467,65 2.063,83 1.243,45 30/06/2016
533 535100 CLEISON ALVES DA SILVA ANALISTA DO MP ATIVO BOA ESPERANÇA - COMARCA; BOA ESPERANCA-PJ-01PJ 6.334,59 380,08 0,00 3.357,34 0,00 0,00 10.072,01 899,26 669,78 0,00 1.569,04 8.502,97 1.456,25 1.460,65 30/06/2016
534 298100 CLEONICE AUGUSTA BARROS DE OLIVEIRA ANALISTA DO MP ATIVO JUIZ DE FORA - COMARCA; JUIZ DE FORA-PJ-08PJ 12.225,81 2.445,16 0,00 7.335,49 0,00 0,00 22.006,46 1.985,91 2.721,36 0,00 4.707,27 17.299,19 799,00 3.383,00 30/06/2016
535 60200 CLERES DE ALMEIDA AGENTE DO MP ATIVO BELO HORIZONTE - COMARCA; EXTINTA - DIVISAO DE TRANSPORTES 4.902,32 3.921,86 0,00 4.412,09 0,00 0,00 13.236,27 1.394,91 1.520,20 0,00 2.915,11 10.321,16 799,00 3.856,89 30/06/2016
536 114300 CLERES PEREIRA DA SILVA JUNIOR ASSESSOR ATIVO BELO HORIZONTE - COMARCA; GAECO - SECRETARIA 0,00 1.753,57 4.383,93 3.068,75 0,00 0,00 9.206,25 570,88 724,77 0,00 1.295,65 7.910,60 1.431,00 1.461,35 30/06/2016
537 264100 CLETO HENRIQUE ANDRADE SILVA ANALISTA DO MP ATIVO BELO HORIZONTE - COMARCA; DIRETORIA DE SISTEMAS DE INFORMACAO 12.623,91 2.524,78 0,00 7.574,35 0,00 0,00 22.723,04 2.050,61 2.681,87 0,00 4.732,48 17.990,56 799,00 3.493,15 30/06/2016
538 334400 CLEUBA DE OLIVEIRA BARCELOS GONCALVES OFICIAL DO MP ATIVO DIVINÓPOLIS - COMARCA; COORD REG SAUDE MACRORREGIAO SANITARIA OESTE 7.322,31 1.464,46 0,00 3.321,65 0,00 0,00 12.108,42 1.178,84 1.176,93 0,00 2.355,77 9.752,65 799,00 1.929,60 30/06/2016
539 347500 CLEUSA CORDEIRO DA MATA PIMENTA OFICIAL DO MP ATIVO CAMPO BELO - COMARCA; CAMPO BELO-PJ-02PJ 6.753,72 4.727,60 0,00 5.740,66 0,00 0,00 17.221,98 1.554,15 1.836,42 0,00 3.390,57 13.831,41 1.100,97 2.647,45 30/06/2016
540 510200 CLEZIO SALES SILVA OFICIAL DO MP ATIVO BRASÓPOLIS - COMARCA; BRASOPOLIS-PJ-UNPJ 4.111,87 246,71 0,00 1.821,23 0,00 0,00 6.179,81 583,09 236,68 0,00 819,77 5.360,04 1.431,00 942,65 30/06/2016
541 323000 CLOTILDE DE PADUA VIEIRA OFICIAL DO MP ATIVO BELO HORIZONTE - COMARCA; CGMP-DIVISAO DE APOIO ADMINISTRATIVO 5.226,73 1.045,35 0,00 3.136,04 0,00 0,00 9.408,12 839,13 665,73 0,00 1.504,86 7.903,26 799,00 1.356,50 30/06/2016
542 285200 CLOVIS ANDRE LUDTKE OFICIAL DO MP ATIVO BELO HORIZONTE - COMARCA; DIVISAO DE MANUTENCAO PREDIAL 8.061,11 1.612,22 0,00 4.836,67 0,00 0,00 14.510,00 1.489,98 1.932,16 0,00 3.422,14 11.087,86 799,00 3.872,18 30/06/2016
543 381100 CONCEICAO APARECIDA TEIXEIRA ARANTES ANALISTA DO MP ATIVO BELO HORIZONTE - COMARCA; BH-23PJ INFRACIONAL-ASS JURIDICA 10.087,71 1.008,77 0,00 5.548,24 0,00 0,00 16.644,72 1.560,54 1.965,65 0,00 3.526,19 13.118,53 1.431,00 3.090,58 30/06/2016
544 249900 CONSTANTINO CEZAR GOMES MOTA OFICIAL DO MP ATIVO MONTES CLAROS - COMARCA; COORD REG BACIA RIOS VERDE GRANDE E PARDO 6.753,72 1.350,74 0,00 4.052,23 0,00 0,00 12.156,69 1.216,99 1.408,94 0,00 2.625,93 9.530,76 799,00 2.959,26 30/06/2016
545 481000 CRISHMA ANALIA LOMBELLO ANALISTA DO MP ATIVO JUIZ DE FORA - COMARCA; JUIZ DE FORA-PJ-13PJ 7.806,95 780,70 0,00 4.293,83 0,00 0,00 12.881,48 1.154,54 1.180,33 0,00 2.334,87 10.546,61 799,00 1.908,20 30/06/2016
546 187500 CRISLEY PATRICK TOSTES OFICIAL DO MP ATIVO JUIZ DE FORA - COMARCA; JUIZ DE FORA-PJ-21PJ 11.105,40 3.331,62 0,00 7.218,51 0,00 0,00 21.655,53 2.056,72 2.886,90 0,00 4.943,62 16.711,91 1.237,29 4.260,35 30/06/2016
547 523900 CRISTHYANE BAZOLI COSTA GUEDES OFICIAL DO MP ATIVO BELO HORIZONTE - COMARCA; EXTINTA-04ª PJ JUÍZO REG PÚBLICOS-SECRETARIA 4.453,07 267,18 0,00 2.360,13 0,00 0,00 7.080,38 823,30 741,66 0,00 1.564,96 5.515,42 805,18 2.884,91 30/06/2016
548 187000 CRISTIAN DAYVSON EVANGELISTA OFICIAL DO MP ATIVO JUIZ DE FORA - COMARCA; JUIZ DE FORA-PJ-09PJ 10.416,20 3.124,86 0,00 4.829,43 0,00 0,00 18.370,49 1.811,67 2.392,68 0,00 4.204,35 14.166,14 799,00 2.928,60 30/06/2016
549 319800 CRISTIANA GONCALVES DOS SANTOS GUSMAO OFICIAL DO MP ATIVO SETE LAGOAS - COMARCA; SETE LAGOAS-PJ-10PJ 6.753,72 1.350,74 0,00 4.052,23 0,00 0,00 12.156,69 1.097,04 1.114,21 0,00 2.211,25 9.945,44 1.098,01 1.868,75 30/06/2016
550 520600 CRISTIANA JANAINA BARBOZA JUVENCIO DOS SANTOS ANALISTA DO MP ATIVO BELO HORIZONTE - COMARCA; EXTINTA - JUIZO DE FAMILIA-02 PJ-02 VARA 7.560,72 453,64 0,00 4.007,18 0,00 0,00 12.021,54 1.075,18 1.092,15 0,00 2.167,33 9.854,21 799,00 1.760,00 30/06/2016
551 195600 CRISTIANA SOARES HALABI OFICIAL DO MP ATIVO UBERABA - COMARCA; UBERABA-PJ-11PJ 10.416,20 3.124,86 0,00 6.770,53 0,00 0,00 20.311,59 1.801,52 2.444,81 0,00 4.246,33 16.065,26 1.354,07 2.836,30 30/06/2016
552 218900 CRISTIANE ALVES BELLES OFICIAL DO MP ATIVO JUIZ DE FORA - COMARCA; JUIZ DE FORA-PJ-10PJ 5.226,73 1.568,02 0,00 3.397,38 0,00 0,00 10.192,13 922,66 689,38 0,00 1.612,04 8.580,09 1.747,00 1.592,91 30/06/2016
553 263600 CRISTIANE CARVALHO COUTINHO OFICIAL DO MP ATIVO BELO HORIZONTE - COMARCA; BH-23PJ INFRACIONAL-SEC EXP 8.061,11 1.612,22 0,00 4.836,67 0,00 0,00 14.510,00 1.489,98 1.880,02 0,00 3.370,00 11.140,00 990,99 3.872,18 30/06/2016
554 541000 CRISTIANE COELHO ALVES OFICIAL DO MP ATIVO ITABIRA - COMARCA; ITABIRA-PJ-03PJ 3.735,01 224,10 0,00 0,00 1.319,70 0,00 5.278,81 530,25 410,96 0,00 941,21 4.337,60 799,00 918,67 30/06/2016
555 441700 CRISTIANE CORRADO DE ANDRADE ANALISTA DO MP ATIVO BELO HORIZONTE - COMARCA; DIRETORIA DE SISTEMAS DE INFORMACAO 9.163,30 916,33 0,00 5.039,82 0,00 0,00 15.119,45 1.364,41 1.597,63 0,00 2.962,04 12.157,41 799,00 2.324,25 30/06/2016
556 375100 CRISTIANE DAS DORES ERCIO DE LIMA OFICIAL DO MP ATIVO GOVERNADOR VALADARES - COMARCA; COOR REG INCLUSAO MOBILIZ VALE DO RIO DOCE 6.134,81 613,48 0,00 3.374,15 0,00 0,00 10.122,44 945,61 886,46 0,00 1.832,07 8.290,37 863,06 1.848,03 30/06/2016
557 631600 CRISTIANE DE FREITAS NEVES OFICIAL DO MP ATIVO IPATINGA - COMARCA; IPATINGA-PJ-SECRETARIA 3.285,74 0,00 0,00 0,00 0,00 0,00 3.285,74 444,78 83,85 0,00 528,63 2.757,11 799,00 757,65 30/06/2016
558 178800 CRISTIANE DE LIMA HOSKEN OFICIAL DO MP ATIVO BELO HORIZONTE - COMARCA; BH-14PJ DEFESA CONSUMIDOR-GAB 113PJ 10.755,28 3.226,58 0,00 6.990,93 0,00 0,00 20.972,79 1.909,07 2.396,29 0,00 4.305,36 16.667,43 799,00 3.373,28 30/06/2016
559 494000 CRISTIANE DE MELO MARQUEZ OLIVEIRA ANALISTA DO MP ATIVO UBERLÂNDIA - COMARCA; UBERLANDIA-PJ-06PJ 7.560,72 453,64 0,00 4.007,18 0,00 0,00 12.021,54 1.088,22 1.092,15 0,00 2.180,37 9.841,17 1.431,00 1.878,56 30/06/2016
560 266100 CRISTIANE DE OLIVEIRA CASTRO OFICIAL DO MP ATIVO BELO HORIZONTE - COMARCA; BH-14PJ DEFESA CONSUMIDOR-SECRETARIA 8.874,34 3.895,86 0,00 6.385,10 0,00 0,00 19.155,30 2.680,77 4.292,07 0,00 6.972,84 12.182,46 1.694,27 14.835,77 30/06/2016
561 329500 CRISTIANE DOS REIS SILVA OFICIAL DO MP ATIVO ARAXÁ - COMARCA; ARAXA-PJ-04PJ 6.753,72 1.350,74 0,00 4.052,23 0,00 0,00 12.156,69 1.078,19 1.009,93 0,00 2.088,12 10.068,57 1.549,75 1.697,50 30/06/2016
562 301600 CRISTIANE GODINHO PIRES ANALISTA DO MP ATIVO BETIM - COMARCA; BETIM-PJ-07PJ 11.840,34 2.368,07 0,00 7.104,21 0,00 0,00 21.312,62 1.923,33 2.608,15 0,00 4.531,48 16.781,14 1.226,74 3.276,30 30/06/2016
563 406100 CRISTIANE GONCALVES CHAVES ANALISTA DO MP ATIVO BELO HORIZONTE - COMARCA; BH-09PJ AUDITORIA MILITAR-SECRETARIA 9.461,59 1.892,32 0,00 5.676,96 0,00 0,00 17.030,87 1.536,93 1.909,51 0,00 3.446,44 13.584,43 799,00 2.618,10 30/06/2016
564 487600 CRISTIANE LOPES DE OLIVEIRA OFICIAL DO MP ATIVO CARMO DA MATA - COMARCA; CARMO DA MATA-PJ-SECRETARIA 4.453,07 445,31 0,00 0,00 0,00 0,00 4.898,38 682,06 337,78 0,00 1.019,84 3.878,54 799,00 1.376,89 30/06/2016
565 502500 CRISTIANE MACIEL DE OLIVEIRA GOMES ANALISTA DO MP ATIVO JUIZ DE FORA - COMARCA; JUIZ DE FORA-PJ-05PJ 7.560,72 453,64 0,00 0,00 0,00 0,00 8.014,36 1.075,18 1.092,15 0,00 2.167,33 5.847,03 799,00 1.760,00 30/06/2016
566 285500 CRISTIANE MAGALHAES LOURENCO ANALISTA DO MP ATIVO BELO HORIZONTE - COMARCA; CENTRAL DE APOIO TECNICO-SETOR CONTABIL 12.225,81 2.445,16 0,00 7.335,49 0,00 0,00 22.006,46 1.962,81 2.617,08 0,00 4.579,89 17.426,57 799,00 3.173,00 30/06/2016
567 536500 CRISTIANE MICHELE DE SOUZA ANALISTA DO MP ATIVO BARÃO DE COCAIS - COMARCA; BARAO DE COCAIS-PJ-UNPJ 6.334,59 380,08 0,00 3.357,34 0,00 0,00 10.072,01 899,26 669,78 0,00 1.569,04 8.502,97 967,53 1.558,03 30/06/2016
568 346600 CRISTIANE NOGUEIRA ANDRADE ANALISTA DO MP ATIVO BELO HORIZONTE - COMARCA; CENTRAL DE APOIO TECNICO-SETOR CONTABIL 11.105,40 2.221,08 0,00 6.663,24 4.442,16 0,00 24.431,88 1.870,15 3.819,55 0,00 5.689,70 18.742,18 1.021,98 3.852,43 30/06/2016
569 234000 CRISTIANE OLIVEIRA TOSTES OFICIAL DO MP ATIVO JUIZ DE FORA - COMARCA; JUIZ DE FORA-PJ-08PJ 9.461,59 1.892,32 0,00 5.676,96 0,00 0,00 17.030,87 1.536,93 1.909,51 0,00 3.446,44 13.584,43 799,00 2.618,10 30/06/2016
570 445800 CRISTIANE ORZIL COSTA OFICIAL DO MP ATIVO SANTA LUZIA - COMARCA; SANTA LUZIA-PJ-05PJ 4.598,03 459,80 0,00 0,00 0,00 0,00 5.057,83 678,66 376,70 0,00 1.055,36 4.002,47 799,00 1.186,13 30/06/2016
571 616100 CRISTIANE PAES RODRIGUES MARCICANO ANALISTA DO MP ATIVO CATAGUASES - COMARCA; CATAGUASES-PJ-05PJ 5.061,97 0,00 0,00 2.530,99 0,00 0,00 7.592,96 690,25 377,53 0,00 1.067,78 6.525,18 1.431,00 1.288,78 30/06/2016
572 612300 CRISTIANE RIBEIRO DOS REIS ARCANJO ASSESSOR/OFICIAL ATIVO BELO HORIZONTE - COMARCA; EXTINTA - DIRETORIA SERVIÇOS GERAIS E TRANS 0,00 0,00 6.973,61 3.486,81 0,00 0,00 10.460,42 532,79 875,78 0,00 1.408,57 9.051,85 799,00 861,25 30/06/2016
573 215000 CRISTIANE RODRIGUES DE CARVALHO ASSESSOR ATIVO BELO HORIZONTE - COMARCA; BH-14PJ DEFESA CONSUMIDOR-GAB 005PJ 0,00 1.315,18 4.383,93 2.849,56 0,00 0,00 8.548,67 570,88 760,63 0,00 1.331,51 7.217,16 799,00 1.356,95 30/06/2016
574 257700 CRISTIANE RODRIGUES PAES NUNES ANALISTA DO MP ATIVO BELO HORIZONTE - COMARCA; BH-22PJ PES COM DEF E IDOSOS-ORIENTACAO PSIC 13.228,78 2.645,76 0,00 7.937,27 0,00 0,00 23.811,81 2.397,64 3.552,90 0,00 5.950,54 17.861,27 835,89 5.922,13 30/06/2016
575 510800 CRISTIANE SANTOS FERNANDES ORNELES ANALISTA DO MP ATIVO BELO HORIZONTE - COMARCA; COORD ESTADUAL DAS PJS DE HAB. E URBANISMO 7.560,72 453,64 0,00 0,00 0,00 0,00 8.014,36 1.075,18 1.040,02 0,00 2.115,20 5.899,16 799,00 1.760,00 30/06/2016
576 535700 CRISTIANE SANTOS MIRANDA OFICIAL DO MP ATIVO BETIM - COMARCA; BETIM-PJ-02PJ 4.111,87 246,71 0,00 2.179,29 0,00 0,00 6.537,87 583,74 198,63 0,00 782,37 5.755,50 799,00 948,15 30/06/2016
577 536200 CRISTIANO DE OLIVEIRA ANALISTA DO MP ATIVO CONCEIÇÃO DO MATO DENTRO - COMARCA; CONCEICAO DO MATO DENTRO-PJ-UNPJ 6.973,61 418,42 0,00 3.696,02 0,00 0,00 11.088,05 973,77 939,84 0,00 1.913,61 9.174,44 799,00 1.460,65 30/06/2016
578 477400 CRISTIANO SOARES ELEUTERIO ANALISTA DO MP ATIVO BELO HORIZONTE - COMARCA; BH-17PJ PATRIMONIO PUBLICO 7.806,95 780,70 0,00 4.293,83 0,00 0,00 12.881,48 1.154,54 1.232,47 0,00 2.387,01 10.494,47 4.921,07 2.413,27 30/06/2016
579 449400 CRISTIANO TEIXEIRA RODRIGUES LANA ANALISTA DO MP ATIVO BELO HORIZONTE - COMARCA; ASSESS TECNICO-JUR JUNTO AS PROC. DE JUST 8.594,48 859,45 0,00 4.726,97 0,00 0,00 14.180,90 1.264,83 1.444,49 0,00 2.709,32 11.471,58 981,65 2.044,70 30/06/2016
580 239400 CRISTINA DE FATIMA CRUZ E SILVA OFICIAL DO MP ATIVO MONTE SANTO DE MINAS - COMARCA; MONTE SANTO DE MINAS-PJ-SECRETARIA 8.874,34 1.774,87 0,00 5.324,61 0,00 0,00 15.973,82 2.275,55 3.259,58 0,00 5.535,13 10.438,69 1.189,35 11.374,62 30/06/2016
581 544000 CRISTINA DE OLIVEIRA TERRA ANALISTA DO MP ATIVO MATOZINHOS - COMARCA; MATOZINHOS-PJ-02PJ 6.334,59 380,08 0,00 3.357,34 0,00 0,00 10.072,01 899,26 774,06 0,00 1.673,32 8.398,69 799,00 1.553,02 30/06/2016
582 356800 CRISTINA DE PINHO BARROSO OFICIAL DO MP ATIVO SABINÓPOLIS - COMARCA; SABINOPOLIS-PJ-UNPJ 5.226,73 1.045,35 0,00 3.136,04 2.090,69 0,00 11.498,81 854,23 1.136,40 0,00 1.990,63 9.508,18 799,00 1.592,91 30/06/2016
583 348201 CRISTINA MARIA DA SILVA ANALISTA DO MP ATIVO PATOS DE MINAS - COMARCA; PATOS DE MINAS-PJ-02PJ 8.323,51 832,35 0,00 4.577,93 0,00 0,00 13.733,79 1.224,94 1.371,54 0,00 2.596,48 11.137,31 799,00 2.112,21 30/06/2016
584 434900 CRISTINA MELO DE MADUREIRA ANALISTA DO MP ATIVO BELO HORIZONTE - COMARCA; CAO-CRIMINAL-SECRETARIA 9.163,30 916,33 0,00 5.039,82 0,00 0,00 15.119,45 1.364,41 1.597,63 0,00 2.962,04 12.157,41 1.017,74 2.479,20 30/06/2016
585 307700 CRISTINA TEIXEIRA MARQUES OFICIAL DO MP ATIVO BELO HORIZONTE - COMARCA; CENTRAL DE APOIO TECNICO-SETOR CONTABIL 6.540,78 1.308,16 0,00 3.924,47 0,00 0,00 11.773,41 1.120,56 1.172,78 0,00 2.293,34 9.480,07 799,00 2.337,90 30/06/2016
586 265300 CRISTOVAO SANCHES DE MEDEIROS ANALISTA DO MP ATIVO BELO HORIZONTE - COMARCA; DIRETORIA DE CONTABILIDADE 12.225,81 2.445,16 0,00 7.335,49 0,00 0,00 22.006,46 2.260,81 3.379,49 0,00 5.640,30 16.366,16 799,00 6.093,54 30/06/2016
587 349800 CROZEIR LUIZ DA SILVA OFICIAL DO MP ATIVO UNAÍ - COMARCA; UNAI-PJ-SECRETARIA 6.334,59 633,46 0,00 3.484,03 0,00 0,00 10.452,08 943,19 783,93 0,00 1.727,12 8.724,96 799,00 1.606,70 30/06/2016
588 490500 CYNTHIA CRISTINA DE SOUZA OLIVEIRA VALENTE ANALISTA DO MP ATIVO BELO HORIZONTE - COMARCA; BH-09PJ AUDITORIA MILITAR 7.560,72 453,64 0,00 0,00 0,00 0,00 8.014,36 1.088,22 1.092,15 0,00 2.180,37 5.833,99 799,00 1.878,56 30/06/2016
589 389800 CYNTHIA GARIGLIO DOS SANTOS OFICIAL DO MP ATIVO PERDIZES - COMARCA; PERDIZES-PJ-SECRETARIA 5.226,73 522,67 0,00 2.874,70 0,00 0,00 8.624,10 769,23 387,22 0,00 1.156,45 7.467,65 2.063,00 1.243,45 30/06/2016
590 335101 CYNTHIA GONTIJO D ASSUNCAO ANALISTA DO MP ATIVO BELO HORIZONTE - COMARCA; PROC. JUSTICA DIR. DIFUSOS E COLETIVOS-SEC 7.806,95 780,70 0,00 4.293,83 0,00 0,00 12.881,48 1.154,54 1.232,47 0,00 2.387,01 10.494,47 1.431,00 2.028,21 30/06/2016
591 154000 CYNTHIA LOPES DOS SANTOS LAGES ASSESSOR ATIVO BELO HORIZONTE - COMARCA; PROCURADOR-GERAL DE JUSTICA- GABINETE 0,00 5.733,49 11.466,98 8.600,24 0,00 0,00 25.800,71 2.342,60 3.340,46 0,00 5.683,06 20.117,65 1.175,23 4.095,40 30/06/2016
592 269700 CYNTIA ROCHA CAVALCANTI OFICIAL DO MP ATIVO UBERLÂNDIA - COMARCA; UBERLANDIA-PJ-06PJ 8.874,34 1.774,87 0,00 5.324,61 0,00 0,00 15.973,82 2.536,18 3.735,42 0,00 6.271,60 9.702,22 800,31 14.115,11 30/06/2016
593 278000 DAIRTON LOPES MARTINS FILHO COORDENADOR/ANALISTA ATIVO BELO HORIZONTE - COMARCA; DIRETORIA DE SISTEMAS DE INFORMACAO 0,00 2.293,40 11.466,98 6.880,19 0,00 0,00 20.640,57 1.404,57 2.602,77 0,00 4.007,34 16.633,23 807,75 3.366,86 30/06/2016
594 392700 DALIANA CHAVES SILVA OFICIAL DO MP ATIVO ITAÚNA - COMARCA; ITAUNA-PJ-SECRETARIA 5.754,07 575,41 0,00 3.164,74 0,00 0,00 9.494,22 856,79 679,78 0,00 1.536,57 7.957,65 799,00 1.459,50 30/06/2016
595 558101 DALLEY TASSIA SILVA ANALISTA DO MP ATIVO MORADA NOVA DE MINAS - COMARCA; MORADA NOVA DE MINAS-PJ-UNPJ 6.134,81 0,00 0,00 0,00 0,00 0,00 6.134,81 820,78 527,86 0,00 1.348,64 4.786,17 1.431,00 1.415,25 30/06/2016
596 476700 DALTON DAUD ANALISTA DO MP ATIVO ARAGUARI - COMARCA; ARAGUARI-PJ-05PJ 7.806,95 780,70 0,00 4.293,83 0,00 0,00 12.881,48 1.154,54 1.128,19 0,00 2.282,73 10.598,75 799,00 1.908,20 30/06/2016
597 548700 DALVA DE SOUZA ROCHA ALMEIDA OFICIAL DO MP ATIVO CORONEL FABRICIANO - COMARCA; CORONEL FABRICIANO-PJ-02PJ 4.111,87 246,71 0,00 1.854,47 0,00 0,00 6.213,05 615,89 206,89 0,00 822,78 5.390,27 799,00 1.240,42 30/06/2016
598 426900 DANIEL ALVES DA SILVA OFICIAL DO MP ATIVO BELO HORIZONTE - COMARCA; EXTINTA - PROTOCOLO DA PGJ 4.747,79 474,78 0,00 2.161,86 0,00 0,00 7.384,43 706,93 324,37 0,00 1.031,30 6.353,13 816,41 1.204,25 30/06/2016
599 122000 DANIEL ANTONIO VIEIRA OFICIAL DO MP ATIVO ENTRE-RIOS DE MINAS - COMARCA; ENTRE RIOS DE MINAS-PJ-SECRETARIA 8.594,48 6.016,14 0,00 0,00 4.870,21 0,00 19.480,83 1.989,82 3.785,21 0,00 5.775,03 13.705,80 799,00 3.710,67 30/06/2016
600 272401 DANIEL AUGUSTO DOS REIS ANALISTA DO MP ATIVO BELO HORIZONTE - COMARCA; BH-22PJ PES COM DEF E IDOSOS-ASS JURIDICA 9.461,59 946,16 0,00 0,00 0,00 0,00 10.407,75 1.408,85 1.677,94 0,00 3.086,79 7.320,96 799,00 2.399,95 30/06/2016
601 536301 DANIEL BATISTA MARIANO ANALISTA DO MP ATIVO BETIM - COMARCA; BETIM-PJ-06PJ 5.572,67 0,00 0,00 2.786,34 0,00 0,00 8.359,01 754,34 494,55 0,00 1.248,89 7.110,12 799,00 1.285,00 30/06/2016
602 411000 DANIEL FERREIRA DA SILVA ANALISTA DO MP ATIVO GOVERNADOR VALADARES - COMARCA; GOVERNADOR VALADARES-PJ-15PJ 9.163,30 1.832,66 0,00 5.497,98 0,00 0,00 16.493,94 1.566,50 1.887,36 0,00 3.453,86 13.040,08 1.638,91 3.433,12 30/06/2016
603 309000 DANIEL GOMES DOS SANTOS ANALISTA DO MP ATIVO POÇOS DE CALDAS - COMARCA; POCOS DE CALDAS-PJ-03PJ 10.416,20 2.083,24 0,00 6.249,72 0,00 0,00 18.749,16 1.691,99 2.189,88 0,00 3.881,87 14.867,29 1.568,53 2.882,20 30/06/2016
604 554500 DANIEL GOMES PEREIRA OFICIAL DO MP ATIVO NANUQUE - COMARCA; NANUQUE-PJ-02PJ 3.982,20 238,93 0,00 2.110,57 0,00 0,00 6.331,70 585,35 257,00 0,00 842,35 5.489,35 1.037,93 1.175,52 30/06/2016
605 453000 DANIEL GONCALVES PEREIRA ANALISTA DO MP ATIVO UNAÍ - COMARCA; UNAI-PJ-04PJ 7.806,95 780,70 0,00 4.293,83 0,00 0,00 12.881,48 1.169,54 1.232,47 0,00 2.402,01 10.479,47 799,00 2.044,70 30/06/2016
606 495500 DANIEL GUIMARAES CABRAL OFICIAL DO MP ATIVO BELO HORIZONTE - COMARCA; BH-17PJ PATRIMONIO PUBLICO-SECRETARIA 4.111,87 246,71 0,00 2.179,29 0,00 0,00 6.537,87 591,47 236,68 0,00 828,15 5.709,72 799,00 1.018,73 30/06/2016
607 442900 DANIEL GUIMARAES GONCALVES ANALISTA DO MP ATIVO UBERLÂNDIA - COMARCA; UBERLANDIA-PJ-03PJ 9.163,30 916,33 0,00 5.039,82 0,00 0,00 15.119,45 1.440,49 1.753,22 0,00 3.193,71 11.925,74 799,00 3.015,89 30/06/2016
608 491200 DANIEL HENRIQUE SOUTO COSTA ANALISTA DO MP ATIVO CORAÇÃO DE JESUS - COMARCA; CORACAO DE JESUS-PJ-UNPJ 7.560,72 453,64 0,00 3.020,31 0,00 0,00 11.034,67 1.088,22 1.092,15 0,00 2.180,37 8.854,30 799,00 1.878,56 30/06/2016
609 464600 DANIEL PIACENTINI STIVANIN ANALISTA DO MP ATIVO ANDRADAS - COMARCA; ANDRADAS-PJ-02PJ 7.806,95 780,70 0,00 4.293,83 0,00 0,00 12.881,48 1.154,54 1.232,47 0,00 2.387,01 10.494,47 799,00 1.908,20 30/06/2016
610 417000 DANIEL QUEIROZ FERREIRA ANALISTA DO MP ATIVO SÃO SEBASTIÃO DO PARAÍSO - COMARCA; SAO SEBASTIAO DO PARAISO-PJ-05PJ 8.874,34 887,43 0,00 4.880,89 0,00 0,00 14.642,66 1.592,29 2.000,13 0,00 3.592,42 11.050,24 1.021,67 5.124,18 30/06/2016
611 396700 DANIEL SILVA CARNEVALLI DIRETOR/ANALISTA ATIVO BELO HORIZONTE - COMARCA; SUPERINTENDENCIA DE TECNOLOGIA DA INFORMACAO 0,00 1.486,30 14.863,02 8.174,66 0,00 0,00 24.523,98 1.408,85 3.311,87 0,00 4.720,72 19.803,26 1.134,69 3.892,70 30/06/2016
612 489300 DANIEL TABOZA ROCHA ANALISTA DO MP ATIVO IPATINGA - COMARCA; IPATINGA-PJ-08PJ 7.560,72 453,64 0,00 4.007,18 0,00 0,00 12.021,54 1.088,22 1.092,15 0,00 2.180,37 9.841,17 799,00 1.878,56 30/06/2016
613 414100 DANIEL TARDELI VALADAO ANALISTA DO MP ATIVO TRÊS CORACOES - COMARCA; TRES CORACOES-PJ-02PJ 9.163,30 916,33 0,00 5.039,82 0,00 0,00 15.119,45 1.435,96 1.753,22 0,00 3.189,18 11.930,27 1.883,66 2.979,52 30/06/2016
614 446601 DANIEL VIEIRA BUENO ANALISTA DO MP ATIVO SÃO DOMINGOS DO PRATA - COMARCA; SAO DOMINGOS DO PRATA-PJ-UNPJ 5.396,93 0,00 0,00 2.698,47 0,00 0,00 8.095,40 693,55 451,54 0,00 1.145,09 6.950,31 799,00 908,05 30/06/2016
615 253200 DANIELA BATISTA LIMA BARBOSA ASSESSOR ATIVO BELO HORIZONTE - COMARCA; CENTRAL DE APOIO TECN-SETOR DE MEIO AMBIENTE 0,00 876,79 4.383,93 2.630,36 0,00 0,00 7.891,08 570,88 640,07 0,00 1.210,95 6.680,13 799,00 1.252,55 30/06/2016
616 505800 DANIELA BORGES DE MATTOS RESENDE ANALISTA DO MP ATIVO JUIZ DE FORA - COMARCA; JUIZ DE FORA-PJ-20PJ 7.560,72 453,64 0,00 4.007,18 0,00 0,00 12.021,54 1.075,18 1.092,15 0,00 2.167,33 9.854,21 2.063,00 1.760,00 30/06/2016
617 478000 DANIELA CARVALHO SOARES ANALISTA DO MP ATIVO SÃO JOÃO DEL REI - COMARCA; SAO JOAO DEL REI-PJ-01PJ 7.806,95 780,70 0,00 3.205,27 0,00 0,00 11.792,92 1.154,54 1.232,47 0,00 2.387,01 9.405,91 799,00 1.908,20 30/06/2016
618 275900 DANIELA CHAGAS SODRE ANALISTA DO MP ATIVO BELO HORIZONTE - COMARCA; CENTRAL DE APOIO TECNICO-SETOR CONTABIL 12.225,81 2.445,16 0,00 7.335,49 0,00 0,00 22.006,46 1.962,81 2.669,22 0,00 4.632,03 17.374,43 1.623,40 3.173,00 30/06/2016
619 234301 DANIELA CRUZ SOARES ANALISTA DO MP ATIVO BELO HORIZONTE - COMARCA; LAB TECNOLOGIA CONTRA LAVAGEM DINHEIRO 12.623,91 2.524,78 0,00 7.574,35 0,00 0,00 22.723,04 2.050,61 2.838,28 0,00 4.888,89 17.834,15 848,66 3.493,15 30/06/2016
620 638000 DANIELA DE ALMEIDA BATISTA ANALISTA DO MP ATIVO ANDRELÂNDIA - COMARCA; ANDRELANDIA-PJ-UNPJ 5.572,67 0,00 0,00 2.786,34 0,00 0,00 8.359,01 793,26 580,57 0,00 1.373,83 6.985,18 1.431,00 1.638,81 30/06/2016
621 301000 DANIELA DE ALMEIDA E OLIVEIRA ANALISTA DO MP ATIVO BELO HORIZONTE - COMARCA; DIRETORIA DE SISTEMAS DE INFORMACAO 12.225,81 2.445,16 0,00 7.335,49 0,00 0,00 22.006,46 1.962,81 2.721,36 0,00 4.684,17 17.322,29 1.433,60 3.173,00 30/06/2016
622 296000 DANIELA DE AZEVEDO SILVA ANALISTA DO MP ATIVO ITAJUBA - COMARCA; ITAJUBA-PJ-03PJ 11.840,34 3.552,10 0,00 7.696,22 0,00 0,00 23.088,66 2.053,57 2.897,94 0,00 4.951,51 18.137,15 843,13 3.276,30 30/06/2016
623 453500 DANIELA DE CASTRO SOUSA BARBOSA ANALISTA DO MP ATIVO BELO HORIZONTE - COMARCA; BH-08PJ JUIZADO ESPECIAL-SECRETARIA 7.806,95 780,70 0,00 4.293,83 0,00 0,00 12.881,48 1.240,75 1.340,56 0,00 2.581,31 10.300,17 1.195,75 2.692,13 30/06/2016
624 506000 DANIELA DE OLIVEIRA CAVALIERI ANALISTA DO MP ATIVO BELO HORIZONTE - COMARCA; BH-14PJ DEFESA CONSUMIDOR-GAB 005PJ 6.334,59 380,08 0,00 3.357,34 0,00 0,00 10.072,01 898,36 774,06 0,00 1.672,42 8.399,59 799,00 1.452,20 30/06/2016
625 546200 DANIELA DE VILHENA LEMES GONCALVES OFICIAL DO MP ATIVO TRÊS CORACOES - COMARCA; TRES CORACOES-PJ-05PJ 3.735,01 224,10 0,00 1.703,38 0,00 0,00 5.662,49 530,25 116,86 0,00 647,11 5.015,38 799,00 915,71 30/06/2016
626 356400 DANIELA LEAL FERRAZ ANALISTA DO MP ATIVO MONTES CLAROS - COMARCA; COORD REG PJ DEF EDUC DIR CRIANCA ADOL NORTE 10.416,20 2.083,24 0,00 6.249,72 0,00 0,00 18.749,16 1.762,12 2.444,81 0,00 4.206,93 14.542,23 799,00 3.519,67 30/06/2016
627 501000 DANIELA LOURENCO SANTOS DA SILVA GUIMARAES ANALISTA DO MP ATIVO BELO HORIZONTE - COMARCA; BH-12PJ JUIZO CRIMINAL-GAB 086PJ 7.560,72 453,64 0,00 4.007,18 0,00 0,00 12.021,54 1.075,18 1.040,02 0,00 2.115,20 9.906,34 1.431,00 1.760,00 30/06/2016
628 195801 DANIELA MARIA DE OLIVEIRA QUEIROZ ANALISTA DO MP ATIVO ARAGUARI - COMARCA; ARAGUARI-PJ-06PJ 9.163,30 2.748,99 0,00 5.956,15 0,00 0,00 17.868,44 1.612,50 2.046,17 0,00 3.658,67 14.209,77 799,00 2.929,97 30/06/2016
629 511400 DANIELA MARIA LARA DE OLIVEIRA ANALISTA DO MP ATIVO BOA ESPERANÇA - COMARCA; BOA ESPERANCA-PJ-02PJ 6.973,61 418,42 0,00 0,00 0,00 0,00 7.392,03 988,97 887,70 0,00 1.876,67 5.515,36 897,51 1.598,75 30/06/2016
630 252101 DANIELA PAULA ALVES PENA ANALISTA DO MP ATIVO CONTAGEM - COMARCA; CONTAGEM-PJ-APO TECNICO 10.416,20 3.124,86 0,00 4.803,36 0,00 0,00 18.344,42 2.086,72 3.052,28 0,00 5.139,00 13.205,42 928,03 5.429,07 30/06/2016
631 604700 DANIELA PEIXOTO NOGUEIRA OFICIAL DO MP ATIVO BELO HORIZONTE - COMARCA; DIRET DE FORMACAO, APERFEIC. E POS-GRADUACAO 3.982,20 0,00 0,00 1.991,10 1.327,40 0,00 7.300,70 532,79 470,32 0,00 1.003,11 6.297,59 799,00 1.030,81 30/06/2016
632 429600 DANIELA PIMENTA NUNES MACHADO ANALISTA DO MP ATIVO BELO HORIZONTE - COMARCA; BH-05PJ JUÍZO DE SUCESSÕES 9.163,30 916,33 0,00 0,00 0,00 0,00 10.079,63 1.364,41 1.597,63 0,00 2.962,04 7.117,59 831,26 2.324,25 30/06/2016
633 424300 DANIELA PORTO PINTO OFICIAL DO MP ATIVO BELO HORIZONTE - COMARCA; EXTINTA-DEFESA DA SAUDE-19 PJ-GABINETE 4.902,32 490,23 0,00 0,00 0,00 0,00 5.392,55 719,48 450,47 0,00 1.169,95 4.222,60 799,00 1.148,20 30/06/2016
634 462000 DANIELA SOUSA GOMES DO AMARAL ANALISTA DO MP ATIVO BETIM - COMARCA; BETIM-PJ-04PJ 7.806,95 780,70 0,00 0,00 0,00 0,00 8.587,65 1.154,54 1.232,47 0,00 2.387,01 6.200,64 799,00 1.908,20 30/06/2016
635 427000 DANIELA TEIXEIRA DINIZ ANDRADE ANALISTA DO MP ATIVO BELO HORIZONTE - COMARCA; DIRETORIA DE PROJETOS DE EDIFICACOES 8.061,11 806,11 0,00 0,00 2.955,74 0,00 11.822,96 1.200,29 2.061,58 0,00 3.261,87 8.561,09 827,34 2.044,70 30/06/2016
636 337200 DANIELA TOLEDO SENIUK ANALISTA DO MP ATIVO BELO HORIZONTE - COMARCA; GABINETE DE PROCURADOR DE JUSTIÇA - SALA 412 9.769,61 1.953,92 0,00 4.243,05 0,00 0,00 15.966,58 1.673,26 2.128,77 0,00 3.802,03 12.164,55 3.217,63 3.709,71 30/06/2016
637 605600 DANIELE ALZIRA SILVA CABRAL MOREIRA OFICIAL DO MP ATIVO BELO HORIZONTE - COMARCA; BH-10PJ EXECUÇÃO PENAL 3.982,20 0,00 0,00 1.991,10 0,00 0,00 5.973,30 532,79 176,82 0,00 709,61 5.263,69 1.431,00 861,25 30/06/2016
638 195500 DANIELE CHAVES FONSECA OFICIAL DO MP ATIVO BELO HORIZONTE - COMARCA; ASSESSORIA ESPECIAL DO PGJ 11.466,98 3.440,09 0,00 7.453,54 0,00 0,00 22.360,61 2.304,91 3.465,00 0,00 5.769,91 16.590,70 805,31 6.046,67 30/06/2016
639 323400 DANIELE MEGALE SANTINI OFICIAL DO MP ATIVO BELO HORIZONTE - COMARCA; ASSESS TECNICO-JUR JUNTO AS PROC. DE JUST 7.200,69 1.440,14 0,00 4.320,42 0,00 0,00 12.961,25 1.169,69 1.193,35 0,00 2.363,04 10.598,21 973,68 1.992,50 30/06/2016
640 357900 DANIELE REJANE PINTO VERSIEUX OFICIAL DO MP ATIVO PEDRO LEOPOLDO - COMARCA; PEDRO LEOPOLDO-PJ-03PJ 6.540,78 654,08 0,00 3.597,43 0,00 0,00 10.792,29 973,93 891,58 0,00 1.865,51 8.926,78 871,33 1.659,05 30/06/2016
641 389500 DANIELE VASCONCELOS AMORIM OFICIAL DO MP ATIVO SÃO SEBASTIÃO DO PARAÍSO - COMARCA; SAO SEBASTIAO DO PARAISO-PJ-04PJ 6.334,59 633,46 0,00 3.484,03 0,00 0,00 10.452,08 932,24 836,07 0,00 1.768,31 8.683,77 799,00 1.607,47 30/06/2016
642 629700 DANIELLA BASTOS MARTINS BICALHO OFICIAL DO MP ATIVO GOVERNADOR VALADARES - COMARCA; GOVERNADOR VALADARES-PJ-SECRETARIA 3.285,74 0,00 0,00 0,00 1.095,25 0,00 4.380,99 444,78 268,27 0,00 713,05 3.667,94 799,00 757,65 30/06/2016
643 265000 DANIELLE CASTANHEIRA SCALABRINI OFICIAL DO MP ATIVO BELO HORIZONTE - COMARCA; JUNTA RECURSAL DO PROCON ESTADUAL 7.322,31 1.464,46 0,00 4.393,39 0,00 0,00 13.180,16 1.330,29 1.458,80 0,00 2.789,09 10.391,07 804,16 3.306,47 30/06/2016
644 490100 DANIELLE DE AVILA SILVA LOPES ANALISTA DO MP ATIVO BELO HORIZONTE - COMARCA; PROC. JUSTICA DIR. DIFUSOS E COLETIVOS-SEC 7.560,72 1.512,14 0,00 4.536,43 0,00 0,00 13.609,29 1.231,95 1.351,22 0,00 2.583,17 11.026,12 1.431,00 2.126,71 30/06/2016
645 549600 DANIELLE GOMES LOPES RODRIGUES OFICIAL DO MP ATIVO VESPASIANO - COMARCA; VESPASIANO-PJ-02PJ 4.111,87 246,71 0,00 0,00 1.452,86 0,00 5.811,44 615,89 664,22 0,00 1.280,11 4.531,33 1.431,00 1.303,63 30/06/2016
646 613000 DANIELLE SILVA OLIVEIRA FRANKLIN OFICIAL DO MP ATIVO BELO HORIZONTE - COMARCA; DIRETORIA DE ADMINISTRACAO FINANCEIRA 3.982,20 0,00 0,00 0,00 0,00 0,00 3.982,20 532,79 176,82 0,00 709,61 3.272,59 1.431,00 915,42 30/06/2016
647 380800 DANILLO RIBEIRO ANTUNES ANALISTA DO MP ATIVO MONTES CLAROS - COMARCA; MONTES CLAROS-PJ-SECRETARIA 9.461,59 946,16 0,00 5.203,88 0,00 0,00 15.611,63 1.408,85 1.573,66 0,00 2.982,51 12.629,12 1.144,59 2.399,95 30/06/2016
648 453700 DANILO BOTELHO DE CARVALHO COORDENADOR/ANALISTA ATIVO BELO HORIZONTE - COMARCA; DIRETORIA DE ADMINISTRACAO FINANCEIRA 0,00 1.008,77 10.087,71 5.548,24 0,00 0,00 16.644,72 1.298,97 2.150,34 0,00 3.449,31 13.195,41 1.483,43 3.430,91 30/06/2016
649 391200 DANILO D'AVILA MENDES ANALISTA DO MP ATIVO SÃO ROMÃO - COMARCA; SAO ROMAO-PJ-UNPJ 9.461,59 946,16 0,00 0,00 0,00 0,00 10.407,75 1.408,85 1.677,94 0,00 3.086,79 7.320,96 799,00 2.399,95 30/06/2016
650 494900 DANILO GAVIAO AVELINO DE MELLO ANALISTA DO MP ATIVO POUSO ALEGRE - COMARCA; POUSO ALEGRE-PJ-08PJ 7.560,72 453,64 0,00 3.020,31 0,00 0,00 11.034,67 1.088,22 1.092,15 0,00 2.180,37 8.854,30 1.431,00 1.878,56 30/06/2016
651 604300 DANILO NASCIMENTO SALGADO ANALISTA DO MP ATIVO JANAÚBA - COMARCA; JANAUBA-PJ-01PJ 6.134,81 0,00 0,00 3.067,41 0,00 0,00 9.202,22 820,78 632,13 0,00 1.452,91 7.749,31 799,00 1.415,25 30/06/2016
652 600700 DANILO OLIVEIRA CARILLI OFICIAL DO MP ATIVO ARAGUARI - COMARCA; ARAGUARI-PJ-07PJ 3.617,27 0,00 0,00 0,00 0,00 0,00 3.617,27 483,95 128,11 0,00 612,06 3.005,21 799,00 834,45 30/06/2016
653 550800 DANTE MENDES BIANCHETTI FILHO ANALISTA DO MP ATIVO BARBACENA - COMARCA; BARBACENA-PJ-SECRETARIA 6.334,59 380,08 0,00 0,00 0,00 0,00 6.714,67 933,83 897,13 0,00 1.830,96 4.883,71 799,00 1.929,17 30/06/2016
654 298300 DANUZA MONICA DE SOUZA DINIZ ANALISTA DO MP ATIVO DIVINÓPOLIS - COMARCA; DIVINOPOLIS-PJ-02PJ 10.087,71 2.017,54 0,00 6.052,63 0,00 0,00 18.157,88 1.865,43 2.584,27 0,00 4.449,70 13.708,18 1.095,10 4.853,22 30/06/2016
655 398700 DARCY LUIZ MILEO GREGATTI OFICIAL DO MP ATIVO LAMBARI - COMARCA; LAMBARI-PJ-SECRETARIA 6.134,81 613,48 0,00 2.611,85 0,00 0,00 9.360,14 913,46 782,28 0,00 1.695,74 7.664,40 799,00 1.659,79 30/06/2016
656 406200 DARIANA AUGUSTA DE TOLEDO PATROCINIO ASSESSOR/OFICIAL ATIVO BELO HORIZONTE - COMARCA; EXTINTA - DIRETORIA DE CONTRATOS E CONVÊNIOS 0,00 887,43 8.874,34 4.880,89 0,00 0,00 14.642,66 932,24 1.604,34 0,00 2.536,58 12.106,08 858,98 2.324,25 30/06/2016
657 305000 DARLI LEITE DE OLIVEIRA OFICIAL DO MP ATIVO ARAÇUAÍ - COMARCA; ARACUAI-PJ-01PJ 5.226,73 1.045,35 0,00 3.136,04 0,00 0,00 9.408,12 854,23 509,32 0,00 1.363,55 8.044,57 1.431,00 1.493,35 30/06/2016
658 122200 DAVID RIBEIRO DOS SANTOS ANALISTA DO MP ATIVO BORDA DA MATA - COMARCA; BORDA DA MATA-PJ-UNPJ 16.063,25 12.850,61 0,00 14.456,93 0,00 0,00 43.370,79 3.895,67 6.207,31 0,00 10.102,98 33.267,81 1.441,17 6.501,70 30/06/2016
659 389400 DAWSON CANEDO MARQUES OFICIAL DO MP ATIVO VARGINHA - COMARCA; VARGINHA-PJ-06PJ 6.540,78 654,08 0,00 3.597,43 0,00 0,00 10.792,29 1.027,17 518,60 0,00 1.545,77 9.246,52 1.542,61 2.143,06 30/06/2016
660 256100 DAYSE ROSALY PEREIRA BATISTA OFICIAL DO MP ATIVO BELO HORIZONTE - COMARCA; BH-08PJ JUIZADO ESPECIAL-SECRETARIA 7.560,72 1.512,14 0,00 4.536,43 0,00 0,00 13.609,29 1.197,11 1.351,22 0,00 2.548,33 11.060,96 800,64 1.923,46 30/06/2016
661 311901 DEBORA APARECIDA DA SILVA ASSESSOR ATIVO BELO HORIZONTE - COMARCA; BH-23PJ CIVEL-SETOR ATEND PUB 0,00 0,00 2.625,65 1.312,83 916,90 0,00 4.855,38 445,48 201,17 0,00 646,65 4.208,73 799,00 625,15 30/06/2016
662 194301 DEBORA APARECIDA DOS SANTOS ANALISTA DO MP ATIVO UBERLÂNDIA - COMARCA; UBERLANDIA-PJ-SEC FAMILIA 12.225,81 3.667,74 0,00 7.946,78 0,00 0,00 23.840,33 2.151,44 2.968,45 0,00 5.119,89 18.720,44 1.089,13 3.664,90 30/06/2016
663 518800 DEBORA CARVALHO FIORATTO OFICIAL DO MP ATIVO BELO HORIZONTE - COMARCA; EXTINTA - DIVISÃO DE APOIO À LICITAÇÃO 4.902,32 294,14 0,00 2.598,23 0,00 0,00 7.794,69 695,26 404,46 0,00 1.099,72 6.694,97 1.431,00 1.123,85 30/06/2016
664 444900 DEBORA CLAUDIA PEREIRA ALVES ANALISTA DO MP ATIVO BELO HORIZONTE - COMARCA; BH-08PJ JUIZADO ESPECIAL-SECRETARIA 8.594,48 859,45 0,00 4.726,97 0,00 0,00 14.180,90 1.264,83 1.444,49 0,00 2.709,32 11.471,58 1.613,65 2.044,70 30/06/2016
665 617700 DEBORA COMANDUCI SCHREIDER ANALISTA DO MP ATIVO BICAS - COMARCA; BICAS-PJ-UNPJ 5.061,97 0,00 0,00 0,00 0,00 0,00 5.061,97 688,57 334,87 0,00 1.023,44 4.038,53 1.431,00 1.277,96 30/06/2016
666 555700 DEBORA CRISTINA BUITRAGO PEREIRA ANALISTA DO MP ATIVO BELO HORIZONTE - COMARCA; EXTINTA - DIRETORIA DE CONTRATOS E CONVÊNIOS 6.134,81 368,09 0,00 3.251,45 0,00 0,00 9.754,35 916,47 846,06 0,00 1.762,53 7.991,82 799,00 1.951,44 30/06/2016
667 513100 DEBORA CRISTINA PEREIRA DE OLIVEIRA ANALISTA DO MP ATIVO BELO HORIZONTE - COMARCA; BH-23PJ CIVEL-SETOR JURIDICO 7.560,72 453,64 0,00 4.007,18 0,00 0,00 12.021,54 1.075,18 1.092,15 0,00 2.167,33 9.854,21 1.431,00 1.760,00 30/06/2016
668 612100 DEBORA DUARTE SILVA DE SOUZA OFICIAL DO MP ATIVO RIBEIRÃO DAS NEVES - COMARCA; RIBEIRAO DAS NEVES-PJ-06PJ 3.982,20 796,44 0,00 2.389,32 0,00 0,00 7.167,96 639,35 235,48 0,00 874,83 6.293,13 1.431,00 1.033,50 30/06/2016
669 539700 DEBORA SALES CARVALHO ANALISTA DO MP ATIVO PATOS DE MINAS - COMARCA; COORD REG PJ DEF EDU DIR CRI ADO AL PAR NOROE 6.334,59 380,08 0,00 0,00 0,00 0,00 6.714,67 899,26 774,06 0,00 1.673,32 5.041,35 799,00 1.460,65 30/06/2016
670 424100 DEBORA SANTOS E ALVES ANALISTA DO MP ATIVO JANUÁRIA - COMARCA; JANUARIA-PJ-01PJ 9.461,59 946,16 0,00 5.203,88 0,00 0,00 15.611,63 1.482,70 1.838,55 0,00 3.321,25 12.290,38 800,11 3.071,31 30/06/2016
671 426301 DEBORA SCUCATO MACHADO SOARES OFICIAL DO MP ATIVO NOVA LIMA - COMARCA; NOVA LIMA-PJ-01PJ 4.111,87 411,19 0,00 1.877,95 0,00 0,00 6.401,01 612,29 269,61 0,00 881,90 5.519,11 1.441,82 1.042,95 30/06/2016
672 550200 DEBORA TRINDADE LEITE ANALISTA DO MP ATIVO MANHUAÇU - COMARCA; MANHUACU-PJ-05PJ 6.334,59 380,08 0,00 3.357,34 0,00 0,00 10.072,01 948,80 773,44 0,00 1.722,24 8.349,77 799,00 1.910,96 30/06/2016
673 438000 DEBORAH COSTA LAGE ANALISTA DO MP ATIVO BELO HORIZONTE - COMARCA; ASSESS TECNICO-JUR JUNTO AS PROC. DE JUST 9.163,30 916,33 0,00 5.039,82 0,00 0,00 15.119,45 1.364,41 1.597,63 0,00 2.962,04 12.157,41 799,00 2.324,25 30/06/2016
674 475700 DEBORAH LOBAO LACERDA OFICIAL DO MP ATIVO BELO HORIZONTE - COMARCA; BH-17PJ PATRIMONIO PUBLICO-SECRETARIA 4.598,03 459,80 0,00 2.528,92 0,00 0,00 7.586,75 680,01 376,70 0,00 1.056,71 6.530,04 799,00 1.123,85 30/06/2016
675 613700 DEISER MARIA FERREIRA ROSCOE OFICIAL DO MP ATIVO BELO HORIZONTE - COMARCA; DIRETORIA DE PAGAMENTO DE PESSOAL-DPAG 3.982,20 0,00 0,00 1.991,10 0,00 0,00 5.973,30 532,79 176,82 0,00 709,61 5.263,69 799,00 915,52 30/06/2016
676 551900 DEISY ROCHA SILVA FREIRE ANALISTA DO MP ATIVO JOÃO PINHEIRO - COMARCA; JOAO PINHEIRO-PJ-01PJ 6.134,81 368,09 0,00 0,00 0,00 0,00 6.502,90 916,47 846,06 0,00 1.762,53 4.740,37 799,00 1.951,44 30/06/2016
677 501900 DELI RAQUEL RODRIGUES ANALISTA DO MP ATIVO ITUIUTABA - COMARCA; ITUIUTABA-PJ-04PJ 7.560,72 453,64 0,00 0,00 0,00 0,00 8.014,36 1.075,18 1.092,15 0,00 2.167,33 5.847,03 799,00 1.760,00 30/06/2016
678 378600 DELIANE LOPES VIEIRA BREIJAO NEVES ANALISTA DO MP ATIVO JUIZ DE FORA - COMARCA; JUIZ DE FORA-PJ-12PJ 9.461,59 946,16 0,00 5.203,88 0,00 0,00 15.611,63 1.408,85 1.625,80 0,00 3.034,65 12.576,98 1.431,00 2.399,95 30/06/2016
679 522500 DELMINDA MARIA LEAO E SILVA OFICIAL DO MP ATIVO ITAGUARA - COMARCA; ITAGUARA-PJ-UNPJ 4.111,87 2.878,31 0,00 3.495,09 2.330,06 0,00 12.815,33 946,62 1.482,25 0,00 2.428,87 10.386,46 799,00 1.716,32 30/06/2016
680 487700 DENIA FERREIRA MAIA SILVA OFICIAL DO MP ATIVO TRÊS CORACOES - COMARCA; TRES CORACOES-PJ-01PJ 4.453,07 445,31 0,00 2.050,05 0,00 0,00 6.948,43 682,06 295,12 0,00 977,18 5.971,25 1.431,00 1.301,97 30/06/2016
681 424800 DENIS APARECIDO CAMPOS DELFINO ANALISTA DO MP ATIVO LUZ - COMARCA; LUZ-PJ-UNPJ 8.874,34 887,43 0,00 4.880,89 0,00 0,00 14.642,66 1.592,29 1.791,58 0,00 3.383,87 11.258,79 1.431,00 5.124,18 30/06/2016
682 381400 DENISE ANGELICA MELLO DE PAULA OFICIAL DO MP ATIVO BELO HORIZONTE - COMARCA; BH-18PJ DIREITOS HUMANOS-SECRETARIA 6.540,78 654,08 0,00 3.597,43 0,00 0,00 10.792,29 1.027,17 1.002,60 0,00 2.029,77 8.762,52 799,00 2.153,20 30/06/2016
683 196300 DENISE DE ALMEIDA VILELA FURTADO OFICIAL DO MP ATIVO BELO HORIZONTE - COMARCA; CENTRAL DE APOIO TECNICO-SECRETARIA 8.594,48 2.578,34 0,00 5.586,41 0,00 0,00 16.759,23 1.494,81 1.813,05 0,00 3.307,86 13.451,37 1.054,77 2.416,45 30/06/2016
684 336900 DENISE DE SOUSA MORAES SILVA OFICIAL DO MP ATIVO MATEUS LEME - COMARCA; MATEUS LEME-PJ-02PJ 5.226,73 1.045,35 0,00 3.136,04 0,00 0,00 9.408,12 851,49 665,73 0,00 1.517,22 7.890,90 855,83 1.468,46 30/06/2016
685 271100 DENISE ELOY PEIXOTO OFICIAL DO MP ATIVO BELO HORIZONTE - COMARCA; DIRET DE DESENV DE RECURSOS HUMANOS-DDRH 8.874,34 1.774,87 0,00 5.324,61 0,00 0,00 15.973,82 2.536,18 3.735,42 0,00 6.271,60 9.702,22 2.928,84 14.310,35 30/06/2016
686 385400 DENISE FREITAS DE ASSIS OFICIAL DO MP ATIVO CARATINGA - COMARCA; CARATINGA-PJ-05PJ 5.754,07 1.808,97 0,00 3.781,52 0,00 0,00 11.344,56 856,79 966,87 0,00 1.823,66 9.520,90 1.009,38 1.863,46 30/06/2016
687 437100 DENISE NOGUEIRA MAGRI MENDES ANALISTA DO MP ATIVO BELO HORIZONTE - COMARCA; LAB TECNOLOGIA CONTRA LAVAGEM DINHEIRO 9.163,30 2.748,99 0,00 0,00 3.970,76 0,00 15.883,05 1.589,25 2.981,72 0,00 4.570,97 11.312,08 799,00 2.704,59 30/06/2016
688 524700 DENISE RAMOS GUIMARAES OFICIAL DO MP ATIVO BELO HORIZONTE - COMARCA; BH-07PJ 01 TRIBUNAL JURI-SECRETARIA 4.453,07 267,18 0,00 2.360,13 1.573,42 0,00 8.653,80 633,38 718,61 0,00 1.351,99 7.301,81 799,00 1.106,93 30/06/2016
689 239100 DENISE RIBEIRO DOS SANTOS CAETANO OFICIAL DO MP ATIVO ITANHANDU - COMARCA; ITANHANDU-PJ-SECRETARIA 8.874,34 1.774,87 0,00 5.324,61 0,00 0,00 15.973,82 2.275,55 3.207,44 0,00 5.482,99 10.490,83 813,58 11.338,83 30/06/2016
690 325500 DENISE ROSA TORRES ASSESSOR/OFICIAL ATIVO BELO HORIZONTE - COMARCA; DIRETORIA DE PESSOAL ADMINISTRATIVO - DPAD 0,00 1.953,92 9.769,61 5.861,77 0,00 0,00 17.585,30 1.178,84 2.088,81 0,00 3.267,65 14.317,65 807,88 2.903,22 30/06/2016
691 437200 DENISE VIVIANE DOS SANTOS ANALISTA DO MP ATIVO BELO HORIZONTE - COMARCA; ASSESS TECNICA DA CORREGEDORIA-GERAL DO MP 8.594,48 859,45 0,00 4.726,97 0,00 0,00 14.180,90 1.264,83 1.392,35 0,00 2.657,18 11.523,72 1.431,00 2.181,01 30/06/2016
692 267900 DENISIA DE ALMEIDA SALES OFICIAL DO MP ATIVO BELO HORIZONTE - COMARCA; CAO-CRIMINAL-SECRETARIA 6.134,81 1.226,96 0,00 3.680,89 2.453,92 0,00 13.496,58 979,39 1.555,13 0,00 2.534,52 10.962,06 799,00 1.542,00 30/06/2016
693 480300 DESIREE ARANTES FERREIRA GOUVEA OFICIAL DO MP ATIVO PRATÁPOLIS - COMARCA; PRATAPOLIS-PJ-UNPJ 4.245,74 424,57 0,00 1.928,74 0,00 0,00 6.599,05 627,88 299,10 0,00 926,98 5.672,07 799,00 1.037,75 30/06/2016
694 355300 DEYSE CRISTINA MORAIS OFICIAL DO MP ATIVO PASSOS - COMARCA; PASSOS-PJ-02PJ 6.973,61 1.394,72 0,00 4.184,17 0,00 0,00 12.552,50 1.335,51 1.693,54 0,00 3.029,05 9.523,45 799,00 3.772,70 30/06/2016
695 523700 DIANA CAMPOS RESENDE OFICIAL DO MP ATIVO SÃO JOÃO DEL REI - COMARCA; SAO JOAO DEL REI-PJ-04PJ 4.902,32 1.960,93 0,00 3.431,63 0,00 0,00 10.294,88 918,26 706,15 0,00 1.624,41 8.670,47 1.083,68 1.484,35 30/06/2016
696 241900 DIANA CARDOSO MARTINS OFICIAL DO MP ATIVO BELO HORIZONTE - COMARCA; CAO-DH APOIO COMUNITARIO-SEC ADM 6.753,72 2.026,12 0,00 4.389,92 0,00 0,00 13.169,76 1.233,53 1.440,38 0,00 2.673,91 10.495,85 799,00 2.530,38 30/06/2016
697 410100 DIANA GORDILHO SILVEIRA SENA ANALISTA DO MP ATIVO BELO HORIZONTE - COMARCA; ASSESS TECNICO-JUR JUNTO AS PROC. DE JUST 9.461,59 946,16 0,00 5.203,88 0,00 0,00 15.611,63 1.488,14 1.868,63 0,00 3.356,77 12.254,86 800,11 3.230,06 30/06/2016
698 553000 DIANA MARIA MARQUES ANALISTA DO MP ATIVO BETIM - COMARCA; BETIM-PJ-13PJ 5.754,07 345,24 0,00 2.428,54 0,00 0,00 8.527,85 861,86 683,06 0,00 1.544,92 6.982,93 799,00 1.883,72 30/06/2016
699 520000 DIARLE TOSTE DOS SANTOS ANALISTA DO MP ATIVO RIO POMBA - COMARCA; RIO POMBA-PJ-UNPJ 7.560,72 453,64 0,00 4.007,18 0,00 0,00 12.021,54 1.075,18 1.040,02 0,00 2.115,20 9.906,34 1.151,00 1.877,33 30/06/2016
700 539800 DIEGO CAMARGOS RODRIGUES OFICIAL DO MP ATIVO CONTAGEM - COMARCA; CONTAGEM-PJ-09PJ 3.735,01 224,10 0,00 1.979,56 0,00 0,00 5.938,67 530,25 173,74 0,00 703,99 5.234,68 799,00 918,67 30/06/2016
701 607300 DIEGO CERVEIRA DE SOUZA ANALISTA DO MP ATIVO PATOS DE MINAS - COMARCA; COORD REG BACIAS PARACATU,URUCUIA E ABAETE 6.134,81 0,00 0,00 3.067,41 0,00 0,00 9.202,22 820,78 632,13 0,00 1.452,91 7.749,31 847,58 1.334,91 30/06/2016
702 446900 DIEGO DE FREITAS OFICIAL DO MP ATIVO UBERABA - COMARCA; UBERABA-PJ-06PJ 5.061,97 506,20 0,00 2.784,09 0,00 0,00 8.352,26 744,95 493,45 0,00 1.238,40 7.113,86 810,07 1.204,25 30/06/2016
703 288800 DILENE NEPOMUCENO ALVES OFICIAL DO MP ATIVO BELO HORIZONTE - COMARCA; DIRETORIA DE PESSOAL ADMINISTRATIVO - DPAD 7.560,72 1.512,14 0,00 3.361,81 0,00 0,00 12.434,67 1.228,11 1.351,22 0,00 2.579,33 9.855,34 799,00 2.092,10 30/06/2016
704 270101 DILSON DO AMARAL ANALISTA DO MP ATIVO RIO CASCA - COMARCA; RIO CASCA-PJ-UNPJ 6.334,59 380,08 0,00 3.357,34 0,00 0,00 10.072,01 899,26 774,06 0,00 1.673,32 8.398,69 799,00 1.558,03 30/06/2016
705 466000 DIMITRI GUDE MARCIAL ANALISTA DO MP ATIVO NANUQUE - COMARCA; NANUQUE-PJ-02PJ 7.200,69 432,04 0,00 3.816,37 0,00 0,00 11.449,10 1.033,20 946,61 0,00 1.979,81 9.469,29 1.754,84 1.877,33 30/06/2016
706 516300 DINORA APARECIDA MACEDO BRANDAO ANALISTA DO MP ATIVO BELO HORIZONTE - COMARCA; ASSESS JUR DO CONS SUPERIOR DO MINISTERIO PUB 6.334,59 380,08 0,00 3.357,34 0,00 0,00 10.072,01 898,36 774,06 0,00 1.672,42 8.399,59 799,00 1.452,20 30/06/2016
707 511700 DIOGENES HENRIQUES PEREIRA LOURENCO ANALISTA DO MP ATIVO CONTAGEM - COMARCA; CONTAGEM-PJ-22PJ 7.560,72 453,64 0,00 4.007,18 0,00 0,00 12.021,54 1.075,18 1.092,15 0,00 2.167,33 9.854,21 1.151,00 1.870,69 30/06/2016
708 604100 DIOGO CESAR DE OLIVEIRA HONORIO ASSESSOR ATIVO PIUMHI - COMARCA; PIUMHI-PJ-02PJ 0,00 0,00 4.383,93 0,00 0,00 0,00 4.383,93 570,88 401,58 0,00 972,46 3.411,47 799,00 625,15 30/06/2016
709 387800 DIOGO FELIX DA SILVA OFICIAL DO MP ATIVO CONSELHEIRO PENA - COMARCA; CONSELHEIRO PENA-PJ-01PJ 5.226,73 522,67 0,00 2.874,70 0,00 0,00 8.624,10 780,27 537,81 0,00 1.318,08 7.306,02 830,48 1.343,81 30/06/2016
710 259600 DIOGO MESQUITA MAIA ANALISTA DO MP ATIVO BELO HORIZONTE - COMARCA; DIRET DE APOIO AS PROCURADORIAS DE JUSTICA 12.225,81 9.780,64 0,00 11.003,23 0,00 0,00 33.009,68 3.361,96 5.584,52 0,00 8.946,48 24.063,20 1.698,01 9.512,42 30/06/2016
711 386700 DIRCIMAR FERNANDES CARNEIRO OFICIAL DO MP ATIVO VISCONDE DO RIO BRANCO - COMARCA; VISCONDE DO RIO BRANCO-PJ-03PJ 6.334,59 3.167,30 0,00 4.750,95 0,00 0,00 14.252,84 1.294,51 1.456,23 0,00 2.750,74 11.502,10 1.214,20 2.266,38 30/06/2016
712 113800 DIRSON APARECIDO GUIMARAES ASSESSOR ATIVO BELO HORIZONTE - COMARCA; DIVISAO DE MANUTENCAO PREDIAL 0,00 3.507,14 4.383,93 3.945,54 0,00 0,00 11.836,61 570,88 698,85 0,00 1.269,73 10.566,88 1.162,58 1.912,18 30/06/2016
713 216700 DOMICIO VALDETE PEREIRA OFICIAL DO MP ATIVO TEÓFILO OTONI - COMARCA; COORD REG PJ DEF EDU DIR CRIAN ADOL JEQUI MUC 10.416,20 3.124,86 0,00 6.770,53 0,00 0,00 20.311,59 1.811,67 2.340,54 0,00 4.152,21 16.159,38 945,29 2.928,60 30/06/2016
714 85700 DONIZETTE PEREIRA DOS SANTOS OFICIAL DO MP ATIVO BELO HORIZONTE - COMARCA; EXTINTA - PROTOCOLO DA PGJ 18.047,65 14.438,13 0,00 15.235,56 0,00 3.351,82 51.073,16 3.351,82 7.458,06 2.014,67 12.824,55 38.248,61 799,00 0,00 30/06/2016
715 192701 DONIZETTI APARECIDO AMORIM ANALISTA DO MP ATIVO PRATÁPOLIS - COMARCA; PRATAPOLIS-PJ-UNPJ 6.540,78 1.962,23 0,00 4.251,51 0,00 0,00 12.754,52 1.150,98 1.159,61 0,00 2.310,59 10.443,93 799,00 1.960,70 30/06/2016
716 558700 DORCILIA FATIMA DE OLIVEIRA OFICIAL DO MP ATIVO DIVINÓPOLIS - COMARCA; DIVINOPOLIS-PJ-02PJ 3.982,20 0,00 0,00 1.991,10 0,00 0,00 5.973,30 532,79 148,39 0,00 681,18 5.292,12 799,00 861,25 30/06/2016
717 555300 DOUGLAS CUNHA DE SOUZA ANALISTA DO MP ATIVO VARZEA DA PALMA - COMARCA; VARZEA DA PALMA-PJ-01PJ 6.134,81 0,00 0,00 2.413,92 2.044,94 0,00 10.593,67 832,55 1.194,49 0,00 2.027,04 8.566,63 799,00 1.433,88 30/06/2016
718 265900 DOUGLAS GOMES MOREIRA ANALISTA DO MP ATIVO BELO HORIZONTE - COMARCA; CENTRAL DE APOIO TECNICO-SETOR DE ENGENHARIA 13.228,78 2.645,76 0,00 7.937,27 0,00 0,00 23.811,81 2.397,64 3.605,04 0,00 6.002,68 17.809,13 799,00 5.929,47 30/06/2016
719 241000 DOUGLAS MEIRELLES DE CASTRO OFICIAL DO MP ATIVO CONCEIÇÃO DO RIO VERDE - COMARCA; CONCEICAO DO RIO VERDE-PJ-UNPJ 9.163,30 2.748,99 0,00 5.956,15 0,00 0,00 17.868,44 1.700,67 2.125,78 0,00 3.826,45 14.041,99 971,98 3.548,47 30/06/2016
720 534900 DOUGLAS SILVA E SOUZA ANALISTA DO MP ATIVO CAMPOS GERAIS - COMARCA; CAMPOS GERAIS-PJ-SECRETARIA 6.334,59 380,08 0,00 3.357,34 0,00 0,00 10.072,01 899,26 721,92 0,00 1.621,18 8.450,83 1.091,13 1.558,03 30/06/2016
721 630700 DOUGLAS TAVEIRA LEMOS DE OLIVEIRA ANALISTA DO MP ATIVO BELO HORIZONTE - COMARCA; BH-18PJ VIOLENCIA DOMESTICA 5.572,67 0,00 0,00 2.786,34 0,00 0,00 8.359,01 754,34 494,55 0,00 1.248,89 7.110,12 799,00 1.285,00 30/06/2016
722 615600 DOUGLAS URIEL SOARES MOREIRA SILVA ANALISTA DO MP ATIVO IPATINGA - COMARCA; IPATINGA-PJ-01PJ 5.061,97 0,00 0,00 2.530,99 0,00 0,00 7.592,96 689,41 377,53 0,00 1.066,94 6.526,02 799,00 1.281,17 30/06/2016
723 638900 DOUGLAS WALLAS CONCEICAO NEVES OFICIAL DO MP ATIVO RIBEIRÃO DAS NEVES - COMARCA; RIBEIRAO DAS NEVES-PJ-SEC CIVEL 3.182,15 0,00 0,00 1.591,08 1.060,72 0,00 5.833,95 420,05 239,76 0,00 659,81 5.174,14 799,00 636,43 30/06/2016
724 146800 DUCINALVA AMARAL LOPES REIS OFICIAL DO MP ATIVO PARAISÓPOLIS - COMARCA; PARAISOPOLIS-PJ-UNPJ 12.225,81 6.112,90 0,00 9.169,36 0,00 0,00 27.508,07 2.482,41 3.514,76 0,00 5.997,17 21.510,90 1.201,90 4.228,75 30/06/2016
725 122500 DUILIO CARLOS FERREIRA UTSCH OFICIAL DO MP ATIVO CONCEIÇÃO DO MATO DENTRO - COMARCA; CONCEICAO DO MATO DENTRO-PJ-UNPJ 10.416,20 8.332,96 0,00 6.483,62 0,00 0,00 25.232,78 2.483,71 3.719,50 0,00 6.203,21 19.029,57 799,00 4.085,06 30/06/2016
726 201800 DULCINEIA ANDRE DE SOUZA OFICIAL DO MP ATIVO JEQUITINHONHA - COMARCA; JEQUITINHONHA-PJ-SECRETARIA 10.416,20 3.124,86 0,00 6.770,53 0,00 0,00 20.311,59 1.811,67 2.236,26 0,00 4.047,93 16.263,66 1.021,10 2.928,60 30/06/2016
727 395800 DUVIDIER MEDIRCIO JUNIOR ANALISTA DO MP ATIVO BELO HORIZONTE - COMARCA; CENTRAL DE APOIO TECNICO-SETOR DE ENGENHARIA 10.416,20 1.041,62 0,00 5.728,91 0,00 0,00 17.186,73 1.632,29 2.111,81 0,00 3.744,10 13.442,63 799,00 3.381,37 30/06/2016
728 604800 ECIA RAMILIS ISSA DE ABREU ANALISTA DO MP ATIVO MONTALVÂNIA - COMARCA; MONTALVANIA-PJ-UNPJ 5.572,67 0,00 0,00 0,00 0,00 0,00 5.572,67 745,59 494,55 0,00 1.240,14 4.332,53 799,00 1.205,25 30/06/2016
729 273000 EDELFINA APARECIDA GUIMARAES OFICIAL DO MP ATIVO BELO HORIZONTE - COMARCA; PROMOT ESTADUAL DE DEF PATRI CULT E TUR DE MG 8.061,11 4.030,55 0,00 6.045,83 0,00 0,00 18.137,49 1.840,91 2.681,98 0,00 4.522,89 13.614,60 828,57 5.013,02 30/06/2016
730 523300 EDER DOS SANTOS PATRICIO ANALISTA DO MP ATIVO NOVA SERRANA - COMARCA; NOVA SERRANA-PJ-03PJ 7.560,72 453,64 0,00 4.007,18 0,00 0,00 12.021,54 1.075,18 1.092,15 0,00 2.167,33 9.854,21 799,00 1.877,33 30/06/2016
731 356700 EDER JOSE PACHECO OFICIAL DO MP ATIVO CAMPO BELO - COMARCA; CAMPO BELO-PJ-SECRETARIA 6.753,72 675,37 0,00 2.883,63 0,00 0,00 10.312,72 1.005,65 844,64 0,00 1.850,29 8.462,43 799,00 1.713,05 30/06/2016
732 507900 EDERSON SILVA LOPES OFICIAL DO MP ATIVO BELO HORIZONTE - COMARCA; DIVISAO DE CONTROLE IMOBILIARIO 4.111,87 246,71 0,00 1.854,47 0,00 0,00 6.213,05 583,09 170,19 0,00 753,28 5.459,77 1.431,00 942,65 30/06/2016
733 296200 EDGARD GOULART MATOSINHO DE LAET JUNIOR ANALISTA DO MP ATIVO GOVERNADOR VALADARES - COMARCA; GOVERNADOR VALADARES-PJ-12PJ 12.225,81 2.445,16 0,00 7.335,49 4.890,32 0,00 26.896,78 2.260,81 4.567,92 0,00 6.828,73 20.068,05 799,00 5.882,01 30/06/2016
734 295000 EDILA MARIA DA SILVEIRA OFICIAL DO MP ATIVO FORMIGA - COMARCA; FORMIGA-PJ-04PJ 6.334,59 1.266,92 0,00 2.887,11 0,00 0,00 10.488,62 1.017,02 991,11 0,00 2.008,13 8.480,49 799,00 1.644,00 30/06/2016
735 332300 EDILA MARILAC MIRANDA PRADO OFICIAL DO MP ATIVO DIAMANTINA - COMARCA; COORD REG BACIAS RIOS JEQUITINHONHA E MUCURI 7.200,69 2.880,28 0,00 5.040,49 0,00 0,00 15.121,46 1.341,16 1.493,68 0,00 2.834,84 12.286,62 799,00 2.111,55 30/06/2016
736 376600 EDILANE CONSOLACAO ROSA NAZARETH ANALISTA DO MP ATIVO BETIM - COMARCA; BETIM-PJ-10PJ 9.461,59 946,16 0,00 3.792,48 0,00 0,00 14.200,23 1.408,85 1.677,94 0,00 3.086,79 11.113,44 799,00 2.399,95 30/06/2016
737 301500 EDILENE APARECIDA DE CARVALHO ANALISTA DO MP ATIVO BELO HORIZONTE - COMARCA; DIRETORIA DE ADMINISTRACAO FINANCEIRA 12.225,81 2.445,16 0,00 7.335,49 0,00 0,00 22.006,46 2.260,81 3.327,36 0,00 5.588,17 16.418,29 1.040,25 5.882,01 30/06/2016
738 309800 EDILZA DOS REIS OFICIAL DO MP ATIVO UBERLÂNDIA - COMARCA; UBERLANDIA-PJ-03PJ 7.322,31 1.464,46 0,00 4.393,39 0,00 0,00 13.180,16 1.192,84 1.229,07 0,00 2.421,91 10.758,25 799,00 2.057,35 30/06/2016
739 200500 EDINEIA MARIA DE OLIVEIRA ANTUNES OFICIAL DO MP ATIVO MONTES CLAROS - COMARCA; MONTES CLAROS-PJ-10PJ 10.755,28 4.302,11 0,00 7.528,70 0,00 0,00 22.586,09 2.121,90 3.048,31 0,00 5.170,21 17.415,88 1.446,65 4.232,59 30/06/2016
740 427700 EDISANGELA SOARES LOPES OFICIAL DO MP ATIVO PIRAPORA - COMARCA; PIRAPORA-PJ-02PJ 5.226,73 522,67 0,00 2.289,57 0,00 0,00 8.038,97 783,71 537,81 0,00 1.321,52 6.717,45 799,00 1.375,12 30/06/2016
741 555400 EDISON MONTEIRO SAMPAIO NETO ANALISTA DO MP ATIVO BELO HORIZONTE - COMARCA; BH-12PJ JUIZO CRIMINAL-GAB 094PJ 6.134,81 368,09 0,00 3.251,45 2.167,63 0,00 11.921,98 921,83 1.408,41 0,00 2.330,24 9.591,74 799,00 1.974,76 30/06/2016
742 517700 EDMILSON TADEU FERNANDES OFICIAL DO MP ATIVO POUSO ALEGRE - COMARCA; POUSO ALEGRE-PJ-SECRETARIA 4.902,32 294,14 0,00 2.598,23 1.732,15 0,00 9.526,84 695,26 878,82 0,00 1.574,08 7.952,76 799,00 1.123,85 30/06/2016
743 358400 EDNA APARECIDA SILVA FERREIRA OFICIAL DO MP ATIVO CORONEL FABRICIANO - COMARCA; CORONEL FABRICIANO-PJ-04PJ 6.540,78 654,08 0,00 3.597,43 0,00 0,00 10.792,29 973,93 891,58 0,00 1.865,51 8.926,78 799,00 1.659,05 30/06/2016
744 331800 EDNA MARCIA CAMILO DA SILVA OFICIAL DO MP ATIVO SETE LAGOAS - COMARCA; SETE LAGOAS-PJ-07PJ 7.322,31 1.464,46 0,00 4.393,39 0,00 0,00 13.180,16 1.178,84 1.281,20 0,00 2.460,04 10.720,12 1.184,93 1.929,60 30/06/2016
745 422800 EDNILSON DE SOUZA FERREIRA ASSESSOR ATIVO BELO HORIZONTE - COMARCA; DIRET DE INFORMACAO E EXPEDICAO DE PROCESSOS 0,00 0,00 2.625,65 1.166,41 0,00 0,00 3.792,06 445,48 52,20 0,00 497,68 3.294,38 799,00 625,15 30/06/2016
746 327900 EDRIEL SANTANA PEREIRA OFICIAL DO MP ATIVO TUPACIGUARA - COMARCA; TUPACIGUARA-PJ-UNPJ 7.322,31 1.464,46 0,00 4.393,39 0,00 0,00 13.180,16 1.178,84 1.281,20 0,00 2.460,04 10.720,12 1.431,00 1.929,60 30/06/2016
747 482400 EDSON GARCIA OFICIAL DO MP ATIVO MACHADO - COMARCA; MACHADO-PJ-02PJ 4.245,74 424,57 0,00 2.335,16 0,00 0,00 7.005,47 627,88 213,79 0,00 841,67 6.163,80 799,00 1.037,75 30/06/2016
748 225601 EDSON LABRE FILHO ANALISTA DO MP ATIVO VARGINHA - COMARCA; VARGINHA-PJ-01PJ 12.225,81 3.667,74 0,00 7.946,78 0,00 0,00 23.840,33 2.419,94 3.814,95 0,00 6.234,89 17.605,44 804,99 6.591,61 30/06/2016
749 602700 EDSON NOGUEIRA BUENO OFICIAL DO MP ATIVO PITANGUI - COMARCA; PITANGUI-PJ-02PJ 3.617,27 0,00 0,00 0,00 0,00 0,00 3.617,27 483,95 128,11 0,00 612,06 3.005,21 799,00 834,45 30/06/2016
750 414400 EDUARDO ABRANTES CAMPOS ANALISTA DO MP ATIVO SÃO JOÃO DEL REI - COMARCA; SAO JOAO DEL REI-PJ-02PJ 9.461,59 946,16 0,00 5.203,88 0,00 0,00 15.611,63 1.482,70 1.838,55 0,00 3.321,25 12.290,38 1.933,49 3.180,35 30/06/2016
751 476800 EDUARDO ALVES DE MOURA ANALISTA DO MP ATIVO UBERLÂNDIA - COMARCA; UBERLANDIA-PJ-19PJ 7.806,95 780,70 0,00 3.257,41 2.862,55 0,00 14.707,61 1.154,54 1.915,39 0,00 3.069,93 11.637,68 1.431,00 1.908,20 30/06/2016
752 390800 EDUARDO AMORIM PETTERSEN OFICIAL DO MP ATIVO CARANGOLA - COMARCA; CARANGOLA-PJ-03PJ 5.754,07 575,41 0,00 3.164,74 0,00 0,00 9.494,22 856,79 679,78 0,00 1.536,57 7.957,65 1.431,00 1.459,50 30/06/2016
753 633200 EDUARDO ANTONIO CODO SANTOS ASSESSOR ATIVO BELO HORIZONTE - COMARCA; ASSESSORIA ESPECIAL FINANCEIRA DO PGJAA 0,00 10.539,97 21.079,94 15.235,56 0,00 0,00 46.855,47 1.644,55 7.111,95 6.892,00 15.648,50 31.206,97 799,00 7.528,50 30/06/2016
754 461600 EDUARDO ANTONIO DE ASSIS FARIA ASSESSOR ATIVO BELO HORIZONTE - COMARCA; ASSESS EXECUTIVA DO CONSELHO SUPERIOR DO MP 0,00 0,00 4.383,93 0,00 0,00 0,00 4.383,93 570,88 316,27 0,00 887,15 3.496,78 1.431,00 1.043,80 30/06/2016
755 248800 EDUARDO DE CASTRO AMORIM ANALISTA DO MP ATIVO BELO HORIZONTE - COMARCA; BH-01PJ FAZENDA PUBLICA EXEC FISCAIS 13.034,76 2.606,95 0,00 7.820,86 0,00 0,00 23.462,57 2.117,39 2.958,95 0,00 5.076,34 18.386,23 1.077,52 3.606,85 30/06/2016
756 209100 EDUARDO DE SOUZA MAIA ANALISTA DO MP ATIVO BELO HORIZONTE - COMARCA; SUPERINTENDENCIA DE RECURSOS HUMANOS 15.451,48 4.635,44 0,00 10.043,46 0,00 0,00 30.130,38 2.715,61 3.890,50 0,00 6.606,11 23.524,27 799,00 4.600,45 30/06/2016
757 633900 EDUARDO GONCALVES PIRES OFICIAL DO MP ATIVO BELO HORIZONTE - COMARCA; BH-19PJ SAUDE-SECRETARIA 150PJ 3.617,27 723,45 0,00 2.170,36 0,00 0,00 6.511,08 587,58 233,10 0,00 820,68 5.690,40 799,00 1.000,90 30/06/2016
758 350500 EDUARDO GONCALVES RIBEIRO OFICIAL DO MP ATIVO VESPASIANO - COMARCA; VESPASIANO-PJ-04PJ 5.226,73 1.045,35 0,00 3.136,04 0,00 0,00 9.408,12 898,02 793,66 0,00 1.691,68 7.716,44 799,00 1.891,57 30/06/2016
759 115800 EDUARDO HENRIQUE DE CAMPOS MAIA OFICIAL DO MP ATIVO BELO HORIZONTE - COMARCA; EXTINTA - DIVISAO DE SERVICOS GERAIS 11.105,40 4.442,16 0,00 7.773,78 0,00 0,00 23.321,34 2.104,58 2.831,63 0,00 4.936,21 18.385,13 799,00 3.824,16 30/06/2016
760 392600 EDUARDO HENRIQUE DOS SANTOS COSTA ELIAZAR OFICIAL DO MP ATIVO MATOZINHOS - COMARCA; MATOZINHOS-PJ-02PJ 5.754,07 575,41 0,00 0,00 0,00 0,00 6.329,48 901,71 639,34 0,00 1.541,05 4.788,43 2.065,19 1.934,32 30/06/2016
761 122900 EDUARDO JOSE COSTA SILVA OFICIAL DO MP ATIVO SETE LAGOAS - COMARCA; SETE LAGOAS-PJ-04PJ 16.063,25 12.850,61 0,00 14.456,93 0,00 0,00 43.370,79 3.817,12 6.207,31 0,00 10.024,43 33.346,36 1.728,85 5.786,85 30/06/2016
762 418700 EDUARDO LEMOS SIMOES OFICIAL DO MP ATIVO LAVRAS - COMARCA; COORD REG DO MA DA BACIA DO RIO GRANDE 5.572,67 557,27 0,00 3.064,97 0,00 0,00 9.194,91 829,79 630,94 0,00 1.460,73 7.734,18 799,00 1.413,50 30/06/2016
763 407500 EDUARDO MASCARENHAS CURI AZEVEDO ANALISTA DO MP ATIVO BELO HORIZONTE - COMARCA; DIRETORIA DE IMPRENSA 8.061,11 806,11 0,00 4.433,61 2.955,74 0,00 16.256,57 1.200,29 2.113,72 0,00 3.314,01 12.942,56 799,00 2.044,70 30/06/2016
764 601300 EDUARDO TRAD VIEIRA OFICIAL DO MP ATIVO IBIRITÉ - COMARCA; IBIRITE-PJ-04PJ 3.617,27 0,00 0,00 0,00 0,00 0,00 3.617,27 483,95 128,11 0,00 612,06 3.005,21 1.431,00 834,45 30/06/2016
765 257600 EDUARDO VALADARES CABRAL ANALISTA DO MP ATIVO BELO HORIZONTE - COMARCA; EXTINTA - SECRETARIA ADMINISTRATIVA 10.416,20 2.083,24 0,00 0,00 0,00 0,00 12.499,44 1.691,99 2.189,88 0,00 3.881,87 8.617,57 799,00 3.074,35 30/06/2016
766 545700 EDVAIR FERREIRA DE CARVALHO OFICIAL DO MP ATIVO ARAGUARI - COMARCA; ARAGUARI-PJ-06PJ 3.735,01 224,10 0,00 1.979,56 0,00 0,00 5.938,67 530,25 116,86 0,00 647,11 5.291,56 799,00 915,71 30/06/2016
767 401700 EDWANIA AMORIM DO CARMO OFICIAL DO MP ATIVO RIBEIRÃO DAS NEVES - COMARCA; RIBEIRAO DAS NEVES-PJ-03PJ 6.334,59 633,46 0,00 3.484,03 0,00 0,00 10.452,08 932,24 836,07 0,00 1.768,31 8.683,77 799,00 1.507,00 30/06/2016
768 303600 EFIGENIO SARAIVA LOPES ANALISTA DO MP ATIVO BELO HORIZONTE - COMARCA; DIRETORIA DE PAGAMENTO DE PESSOAL-DPAG 13.228,78 2.645,76 0,00 7.937,27 5.291,51 0,00 29.103,32 2.397,64 4.955,93 0,00 7.353,57 21.749,75 1.497,62 6.155,00 30/06/2016
769 312000 ELAINE APARECIDA DE ARAUJO RODRIGUES OFICIAL DO MP ATIVO DIVINÓPOLIS - COMARCA; DIVINOPOLIS-PJ-02PJ 6.753,72 4.727,60 0,00 5.740,66 0,00 1.262,95 18.484,93 1.554,15 2.368,08 0,00 3.922,23 14.562,70 915,40 3.405,10 30/06/2016
770 286000 ELAINE APARECIDA SILVA BERZOINI OFICIAL DO MP ATIVO JUIZ DE FORA - COMARCA; JUIZ DE FORA-PJ-07PJ 7.560,72 1.512,14 0,00 4.536,43 0,00 0,00 13.609,29 1.228,11 1.351,22 0,00 2.579,33 11.029,96 799,00 2.092,10 30/06/2016
771 509000 ELAINE CANDIDA PONTES OFICIAL DO MP ATIVO BELO HORIZONTE - COMARCA; BH-02PJ FAMILIA-SECRETARIA 4.453,07 267,18 0,00 2.360,13 0,00 0,00 7.080,38 633,38 309,10 0,00 942,48 6.137,90 799,00 1.309,23 30/06/2016
772 283601 ELAINE CRISTINA MEQUELINO DUARTE ANALISTA DO MP ATIVO ALFENAS - COMARCA; ALFENAS-PJ-04PJ 9.461,59 946,16 0,00 5.203,88 0,00 0,00 15.611,63 1.408,85 1.573,66 0,00 2.982,51 12.629,12 3.311,93 2.514,44 30/06/2016
773 535500 ELAINE DE OLIVEIRA CAMPOS REIS OFICIAL DO MP ATIVO RIBEIRÃO DAS NEVES - COMARCA; RIBEIRAO DAS NEVES-PJ-11PJ 3.735,01 224,10 0,00 0,00 1.319,70 0,00 5.278,81 530,25 462,55 0,00 992,80 4.286,01 799,00 918,67 30/06/2016
774 455700 ELAINE DE OLIVEIRA CASTRO ANALISTA DO MP ATIVO POMPÉU - COMARCA; POMPEU-PJ-UNPJ 7.200,69 720,07 0,00 3.960,38 0,00 0,00 11.881,14 1.064,88 1.017,11 0,00 2.081,99 9.799,15 1.431,00 1.877,33 30/06/2016
775 367200 ELAINE MUNIZ BARBOSA ANALISTA DO MP ATIVO BELO HORIZONTE - COMARCA; DIRETORIA DE SISTEMAS DE INFORMACAO 10.755,28 1.075,53 0,00 5.915,41 0,00 0,00 17.746,22 1.689,05 2.208,81 0,00 3.897,86 13.848,36 799,00 3.705,92 30/06/2016
776 176900 ELAINE RIBEIRO TAVEIRA OFICIAL DO MP ATIVO BELO HORIZONTE - COMARCA; DIRETORIA DE PESSOAL ADMINISTRATIVO - DPAD 9.461,59 2.838,48 0,00 6.150,04 0,00 0,00 18.450,11 1.895,49 2.692,86 0,00 4.588,35 13.861,76 801,76 4.931,45 30/06/2016
777 496200 ELAINE SABRINA DIAS MOREIRA ANALISTA DO MP ATIVO CORONEL FABRICIANO - COMARCA; CORONEL FABRICIANO-PJ-03PJ 7.560,72 453,64 0,00 4.007,18 0,00 0,00 12.021,54 1.075,18 1.092,15 0,00 2.167,33 9.854,21 799,00 1.760,00 30/06/2016
778 489200 ELAINE VICENTINO GARCIA ANALISTA DO MP ATIVO BELO HORIZONTE - COMARCA; CENTRAL DE APOIO TECNICO-SETOR CONTABIL 7.560,72 1.512,14 0,00 4.536,43 0,00 0,00 13.609,29 1.235,63 1.246,95 0,00 2.482,58 11.126,71 1.619,21 2.160,26 30/06/2016
779 244500 ELCI ALVES DE SOUZA ASSESSOR ATIVO BELO HORIZONTE - COMARCA; CAO-CONFLITOS AGRARIOS-SECRETARIA 0,00 876,79 4.383,93 2.630,36 0,00 0,00 7.891,08 570,88 587,93 0,00 1.158,81 6.732,27 832,19 1.255,59 30/06/2016
780 472500 ELCI VAZ DE OLIVEIRA FILHO ANALISTA DO MP ATIVO PIUMHI - COMARCA; PIUMHI-PJ-02PJ 7.806,95 3.122,78 0,00 5.464,87 0,00 0,00 16.394,60 1.479,47 1.805,69 0,00 3.285,16 13.109,44 799,00 2.688,32 30/06/2016
781 385200 ELCI VIANA REIS OFICIAL DO MP ATIVO RIO PARDO DE MINAS - COMARCA; RIO PARDO DE MINAS-PJ-SECRETARIA 6.540,78 2.616,31 0,00 4.578,55 0,00 0,00 13.735,64 1.290,39 1.513,14 0,00 2.803,53 10.932,11 967,84 2.573,95 30/06/2016
782 289801 ELCIO JOSE DOS SANTOS ASSESSOR/ANALISTA ATIVO BELO HORIZONTE - COMARCA; EXTINTA - DIRETORIA SERVIÇOS GERAIS E TRANS 0,00 976,96 9.769,61 3.953,33 0,00 0,00 14.699,90 1.264,83 1.799,97 0,00 3.064,80 11.635,10 992,11 2.603,16 30/06/2016
783 123000 ELCIO VILHENA DE FARIA OFICIAL DO MP ATIVO BELO HORIZONTE - COMARCA; DIVISAO DE MEMORIA INSTITUCIONAL 16.063,25 14.456,93 0,00 15.235,56 0,00 3.351,82 49.107,56 4.025,87 7.695,56 49,07 11.770,50 37.337,06 799,00 7.475,35 30/06/2016
784 319600 ELEN TULER DE ALBERGARIA ANALISTA DO MP ATIVO BELO HORIZONTE - COMARCA; BH-19PJ SAUDE 9.769,61 2.930,88 0,00 6.350,25 0,00 0,00 19.050,74 1.719,20 2.239,09 0,00 3.958,29 15.092,45 2.063,00 2.928,60 30/06/2016
785 333100 ELENILDA ROCHA DE MORAES MELO OFICIAL DO MP ATIVO MAR DE ESPANHA - COMARCA; MAR DE ESPANHA-PJ-SECRETARIA 5.226,73 1.045,35 0,00 3.136,04 0,00 0,00 9.408,12 854,23 613,59 0,00 1.467,82 7.940,30 799,00 1.493,35 30/06/2016
786 151000 ELI LOURENCO RIBEIRO AGENTE DO MP ATIVO BELO HORIZONTE - COMARCA; BH-17PJ PATRIMONIO PUBLICO-SECRETARIA 8.594,48 3.437,79 0,00 6.016,14 0,00 0,00 18.048,41 1.785,25 1.780,87 0,00 3.566,12 14.482,29 1.108,89 4.197,44 30/06/2016
787 205500 ELIANA ALVES DE SOUSA OFICIAL DO MP ATIVO GOVERNADOR VALADARES - COMARCA; GOVERNADOR VALADARES-PJ-07PJ 7.322,31 2.196,69 0,00 4.759,50 3.173,00 0,00 17.451,50 1.441,12 2.694,84 0,00 4.135,96 13.315,54 976,42 3.737,63 30/06/2016
788 628800 ELIANA APARECIDA PEREIRA ANALISTA DO MP ATIVO CAMBUÍ - COMARCA; CAMBUI-PJ-02PJ 5.061,97 0,00 0,00 0,00 0,00 0,00 5.061,97 685,22 377,53 0,00 1.062,75 3.999,22 799,00 1.167,20 30/06/2016
789 301700 ELIANA DA SILVEIRA ANALISTA DO MP ATIVO BELO HORIZONTE - COMARCA; ASSESS TECNICO-JUR JUNTO AS PROC. DE JUST 10.755,28 2.151,06 0,00 6.453,17 0,00 0,00 19.359,51 1.747,05 2.289,47 0,00 4.036,52 15.322,99 799,00 2.976,05 30/06/2016
790 103400 ELIANA DE FARIA MORAIS JOTTA OFICIAL DO MP ATIVO BELO HORIZONTE - COMARCA; DIRET DE PESSOAL DO MINISTERIO PUBLICO - DPMP 21.079,94 10.539,97 0,00 15.235,56 0,00 0,00 46.855,47 3.548,22 6.432,03 6.891,95 16.872,20 29.983,27 1.861,85 7.528,50 30/06/2016
791 251500 ELIANA DE LIMA MILAGRES FONSECA ANALISTA DO MP ATIVO CONTAGEM - COMARCA; CONTAGEM-PJ-06PJ 10.755,28 2.151,06 0,00 6.453,17 0,00 0,00 19.359,51 1.747,05 2.185,19 0,00 3.932,24 15.427,27 799,00 2.976,05 30/06/2016
792 503900 ELIANA DIAS DUTRA FERREIRA OFICIAL DO MP ATIVO GOVERNADOR VALADARES - COMARCA; GOVERNADOR VALADARES-PJ-10PJ 5.396,93 323,82 0,00 2.860,38 0,00 0,00 8.581,13 1.214,30 1.196,43 0,00 2.410,73 6.170,40 0,00 5.842,39 30/06/2016
793 413900 ELIANA PINTO DE OLIVEIRA NEVES ANALISTA DO MP ATIVO CAMPO BELO - COMARCA; CAMPO BELO-PJ-03PJ 8.874,34 887,43 0,00 4.880,89 0,00 0,00 14.642,66 1.592,29 2.000,13 0,00 3.592,42 11.050,24 1.431,00 5.124,18 30/06/2016
794 228200 ELIANA RODRIGUES DA CUNHA PINHEIRO DIRETOR/OFICIAL ATIVO BELO HORIZONTE - COMARCA; SUPERINTENDÊNCIA DE ENGENHARIA E ARQUITETURA 0,00 4.458,91 14.863,02 0,00 0,00 1.269,03 20.590,96 1.522,43 4.520,96 0,00 6.043,39 14.547,57 1.205,46 4.779,20 30/06/2016
795 386600 ELIANA SABINO CHAVES ANALISTA DO MP ATIVO CARATINGA - COMARCA; CARATINGA-PJ-06PJ 9.461,59 4.730,80 0,00 7.096,20 4.730,80 0,00 26.019,39 2.021,86 4.072,08 0,00 6.093,94 19.925,45 1.439,49 4.394,37 30/06/2016
796 297400 ELIANE AUGUSTA RIBEIRO COSTA ANALISTA DO MP ATIVO CONSELHEIRO LAFAIETE - COMARCA; CONSELHEIRO LAFAIETE-PJ-05PJ 12.225,81 2.445,16 0,00 7.335,49 0,00 0,00 22.006,46 1.962,81 2.564,95 0,00 4.527,76 17.478,70 1.206,08 3.173,00 30/06/2016
797 510600 ELIANE CAROLINA MAIA ANALISTA DO MP ATIVO IGARAPÉ - COMARCA; IGARAPE-PJ-02PJ 7.560,72 453,64 0,00 4.007,18 0,00 0,00 12.021,54 1.057,43 883,61 0,00 1.941,04 10.080,50 2.063,00 1.598,75 30/06/2016
798 269300 ELIANE EDLAMAR ROCHA OFICIAL DO MP ATIVO PEDRO LEOPOLDO - COMARCA; PEDRO LEOPOLDO-PJ-02PJ 7.560,72 1.512,14 0,00 3.387,87 0,00 0,00 12.460,73 1.239,31 1.299,09 0,00 2.538,40 9.922,33 1.431,00 2.193,81 30/06/2016
799 359100 ELIANE FARIAS DE OLIVEIRA ASSESSOR ATIVO BELO HORIZONTE - COMARCA; EXTINTA-TUTELA DAS FUNDACOES-21 PJ- GABINETE 0,00 0,00 2.625,65 1.312,83 916,90 0,00 4.855,38 445,48 240,49 0,00 685,97 4.169,41 799,00 625,15 30/06/2016
800 262600 ELIANE FERREIRA SOARES ASSESSOR ATIVO BELO HORIZONTE - COMARCA; BH-18PJ DIREITOS HUMANOS-SECRETARIA 0,00 1.315,18 4.383,93 2.319,73 1.990,16 0,00 10.009,00 570,88 1.255,79 0,00 1.826,67 8.182,33 799,00 1.356,95 30/06/2016
801 204400 ELIANE GLAUCE DE QUEIROS MAIA OFICIAL DO MP ATIVO GUANHÃES - COMARCA; GUANHAES-PJ-01PJ 10.416,20 3.124,86 0,00 0,00 0,00 0,00 13.541,06 1.811,67 2.444,81 0,00 4.256,48 9.284,58 1.431,00 2.928,60 30/06/2016
802 91800 ELIANE KAPLER COORDENADOR/OFICIAL ATIVO BELO HORIZONTE - COMARCA; DIRET DE CONTROLE E DE MANUTENCAO DE IMOVEIS 14.863,02 9.954,26 0,00 8.594,08 0,00 0,00 33.411,36 2.937,45 5.176,71 0,00 8.114,16 25.297,20 1.569,83 5.010,20 30/06/2016
803 334200 ELIANE MARCIA DE OLIVEIRA BRITO OFICIAL DO MP ATIVO BELO HORIZONTE - COMARCA; BH-08PJ JUIZADO ESPECIAL-SECRETARIA 5.226,73 1.045,35 0,00 2.458,20 0,00 0,00 8.730,28 854,23 665,73 0,00 1.519,96 7.210,32 799,00 1.493,35 30/06/2016
804 365900 ELIANE MARIA DE OLIVEIRA FERREIRA OFICIAL DO MP ATIVO SETE LAGOAS - COMARCA; SETE LAGOAS-PJ-11PJ 6.753,72 2.701,49 0,00 4.727,61 0,00 0,00 14.182,82 1.279,87 1.444,80 0,00 2.724,67 11.458,15 1.222,86 2.180,25 30/06/2016
805 320600 ELIANE STADLER DE SOUZA OFICIAL DO MP ATIVO FRANCISCO SÁ - COMARCA; FRANCISCO SA-PJ-SECRETARIA 6.753,72 1.350,74 0,00 4.052,23 0,00 0,00 12.156,69 1.154,56 1.187,15 0,00 2.341,71 9.814,98 799,00 2.391,60 30/06/2016
806 448900 ELIAS PEREIRA OTONI ASSESSOR ATIVO BELO HORIZONTE - COMARCA; EXTINTA - DIVISAO DE TRANSPORTES 0,00 0,00 4.383,93 2.191,97 0,00 0,00 6.575,90 570,88 316,27 0,00 887,15 5.688,75 799,00 1.043,80 30/06/2016
807 495400 ELICA SOUZA GASPARONI MATTOS OFICIAL DO MP ATIVO UBÁ - COMARCA; UBA-PJ-SECRETARIA 5.396,93 323,82 0,00 2.280,34 1.906,92 0,00 9.908,01 1.224,27 1.825,11 0,00 3.049,38 6.858,63 1.431,00 6.015,58 30/06/2016
808 86600 ELIENE FERREIRA DA SILVA OFICIAL DO MP ATIVO BELO HORIZONTE - COMARCA; BH-22PJ PES COM DEF E IDOSOS 18.047,65 9.023,83 0,00 13.535,74 0,00 0,00 40.607,22 3.686,91 5.599,97 0,00 9.286,88 31.320,34 2.061,93 6.445,55 30/06/2016
809 183800 ELIENE MARIA CUNHA OFICIAL DO MP ATIVO BELO HORIZONTE - COMARCA; DIRETORIA DE PESSOAL ADMINISTRATIVO - DPAD 10.755,28 3.226,58 0,00 0,00 0,00 0,00 13.981,86 1.892,65 2.500,56 0,00 4.393,21 9.588,65 799,00 3.224,05 30/06/2016
810 172300 ELINA APARECIDA SILVA ASSESSOR ATIVO BELO HORIZONTE - COMARCA; BH-19PJ SAUDE-SECRETARIA 130PJ 0,00 787,70 2.625,65 1.706,68 0,00 0,00 5.120,03 552,76 137,26 0,00 690,02 4.430,01 799,00 812,70 30/06/2016
811 492501 ELINE CAMPOS DA FONSECA CUNHA ANALISTA DO MP ATIVO JEQUERI - COMARCA; JEQUERI-PJ-UNPJ 5.061,97 303,72 0,00 2.165,78 1.788,56 0,00 9.320,03 729,88 935,75 0,00 1.665,63 7.654,40 799,00 1.347,30 30/06/2016
812 618900 ELISA MOURA VIEIRA MARCATTI OFICIAL DO MP ATIVO BELO HORIZONTE - COMARCA; BH-23PJ CIVEL-SEC EXP CIVEIS 3.617,27 0,00 0,00 1.808,64 0,00 0,00 5.425,91 492,05 128,11 0,00 620,16 4.805,75 799,00 913,25 30/06/2016
813 256500 ELISABETE NOGUEIRA ANALISTA DO MP ATIVO RIBEIRÃO DAS NEVES - COMARCA; RIBEIRAO DAS NEVES-PJ-10PJ 10.416,20 4.166,48 0,00 7.291,34 0,00 0,00 21.874,02 1.973,99 2.543,34 0,00 4.517,33 17.356,69 1.456,03 3.362,60 30/06/2016
814 355000 ELISANGELA DARLANTONI RIBEIRO OFICIAL DO MP ATIVO ARAXÁ - COMARCA; ARAXA-PJ-05PJ 6.134,81 1.226,96 0,00 3.680,89 0,00 0,00 11.042,66 1.048,43 1.086,68 0,00 2.135,11 8.907,55 1.431,00 2.374,02 30/06/2016
815 604400 ELISANGELA DEMASI FERREIRA MOREIRA ANALISTA DO MP ATIVO CAXAMBU - COMARCA; CAXAMBU-PJ-UNPJ 6.134,81 0,00 0,00 3.067,41 0,00 0,00 9.202,22 820,78 632,13 0,00 1.452,91 7.749,31 1.431,00 1.415,25 30/06/2016
816 323800 ELISANGELA GONCALVES DE JESUS OFICIAL DO MP ATIVO BELO HORIZONTE - COMARCA; BH-09PJ AUDITORIA MILITAR-SECRETARIA 5.572,67 1.114,53 0,00 3.343,60 0,00 0,00 10.030,80 905,19 715,20 0,00 1.620,39 8.410,41 1.616,04 1.542,00 30/06/2016
817 261400 ELISANGELA MENDES OFICIAL DO MP ATIVO POUSO ALEGRE - COMARCA; POUSO ALEGRE-PJ-05PJ 7.200,69 1.440,14 0,00 4.320,42 0,00 0,00 12.961,25 1.169,69 1.245,48 0,00 2.415,17 10.546,08 971,79 1.992,50 30/06/2016
818 507400 ELISANGELA MIGUEL DA ROCHA SILVA ASSESSOR ATIVO BELO HORIZONTE - COMARCA; CGMP-DIVIS DE APOIO FISC ORIENTACAO FUNCIONAL 0,00 0,00 2.625,65 1.312,83 0,00 0,00 3.938,48 445,48 92,08 0,00 537,56 3.400,92 799,00 625,15 30/06/2016
819 534100 ELISANGELA ROSINE SILVA OFICIAL DO MP ATIVO UBERABA - COMARCA; UBERABA-PJ-06PJ 3.735,01 224,10 0,00 1.979,56 0,00 0,00 5.938,67 530,25 173,74 0,00 703,99 5.234,68 813,89 861,25 30/06/2016
820 634300 ELIUDE GRACA DAMASIO ROSARIO FRANCELINO OFICIAL DO MP ATIVO BELO HORIZONTE - COMARCA; EXTINTA-DEF DIREIT HUM-COMB A VIOL DOMEST-18 3.285,74 0,00 0,00 1.420,22 0,00 0,00 4.705,96 444,78 83,85 0,00 528,63 4.177,33 799,00 757,65 30/06/2016
821 461700 ELIZABETH ALEIXO DA PAZ ANALISTA DO MP ATIVO JUIZ DE FORA - COMARCA; JUIZ DE FORA-PJ-24PJ 7.806,95 780,70 0,00 4.293,83 0,00 0,00 12.881,48 1.154,54 1.232,47 0,00 2.387,01 10.494,47 799,00 1.908,20 30/06/2016
822 227300 ELIZABETH COIMBRA FELIX ASSESSOR/OFICIAL ATIVO BELO HORIZONTE - COMARCA; DIRETORIA DE PAGAMENTO DE PESSOAL-DPAG 9.461,59 4.989,55 0,00 7.225,57 0,00 0,00 21.676,71 2.375,88 2.646,68 0,00 5.022,56 16.654,15 804,95 4.110,08 30/06/2016
823 354800 ELIZABETH DOS REIS OFICIAL DO MP ATIVO BELO HORIZONTE - COMARCA; EXTINTA - DIVISÃO DE MATERIAL PERMANENTE 6.753,72 1.350,74 0,00 4.052,23 0,00 0,00 12.156,69 1.154,23 1.227,37 0,00 2.381,60 9.775,09 799,00 2.570,48 30/06/2016
824 612000 ELIZABETH MARIA DE QUEIROZ TANIGUCHI OFICIAL DO MP ATIVO BELO HORIZONTE - COMARCA; DIRET DE DESENV DE RECURSOS HUMANOS-DDRH 3.617,27 0,00 0,00 1.545,63 0,00 0,00 5.162,90 483,95 128,11 0,00 612,06 4.550,84 799,00 782,30 30/06/2016
825 452800 ELIZANGELA MARIA DAVI OFICIAL DO MP ATIVO ARCOS - COMARCA; ARCOS-PJ-01PJ 4.245,74 424,57 0,00 1.950,07 0,00 0,00 6.620,38 636,04 256,44 0,00 892,48 5.727,90 1.431,00 1.111,99 30/06/2016
826 496300 ELIZANGELA MARQUES PINTO COELHO OFICIAL DO MP ATIVO BELO HORIZONTE - COMARCA; DIRETORIA DE PESSOAL ADMINISTRATIVO - DPAD 5.396,93 323,82 0,00 2.860,38 0,00 0,00 8.581,13 1.214,30 1.348,77 0,00 2.563,07 6.018,06 1.431,00 6.017,15 30/06/2016
827 422500 ELIZETE FORTES DA CUNHA ANALISTA DO MP ATIVO RIBEIRÃO DAS NEVES - COMARCA; RIBEIRAO DAS NEVES-PJ-07PJ 9.163,30 916,33 0,00 5.039,82 0,00 0,00 15.119,45 1.364,41 1.545,49 0,00 2.909,90 12.209,55 1.431,00 2.324,25 30/06/2016
828 506100 ELLEM CRISTINA ROCHA FONSECA BOWEN ANALISTA DO MP ATIVO GOVERNADOR VALADARES - COMARCA; COORD REG PJ DEF EDU DIR CRIANCA ADOL RIODOCE 7.560,72 453,64 0,00 0,00 2.671,45 0,00 10.685,81 1.075,18 1.826,80 0,00 2.901,98 7.783,83 1.431,00 1.760,00 30/06/2016
829 468200 ELLEN CRISTINA BERNARDES DARE ANALISTA DO MP ATIVO TRÊS PONTAS - COMARCA; TRES PONTAS-PJ-02PJ 7.806,95 780,70 0,00 4.293,83 0,00 0,00 12.881,48 1.154,54 1.180,33 0,00 2.334,87 10.546,61 1.431,00 1.908,20 30/06/2016
830 418800 ELLEN CRISTINA DE QUEIROZ FERREIRA ANALISTA DO MP ATIVO BELO HORIZONTE - COMARCA; CENTRAL DE APOIO TECNICO-SETOR CONTABIL 9.163,30 916,33 0,00 3.686,62 0,00 0,00 13.766,25 1.435,96 1.753,22 0,00 3.189,18 10.577,07 1.431,00 2.974,63 30/06/2016
831 328401 ELLEN CRISTINA FERREIRA MORAIS MONTEIRO ANALISTA DO MP ATIVO CAMANDUCAIA - COMARCA; CAMANDUCAIA-PJ-UNPJ 9.163,30 916,33 0,00 3.738,76 0,00 0,00 13.818,39 1.435,96 1.648,95 0,00 3.084,91 10.733,48 1.431,00 2.974,63 30/06/2016
832 556100 ELLEN CRISTINE BIANCHIN DA SILVA OFICIAL DO MP ATIVO SÃO GONÇALO DO SAPUCAÍ - COMARCA; SAO GONCALO DO SAPUCAI-PJ-02PJ 3.617,27 217,04 0,00 0,00 0,00 0,00 3.834,31 540,39 129,18 0,00 669,57 3.164,74 799,00 1.078,29 30/06/2016
833 447100 ELLEN ROSANA DE MACEDO BORGES OFICIAL DO MP ATIVO UBERLÂNDIA - COMARCA; UBERLANDIA-PJ-17PJ 5.754,07 575,41 0,00 3.164,74 0,00 0,00 9.494,22 901,71 777,46 0,00 1.679,17 7.815,05 799,00 1.867,80 30/06/2016
834 477700 ELMA JACOB OFICIAL DO MP ATIVO BELO HORIZONTE - COMARCA; COORD DE GABINETE DO PGJ 5.572,67 3.900,87 0,00 4.736,77 0,00 1.107,81 15.318,12 1.323,72 1.900,17 0,00 3.223,89 12.094,23 961,53 2.776,19 30/06/2016
835 123300 ELMA PAULA DOS SANTOS COELHO OFICIAL DO MP ATIVO BELO HORIZONTE - COMARCA; BH-19PJ SAUDE-SECRETARIA 130PJ 13.228,78 10.583,02 0,00 11.905,90 0,00 3.016,45 38.734,15 3.596,44 6.996,74 0,00 10.593,18 28.140,97 1.834,74 10.644,93 30/06/2016
836 356500 ELOISA CARDOSO SILVA FRANCA OFICIAL DO MP ATIVO PEÇANHA - COMARCA; PECANHA-PJ-SECRETARIA 5.226,73 522,67 0,00 0,00 0,00 0,00 5.749,40 783,03 387,22 0,00 1.170,25 4.579,15 1.421,08 1.454,99 30/06/2016
837 251901 ELOISA COSTA E SILVA ANALISTA DO MP ATIVO SANTOS DUMONT - COMARCA; SANTOS DUMONT-PJ-02PJ 7.560,72 1.512,14 0,00 4.536,43 0,00 0,00 13.609,29 1.217,21 1.351,22 0,00 2.568,43 11.040,86 799,00 2.125,33 30/06/2016
838 400400 ELOIZA MARIA FERRI PIRES DA SILVA OFICIAL DO MP ATIVO BELO HORIZONTE - COMARCA; FEPDC-SECRETARIA EXECUTIVA 5.572,67 557,27 0,00 3.064,97 0,00 0,00 9.194,91 829,79 578,81 0,00 1.408,60 7.786,31 1.081,70 1.502,40 30/06/2016
839 258000 ELSO CECIANO PALMEIRA ASSESSOR/OFICIAL ATIVO BELO HORIZONTE - COMARCA; DIRET DE PESSOAL DO MINISTERIO PUBLICO - DPMP 0,00 4.437,17 8.874,34 6.655,76 0,00 0,00 19.967,27 1.585,15 2.384,93 0,00 3.970,08 15.997,19 990,72 3.169,45 30/06/2016
840 206900 ELVIRA RITA DOS SANTOS ANALISTA DO MP ATIVO BELO HORIZONTE - COMARCA; CENTRAL DE APOIO TECNICO-SETOR CONTABIL 16.063,25 4.818,98 0,00 10.441,12 0,00 2.297,05 33.620,40 2.823,15 5.045,23 0,00 7.868,38 25.752,02 1.372,91 5.934,01 30/06/2016
841 506800 ELVIS FERREIRA DA SILVA ANALISTA DO MP ATIVO BELO HORIZONTE - COMARCA; DIRETORIA DE SISTEMAS DE INFORMACAO 7.560,72 453,64 0,00 4.007,18 0,00 0,00 12.021,54 1.075,18 1.040,02 0,00 2.115,20 9.906,34 799,00 1.760,00 30/06/2016
842 602400 ELZA MARIA MOREIRA MUNIZ ANALISTA DO MP ATIVO CARMO DO PARANAÍBA - COMARCA; CARMO DO PARANAIBA-PJ-02PJ 6.134,81 0,00 0,00 3.067,41 2.044,94 0,00 11.247,16 820,78 1.194,49 0,00 2.015,27 9.231,89 799,00 1.415,25 30/06/2016
843 368401 ELZIRA SIMOES DOS SANTOS ASSESSOR ATIVO BELO HORIZONTE - COMARCA; SUPERINTENDENCIA DE COMUNICACAO INTEGRADA 0,00 1.953,92 9.769,61 5.861,77 0,00 0,00 17.585,30 570,88 2.417,34 0,00 2.988,22 14.597,08 1.345,08 2.841,36 30/06/2016
844 437400 EMANOELLE DA SILVA RODRIGUES OFICIAL DO MP ATIVO UNAÍ - COMARCA; UNAI-PJ-03PJ 5.572,67 557,27 0,00 3.064,97 0,00 0,00 9.194,91 835,86 578,81 0,00 1.414,67 7.780,24 1.431,00 1.468,71 30/06/2016
845 458900 EMANUELLE CONRAD SILVA FREDERICO ANALISTA DO MP ATIVO ALFENAS - COMARCA; ALFENAS-PJ-05PJ 8.874,34 887,43 0,00 4.880,89 0,00 0,00 14.642,66 2.316,94 3.351,68 0,00 5.668,62 8.974,04 1.432,23 12.924,88 30/06/2016
846 284100 EMERSON MAGNO ALMEIDA PEDROSA DA FONSECA ANALISTA DO MP ATIVO BELO HORIZONTE - COMARCA; CENTRAL DE APOIO TECNICO-SETOR CONTABIL 12.225,81 2.445,16 0,00 0,00 0,00 0,00 14.670,97 1.962,81 1.466,36 0,00 3.429,17 11.241,80 991,40 3.173,00 30/06/2016
847 179900 EMERSON MORAIS DIAS OFICIAL DO MP ATIVO BELO HORIZONTE - COMARCA; EXTINTA - DIVISÃO DE APOIO À LICITAÇÃO 11.105,40 3.331,62 0,00 7.218,51 0,00 0,00 21.655,53 2.056,72 2.928,62 0,00 4.985,34 16.670,19 1.237,29 4.412,07 30/06/2016
848 488700 EMERSON SIQUEIRA DE SOUSA TEIXEIRA ANALISTA DO MP ATIVO TARUMIRIM - COMARCA; TARUMIRIM-PJ-UNPJ 7.560,72 453,64 0,00 0,00 0,00 0,00 8.014,36 1.091,48 935,74 0,00 2.027,22 5.987,14 1.431,00 2.035,41 30/06/2016
849 194200 EMILIA ALVES FERREIRA RAMOS OFICIAL DO MP ATIVO UBERLÂNDIA - COMARCA; UBERLANDIA-PJ-SEC FAMILIA 5.572,67 1.671,80 0,00 3.622,24 0,00 0,00 10.866,71 980,64 799,45 0,00 1.780,09 9.086,62 911,04 1.670,50 30/06/2016
850 123400 EMILIO CARLOS MARTINS OFICIAL DO MP ATIVO AREADO - COMARCA; AREADO-PJ-UNPJ 12.623,91 10.099,12 0,00 11.361,52 0,00 0,00 34.084,55 3.069,46 4.639,97 0,00 7.709,43 26.375,12 4.861,81 5.903,25 30/06/2016
851 549300 EMILIO VIEIRA SILVA ASSESSOR ATIVO BELO HORIZONTE - COMARCA; EXTINTA - DIVISAO DE TRANSPORTES 0,00 0,00 4.383,93 2.191,97 39,32 0,00 6.615,22 570,88 410,43 0,00 981,31 5.633,91 799,00 625,15 30/06/2016
852 620700 EMILY FONTANA DE SIQUEIRA ANALISTA DO MP ATIVO BELO HORIZONTE - COMARCA; BH-18PJ VIOLENCIA DOMESTICA 5.572,67 0,00 0,00 2.232,56 0,00 0,00 7.805,23 754,34 494,55 0,00 1.248,89 6.556,34 799,00 1.370,67 30/06/2016
853 297000 ENEIDA SOARES COSTA MELO ANALISTA DO MP ATIVO PIUMHI - COMARCA; PIUMHI-PJ-01PJ 12.225,81 2.445,16 0,00 7.335,49 0,00 0,00 22.006,46 1.962,81 2.721,36 0,00 4.684,17 17.322,29 799,00 3.173,00 30/06/2016
854 276000 ENEZIO RODRIGUES DE SOUZA FILHO OFICIAL DO MP ATIVO UBERLÂNDIA - COMARCA; UBERLANDIA-PJ-02PJ 7.322,31 1.464,46 0,00 4.393,39 0,00 0,00 13.180,16 1.185,74 1.281,20 0,00 2.466,94 10.713,22 799,00 1.996,69 30/06/2016
855 387700 ENI MARIA DOS REIS OFICIAL DO MP ATIVO POUSO ALEGRE - COMARCA; POUSO ALEGRE-PJ-04PJ 6.334,59 1.867,02 0,00 3.129,91 0,00 0,00 11.331,52 932,24 1.175,30 0,00 2.107,54 9.223,98 799,00 1.800,70 30/06/2016
856 605100 ENIA MAIA ASSESSOR/OFICIAL ATIVO BELO HORIZONTE - COMARCA; DIRETORIA DE ORCAMENTO-DIOR/SPC 0,00 0,00 8.874,34 4.437,17 0,00 0,00 13.311,51 532,79 1.450,62 0,00 1.983,41 11.328,10 799,00 861,25 30/06/2016
857 612200 ENILDO GOMES MEIRA FILHO ANALISTA DO MP ATIVO BUENÓPOLIS - COMARCA; BUENOPOLIS-PJ-UNPJ 6.134,81 0,00 0,00 3.067,41 0,00 0,00 9.202,22 807,43 527,86 0,00 1.335,29 7.866,93 1.431,00 1.205,25 30/06/2016
858 553700 ENIVALDO NOVATO PUBLIO ANALISTA DO MP ATIVO DIVINÓPOLIS - COMARCA; DIVINOPOLIS-PJ-09PJ 6.134,81 368,09 0,00 3.251,45 0,00 0,00 9.754,35 916,48 793,92 0,00 1.710,40 8.043,95 799,00 2.048,84 30/06/2016
859 417300 ERIC BARATTI DA SILVA ANALISTA DO MP ATIVO PRATA - COMARCA; PRATA-PJ-UNPJ 8.061,11 806,11 0,00 0,00 0,00 0,00 8.867,22 1.200,29 1.300,89 0,00 2.501,18 6.366,04 799,00 2.044,70 30/06/2016
860 637600 ERIC DA ROCHA CHEHUEN ANALISTA DO MP ATIVO LIMA DUARTE - COMARCA; LIMA DUARTE-PJ-UNPJ 5.572,67 0,00 0,00 0,00 0,00 0,00 5.572,67 741,39 494,55 0,00 1.235,94 4.336,73 799,00 1.167,20 30/06/2016
861 398900 ERIC TEIXEIRA SILVA OFICIAL DO MP ATIVO UBERLÂNDIA - COMARCA; UBERLANDIA-PJ-08PJ 6.134,81 613,48 0,00 3.374,15 0,00 0,00 10.122,44 916,60 782,28 0,00 1.698,88 8.423,56 799,00 1.594,08 30/06/2016
862 274200 ERICA DE SOUZA ANDRADE OFICIAL DO MP ATIVO CURVELO - COMARCA; CURVELO-PJ-05PJ 8.061,11 1.612,22 0,00 4.836,67 0,00 0,00 14.510,00 1.497,90 1.961,29 0,00 3.459,19 11.050,81 1.486,21 4.290,68 30/06/2016
863 225700 ERICA GOMES DO COUTO OFICIAL DO MP ATIVO BELO HORIZONTE - COMARCA; CAO-TS-TERCEIRO SETOR-SECRETARIA 9.461,59 2.838,48 0,00 6.150,04 0,00 0,00 18.450,11 1.641,01 2.141,08 0,00 3.782,09 14.668,02 799,00 2.618,10 30/06/2016
864 632600 ERICA LEONOR MARTINS OFICIAL DO MP ATIVO RESENDE COSTA - COMARCA; RESENDE COSTA-PJ-UNPJ 3.285,74 0,00 0,00 1.642,87 1.095,25 0,00 6.023,86 444,78 268,27 0,00 713,05 5.310,81 799,00 757,65 30/06/2016
865 524800 ERICA MACHADO DA COSTA E SOUZA ANALISTA DO MP ATIVO BELO HORIZONTE - COMARCA; PROC JUST RECURSOS ESP E EXTRAORD CRIMINAIS 7.560,72 453,64 0,00 4.007,18 0,00 0,00 12.021,54 1.075,18 1.092,15 0,00 2.167,33 9.854,21 799,00 1.760,00 30/06/2016
866 249500 ERICA RODRIGUES ANDRADE OFICIAL DO MP ATIVO SÃO FRANCISCO - COMARCA; SAO FRANCISCO-PJ-02PJ 6.134,81 1.226,96 0,00 3.680,89 0,00 0,00 11.042,66 1.045,25 993,94 0,00 2.039,19 9.003,47 1.738,61 2.140,44 30/06/2016
867 260800 ERICA VIANA GIARDINI DE OLIVEIRA OFICIAL DO MP ATIVO BELO HORIZONTE - COMARCA; EXTINTA - DIVISÃO DE COMPRAS 8.061,11 1.612,22 0,00 4.836,67 0,00 0,00 14.510,00 1.294,17 1.498,19 0,00 2.792,36 11.717,64 799,00 2.092,10 30/06/2016
868 299800 ERICH DOUGLAS RIBEIRO GARCIA ANALISTA DO MP ATIVO BELO HORIZONTE - COMARCA; CENTRAL DE APOIO TECNICO-SETOR CONTABIL 12.225,81 2.445,16 0,00 7.335,49 0,00 0,00 22.006,46 2.260,81 3.379,49 0,00 5.640,30 16.366,16 1.206,08 5.882,01 30/06/2016
869 365000 ERICK EDUARDO JOSE DA SILVA OFICIAL DO MP ATIVO SANTOS DUMONT - COMARCA; SANTOS DUMONT-PJ-02PJ 5.226,73 522,67 0,00 2.874,70 0,00 0,00 8.624,10 783,03 537,81 0,00 1.320,84 7.303,26 799,00 1.368,90 30/06/2016
870 123500 ERICO SEGISMUNDO LIMA VILASBOAS ANALISTA DO MP ATIVO MONTES CLAROS - COMARCA; MONTES CLAROS-PJ-SECRETARIA 16.063,25 14.456,93 0,00 15.235,56 0,00 3.351,82 49.107,56 4.109,07 7.562,03 49,07 11.720,17 37.387,39 1.732,99 8.398,70 30/06/2016
871 227400 ERIKA DE LAET GOULART BOECHAT ASSESSOR/OFICIAL ATIVO BELO HORIZONTE - COMARCA; ASSESSORIA ESPECIAL DO PGJ 9.461,59 4.989,55 0,00 7.225,57 0,00 0,00 21.676,71 1.745,09 2.912,06 0,00 4.657,15 17.019,56 1.626,66 4.076,41 30/06/2016
872 451800 ERIKA DELLARETTI GUIMARAES OFICIAL DO MP ATIVO LAVRAS - COMARCA; LAVRAS-PJ-SECRETARIA 4.598,03 459,80 0,00 0,00 0,00 0,00 5.057,83 684,67 334,04 0,00 1.018,71 4.039,12 799,00 1.244,03 30/06/2016
873 285100 ERIKA FERREIRA DA SILVA OFICIAL DO MP ATIVO JUIZ DE FORA - COMARCA; JUIZ DE FORA-PJ-14PJ 8.061,11 1.612,22 0,00 4.836,67 0,00 0,00 14.510,00 1.489,98 1.932,16 0,00 3.422,14 11.087,86 799,00 3.872,18 30/06/2016
874 420100 ERIKA JEANINE VERSIANI DE CASTRO ANALISTA DO MP ATIVO MONTES CLAROS - COMARCA; COORD REG PJ DEF EDUC DIR CRIANCA ADOL NORTE 9.461,59 946,16 0,00 5.203,88 0,00 0,00 15.611,63 1.482,70 1.838,55 0,00 3.321,25 12.290,38 800,11 3.071,31 30/06/2016
875 606900 ERIKA MARIA BARBOSA ANALISTA DO MP ATIVO BELO HORIZONTE - COMARCA; CAO-SAUDE 5.572,67 0,00 0,00 2.786,34 0,00 0,00 8.359,01 745,59 442,41 0,00 1.188,00 7.171,01 1.431,00 1.285,60 30/06/2016
876 491000 ERIKA ROCHA BARRETO ASSESSOR/ANALISTA ATIVO BELO HORIZONTE - COMARCA; DIRETORIA DE SISTEMAS DE INFORMACAO 0,00 532,46 8.874,34 4.703,40 0,00 0,00 14.110,20 1.088,22 1.475,08 0,00 2.563,30 11.546,90 799,00 1.878,56 30/06/2016
877 283201 ERIKA STEHLING ANALISTA DO MP ATIVO BELO HORIZONTE - COMARCA; CENTRAL DE APOIO TECNICO-SETOR DE ENGENHARIA 7.560,72 453,64 0,00 3.072,45 0,00 0,00 11.086,81 1.081,70 987,88 0,00 2.069,58 9.017,23 799,00 2.239,75 30/06/2016
878 383500 ERIKO RODRIGUES VELOSO ANALISTA DO MP ATIVO BOCAIÚVA - COMARCA; BOCAIUVA-PJ-01PJ 7.806,95 780,70 0,00 4.293,83 0,00 0,00 12.881,48 1.162,44 1.232,47 0,00 2.394,91 10.486,57 799,00 2.112,21 30/06/2016
879 254000 ERLANDIA DA SILVA MENDES OFICIAL DO MP ATIVO IPATINGA - COMARCA; IPATINGA-PJ-03PJ 8.874,34 2.662,30 0,00 5.768,32 0,00 0,00 17.304,96 2.747,54 3.962,74 0,00 6.710,28 10.594,68 799,00 15.291,36 30/06/2016
880 208600 ERNANE JOSE DA COSTA ANALISTA DO MP ATIVO BELO HORIZONTE - COMARCA; CENTRAL DE APOIO TECNICO-SETOR MEDICO 16.063,25 11.244,28 0,00 9.244,77 0,00 0,00 36.552,30 3.691,78 5.814,16 0,00 9.505,94 27.046,36 799,00 6.650,27 30/06/2016
881 260600 ERNANI CALDEIRA DE ANDRADE ANALISTA DO MP ATIVO BELO HORIZONTE - COMARCA; CENTRAL DE APOIO TECNICO-SETOR CONTABIL 13.228,78 2.645,76 0,00 7.937,27 0,00 0,00 23.811,81 2.130,45 3.015,93 0,00 5.146,38 18.665,43 799,00 3.493,15 30/06/2016
882 348500 ERNILANDIA OLIVEIRA DIAS OFICIAL DO MP ATIVO MONTES CLAROS - COMARCA; MONTES CLAROS-PJ-SECRETARIA 6.334,59 1.266,92 0,00 3.800,76 0,00 0,00 11.402,27 1.001,92 991,11 0,00 1.993,03 9.409,24 799,00 1.607,47 30/06/2016
883 199300 ERTON PORTINARI DE ANDRADE OFICIAL DO MP ATIVO SETE LAGOAS - COMARCA; SETE LAGOAS-PJ-01PJ 10.416,20 3.124,86 0,00 6.770,53 0,00 0,00 20.311,59 1.811,67 2.340,54 0,00 4.152,21 16.159,38 799,00 2.928,60 30/06/2016
884 430400 ESDRAS SOARES VILAS BOAS RIBEIRO OFICIAL DO MP ATIVO BELO HORIZONTE - COMARCA; BH-17PJ PATRIMONIO PUBLICO-SECRETARIA 5.754,07 575,41 0,00 3.164,74 0,00 0,00 9.494,22 901,71 777,46 0,00 1.679,17 7.815,05 799,00 1.867,80 30/06/2016
885 618800 ESLY DE CARLA AYALLA BARBOSA MENDES OFICIAL DO MP ATIVO ITABIRITO - COMARCA; ITABIRITO-PJ-01PJ 3.285,74 0,00 0,00 1.642,87 1.095,25 0,00 6.023,86 446,95 268,27 0,00 715,22 5.308,64 799,00 829,53 30/06/2016
886 537000 ESTANISLAU CORREIA ALMEIDA JUNIOR OFICIAL DO MP ATIVO UBERLÂNDIA - COMARCA; UBERLANDIA-PJ-25PJ 3.735,01 224,10 0,00 1.979,56 0,00 0,00 5.938,67 530,25 173,74 0,00 703,99 5.234,68 799,00 861,25 30/06/2016
887 326900 ESTER ALICE PIMENTA OFICIAL DO MP ATIVO BELO HORIZONTE - COMARCA; COORD DE INCLUSAO E MOBILIZACAO SOCIAIS 6.973,61 1.394,72 0,00 4.184,17 0,00 0,00 12.552,50 1.186,70 1.231,99 0,00 2.418,69 10.133,81 811,58 2.419,53 30/06/2016
888 503700 ESTHER GONCALVES FONSECA ANALISTA DO MP ATIVO BELO HORIZONTE - COMARCA; DIRETORIA DE PUBLICIDADE INSTITUCIONAL 6.334,59 380,08 0,00 3.357,34 0,00 0,00 10.072,01 898,36 774,06 0,00 1.672,42 8.399,59 799,00 1.543,53 30/06/2016
889 475600 ETIENE DE FATIMA OLIVEIRA PEREIRA ANALISTA DO MP ATIVO PATROCÍNIO - COMARCA; PATROCINIO-PJ-04PJ 7.806,95 780,70 0,00 4.293,83 2.862,55 0,00 15.744,03 1.154,54 1.915,39 0,00 3.069,93 12.674,10 1.431,00 1.908,20 30/06/2016
890 428800 EUGENIA RODRIGUES TRAJANO BORGES ANALISTA DO MP ATIVO UBERABA - COMARCA; UBERABA-PJ-08PJ 9.163,30 916,33 0,00 5.039,82 0,00 0,00 15.119,45 1.435,96 1.753,22 0,00 3.189,18 11.930,27 984,94 2.993,27 30/06/2016
891 272700 EUGENIO DE BARCELOS FILHO OFICIAL DO MP ATIVO FRUTAL - COMARCA; FRUTAL-PJ-02PJ 6.334,59 1.266,92 0,00 2.913,18 0,00 0,00 10.514,69 1.017,02 938,97 0,00 1.955,99 8.558,70 799,00 1.644,00 30/06/2016
892 254100 EULALIA ALVES MIRANDA LUCAS OFICIAL DO MP ATIVO ALMENARA - COMARCA; ALMENARA-PJ-SECRETARIA 8.061,11 2.845,78 0,00 5.453,45 0,00 0,00 16.360,34 1.489,98 2.167,11 0,00 3.657,09 12.703,25 1.048,64 4.165,88 30/06/2016
893 615500 EUNICE BARBOSA PINTO OFICIAL DO MP ATIVO RIBEIRÃO DAS NEVES - COMARCA; RIBEIRAO DAS NEVES-PJ-SEC CRIMINAL 3.617,27 0,00 0,00 1.808,64 0,00 0,00 5.425,91 492,65 128,11 0,00 620,76 4.805,15 799,00 915,53 30/06/2016
894 641200 EUNICE ELVIRA DA SILVA MATOS OFICIAL DO MP ATIVO BELO HORIZONTE - COMARCA; BH-14PJ DEFESA CONSUMIDOR-SECRETARIA 3.182,15 0,00 0,00 1.591,08 0,00 0,00 4.773,23 393,38 70,02 0,00 463,40 4.309,83 799,00 393,98 30/06/2016
895 557900 EURIPEDES JUSUE PERES OFICIAL DO MP ATIVO IBIÁ - COMARCA; IBIA-PJ-UNPJ 3.617,27 0,00 0,00 0,00 0,00 0,00 3.617,27 483,95 128,11 0,00 612,06 3.005,21 799,00 831,50 30/06/2016
896 225800 EURO CESAR VIEIRA BARBOSA ANALISTA DO MP ATIVO BELO HORIZONTE - COMARCA; BH-17PJ PATRIMONIO PUBLICO 14.297,05 4.289,12 0,00 9.293,09 0,00 0,00 27.879,26 2.512,73 3.575,33 0,00 6.088,06 21.791,20 1.207,49 4.256,70 30/06/2016
897 199400 EUSTAQUIO ADAILTON LIMA E SILVA OFICIAL DO MP ATIVO MANGA - COMARCA; MANGA-PJ-01PJ 10.755,28 5.377,64 0,00 5.743,84 5.377,64 0,00 27.254,40 2.303,26 4.598,45 0,00 6.901,71 20.352,69 799,00 5.053,56 30/06/2016
898 249000 EUSTAQUIO GOMES DE OLIVEIRA OFICIAL DO MP ATIVO BELO HORIZONTE - COMARCA; CAO-TS-CONTROLADORIA E APOIO AS ENTIDADES  8.061,11 3.224,44 0,00 5.642,78 0,00 1.241,41 18.169,74 1.509,91 2.234,17 0,00 3.744,08 14.425,66 4.861,80 3.081,72 30/06/2016
899 548000 EVA VILMA LEAO DOS REIS JULIO OFICIAL DO MP ATIVO BELO HORIZONTE - COMARCA; BH-07PJ 01 TRIBUNAL JURI-SECRETARIA 4.111,87 1.233,56 0,00 2.672,72 0,00 0,00 8.018,15 752,53 521,45 0,00 1.273,98 6.744,17 799,00 1.495,79 30/06/2016
900 517000 EVALDO SENA COSTA FILHO ANALISTA DO MP ATIVO CONTAGEM - COMARCA; CONTAGEM-PJ-15PJ 7.560,72 2.268,22 0,00 4.914,47 0,00 0,00 14.743,41 1.300,38 1.379,86 0,00 2.680,24 12.063,17 799,00 2.125,33 30/06/2016
901 217500 EVELANGE LEAO RABELO ASSESSOR ATIVO BELO HORIZONTE - COMARCA; COORD EST DEF DIR FAMILIA PESSOA DEFICI IDOSO 0,00 787,70 2.625,65 1.706,68 0,00 0,00 5.120,03 552,76 194,14 0,00 746,90 4.373,13 891,00 817,30 30/06/2016
902 540400 EVIE SARAMELLA DE RESENDE OFICIAL DO MP ATIVO BARBACENA - COMARCA; BARBACENA-PJ-05PJ 4.111,87 246,71 0,00 0,00 0,00 0,00 4.358,58 574,19 236,68 0,00 810,87 3.547,71 799,00 866,51 30/06/2016
903 469000 EWERTON CARDOSO DE SA RODRIGUES ANALISTA DO MP ATIVO CAMPO BELO - COMARCA; CAMPO BELO-PJ-01PJ 7.806,95 780,70 0,00 4.293,83 0,00 0,00 12.881,48 1.154,54 1.128,19 0,00 2.282,73 10.598,75 2.461,52 2.129,87 30/06/2016
904 368900 FABIANA BARBOSA SIQUEIRA OFICIAL DO MP ATIVO BELO HORIZONTE - COMARCA; CAO-ORDEM ECONOMICA E TRIBUTARIA-SECRETARIA 6.753,72 675,37 0,00 3.714,55 0,00 0,00 11.143,64 1.064,24 1.011,43 0,00 2.075,67 9.067,97 1.195,88 2.356,18 30/06/2016
905 273800 FABIANA CARNEIRO AMORIM COORDENADOR/OFICIAL ATIVO BELO HORIZONTE - COMARCA; BH-23PJ CIVEL-COORD ADM CIVEL 0,00 2.017,54 10.087,71 6.052,63 0,00 0,00 18.157,88 1.249,72 2.071,92 0,00 3.321,64 14.836,24 799,00 2.882,20 30/06/2016
906 519300 FABIANA DE OLIVEIRA LOUREIRO ANALISTA DO MP ATIVO BELO HORIZONTE - COMARCA; BH-09PJ AUDITORIA MILITAR 7.560,72 453,64 0,00 4.007,18 0,00 0,00 12.021,54 1.075,18 1.092,15 0,00 2.167,33 9.854,21 1.431,00 1.877,33 30/06/2016
907 363400 FABIANA DOURADO DUPIN VIEGAS ANALISTA DO MP ATIVO BELO HORIZONTE - COMARCA; GABINETE DE PROCURADOR DE JUSTIÇA - SALA 705 10.755,28 1.075,53 0,00 5.915,41 0,00 0,00 17.746,22 1.601,49 1.974,09 0,00 3.575,58 14.170,64 1.431,00 2.909,92 30/06/2016
908 410800 FABIANA DUARTE QUITITE ANALISTA DO MP ATIVO BELO HORIZONTE - COMARCA; EXTINTA-MEIO AMB PATRIM HIST CULTURAL-15PJGAB 9.461,59 946,16 0,00 5.203,88 0,00 0,00 15.611,63 1.548,96 1.973,68 0,00 3.522,64 12.088,99 800,11 3.673,60 30/06/2016
909 419500 FABIANA EULALIA DOS SANTOS ANALISTA DO MP ATIVO SÃO JOÃO DEL REI - COMARCA; SAO JOAO DEL REI-PJ-01PJ 9.163,30 916,33 0,00 3.686,62 0,00 0,00 13.766,25 1.364,41 1.597,63 0,00 2.962,04 10.804,21 799,00 2.324,25 30/06/2016
910 376300 FABIANA MATTOSO LEMOS ANALISTA DO MP ATIVO BELO HORIZONTE - COMARCA; COORD-GERAL DAS PJS POR BACIA HIDRO. DE MG 10.416,20 1.041,62 0,00 5.728,91 0,00 0,00 17.186,73 1.765,70 2.448,95 0,00 4.214,65 12.972,08 799,00 4.593,83 30/06/2016
911 331500 FABIANA PACHECO OFICIAL DO MP ATIVO GUAXUPÉ - COMARCA; GUAXUPE-PJ-01PJ 6.753,72 1.350,74 0,00 4.052,23 0,00 0,00 12.156,69 1.097,05 1.009,93 0,00 2.106,98 10.049,71 799,00 1.868,76 30/06/2016
912 510700 FABIANA PEREIRA SANTOS BORGES ANALISTA DO MP ATIVO BELO HORIZONTE - COMARCA; DIRETORIA DE SISTEMAS DE INFORMACAO 7.560,72 453,64 0,00 4.007,18 2.671,45 0,00 14.692,99 1.075,18 1.774,67 0,00 2.849,85 11.843,14 1.431,00 1.877,33 30/06/2016
913 181700 FABIANA SOUZA FERREIRA OFICIAL DO MP ATIVO BELO HORIZONTE - COMARCA; BH-19PJ SAUDE-SECRETARIA 150PJ 5.226,73 1.568,02 0,00 3.397,38 0,00 0,00 10.192,13 919,77 689,38 0,00 1.609,15 8.582,98 1.431,00 1.566,80 30/06/2016
914 272900 FABIANA STOCKLER LEITE OFICIAL DO MP ATIVO LAJINHA - COMARCA; LAJINHA-PJ-SECRETARIA 7.322,31 2.928,92 0,00 5.125,62 0,00 0,00 15.376,85 1.391,69 1.535,35 0,00 2.927,04 12.449,81 2.251,10 2.635,45 30/06/2016
915 225500 FABIANE DE FATIMA PORTELLA ANALISTA DO MP ATIVO BELO HORIZONTE - COMARCA; SERVICO MEDICO-DEPTO PERIC MEDICA SAUDE OCUP 13.752,51 4.125,75 0,00 8.939,13 0,00 0,00 26.817,39 2.382,36 3.506,34 0,00 5.888,70 20.928,69 1.112,08 3.779,65 30/06/2016
916 433800 FABIANE DINIZ MATTOS ANALISTA DO MP ATIVO BELO HORIZONTE - COMARCA; BH-23PJ INFRACIONAL-ASS JURIDICA 9.163,30 916,33 0,00 5.039,82 0,00 0,00 15.119,45 1.426,69 1.724,51 0,00 3.151,20 11.968,25 1.077,91 3.045,42 30/06/2016
917 455000 FABIANO CARVALHO DA SILVA ANALISTA DO MP ATIVO LAVRAS - COMARCA; COORD REG DO MA DA BACIA DO RIO GRANDE 7.806,95 780,70 0,00 4.293,83 0,00 0,00 12.881,48 1.166,54 1.232,47 0,00 2.399,01 10.482,47 799,00 2.017,40 30/06/2016
918 498800 FABIANO FURTADO PESSOA COELHO ANALISTA DO MP ATIVO BELO HORIZONTE - COMARCA; DIRETORIA DE REDES E BANCOS DE DADOS 7.560,72 453,64 0,00 4.007,18 0,00 0,00 12.021,54 1.075,18 1.040,02 0,00 2.115,20 9.906,34 1.431,00 1.877,33 30/06/2016
919 394600 FABIANO PALHARES SILVA ANALISTA DO MP ATIVO BELO HORIZONTE - COMARCA; CENTRAL DE APOIO TECN-SETOR DE MEIO AMBIENTE 9.461,59 946,16 0,00 5.203,88 0,00 0,00 15.611,63 1.408,85 1.625,80 0,00 3.034,65 12.576,98 1.910,98 2.399,95 30/06/2016
920 444400 FABIANO SARAIVA MEDEIROS ANALISTA DO MP ATIVO BETIM - COMARCA; BETIM-PJ-11PJ 8.874,34 887,43 0,00 4.880,89 0,00 0,00 14.642,66 1.664,89 1.895,86 0,00 3.560,75 11.081,91 1.431,00 5.784,23 30/06/2016
921 408700 FABIANO SOARES PORTILHO ANALISTA DO MP ATIVO VIÇOSA - COMARCA; VICOSA-PJ-02PJ 9.163,30 916,33 0,00 5.039,82 0,00 0,00 15.119,45 1.364,41 1.597,63 0,00 2.962,04 12.157,41 984,94 2.324,25 30/06/2016
922 442600 FABIO CARVALHO VIEIRA ANALISTA DO MP ATIVO MONTES CLAROS - COMARCA; MONTES CLAROS-PJ-06PJ 7.200,69 720,07 0,00 3.960,38 0,00 0,00 11.881,14 1.059,73 1.069,25 0,00 2.128,98 9.752,16 915,50 1.713,05 30/06/2016
923 123700 FABIO JOSE ANDRADE NOGUEIRA OFICIAL DO MP ATIVO FORMIGA - COMARCA; FORMIGA-PJ-SECRETARIA 8.594,48 6.875,58 0,00 7.735,03 0,00 0,00 23.205,09 2.106,91 1.362,68 0,00 3.469,59 19.735,50 799,00 3.928,96 30/06/2016
924 240101 FABIO JUNQUEIRA DE ASSIS FONSECA OFICIAL DO MP ATIVO BELO HORIZONTE - COMARCA; DIRET DE DESENV DE RECURSOS HUMANOS-DDRH 5.754,07 1.150,81 0,00 3.452,44 0,00 0,00 10.357,32 973,43 961,44 0,00 1.934,87 8.422,45 799,00 1.944,31 30/06/2016
925 271500 FABIO LUIZ VIEIRA OFICIAL DO MP ATIVO SANTA VITÓRIA - COMARCA; SANTA VITORIA-PJ-UNPJ 7.806,95 1.561,39 0,00 4.684,17 0,00 0,00 14.052,51 1.336,82 1.463,90 0,00 2.800,72 11.251,79 910,76 2.784,74 30/06/2016
926 213100 FABIO PRATES GONCALVES ASSESSOR ATIVO BELO HORIZONTE - COMARCA; DIRETORIA DE RELACOES PUBLICAS E CERIMONIAL 0,00 2.662,30 8.874,34 5.768,32 0,00 0,00 17.304,96 570,88 62,30 0,00 633,18 16.671,78 524,44 1.063,06 30/06/2016
927 436700 FABIO SANTIAGO DE CARVALHO OFICIAL DO MP ATIVO POÇO FUNDO - COMARCA; POCO FUNDO-PJ-UNPJ 5.754,07 575,41 0,00 3.164,74 0,00 0,00 9.494,22 856,79 679,78 0,00 1.536,57 7.957,65 799,00 1.459,50 30/06/2016
928 208400 FABIOLA DE SOUSA CARDOSO ASSESSOR/ANALISTA ATIVO BELO HORIZONTE - COMARCA; ASSESS TECNICA DA CORREGEDORIA-GERAL DO MP 16.063,25 6.970,05 0,00 11.516,65 0,00 0,00 34.549,95 2.823,15 4.833,11 0,00 7.656,26 26.893,69 1.199,77 5.294,70 30/06/2016
929 392200 FABIOLA LEROY COSTA ANALISTA DO MP ATIVO ESMERALDAS - COMARCA; ESMERALDAS-PJ-01PJ 8.594,48 859,45 0,00 0,00 0,00 0,00 9.453,93 1.272,13 1.444,49 0,00 2.716,62 6.737,31 799,00 2.252,00 30/06/2016
930 409000 FABIOLA MONTEIRO DE CARVALHO CASTRO ANALISTA DO MP ATIVO BOM SUCESSO - COMARCA; BOM SUCESSO-PJ-UNPJ 8.594,48 859,45 0,00 4.726,97 0,00 0,00 14.180,90 1.287,53 1.444,49 0,00 2.732,02 11.448,88 799,00 2.250,95 30/06/2016
931 227900 FABIOLA PIMENTA DE CARVALHO OFICIAL DO MP ATIVO MONTES CLAROS - COMARCA; COORD REG BACIA RIOS VERDE GRANDE E PARDO 6.753,72 2.026,12 0,00 4.389,92 0,00 0,00 13.169,76 1.245,62 1.392,67 0,00 2.638,29 10.531,47 799,00 2.544,12 30/06/2016
932 525800 FABRICIA ALVES DANTAS OFICIAL DO MP ATIVO MONTES CLAROS - COMARCA; MONTES CLAROS-PJ-01PJ 4.902,32 294,14 0,00 2.598,23 0,00 0,00 7.794,69 695,26 319,15 0,00 1.014,41 6.780,28 808,18 1.123,85 30/06/2016
933 263400 FABRICIA PINTO TEIXEIRA SANTIAGO OFICIAL DO MP ATIVO BELO HORIZONTE - COMARCA; CAO-TS-TERCEIRO SETOR-SECRETARIA 8.874,34 1.774,87 0,00 5.324,61 0,00 0,00 15.973,82 2.260,30 3.155,31 0,00 5.415,61 10.558,21 799,00 11.339,86 30/06/2016
934 420800 FABRICIO BERNARDES DE OLIVEIRA OFICIAL DO MP ATIVO ITURAMA - COMARCA; ITURAMA-PJ-02PJ 5.754,07 575,41 0,00 3.164,74 0,00 0,00 9.494,22 856,79 627,64 0,00 1.484,43 8.009,79 845,22 1.459,50 30/06/2016
935 474000 FABRICIO DE FREITAS SALES ANALISTA DO MP ATIVO MONTES CLAROS - COMARCA; COORD REG PATRI PUB ORD TRIB-NORTE MINAS 7.806,95 780,70 0,00 4.293,83 0,00 0,00 12.881,48 1.154,54 1.232,47 0,00 2.387,01 10.494,47 1.431,00 1.908,20 30/06/2016
936 510100 FABRICIO FURTADO ASSIS DO CARMO ANALISTA DO MP ATIVO BELO HORIZONTE - COMARCA; SERVICO MEDICO-DEPTO PERIC MEDICA SAUDE OCUP 7.560,72 1.276,01 0,00 4.418,37 0,00 0,00 13.255,10 1.125,89 1.470,62 0,00 2.596,51 10.658,59 799,00 2.416,89 30/06/2016
937 519600 FABRICIO GONTIJO SALVATI ANALISTA DO MP ATIVO JUIZ DE FORA - COMARCA; JUIZ DE FORA-CAO ESPECIALIZADO-SECRETARIA 7.560,72 453,64 0,00 3.020,31 0,00 0,00 11.034,67 1.075,18 1.092,15 0,00 2.167,33 8.867,34 799,00 1.760,00 30/06/2016
938 637400 FABRICIO HENRIQUE DA SILVA PASSOS ANALISTA DO MP ATIVO BELO HORIZONTE - COMARCA; DIRETORIA DE PUBLICIDADE INSTITUCIONAL 5.572,67 0,00 0,00 2.786,34 0,00 0,00 8.359,01 754,34 494,55 0,00 1.248,89 7.110,12 799,00 1.285,00 30/06/2016
939 428200 FABRICIO ORZIL VIANA ANALISTA DO MP ATIVO SANTA LUZIA - COMARCA; SANTA LUZIA-PJ-04PJ 8.061,11 806,11 0,00 3.295,46 0,00 0,00 12.162,68 1.200,29 1.300,89 0,00 2.501,18 9.661,50 799,00 2.181,01 30/06/2016
940 455600 FABRICIO PAIVA DA ROCHA ANALISTA DO MP ATIVO SÃO JOÃO DEL REI - COMARCA; SAO JOAO DEL REI-PJ-06PJ 7.806,95 780,70 0,00 4.293,83 0,00 0,00 12.881,48 1.154,54 1.180,33 0,00 2.334,87 10.546,61 799,00 2.035,41 30/06/2016
941 511500 FABRICIO RENE CARDOSO DE PADUA ANALISTA DO MP ATIVO SÃO SEBASTIÃO DO PARAÍSO - COMARCA; SAO SEBASTIAO DO PARAISO-PJ-03PJ 7.560,72 453,64 0,00 4.007,18 0,00 0,00 12.021,54 1.075,18 1.092,15 0,00 2.167,33 9.854,21 799,00 1.760,00 30/06/2016
942 496100 FABRICIO RESENDE GONCALVES OFICIAL DO MP ATIVO ENTRE-RIOS DE MINAS - COMARCA; ENTRE RIOS DE MINAS-PJ-UNPJ 4.902,32 1.527,70 0,00 0,00 0,00 0,00 6.430,02 695,26 741,70 0,00 1.436,96 4.993,06 1.452,07 1.417,55 30/06/2016
943 514900 FADUA MARIA DRUMOND CHEQUER FIGUEIREDO ANALISTA DO MP ATIVO ALMENARA - COMARCA; COORD REG INCLUSAO MOBILIZ VALE JEQUITINHONHA 7.560,72 453,64 0,00 3.072,45 0,00 0,00 11.086,81 1.075,18 987,88 0,00 2.063,06 9.023,75 2.063,00 1.877,33 30/06/2016
944 282500 FANNY FERREIRA MELO FAVERO DE FRAVET OFICIAL DO MP ATIVO ARAXÁ - COMARCA; ARAXA-PJ-03PJ 6.334,59 1.266,92 0,00 3.800,76 0,00 0,00 11.402,27 1.028,97 991,11 0,00 2.020,08 9.382,19 1.431,00 1.752,80 30/06/2016
945 540100 FATIMA CRISTINA POVOA DA COSTA OFICIAL DO MP ATIVO BELO HORIZONTE - COMARCA; BH-18PJ VIOLENCIA DOMESTICA-SECRETARIA 4.111,87 1.233,56 0,00 2.672,72 0,00 0,00 8.018,15 713,15 438,93 0,00 1.152,08 6.866,07 818,67 1.137,80 30/06/2016
946 382800 FATIMA DE OLIVEIRA COELHO E SILVA OFICIAL DO MP ATIVO BELO HORIZONTE - COMARCA; DIRETORIA DE ADMINISTRACAO FINANCEIRA 5.226,73 1.045,35 0,00 3.136,04 0,00 0,00 9.408,12 966,51 894,93 0,00 1.861,44 7.546,68 1.431,00 2.514,52 30/06/2016
947 398601 FELIPE ANTONIO HORTA DE PAULA ANALISTA DO MP ATIVO BELO HORIZONTE - COMARCA; PROC. JUSTICA DIR. DIFUSOS E COLETIVOS-SEC 6.334,59 380,08 0,00 3.357,34 0,00 0,00 10.072,01 948,80 897,14 0,00 1.845,94 8.226,07 799,00 1.990,49 30/06/2016
948 430900 FELIPE BOY VIEIRA ANALISTA DO MP ATIVO BELO HORIZONTE - COMARCA; CAO-DH APOIO COMUNITARIO-SEC ADM 8.594,48 859,45 0,00 0,00 0,00 0,00 9.453,93 1.287,53 1.444,49 0,00 2.732,02 6.721,91 799,00 2.250,95 30/06/2016
949 631700 FELIPE DE MORAIS SIMOES COELHO ANALISTA DO MP ATIVO BELO HORIZONTE - COMARCA; BH-18PJ VIOLENCIA DOMESTICA 5.061,97 0,00 0,00 2.530,99 0,00 0,00 7.592,96 685,22 377,53 0,00 1.062,75 6.530,21 799,00 1.167,20 30/06/2016
950 549100 FELIPE FERNANDES ALVIM ANALISTA DO MP ATIVO LAJINHA - COMARCA; LAJINHA-PJ-UNPJ 6.334,59 380,08 0,00 3.357,34 2.238,22 0,00 12.310,23 948,80 1.493,23 0,00 2.442,03 9.868,20 1.091,13 1.910,97 30/06/2016
951 487300 FELIPE FERNANDES SILVEIRA ASSESSOR ATIVO BELO HORIZONTE - COMARCA; DIVISAO DE MANUTENCAO PREDIAL 0,00 0,00 2.625,65 0,00 41,68 0,00 2.667,33 445,48 98,33 0,00 543,81 2.123,52 799,00 625,15 30/06/2016
952 620100 FELIPE GOMES DE AZEVEDO OFICIAL DO MP ATIVO BELO HORIZONTE - COMARCA; BH-18PJ VIOLENCIA DOMESTICA-SECRETARIA 3.285,74 0,00 0,00 1.642,87 0,00 0,00 4.928,61 446,95 83,85 0,00 530,80 4.397,81 799,00 829,53 30/06/2016
953 601600 FELIPE RODRIGUES DE SIQUEIRA ANALISTA DO MP ATIVO BELO HORIZONTE - COMARCA; BH-02PJ FAMILIA-SECRETARIA 6.134,81 0,00 0,00 3.067,41 0,00 0,00 9.202,22 820,78 632,13 0,00 1.452,91 7.749,31 799,00 1.415,25 30/06/2016
954 628900 FELIX FERNANDO JUNIO VIEIRA ANALISTA DO MP ATIVO CAETÉ - COMARCA; CAETE-PJ-02PJ 5.572,67 0,00 0,00 2.258,63 0,00 0,00 7.831,30 741,39 442,41 0,00 1.183,80 6.647,50 799,00 1.245,01 30/06/2016
955 544500 FELLIPE LEMOS MARCONDES BUENO ANALISTA DO MP ATIVO SÃO SEBASTIÃO DO PARAÍSO - COMARCA; SAO SEBASTIAO DO PARAISO-PJ-04PJ 6.334,59 380,08 0,00 3.357,34 0,00 0,00 10.072,01 899,26 774,06 0,00 1.673,32 8.398,69 799,00 1.469,57 30/06/2016
956 612600 FERNANDA ADRIANA DE PAULA GUIDO ANALISTA DO MP ATIVO PARACATU - COMARCA; PARACATU-PJ-02PJ 6.134,81 0,00 0,00 0,00 0,00 0,00 6.134,81 820,78 632,13 0,00 1.452,91 4.681,90 799,00 1.326,80 30/06/2016
957 508400 FERNANDA AGANETTI MATTOS DE OLIVEIRA ANALISTA DO MP ATIVO BELO HORIZONTE - COMARCA; BH-19PJ SAUDE 7.560,72 453,64 0,00 4.007,18 0,00 0,00 12.021,54 1.075,18 1.092,15 0,00 2.167,33 9.854,21 799,00 1.760,00 30/06/2016
958 453600 FERNANDA ALBERNAZ RABELO ANALISTA DO MP ATIVO BELO HORIZONTE - COMARCA; GABINETE DE PROCURADOR DE JUSTIÇA - SALA 616 7.806,95 780,70 0,00 4.293,83 0,00 0,00 12.881,48 1.166,54 1.232,47 0,00 2.399,01 10.482,47 799,00 2.017,40 30/06/2016
959 255600 FERNANDA ALINA DE ALMEIDA ANDRADE OFICIAL DO MP ATIVO BELO HORIZONTE - COMARCA; NUCLEO DE INFORMACOES E INTELIGENCIA 7.322,31 1.464,46 0,00 4.393,39 0,00 0,00 13.180,16 1.330,29 1.615,21 0,00 2.945,50 10.234,66 953,37 3.310,53 30/06/2016
960 443200 FERNANDA ALMEIDA LOPES ANALISTA DO MP ATIVO CONTAGEM - COMARCA; CONTAGEM-PJ-23PJ 9.163,30 916,33 0,00 5.039,82 0,00 0,00 15.119,45 1.440,49 1.753,22 0,00 3.193,71 11.925,74 1.263,85 3.163,13 30/06/2016
961 281100 FERNANDA ANANIAS MEIRA ANALISTA DO MP ATIVO BELO HORIZONTE - COMARCA; BH-23PJ INFRACIONAL-ASS JURIDICA 12.225,81 2.445,16 0,00 7.335,49 0,00 0,00 22.006,46 2.260,81 3.625,99 0,00 5.886,80 16.119,66 799,00 6.778,34 30/06/2016
962 539000 FERNANDA BARBOSA ALVES ANALISTA DO MP ATIVO CANÁPOLIS - COMARCA; CANAPOLIS-PJ-SECRETARIA 6.334,59 380,08 0,00 3.357,34 0,00 0,00 10.072,01 899,26 774,06 0,00 1.673,32 8.398,69 799,00 1.558,03 30/06/2016
963 451200 FERNANDA BLOISE PRADO OFICIAL DO MP ATIVO BELO HORIZONTE - COMARCA; NUCLEO DE NEGOCIACAO DE CONFLITOS AMBIENTAIS 5.061,97 506,20 0,00 2.784,09 0,00 0,00 8.352,26 858,06 743,26 0,00 1.601,32 6.750,94 799,00 2.232,53 30/06/2016
964 427900 FERNANDA BRAGA CARNEIRO BICALHO ANALISTA DO MP ATIVO PEÇANHA - COMARCA; PECANHA-PJ-SECRETARIA 8.594,48 859,45 0,00 4.726,97 0,00 0,00 14.180,90 1.287,53 1.444,49 0,00 2.732,02 11.448,88 799,00 2.250,95 30/06/2016
965 507100 FERNANDA CABRINI VAZ MOTA ANALISTA DO MP ATIVO BELO HORIZONTE - COMARCA; ASSESSORIA JURIDICO-ADMINISTRATIVA 7.560,72 453,64 0,00 4.007,18 0,00 0,00 12.021,54 1.075,18 1.092,15 0,00 2.167,33 9.854,21 939,80 1.760,00 30/06/2016
966 259800 FERNANDA CALZAVARA DE SOUSA COORDENADOR/OFICIAL ATIVO BELO HORIZONTE - COMARCA; DIRET DE FORMACAO, APERFEIC. E POS-GRADUACAO 0,00 2.293,40 11.466,98 6.880,19 0,00 0,00 20.640,57 1.409,01 2.592,61 0,00 4.001,62 16.638,95 807,75 3.302,17 30/06/2016
967 550300 FERNANDA CAMARGOS CALDEIRA BRANT ANALISTA DO MP ATIVO CONTAGEM - COMARCA; CONTAGEM-PJ-10PJ 6.334,59 380,08 0,00 3.357,34 0,00 0,00 10.072,01 948,80 897,14 0,00 1.845,94 8.226,07 799,00 2.073,94 30/06/2016
968 494400 FERNANDA CAMPOS BARATA OFICIAL DO MP ATIVO JUIZ DE FORA - COMARCA; JUIZ DE FORA-PJ-08PJ 4.111,87 246,71 0,00 2.179,29 0,00 0,00 6.537,87 591,47 236,68 0,00 828,15 5.709,72 1.431,00 1.087,91 30/06/2016
969 555600 FERNANDA CAROLINE RIBEIRO ANALISTA DO MP ATIVO BELO HORIZONTE - COMARCA; EXTINTA - DIRETORIA DE CONTRATOS E CONVÊNIOS 6.134,81 368,09 0,00 3.251,45 0,00 0,00 9.754,35 916,47 812,31 0,00 1.728,78 8.025,57 799,00 1.828,74 30/06/2016
970 294500 FERNANDA COSTA FLORES OFICIAL DO MP ATIVO PARÁ DE MINAS - COMARCA; PARA DE MINAS-PJ-04PJ 8.061,11 1.612,22 0,00 4.836,67 0,00 0,00 14.510,00 1.489,98 1.880,02 0,00 3.370,00 11.140,00 799,00 3.872,18 30/06/2016
971 344500 FERNANDA CRISTINA DE SOUZA PAZ ASSESSOR ATIVO BELO HORIZONTE - COMARCA; CENTRAL DE APOIO TECN-SETOR DE MEIO AMBIENTE 0,00 0,00 4.383,93 2.191,97 1.530,90 0,00 8.106,80 570,88 715,68 0,00 1.286,56 6.820,24 1.431,00 1.043,80 30/06/2016
972 538100 FERNANDA CRISTINA DOS SANTOS ROSA MOREIRA OFICIAL DO MP ATIVO RIBEIRÃO DAS NEVES - COMARCA; RIBEIRAO DAS NEVES-PJ-09PJ 4.111,87 822,37 0,00 0,00 0,00 0,00 4.934,24 667,92 351,95 0,00 1.019,87 3.914,37 818,67 1.137,80 30/06/2016
973 337800 FERNANDA CRISTINA REIS ROLAND CLIMACO DA SILVA ASSESSOR/OFICIAL ATIVO BELO HORIZONTE - COMARCA; DIRETORIA-GERAL 0,00 1.953,92 9.769,61 5.861,77 0,00 0,00 17.585,30 1.171,15 2.093,23 0,00 3.264,38 14.320,92 1.357,27 2.977,39 30/06/2016
974 545400 FERNANDA CUNHA GUIMARAES ANALISTA DO MP ATIVO BELO HORIZONTE - COMARCA; EXTINTA - COORD DEFESA DO DIREITO DE FAMILIA 6.334,59 380,08 0,00 3.357,34 0,00 0,00 10.072,01 884,56 774,06 0,00 1.658,62 8.413,39 799,00 1.415,25 30/06/2016
975 429801 FERNANDA CUNHA PINHEIRO DA SILVA ANALISTA DO MP ATIVO BELO HORIZONTE - COMARCA; SUPERINTENDENCIA DE COMUNICACAO INTEGRADA 6.973,61 418,42 0,00 2.819,54 0,00 0,00 10.211,57 988,97 939,84 0,00 1.928,81 8.282,76 799,00 1.699,30 30/06/2016
976 408000 FERNANDA DAS NEVES RAMOS ANALISTA DO MP ATIVO BELO HORIZONTE - COMARCA; CENTRAL DE APOIO TECNICO-SETOR CONTABIL 9.163,30 916,33 0,00 5.039,82 0,00 0,00 15.119,45 1.364,41 1.597,63 0,00 2.962,04 12.157,41 799,00 2.324,25 30/06/2016
977 496000 FERNANDA DE ALMEIDA VIANA ASSESSOR/ANALISTA ATIVO BELO HORIZONTE - COMARCA; PROC JUST RECURSOS ESP E EXTRAORD CRIMINAIS 0,00 532,46 8.874,34 4.703,40 0,00 0,00 14.110,20 1.075,18 1.475,08 0,00 2.550,26 11.559,94 815,31 2.239,75 30/06/2016
978 266700 FERNANDA DE CASTRO LUCAS ASSESSOR/OFICIAL ATIVO BELO HORIZONTE - COMARCA; DIRET DE DESENV DE RECURSOS HUMANOS-DDRH 0,00 1.953,92 9.769,61 5.861,77 0,00 0,00 17.585,30 1.401,56 2.032,47 0,00 3.434,03 14.151,27 799,00 2.843,03 30/06/2016
979 433200 FERNANDA DE FIGUEIREDO NORTE ANALISTA DO MP ATIVO BELO HORIZONTE - COMARCA; ASSESS JUR DO CONS SUPERIOR DO MINISTERIO PUB 9.163,30 916,33 0,00 5.039,82 0,00 0,00 15.119,45 1.364,41 1.493,35 0,00 2.857,76 12.261,69 6.559,70 2.693,84 30/06/2016
980 419200 FERNANDA DE MIRANDA MARTINS SIMOES ANALISTA DO MP ATIVO UBERLÂNDIA - COMARCA; UBERLANDIA-PJ-19PJ 9.461,59 946,16 0,00 5.203,88 0,00 0,00 15.611,63 1.482,70 1.838,55 0,00 3.321,25 12.290,38 839,39 3.071,31 30/06/2016
981 441400 FERNANDA DE MORAIS PINTO ANALISTA DO MP ATIVO BELO HORIZONTE - COMARCA; PROC. JUSTICA DIR. DIFUSOS E COLETIVOS-SEC 8.874,34 887,43 0,00 4.880,89 0,00 0,00 14.642,66 1.569,59 2.000,13 0,00 3.569,72 11.072,94 799,00 5.054,24 30/06/2016
982 432200 FERNANDA DE MOURA GUIMARAES ANALISTA DO MP ATIVO BELO HORIZONTE - COMARCA; ASSESS TECNICO-JUR JUNTO AS PROC. DE JUST 9.163,30 916,33 0,00 5.039,82 0,00 0,00 15.119,45 1.440,49 1.782,36 0,00 3.222,85 11.896,60 1.431,00 3.121,84 30/06/2016
983 461800 FERNANDA DE OLIVEIRA SANTOS ANALISTA DO MP ATIVO JUIZ DE FORA - COMARCA; JUIZ DE FORA-PJ-21PJ 7.806,95 780,70 0,00 4.293,83 0,00 0,00 12.881,48 1.154,54 1.232,47 0,00 2.387,01 10.494,47 1.443,88 1.908,20 30/06/2016
984 432500 FERNANDA DE PAULA ABRANTES ANALISTA DO MP ATIVO BELO HORIZONTE - COMARCA; PROC JUST RECURSOS ESP E EXTRAORD CRIMINAIS 8.874,34 887,43 0,00 4.880,89 0,00 0,00 14.642,66 1.587,75 2.000,13 0,00 3.587,88 11.054,78 2.496,33 5.238,52 30/06/2016
985 431600 FERNANDA DIAS BARBOSA PEREIRA ANALISTA DO MP ATIVO OURO BRANCO - COMARCA; OURO BRANCO-PJ-UNPJ 9.163,30 916,33 0,00 0,00 0,00 0,00 10.079,63 1.440,49 1.648,95 0,00 3.089,44 6.990,19 1.457,48 3.015,89 30/06/2016
986 162200 FERNANDA FERNANDES MONTEIRO ASSESSOR ATIVO BELO HORIZONTE - COMARCA; CAO-DH APOIO COMUNITARIO-SEC ADM 0,00 1.315,18 4.383,93 2.849,56 0,00 0,00 8.548,67 570,88 708,49 0,00 1.279,37 7.269,30 1.431,00 1.356,95 30/06/2016
987 512800 FERNANDA FERREIRA BARBOSA MOREIRA ANALISTA DO MP ATIVO IPATINGA - COMARCA; IPATINGA-PJ-05PJ 7.560,72 453,64 0,00 4.007,18 0,00 0,00 12.021,54 1.057,43 1.092,15 0,00 2.149,58 9.871,96 1.431,00 1.705,33 30/06/2016
988 329200 FERNANDA GABRIEL GUZELLA OFICIAL DO MP ATIVO BELO HORIZONTE - COMARCA; DIRET DE PLANOS PROJETOS E PROGRAMAS INST 7.200,69 1.440,14 0,00 4.320,42 0,00 0,00 12.961,25 1.233,65 1.378,88 0,00 2.612,53 10.348,72 799,00 2.903,71 30/06/2016
989 324200 FERNANDA GEORGIA NEVES ZAHAN OFICIAL DO MP ATIVO MANHUAÇU - COMARCA; MANHUACU-PJ-03PJ 6.134,81 4.294,36 0,00 5.214,59 0,00 0,00 15.643,76 1.366,16 1.683,18 0,00 3.049,34 12.594,42 799,00 1.990,20 30/06/2016
990 548200 FERNANDA GONCALVES DE CARVALHO ZUZA OFICIAL DO MP ATIVO TUPACIGUARA - COMARCA; TUPACIGUARA-PJ-UNPJ 3.735,01 224,10 0,00 1.674,94 0,00 0,00 5.634,05 560,56 207,06 0,00 767,62 4.866,43 867,90 1.142,11 30/06/2016
991 355400 FERNANDA HELENA BASQUES OFICIAL DO MP ATIVO SABARÁ - COMARCA; SABARA-PJ-01PJ 6.753,72 1.350,74 0,00 4.052,23 0,00 0,00 12.156,69 1.206,95 1.394,16 0,00 2.601,11 9.555,58 802,45 2.867,68 30/06/2016
992 454800 FERNANDA IATAROLA BARBOSA DIAS ANALISTA DO MP ATIVO BARBACENA - COMARCA; BARBACENA-PJ-05PJ 7.806,95 780,70 0,00 4.293,83 0,00 0,00 12.881,48 1.166,54 1.180,33 0,00 2.346,87 10.534,61 955,90 2.017,40 30/06/2016
993 515500 FERNANDA LILIANE MARUGEIRO ANALISTA DO MP ATIVO VESPASIANO - COMARCA; VESPASIANO-PJ-04PJ 7.560,72 453,64 0,00 4.007,18 0,00 0,00 12.021,54 1.075,18 1.092,15 0,00 2.167,33 9.854,21 799,00 1.760,00 30/06/2016
994 392900 FERNANDA MAGALHAES SILVA COORDENADOR/ANALISTA ATIVO BELO HORIZONTE - COMARCA; DIRETORIA DE IMPRENSA 10.416,20 3.335,03 0,00 6.875,62 0,00 0,00 20.626,85 1.763,03 3.341,61 0,00 5.104,64 15.522,21 799,00 6.075,71 30/06/2016
995 409200 FERNANDA MAIA SANTIAGO ANALISTA DO MP ATIVO PIRAPORA - COMARCA; PIRAPORA-PJ-02PJ 7.322,31 732,23 0,00 4.027,27 0,00 0,00 12.081,81 1.093,45 1.101,99 0,00 2.195,44 9.886,37 799,00 2.011,63 30/06/2016
996 556500 FERNANDA OTERO COSTA ANALISTA DO MP ATIVO BELO HORIZONTE - COMARCA; ASSESS TECNICO-JUR JUNTO AS PROC. DE JUST 6.134,81 0,00 0,00 3.067,41 0,00 0,00 9.202,22 832,55 632,13 0,00 1.464,68 7.737,54 799,00 1.517,33 30/06/2016
997 615300 FERNANDA PATRICIA RIBEIRO MOTA OFICIAL DO MP ATIVO UBERABA - COMARCA; UBERABA-PJ-05PJ 3.617,27 0,00 0,00 1.808,64 0,00 0,00 5.425,91 557,44 221,01 0,00 778,45 4.647,46 799,00 1.450,31 30/06/2016
998 619800 FERNANDA PINTO PEREIRA ANALISTA DO MP ATIVO UBERLÂNDIA - COMARCA; UBERLANDIA-PJ-20PJ 5.572,67 0,00 0,00 2.786,34 0,00 0,00 8.359,01 754,34 494,55 0,00 1.248,89 7.110,12 799,00 1.370,67 30/06/2016
999 412900 FERNANDA PORTELA ROSA ANALISTA DO MP ATIVO BELO HORIZONTE - COMARCA; BH-08PJ JUIZADO ESPECIAL-SECRETARIA 9.461,59 946,16 0,00 3.792,48 0,00 0,00 14.200,23 1.568,33 1.973,68 0,00 3.542,01 10.658,22 1.266,80 3.854,82 30/06/2016
1000 274301 FERNANDA QUEIROZ PARREIRA ANALISTA DO MP ATIVO PATOS DE MINAS - COMARCA; COORD REG PJ DEF EDU DIR CRI ADO AL PAR NOROE 7.560,72 453,64 0,00 4.007,18 0,00 0,00 12.021,54 1.075,18 1.092,15 0,00 2.167,33 9.854,21 799,00 1.760,00 30/06/2016
1001 467900 FERNANDA QUEIROZ SIMOES GANNAM ANALISTA DO MP ATIVO SÃO LOURENÇO - COMARCA; SAO LOURENCO-PJ-02PJ 7.806,95 780,70 0,00 4.293,83 0,00 0,00 12.881,48 1.154,54 1.180,33 0,00 2.334,87 10.546,61 1.431,00 1.908,20 30/06/2016
1002 255500 FERNANDA SIMOES LOPES MENDES ANALISTA DO MP ATIVO BELO HORIZONTE - COMARCA; BH-17PJ PATRIMONIO PUBLICO-SECRETARIA 12.623,91 2.524,78 0,00 7.574,35 0,00 0,00 22.723,04 2.050,61 2.734,01 0,00 4.784,62 17.938,42 1.431,00 3.493,15 30/06/2016
1003 481700 FERNANDA VIANA FROES DA SILVA OFICIAL DO MP ATIVO GOVERNADOR VALADARES - COMARCA; GOVERNADOR VALADARES-PJ-09PJ 5.572,67 557,27 0,00 3.064,97 0,00 0,00 9.194,91 869,40 725,56 0,00 1.594,96 7.599,95 1.431,00 1.864,45 30/06/2016
1004 123900 FERNANDO ANTONIO FARIA ABREU ASSESSOR/ANALISTA ATIVO BELO HORIZONTE - COMARCA; PROCURADORIA-GERAL ADJUNTA ADMINISTRATIVA 22.593,62 26.236,62 0,00 15.235,56 0,00 3.351,82 67.417,62 3.351,82 7.510,20 18.359,13 29.221,15 38.196,47 799,00 0,00 30/06/2016
1005 416900 FERNANDO APARECIDO DA SILVA ANALISTA DO MP ATIVO BOM DESPACHO - COMARCA; BOM DESPACHO-PJ-01PJ 9.163,30 4.581,65 0,00 6.872,48 0,00 0,00 20.617,43 1.958,13 2.602,61 0,00 4.560,74 16.056,69 1.432,88 4.256,03 30/06/2016
1006 395900 FERNANDO AUGUSTO ETO LAGES ANALISTA DO MP ATIVO BELO HORIZONTE - COMARCA; CENTRAL DE APOIO TECN-SETOR DE MEIO AMBIENTE 9.461,59 946,16 0,00 5.203,88 0,00 0,00 15.611,63 1.408,85 1.677,94 0,00 3.086,79 12.524,84 799,00 2.399,95 30/06/2016
1007 380500 FERNANDO BONES COSTA OFICIAL DO MP ATIVO BELO HORIZONTE - COMARCA; EXTINTA - DIVISÃO DE MATERIAL PERMANENTE 5.226,73 522,67 0,00 2.289,57 0,00 0,00 8.038,97 769,23 537,81 0,00 1.307,04 6.731,93 799,00 1.243,45 30/06/2016
1008 500100 FERNANDO CEZAR PINTO ASSESSOR/OFICIAL ATIVO BELO HORIZONTE - COMARCA; EXTINTA - DIVISÃO DE MATERIAL PERMANENTE 0,00 532,46 8.874,34 4.703,40 0,00 0,00 14.110,20 752,93 1.492,32 0,00 2.245,25 11.864,95 1.610,18 2.239,75 30/06/2016
1009 346100 FERNANDO EUSTAQUIO CAMPOS UTSCH MOREIRA ANALISTA DO MP ATIVO BELO HORIZONTE - COMARCA; DIRETORIA DE REDES E BANCOS DE DADOS 11.105,40 2.221,08 0,00 6.663,24 0,00 0,00 19.989,72 1.870,69 2.441,54 0,00 4.312,23 15.677,49 1.024,35 3.679,92 30/06/2016
1010 103500 FERNANDO LUIZ DA SILVA JUNIOR COORDENADOR/OFICIAL ATIVO BELO HORIZONTE - COMARCA; DIVISAO DE ATENDIMENTO E CONSULTA JURIDICA 16.063,25 10.250,95 0,00 13.157,10 0,00 0,00 39.471,30 3.174,69 5.638,17 0,00 8.812,86 30.658,44 5.009,27 5.679,99 30/06/2016
1011 287300 FERNANDO MARCIO ALVES MARTINS OFICIAL DO MP ATIVO LEOPOLDINA - COMARCA; LEOPOLDINA-PJ-01PJ 5.754,07 1.150,81 0,00 3.452,44 0,00 0,00 10.357,32 934,69 664,20 0,00 1.598,89 8.758,43 799,00 1.592,15 30/06/2016
1012 262200 FERNANDO MARCIO RESENDE PEREIRA OFICIAL DO MP ATIVO BELO HORIZONTE - COMARCA; BH-12PJ JUIZO CRIMINAL-SECRETARIA 7.200,69 1.440,14 0,00 0,00 0,00 0,00 8.640,83 1.233,65 1.376,67 0,00 2.610,32 6.030,51 799,00 3.608,48 30/06/2016
1013 472900 FERNANDO RODRIGUES DE FREITAS ANALISTA DO MP ATIVO BELO HORIZONTE - COMARCA; BH-15PJ M AMB PAT HIST CULT-ASS TECNICA 7.806,95 780,70 0,00 4.293,83 0,00 0,00 12.881,48 1.154,54 1.180,33 0,00 2.334,87 10.546,61 799,00 1.908,20 30/06/2016
1014 421400 FERNANDO TEODORO MACIEL ANALISTA DO MP ATIVO SANTA VITÓRIA - COMARCA; SANTA VITORIA-PJ-UNPJ 8.594,48 859,45 0,00 4.726,97 0,00 0,00 14.180,90 1.287,53 1.392,35 0,00 2.679,88 11.501,02 2.589,67 2.250,95 30/06/2016
1015 446300 FERNANDO VITOR DE OLIVEIRA ANALISTA DO MP ATIVO MONTES CLAROS - COMARCA; COORD REG BACIA RIOS VERDE GRANDE E PARDO 9.163,30 916,33 0,00 5.039,82 0,00 0,00 15.119,45 1.440,49 1.753,22 0,00 3.193,71 11.925,74 984,94 3.015,89 30/06/2016
1016 639300 FILIPE ALMEIDA RODRIGUES ANALISTA DO MP ATIVO TIMÓTEO - COMARCA; TIMOTEO-04 PJ 4.902,32 0,00 0,00 2.451,16 0,00 0,00 7.353,48 651,40 345,56 0,00 996,96 6.356,52 799,00 1.019,36 30/06/2016
1017 617100 FILLIPE DA SILVA BRAGA ANALISTA DO MP ATIVO DIVINO - COMARCA; DIVINO-PJ-UNPJ 4.902,32 0,00 0,00 2.451,16 0,00 0,00 7.353,48 667,66 345,56 0,00 1.013,22 6.340,26 799,00 1.167,20 30/06/2016
1018 398400 FLAVIA ALVARES GUIMARAES OFICIAL DO MP ATIVO BELO HORIZONTE - COMARCA; CGMP-DIVIS DE APOIO FISC ORIENTACAO FUNCIONAL 6.134,81 613,48 0,00 3.374,15 0,00 0,00 10.122,44 913,46 730,15 0,00 1.643,61 8.478,83 799,00 1.556,05 30/06/2016
1019 398200 FLAVIA ALVES DE ASSUNCAO RODRIGUES ANALISTA DO MP ATIVO DIVINÓPOLIS - COMARCA; COORD REG DO MA DA BACIA DO ALTO SAO FRANC 9.163,30 916,33 0,00 0,00 0,00 0,00 10.079,63 1.435,96 1.753,22 0,00 3.189,18 6.890,45 1.065,73 2.974,63 30/06/2016
1020 318500 FLAVIA BEATRIZ NUNES CRUZ VIEIRA ANALISTA DO MP ATIVO BARBACENA - COMARCA; BARBACENA-PJ-SECRETARIA 11.105,40 2.221,08 0,00 4.786,27 0,00 0,00 18.112,75 1.803,96 2.288,02 0,00 4.091,98 14.020,77 4.102,69 3.570,99 30/06/2016
1021 496500 FLAVIA CARAM BORLIDO ANALISTA DO MP ATIVO BELO HORIZONTE - COMARCA; EXTINTA - DIVISAO DE SERVICOS GERAIS 7.560,72 453,64 0,00 3.020,31 0,00 0,00 11.034,67 1.075,18 1.092,15 0,00 2.167,33 8.867,34 799,00 1.877,33 30/06/2016
1022 534800 FLAVIA CONDE SOARES ANALISTA DO MP ATIVO BELO HORIZONTE - COMARCA; BH-13PJ JUÍZO DE TÓXICOS-ASSESSORIA JURIDICA 6.334,59 380,08 0,00 3.357,34 0,00 0,00 10.072,01 899,26 774,06 0,00 1.673,32 8.398,69 799,00 1.460,65 30/06/2016
1023 219500 FLAVIA CRISTINA ANCELMO OFICIAL DO MP ATIVO BELO HORIZONTE - COMARCA; BH-17PJ PATRIMONIO PUBLICO-SECRETARIA 7.560,72 2.268,22 0,00 3.605,74 0,00 0,00 13.434,68 1.300,38 1.536,27 0,00 2.836,65 10.598,03 799,00 1.992,50 30/06/2016
1024 329600 FLAVIA CRISTINA DE MATOS XAVIER ANALISTA DO MP ATIVO UBERABA - COMARCA; UBERABA-PJ-15PJ 11.105,40 3.331,62 0,00 7.218,51 0,00 0,00 21.655,53 1.926,12 2.559,83 0,00 4.485,95 17.169,58 1.186,07 3.072,95 30/06/2016
1025 207600 FLAVIA DE ANDRADE MANCINI ANALISTA DO MP ATIVO BELO HORIZONTE - COMARCA; ASSESSORIA JURIDICO-ADMINISTRATIVA 14.297,05 4.289,12 0,00 9.293,09 0,00 0,00 27.879,26 2.512,73 3.523,19 0,00 6.035,92 21.843,34 1.624,73 4.256,70 30/06/2016
1026 402801 FLAVIA MARIA DE RESENDE NASCIMENTO ANALISTA DO MP ATIVO SÃO JOÃO DEL REI - COMARCA; SAO JOAO DEL REI-PJ-04PJ 7.560,72 453,64 0,00 4.007,18 0,00 0,00 12.021,54 1.075,18 1.092,15 0,00 2.167,33 9.854,21 1.559,94 1.760,00 30/06/2016
1027 437500 FLAVIA MARIA TORRES MARCHETTI ANALISTA DO MP ATIVO BELO HORIZONTE - COMARCA; BH-18PJ VIOLENCIA DOMESTICA 8.594,48 859,45 0,00 4.726,97 0,00 0,00 14.180,90 1.264,83 1.340,22 0,00 2.605,05 11.575,85 2.063,00 2.642,05 30/06/2016
1028 386000 FLAVIA NEVES BRIGIDO OFICIAL DO MP ATIVO BELO HORIZONTE - COMARCA; PROMOT ESTADUAL DE DEF PATRI CULT E TUR DE MG 6.134,81 613,48 0,00 3.374,15 0,00 0,00 10.122,44 897,81 782,28 0,00 1.680,09 8.442,35 799,00 1.413,50 30/06/2016
1029 488600 FLAVIA PEREIRA COSTA ANALISTA DO MP ATIVO BELO HORIZONTE - COMARCA; CENTRAL DE APOIO TECNICO 7.560,72 453,64 0,00 4.007,18 0,00 0,00 12.021,54 1.088,22 1.092,15 0,00 2.180,37 9.841,17 1.431,00 1.878,56 30/06/2016
1030 365400 FLAVIA PEREIRA DA SILVA OFICIAL DO MP ATIVO BELO HORIZONTE - COMARCA; BH-15PJ M AMB 16PJ HAB URB-SECRETARIA 6.973,61 697,36 0,00 3.835,49 0,00 0,00 11.506,46 1.026,31 1.008,11 0,00 2.034,42 9.472,04 799,00 1.659,05 30/06/2016
1031 515400 FLAVIA RODRIGUES DE OLIVEIRA E SILVA PAIVA ANALISTA DO MP ATIVO CARATINGA - COMARCA; CARATINGA-PJ-05PJ 7.560,72 453,64 0,00 3.124,58 0,00 0,00 11.138,94 1.075,18 883,61 0,00 1.958,79 9.180,15 799,00 1.760,00 30/06/2016
1032 621600 FLAVIA SARMENTO RODRIGUES ANALISTA DO MP ATIVO BELO HORIZONTE - COMARCA; AUDITORIA INTERNA 5.061,97 0,00 0,00 2.063,81 1.687,32 0,00 8.813,10 685,22 833,57 0,00 1.518,79 7.294,31 1.431,00 1.245,01 30/06/2016
1033 535800 FLAVIA SILVA VALADAO OFICIAL DO MP ATIVO TRÊS CORACOES - COMARCA; TRES CORACOES-PJ-04PJ 3.735,01 224,10 0,00 1.979,56 0,00 0,00 5.938,67 530,25 145,30 0,00 675,55 5.263,12 1.431,00 861,25 30/06/2016
1034 515300 FLAVIA VIEIRA OLIVEIRA GOMES ANALISTA DO MP ATIVO BELO HORIZONTE - COMARCA; CAO-CRIMINAL-SECRETARIA 7.560,72 453,64 0,00 4.007,18 0,00 0,00 12.021,54 1.075,18 1.092,15 0,00 2.167,33 9.854,21 799,00 1.877,33 30/06/2016
1035 377500 FLAVIANA GONCALVES DE OLIVEIRA ANALISTA DO MP ATIVO IPATINGA - COMARCA; IPATINGA-PJ-02PJ 9.461,59 946,16 0,00 5.203,88 0,00 0,00 15.611,63 1.408,85 1.677,94 0,00 3.086,79 12.524,84 799,00 2.399,95 30/06/2016
1036 273100 FLAVIANE DOS SANTOS CASTRO OFICIAL DO MP ATIVO CAXAMBU - COMARCA; CAXAMBU-PJ-SECRETARIA 7.806,95 1.561,39 0,00 3.509,27 0,00 0,00 12.877,61 1.336,82 1.463,90 0,00 2.800,72 10.076,89 799,00 2.928,76 30/06/2016
1037 310600 FLAVIANE NAVES ALCANTARA ASSESSOR/OFICIAL ATIVO BELO HORIZONTE - COMARCA; COMB CRIMES PRAT POR AG POL MUN-SECRETARIA 0,00 1.774,87 8.874,34 5.324,61 0,00 0,00 15.973,82 1.192,84 1.793,37 0,00 2.986,21 12.987,61 1.431,00 2.704,59 30/06/2016
1038 378201 FLAVIANE RIBEIRO BORGES OFICIAL DO MP ATIVO SÃO GONÇALO DO SAPUCAÍ - COMARCA; SAO GONCALO DO SAPUCAI-PJ-02PJ 4.245,74 424,57 0,00 2.335,16 0,00 0,00 7.005,47 513,73 299,10 0,00 812,83 6.192,64 799,00 0,00 30/06/2016
1039 455800 FLAVIO ANTONIO RIBEIRO OFICIAL DO MP ATIVO BELO HORIZONTE - COMARCA; GRUPO ESP PROM PROC JUST DEF PROB ADM PAT PUB 4.245,74 424,57 0,00 0,00 0,00 0,00 4.670,31 627,88 299,10 0,00 926,98 3.743,33 799,00 1.037,75 30/06/2016
1040 458200 FLAVIO AUGUSTO BRAGA SOARES ANALISTA DO MP ATIVO BELO HORIZONTE - COMARCA; DIVISAO DE MANUTENCAO PREDIAL 8.874,34 887,43 0,00 4.880,89 0,00 0,00 14.642,66 2.316,94 3.351,68 0,00 5.668,62 8.974,04 1.503,48 12.931,41 30/06/2016
1041 516500 FLAVIO AUGUSTO RODRIGUES CORREA ANALISTA DO MP ATIVO BELO HORIZONTE - COMARCA; COORD REG BACIAS RIO VELHAS E PARAOPEBA 7.560,72 453,64 0,00 0,00 0,00 0,00 8.014,36 1.057,43 1.092,15 0,00 2.149,58 5.864,78 799,00 1.598,75 30/06/2016
1042 84300 FLAVIO DE FARIA BELTRAO OFICIAL DO MP ATIVO BELO HORIZONTE - COMARCA; DIRETORIA DE ADMINISTRACAO FINANCEIRA 20.277,14 14.194,00 0,00 0,00 0,00 0,00 34.471,14 3.351,82 6.536,31 4.000,03 13.888,16 20.582,98 799,00 0,00 30/06/2016
1043 266600 FLAVIO GUIMARAES LANA ANALISTA DO MP ATIVO BELO HORIZONTE - COMARCA; CENTRAL DE APOIO TECN-SETOR DE MEIO AMBIENTE 10.416,20 2.083,24 0,00 6.249,72 0,00 0,00 18.749,16 1.778,71 2.382,83 0,00 4.161,54 14.587,62 799,00 3.670,55 30/06/2016
1044 552600 FLAVIO HENRIQUE EVARISTO GOMES ASSESSOR/ANALISTA ATIVO BELO HORIZONTE - COMARCA; DIRETORIA DE SUPORTE E MANUTENCAO 0,00 532,46 8.874,34 4.703,40 0,00 0,00 14.110,20 948,80 1.499,96 0,00 2.448,76 11.661,44 1.153,98 2.112,95 30/06/2016
1045 640000 FLAVIO HENRIQUE PEREIRA VELOSO OFICIAL DO MP ATIVO BELO HORIZONTE - COMARCA; PROCON-MG-SECRETARIA DE FISCALIZACOES 3.182,15 1.233,56 0,00 2.207,86 0,00 0,00 6.623,57 407,27 278,65 0,00 685,92 5.937,65 799,00 520,25 30/06/2016
1046 241500 FLAVIO HENRIQUE SILVA MARTINS LAGE OFICIAL DO MP ATIVO BELO HORIZONTE - COMARCA; CAO-CRIANCAS E ADOLESCENTES-SECRETARIA 8.061,11 2.418,33 0,00 5.239,72 0,00 0,00 15.719,16 1.614,18 2.165,62 0,00 3.779,80 11.939,36 944,99 4.208,24 30/06/2016
1047 86700 FLAVIO LUCAS TOMAZ AGENTE DO MP ATIVO BELO HORIZONTE - COMARCA; BH-06PJ JUIZO CIVEL-SECRETARIA 6.134,81 4.294,36 0,00 5.214,59 0,00 0,00 15.643,76 1.380,61 1.124,20 0,00 2.504,81 13.138,95 799,00 2.121,90 30/06/2016
1048 407200 FLAVIO LUCIO MONTEIRO PENA ANALISTA DO MP ATIVO BELO HORIZONTE - COMARCA; DIRETORIA DE IMPRENSA 8.061,11 806,11 0,00 4.433,61 0,00 0,00 13.300,83 1.200,29 1.300,89 0,00 2.501,18 10.799,65 799,00 2.044,70 30/06/2016
1049 451700 FLAVIO MAGALHAES PEREIRA ANALISTA DO MP ATIVO BELO HORIZONTE - COMARCA; BH-12PJ JUIZO CRIMINAL-GAB 098PJ 8.594,48 859,45 0,00 4.726,97 0,00 0,00 14.180,90 1.459,22 1.868,53 0,00 3.327,75 10.853,15 983,20 3.811,86 30/06/2016
1050 481500 FLAVIO NEVES GUELBER DE MACEDO OFICIAL DO MP ATIVO SÃO JOÃO NEPOMUCENO - COMARCA; SAO JOAO NEPOMUCENO-PJ-02PJ 4.598,03 459,80 0,00 2.528,92 0,00 0,00 7.586,75 680,01 376,70 0,00 1.056,71 6.530,04 799,00 1.194,53 30/06/2016
1051 547500 FRANCELINO MOREIRA DA SILVA ANALISTA DO MP ATIVO BELO HORIZONTE - COMARCA; BH-10PJ EXECUÇÃO PENAL-SECRETARIA 5.754,07 345,24 0,00 3.049,66 0,00 0,00 9.148,97 861,86 717,57 0,00 1.579,43 7.569,54 2.063,00 1.819,61 30/06/2016
1052 278100 FRANCIANE MARY DE SOUZA DOMENICI DE BRITO E CASTRO ANALISTA DO MP ATIVO BELO HORIZONTE - COMARCA; BH-12PJ JUIZO CRIMINAL-GAB 083PJ 12.225,81 2.445,16 0,00 7.335,49 0,00 0,00 22.006,46 1.985,91 2.669,22 0,00 4.655,13 17.351,33 799,00 3.383,00 30/06/2016
1053 646500 FRANCIELLE CAROLINE PEREIRA DOS SANTOS ASSESSOR ATIVO BELO HORIZONTE - COMARCA; CENT DE ATENDIMENTO E ORIENTACAO DE PESSOAL 0,00 0,00 2.625,65 218,80 0,00 0,00 2.844,45 541,82 350,22 0,00 892,04 1.952,41 2.068,05 1.137,78 30/06/2016
1054 192501 FRANCIELLE REIS DE OLIVEIRA ANALISTA DO MP ATIVO PASSOS - COMARCA; PASSOS-PJ-04PJ 12.225,81 2.445,16 0,00 7.335,49 0,00 0,00 22.006,46 1.962,81 2.564,95 0,00 4.527,76 17.478,70 991,40 3.173,00 30/06/2016
1055 645100 FRANCIELY CRISTINA COSTA TARQUINIO RIBEIRO ASSESSOR ATIVO BELO HORIZONTE - COMARCA; COORD DE GABINETE DO PGJ 0,00 0,00 2.625,65 0,00 0,00 0,00 2.625,65 376,71 102,39 0,00 479,10 2.146,55 799,00 0,00 30/06/2016
1056 523600 FRANCINE MOURA LIMIRIO OFICIAL DO MP ATIVO UBERABA - COMARCA; UBERABA-PJ-02PJ 4.902,32 294,14 0,00 0,00 0,00 0,00 5.196,46 695,26 404,46 0,00 1.099,72 4.096,74 799,00 1.198,77 30/06/2016
1057 467200 FRANCINI RENNO ANALISTA DO MP ATIVO CASSIA - COMARCA; CASSIA-PJ-02PJ 7.806,95 780,70 0,00 4.293,83 0,00 0,00 12.881,48 1.154,54 1.232,47 0,00 2.387,01 10.494,47 799,00 1.908,20 30/06/2016
1058 189300 FRANCIS BERNARDO DO NASCIMENTO OFICIAL DO MP ATIVO VARGINHA - COMARCA; VARGINHA-PJ-05PJ 10.755,28 3.226,58 0,00 6.990,93 0,00 0,00 20.972,79 1.892,65 2.448,43 0,00 4.341,08 16.631,71 2.063,00 3.224,05 30/06/2016
1059 207800 FRANCISCO CAMPOS PIRES DE MORAIS ANALISTA DO MP ATIVO BELO HORIZONTE - COMARCA; CENTRAL DE APOIO TECN-SETOR DE MEIO AMBIENTE 16.063,25 4.818,98 0,00 10.441,12 0,00 0,00 31.323,35 2.823,15 4.137,29 0,00 6.960,44 24.362,91 1.743,32 4.782,55 30/06/2016
1060 607700 FRANCISCO EDUARDO DE CASTRO ANALISTA DO MP ATIVO BELO HORIZONTE - COMARCA; DIR ANALISES TECNOLOGIA INTELIGENCIA 6.134,81 0,00 0,00 3.067,41 2.044,94 0,00 11.247,16 807,43 1.194,49 0,00 2.001,92 9.245,24 799,00 1.407,60 30/06/2016
1061 204600 FRANCISCO FERREIRA NOVAIS OFICIAL DO MP ATIVO IPATINGA - COMARCA; IPATINGA-PJ-08PJ 9.163,30 3.665,32 0,00 6.414,31 0,00 0,00 19.242,93 1.811,23 2.364,19 0,00 4.175,42 15.067,51 935,79 3.637,24 30/06/2016
1062 60500 FRANCISCO OLIMPIO TEIXEIRA AGENTE DO MP ATIVO BELO HORIZONTE - COMARCA; EXTINTA - DIVISAO DE TRANSPORTES 5.226,73 4.704,05 0,00 4.965,39 0,00 1.279,67 16.175,84 1.602,09 2.262,07 0,00 3.864,16 12.311,68 815,36 5.278,56 30/06/2016
1063 411600 FRANCISCO PAIVA BRITO ANALISTA DO MP ATIVO BELO HORIZONTE - COMARCA; TRIBUNAL DO JURI-07 PJ-02 TRIBUNAL 8.061,11 806,11 0,00 4.433,61 0,00 0,00 13.300,83 1.200,29 1.300,89 0,00 2.501,18 10.799,65 799,00 2.181,01 30/06/2016
1064 515800 FRANCISCO RAFAEL DA SILVA NETO ANALISTA DO MP ATIVO SACRAMENTO - COMARCA; SACRAMENTO-PJ-01PJ 6.334,59 380,08 0,00 3.357,34 2.238,22 0,00 12.310,23 898,36 1.233,16 0,00 2.131,52 10.178,71 799,00 1.549,01 30/06/2016
1065 515200 FRANCISLEI ELIAS GONCALVES OFICIAL DO MP ATIVO PASSOS - COMARCA; PASSOS-PJ-07PJ 4.453,07 890,61 0,00 2.671,84 0,00 0,00 8.015,52 705,15 305,97 0,00 1.011,12 7.004,40 799,00 1.067,15 30/06/2016
1066 443600 FRANCISLEI MARTINS DE SOUSA ANALISTA DO MP ATIVO TIMÓTEO - COMARCA; TIMOTEO-PJ-01PJ 8.594,48 859,45 0,00 4.726,97 0,00 0,00 14.180,90 1.264,83 1.444,49 0,00 2.709,32 11.471,58 1.431,00 2.044,70 30/06/2016
1067 424500 FREDERICO AUGUSTO COBRA MULLER ANALISTA DO MP ATIVO POUSO ALEGRE - COMARCA; POUSO ALEGRE-PJ-02PJ 8.594,48 859,45 0,00 3.484,75 0,00 0,00 12.938,68 1.287,53 1.444,49 0,00 2.732,02 10.206,66 799,00 2.250,95 30/06/2016
1068 473100 FREDERICO AUGUSTO LIMA FELICIO ANALISTA DO MP ATIVO CONCEIÇÃO DO MATO DENTRO - COMARCA; CONCEICAO DO MATO DENTRO-PJ-UNPJ 7.806,95 780,70 0,00 4.293,83 0,00 0,00 12.881,48 1.154,54 1.232,47 0,00 2.387,01 10.494,47 799,00 1.908,20 30/06/2016
1069 318100 FREDERICO BIANCHINI JOVIANO DOS SANTOS ASSESSOR/OFICIAL ATIVO BELO HORIZONTE - COMARCA; PROMOT ESTADUAL DE DEF PATRI CULT E TUR DE MG 0,00 1.774,87 8.874,34 4.044,92 0,00 0,00 14.694,13 854,23 1.869,44 0,00 2.723,67 11.970,46 1.431,00 2.535,55 30/06/2016
1070 124200 FREDERICO DE SOUZA ROCHA OFICIAL DO MP ATIVO ESPINOSA - COMARCA; ESPINOSA-PJ-SECRETARIA 11.840,34 9.472,27 0,00 10.656,31 0,00 0,00 31.968,92 2.885,04 4.242,63 0,00 7.127,67 24.841,25 1.316,15 4.914,50 30/06/2016
1071 177100 FREDERICO FERNANDES DE ANDRADE OFICIAL DO MP ATIVO BELO HORIZONTE - COMARCA; SUPERINTENDENCIA DE TECNOLOGIA DA INFORMACAO 9.461,59 2.838,48 0,00